GFSSGP_sfc_wetblb_000.txt.gz
Wetbulb
67.36 63.71 59.34 56.00 48.62 46.81 43.49 47.01 49.30 50.26 49.75 49.90 50.49 49.31 48.61 49.39 52.82 46.69 58.48 63.66 61.23 61.93 66.14 72.78 74.53 74.05 73.43 73.35 73.01 72.71 72.07 71.32 70.49 69.94 68.88 68.09 68.03 67.80 67.86 68.05 67.96 67.96 67.93 68.01 67.66 67.68 67.31 67.09 66.91
65.28 62.44 58.17 55.41 46.07 42.00 43.93 49.60 49.89 51.23 52.50 49.26 49.37 49.12 49.07 49.40 56.94 58.42 60.53 63.84 61.53 63.80 66.86 71.66 74.52 74.35 73.95 73.68 73.31 72.99 72.66 71.89 70.97 70.19 69.61 68.75 69.16 68.59 68.61 68.74 68.77 68.79 69.18 69.24 68.89 68.78 68.24 67.68 67.46
61.26 59.23 55.31 52.18 46.93 43.60 44.32 50.14 50.79 53.38 54.43 51.65 48.72 51.24 51.56 52.36 57.77 58.77 62.10 64.47 63.77 64.48 68.53 70.90 74.72 74.30 74.18 73.81 73.56 73.13 72.86 72.14 71.52 70.18 69.67 69.82 70.16 70.55 70.66 69.49 69.13 69.10 69.49 70.15 69.81 69.58 69.17 68.55 68.19
58.51 58.49 55.26 48.23 46.06 48.84 49.09 52.44 53.48 50.98 51.53 49.88 50.03 50.15 53.41 56.62 58.29 60.28 63.96 64.28 64.36 65.45 68.76 71.52 74.57 74.19 74.20 73.98 73.71 73.38 72.78 72.47 71.90 70.67 70.32 70.95 70.43 70.54 70.20 69.57 69.63 69.52 69.85 69.14 68.92 69.58 69.93 69.53 69.04
58.65 54.98 48.60 44.29 47.36 50.14 52.14 53.25 51.51 49.36 47.23 48.10 50.16 50.05 51.31 56.11 60.31 63.30 63.87 64.42 63.71 65.39 67.43 70.44 74.35 74.17 74.18 74.13 73.88 73.47 73.15 72.83 72.46 71.47 70.79 70.95 70.49 70.20 69.81 69.75 69.55 69.41 69.35 69.02 68.77 69.10 70.18 69.84 69.43
53.05 50.72 42.87 41.67 45.56 49.61 50.23 52.31 50.60 48.95 48.88 48.95 49.78 50.24 51.62 56.23 59.99 63.68 63.50 62.77 63.53 64.63 66.16 69.45 74.13 74.12 73.85 73.85 73.85 73.49 73.06 72.62 72.43 72.09 71.58 70.84 70.22 70.03 69.37 69.32 69.09 69.08 68.82 68.39 68.17 69.36 69.66 70.02 69.39
50.56 46.35 42.76 43.66 45.73 47.70 50.26 51.33 48.88 48.17 48.84 50.16 50.32 49.10 51.03 54.15 58.59 64.49 63.49 62.03 62.87 64.30 66.21 69.11 71.87 73.40 74.12 73.72 73.42 73.06 72.69 72.68 72.79 71.83 70.60 69.56 68.81 67.48 66.97 66.95 67.47 67.83 67.90 67.76 67.81 67.88 68.90 69.29 69.02
52.92 47.81 43.00 44.79 43.97 45.36 50.59 49.31 49.43 49.36 51.49 53.20 54.90 49.41 49.24 54.20 58.24 60.33 61.92 61.80 62.73 64.29 65.70 68.21 70.55 71.04 70.59 71.57 73.54 73.16 73.04 72.29 71.18 69.86 68.79 66.56 66.27 66.11 65.90 66.10 65.87 66.31 66.74 66.95 67.07 67.36 67.58 68.56 68.86
52.88 44.75 42.07 43.92 44.55 46.76 48.67 48.03 51.14 53.58 51.01 50.88 53.55 52.94 55.14 56.80 56.24 57.84 59.21 60.15 61.37 64.42 65.10 66.73 68.13 68.22 68.37 69.23 71.28 73.05 71.28 70.17 69.47 67.62 66.57 67.04 63.57 62.75 63.80 64.24 64.75 65.11 66.00 66.39 66.53 66.57 67.59 67.83 67.32
49.55 44.29 45.21 49.87 49.59 48.41 48.95 49.54 51.74 50.73 52.04 49.65 51.09 53.64 55.71 55.74 55.09 56.44 56.93 58.79 58.91 61.47 62.89 65.04 65.49 65.83 66.23 67.86 66.85 66.96 66.04 64.93 63.21 63.74 63.18 62.76 62.11 61.80 62.87 63.86 64.87 65.66 66.36 66.55 66.94 67.11 67.06 66.72 64.80
49.35 47.39 51.24 51.78 52.50 50.99 50.92 51.24 52.49 51.15 50.89 53.33 50.81 52.93 53.38 53.73 53.49 54.50 56.12 58.86 60.05 61.24 62.80 62.98 63.85 63.65 63.96 64.50 63.25 63.19 61.89 61.95 61.88 62.49 62.35 61.19 60.86 60.35 61.67 61.95 62.15 61.76 63.68 63.87 64.16 64.05 64.80 64.97 64.20
46.11 50.66 52.56 52.83 53.22 51.34 50.60 52.08 52.58 52.97 52.95 55.84 54.86 54.01 53.94 53.03 52.31 53.75 54.79 57.21 56.02 55.24 59.41 60.69 62.02 62.30 62.01 62.09 61.72 61.68 60.74 60.31 60.09 60.61 61.63 60.28 59.68 59.86 60.19 60.07 60.69 61.10 61.80 62.06 62.49 62.73 63.34 63.71 63.61
47.37 50.32 52.12 52.57 51.67 52.33 52.58 51.24 52.17 52.99 56.10 56.29 54.67 52.39 52.30 53.12 53.93 54.97 56.00 56.26 54.05 52.62 54.18 58.09 59.79 60.62 60.25 59.98 59.98 60.35 59.91 60.23 59.83 59.60 60.06 60.04 59.57 59.71 60.27 60.20 60.54 61.42 62.38 61.78 62.17 61.98 62.10 62.51 62.61
49.77 50.68 51.40 51.86 52.45 53.35 51.52 52.08 53.20 54.94 57.05 54.69 53.78 52.33 51.77 53.06 53.85 53.43 52.06 53.31 51.78 52.57 53.46 56.47 58.52 59.03 59.01 58.84 58.86 59.66 59.58 59.97 59.80 59.68 59.90 60.67 60.20 60.07 59.93 59.94 60.79 61.27 60.88 60.60 60.96 61.06 61.45 61.52 62.20
46.83 44.09 46.15 47.76 49.49 49.26 51.75 48.10 49.75 54.68 53.80 51.42 51.66 51.85 51.23 52.94 53.85 53.25 54.50 54.85 54.45 51.82 54.06 56.85 57.82 58.38 58.95 58.84 59.15 59.26 59.76 59.89 59.49 60.19 60.63 61.18 61.06 60.87 60.51 60.38 61.08 60.03 60.15 60.11 59.93 60.24 60.84 60.81 60.91
41.68 41.59 37.58 45.14 47.93 48.95 49.02 43.18 50.42 53.46 51.43 51.23 51.40 51.77 51.09 51.28 53.56 54.85 55.07 54.69 51.77 52.73 54.91 56.58 59.52 58.93 58.95 58.60 58.58 59.21 59.28 59.39 59.51 60.27 60.95 61.55 61.86 60.89 60.17 60.30 60.06 59.98 59.85 59.68 59.09 59.30 59.28 59.89 60.00
38.14 36.60 37.76 40.80 46.67 46.37 47.25 44.03 49.91 50.48 49.86 49.51 50.28 50.43 51.10 50.76 51.05 53.29 53.46 51.88 52.85 54.02 55.42 56.88 58.55 58.63 58.74 57.91 57.96 58.19 59.46 59.73 60.16 60.52 60.55 60.95 61.71 61.76 60.23 59.79 59.56 59.57 59.13 58.81 58.54 58.10 58.97 58.66 59.00
34.78 35.18 38.19 39.27 43.94 45.25 43.35 43.84 48.40 50.57 49.84 49.23 49.43 49.78 49.83 50.01 51.08 52.34 52.16 52.16 53.56 55.17 56.64 57.82 58.13 58.47 58.16 57.55 57.65 58.38 58.50 59.35 60.03 60.82 60.99 61.47 61.39 62.12 60.82 59.55 58.78 59.04 58.43 57.85 57.36 57.44 58.56 58.87 59.09
40.07 38.67 37.54 39.85 44.92 44.25 42.48 43.11 45.97 49.16 47.95 47.49 49.23 50.33 50.24 50.32 50.88 50.95 51.98 52.03 54.25 55.72 56.56 57.17 57.12 57.34 56.93 56.98 56.58 57.00 57.57 58.21 59.33 60.68 61.82 61.97 62.11 61.38 59.74 58.90 58.72 58.75 58.09 57.72 57.26 57.52 57.53 57.88 58.80
40.40 37.81 37.39 41.64 45.75 44.66 43.16 42.97 46.07 47.78 48.21 48.16 49.81 50.32 50.42 48.53 50.22 51.14 50.58 52.09 54.47 55.70 56.60 56.45 57.04 56.84 57.18 56.43 57.41 57.91 57.89 58.52 59.38 60.35 61.71 62.47 62.22 61.21 59.65 58.66 58.92 58.46 57.73 57.12 56.92 57.38 56.78 57.36 58.38
39.43 38.27 38.81 38.56 44.67 45.04 42.42 40.85 43.47 47.46 48.05 48.53 49.10 49.61 49.16 48.86 49.78 50.53 50.19 51.42 54.27 55.44 56.30 56.70 56.67 57.19 57.35 57.18 57.91 57.76 57.58 58.00 58.02 58.68 59.59 60.08 60.55 61.27 60.65 59.70 59.12 58.34 57.51 56.48 56.40 57.26 57.65 56.64 57.24
37.54 43.49 42.53 41.90 41.21 34.63 41.99 31.51 40.29 43.57 46.31 46.91 47.92 47.33 48.55 49.15 50.12 50.36 50.09 51.81 54.26 55.40 56.79 56.49 56.63 56.99 57.65 57.98 57.19 56.80 56.26 56.00 56.70 57.62 58.47 59.16 60.68 60.88 60.29 59.96 59.11 58.12 57.73 56.84 57.18 58.02 58.65 58.71 57.26
40.95 45.93 43.16 43.47 39.36 35.33 37.87 33.69 38.88 41.83 42.52 45.64 46.96 48.04 47.74 47.47 50.04 49.94 50.57 53.26 55.21 55.97 56.37 56.47 56.75 57.13 57.54 58.35 57.96 57.47 56.28 56.40 57.30 57.32 57.76 58.42 59.45 60.82 60.12 59.23 58.57 58.06 57.85 57.54 57.48 58.04 58.15 58.66 58.37
45.43 41.88 40.66 38.99 35.87 31.15 37.35 35.81 35.25 39.65 43.80 44.97 46.59 47.72 48.73 48.10 50.17 50.24 51.78 54.45 53.94 55.09 55.90 56.33 56.62 56.38 57.38 57.83 58.06 57.81 56.46 56.58 55.86 56.28 56.22 56.58 57.37 59.16 59.07 58.75 58.54 58.04 58.17 58.13 58.15 58.53 58.45 58.68 59.24
41.65 35.99 27.85 25.37 25.60 28.59 38.77 35.21 38.89 43.18 45.50 46.64 47.62 47.70 47.90 49.05 50.00 50.63 51.94 52.67 52.95 54.06 55.37 55.77 55.77 55.97 56.86 57.69 58.24 57.30 57.39 56.67 56.02 56.14 55.92 55.50 55.80 57.38 57.54 57.74 57.64 58.32 58.85 59.24 59.03 59.15 59.08 58.97 59.98
40.25 37.97 29.16 24.17 26.34 32.35 37.98 33.88 39.89 45.93 48.23 48.13 48.67 47.53 48.31 49.47 50.25 51.07 52.42 52.64 53.45 53.94 55.09 55.13 54.82 55.53 56.71 57.68 57.87 57.45 57.79 56.32 55.69 56.14 56.28 55.42 55.54 56.30 57.34 58.05 58.59 59.40 60.11 59.88 59.86 60.10 59.66 59.67 60.76
39.45 34.49 40.42 33.88 35.79 30.90 33.69 39.29 44.63 45.87 46.66 47.12 46.60 47.38 47.40 48.92 49.92 50.82 52.09 52.25 53.11 53.66 54.57 54.87 54.31 55.10 55.85 56.84 57.47 57.43 58.08 56.38 56.50 56.64 56.40 55.94 55.92 57.29 57.81 58.50 58.82 59.59 59.83 60.19 60.19 60.61 60.86 61.08 60.83
39.19 41.80 33.61 34.21 25.91 25.25 33.02 35.17 37.53 41.75 43.71 46.10 46.37 45.70 46.87 49.05 50.20 51.24 51.71 52.00 52.97 53.88 54.39 54.80 54.58 54.52 55.04 56.32 57.02 58.23 58.62 57.49 56.95 57.14 56.68 56.36 56.74 57.70 58.02 58.51 58.99 59.44 60.11 60.55 60.49 61.25 62.26 61.94 60.76
35.99 35.41 34.62 36.71 32.39 28.51 27.20 33.29 41.51 44.00 45.16 45.84 46.30 46.19 47.14 49.79 50.83 51.77 51.36 52.10 52.75 53.45 53.69 53.94 54.52 54.51 54.65 56.47 56.05 59.41 59.05 57.99 56.71 57.47 57.11 56.89 56.79 57.24 58.15 58.85 59.27 59.39 59.75 60.06 61.30 61.48 61.72 61.42 61.55
41.77 39.02 37.05 34.02 30.22 34.19 33.01 34.00 44.26 44.82 44.30 45.18 46.43 47.28 48.00 49.99 51.28 51.98 51.94 51.09 51.70 52.39 52.60 52.98 54.19 54.28 54.51 56.31 56.44 58.90 59.63 58.32 57.20 57.47 57.09 57.32 57.12 57.77 58.42 59.56 59.61 59.72 59.64 60.13 60.45 60.93 61.66 61.46 61.11

GFSSGP_sfc_wetblb_003.txt.gz
Wetbulb
67.85 65.94 62.36 60.24 52.14 53.73 49.61 52.67 55.48 55.90 56.09 55.82 55.54 55.04 54.92 56.57 57.55 53.16 66.24 68.43 68.11 64.76 68.46 73.74 74.91 74.57 73.82 73.52 73.12 72.67 72.23 71.63 70.70 69.78 69.14 68.71 68.38 68.01 67.95 68.24 68.33 68.36 68.46 68.68 68.69 68.46 68.18 67.60 67.46
66.15 62.61 63.05 60.12 51.86 48.31 52.84 55.99 55.73 57.35 59.08 59.56 55.64 54.91 54.32 54.53 59.29 62.81 66.39 68.80 68.08 65.95 70.47 71.69 74.94 74.57 74.34 73.82 73.60 73.17 72.80 72.13 71.61 70.75 69.95 69.33 69.42 68.92 68.87 69.13 69.42 69.29 69.20 68.93 70.09 70.05 69.61 68.89 68.19
63.58 61.83 60.92 58.16 54.49 51.46 53.14 56.01 57.21 59.22 59.00 55.98 55.75 55.39 55.59 56.72 61.53 63.83 68.18 68.72 66.73 66.86 70.73 72.85 74.96 74.89 74.57 74.17 74.07 73.74 73.29 72.83 72.16 71.20 70.62 70.64 70.70 70.61 70.49 70.50 69.94 69.78 69.60 69.32 70.37 70.67 70.19 69.83 69.31
60.95 62.85 61.36 53.94 52.44 55.17 55.47 57.89 59.65 58.53 56.49 55.65 54.81 54.43 58.02 60.67 62.27 64.91 68.98 67.72 66.78 67.14 70.52 72.27 74.94 74.73 74.66 74.39 74.42 74.01 73.76 73.39 72.83 71.71 71.55 71.16 71.58 71.39 70.78 70.45 70.20 70.36 70.10 69.96 70.27 69.68 70.67 70.16 70.02
64.65 62.74 53.16 52.27 52.59 55.35 58.19 60.05 59.53 57.02 55.91 54.29 54.81 54.10 56.72 60.35 63.52 66.00 68.76 67.94 66.59 67.05 70.74 71.79 74.81 74.85 74.83 74.64 74.44 74.16 73.68 73.29 72.95 72.33 71.83 71.83 72.16 71.10 70.66 70.48 70.12 70.02 70.21 70.10 69.89 70.58 70.71 70.66 70.16
58.35 59.74 51.39 47.95 50.45 54.14 56.79 58.53 57.24 56.11 55.60 55.77 54.51 54.64 57.29 61.25 63.37 66.89 68.77 68.68 68.16 67.83 69.80 72.08 74.56 74.84 74.60 74.59 74.26 73.81 73.65 73.48 73.36 72.94 72.60 72.36 71.94 70.85 70.46 70.24 70.07 69.87 69.79 69.73 69.59 69.75 70.16 69.91 70.21
56.20 55.26 49.36 49.52 49.22 51.26 54.21 58.20 55.86 55.70 55.34 56.07 56.69 54.20 58.42 60.11 63.41 66.97 68.33 69.28 68.59 69.27 69.68 71.75 73.16 74.55 74.58 74.15 73.83 73.68 73.54 73.21 73.19 72.82 72.43 71.76 70.51 69.63 68.06 67.69 67.96 68.16 68.65 68.87 68.87 68.63 69.20 69.45 69.01
58.05 56.21 49.86 50.71 48.81 49.87 54.52 55.22 55.37 55.55 55.77 57.85 57.49 54.56 56.39 61.13 62.99 67.42 68.04 67.93 67.45 68.97 69.77 70.92 72.42 73.07 73.06 73.13 74.12 73.84 73.58 73.15 72.90 72.86 71.41 70.06 67.34 66.54 66.43 67.12 66.59 66.79 67.12 67.48 67.84 68.01 68.18 68.77 68.60
57.82 51.89 48.59 49.37 49.53 51.86 55.00 54.49 56.13 57.69 57.20 56.99 57.17 58.54 60.33 61.18 63.27 65.90 66.51 66.22 66.60 67.12 69.10 70.21 71.34 72.50 72.51 72.06 72.70 73.68 72.84 72.41 72.15 70.63 69.67 68.01 67.66 67.09 66.10 65.23 65.63 65.27 65.97 66.64 67.03 67.21 67.24 67.41 67.62
55.29 51.30 50.86 54.10 54.36 53.36 54.85 54.89 56.22 55.95 56.16 56.51 57.96 59.91 59.13 60.27 61.81 63.30 64.53 64.33 65.17 66.12 67.29 68.64 70.81 71.43 71.77 71.22 72.26 72.07 71.26 70.21 70.00 69.44 68.27 68.45 68.39 67.60 66.18 65.41 65.32 65.41 66.26 67.26 67.45 67.60 66.85 67.87 66.61
54.70 51.02 54.28 54.85 55.74 55.46 54.93 55.35 57.30 55.37 53.96 56.87 56.65 58.71 60.60 60.60 60.50 61.48 63.59 64.52 64.68 66.54 67.17 67.74 69.70 71.43 71.41 70.95 71.41 71.25 70.03 69.83 69.52 68.52 68.30 68.25 67.33 66.94 66.22 66.20 66.62 66.69 65.69 65.78 65.99 65.99 65.65 66.62 67.22
51.37 54.54 55.07 55.51 56.32 55.41 54.40 56.32 54.94 56.51 56.70 59.51 59.63 60.22 59.76 59.23 59.54 60.70 62.58 64.45 65.05 65.67 66.59 67.92 69.19 70.14 71.15 70.49 70.00 69.48 68.51 68.35 67.33 67.43 68.23 67.87 66.78 66.54 66.28 65.40 66.19 66.30 65.91 65.90 66.21 65.96 66.40 66.85 67.09
52.37 53.78 55.54 56.43 56.46 56.18 56.40 54.63 55.08 55.39 57.97 59.43 59.86 59.76 59.28 59.56 59.84 60.93 62.66 64.47 65.35 65.06 66.10 67.72 68.88 69.37 70.21 69.92 68.61 68.33 67.58 66.85 67.22 67.35 67.61 67.73 67.06 66.71 66.47 66.28 66.31 66.14 65.46 66.17 66.38 65.69 65.72 66.01 66.44
53.57 53.95 54.44 55.63 55.58 56.09 54.08 54.26 55.53 56.11 59.00 58.63 59.20 59.19 59.61 59.56 59.49 60.23 60.69 61.69 63.85 64.93 65.20 65.95 67.80 69.57 69.38 68.34 68.16 67.26 67.69 67.38 67.34 66.93 67.16 67.29 66.92 66.61 66.05 66.01 66.06 67.49 66.90 66.64 66.42 65.02 65.02 64.79 65.80
54.01 51.05 53.13 53.68 54.41 54.01 53.77 49.72 50.83 55.86 57.24 56.59 57.29 58.44 58.97 59.18 59.45 59.39 61.84 61.99 63.16 63.78 63.91 64.07 67.00 68.65 68.43 68.02 67.47 66.99 67.06 67.39 67.03 67.09 67.75 66.93 67.16 66.80 66.90 67.27 66.60 67.52 65.38 66.41 66.08 65.76 65.67 64.91 64.89
47.23 47.76 44.11 49.38 50.63 51.38 50.41 45.81 52.15 55.65 55.74 55.64 56.58 57.01 56.99 58.79 59.75 60.44 61.52 63.00 63.71 63.82 60.65 63.48 64.70 67.24 68.02 67.70 66.87 66.87 67.17 67.15 66.92 67.01 67.08 67.17 67.44 67.67 67.38 66.94 66.44 66.25 66.05 66.83 65.48 65.32 63.79 63.55 63.71
45.67 41.96 43.03 45.72 50.47 50.03 50.54 48.00 52.29 54.66 54.42 54.01 55.29 55.96 56.61 57.63 59.64 61.90 61.67 62.63 62.68 61.93 61.91 62.79 65.03 66.35 67.17 67.20 66.91 67.12 67.49 66.48 66.53 66.96 66.94 67.39 67.55 67.36 66.91 66.38 65.07 65.95 65.81 64.47 65.24 64.76 63.82 62.91 63.10
41.51 41.11 43.38 43.39 48.03 48.27 47.76 47.88 51.06 52.99 53.16 53.44 54.75 56.03 56.32 56.78 58.42 61.32 61.67 61.52 61.11 61.41 63.22 64.71 65.19 66.83 66.59 66.20 65.87 65.68 65.97 66.13 66.82 66.80 67.21 67.68 67.60 66.91 66.43 65.38 64.21 65.02 63.67 63.18 63.37 64.12 63.81 63.35 63.40
45.25 44.34 43.97 47.11 48.29 46.22 46.34 46.70 49.09 52.22 52.99 53.03 53.88 54.74 56.29 57.95 60.12 60.01 60.11 60.28 60.10 61.45 62.86 64.51 65.58 66.15 65.36 63.68 63.41 64.09 64.23 65.48 65.78 66.56 67.43 67.55 67.82 66.89 66.57 65.18 63.44 62.46 62.90 63.83 63.77 63.27 62.20 62.54 63.97
43.89 42.82 43.03 45.31 46.43 46.00 45.85 45.72 49.61 51.37 51.89 52.93 54.31 55.03 56.15 57.78 58.76 59.13 58.66 58.91 60.16 61.00 63.08 64.90 65.56 65.35 65.13 64.35 65.15 65.90 66.16 66.32 66.47 66.95 67.27 67.54 67.21 66.73 65.76 63.84 63.18 62.72 62.61 63.11 62.93 62.49 60.82 62.13 63.58
42.63 41.75 42.38 42.37 45.55 46.73 45.78 43.95 46.58 50.53 52.77 53.60 54.16 55.45 56.55 57.08 58.42 59.24 57.51 57.95 60.18 60.90 62.61 64.22 64.88 64.99 65.06 65.70 65.13 65.42 66.10 65.58 65.22 65.67 66.47 66.47 65.46 65.40 65.66 64.64 63.76 63.58 63.49 62.59 62.45 62.17 60.96 59.70 61.29
39.73 45.11 44.17 43.31 42.04 38.39 46.68 37.55 45.64 48.49 49.45 51.46 52.80 54.86 56.17 57.49 58.14 58.21 57.38 57.46 59.62 61.19 62.96 64.32 64.70 65.00 65.25 65.74 65.25 65.37 64.39 63.77 64.60 65.00 65.52 65.63 65.05 64.97 64.91 64.63 63.94 64.24 63.67 62.53 61.99 61.81 61.32 61.66 60.46
42.18 45.94 44.63 44.31 42.77 42.85 42.86 40.05 43.82 48.16 46.67 49.82 52.62 53.72 56.98 57.70 56.73 57.87 57.37 58.37 60.15 61.61 62.92 63.93 64.65 65.01 65.39 65.42 65.80 65.16 65.02 64.50 64.88 64.59 63.94 64.68 65.14 64.47 63.59 64.39 64.30 63.57 63.06 63.27 62.55 61.95 62.10 64.21 62.85
47.26 45.39 45.26 44.99 43.19 36.04 41.21 40.60 40.47 44.37 47.12 49.24 52.71 55.12 55.26 56.38 56.57 56.95 57.99 59.43 60.20 62.37 63.00 63.45 64.15 64.86 65.44 65.63 65.60 66.07 64.61 63.74 62.89 62.98 63.04 63.38 63.80 63.52 63.78 63.45 63.83 63.76 63.71 63.10 62.49 63.05 63.15 63.76 64.25
46.09 43.06 36.03 34.09 34.47 33.93 42.87 40.35 41.68 47.72 49.27 50.41 52.26 55.40 55.71 56.49 56.34 56.49 57.44 58.75 60.14 61.34 62.46 62.98 63.86 63.86 65.13 65.08 65.32 65.39 64.83 63.55 62.07 62.15 62.75 61.79 61.69 62.30 63.30 63.53 63.03 63.46 64.03 64.30 64.20 64.03 63.77 63.62 63.77
43.75 42.75 37.44 31.16 33.35 36.98 42.32 37.55 41.30 50.81 52.27 52.27 54.04 55.69 55.17 56.26 56.43 57.12 58.19 59.27 60.38 61.50 62.34 62.85 63.76 63.53 64.31 64.86 65.36 65.18 65.00 63.45 62.84 62.49 62.23 61.44 61.98 62.27 63.35 62.90 63.52 64.15 63.98 64.37 64.68 64.60 63.62 64.14 65.15
43.18 39.99 45.57 39.38 40.65 37.91 41.29 43.92 48.29 51.48 51.77 53.45 53.65 53.44 54.84 56.12 56.49 57.01 58.35 59.73 60.61 61.78 62.54 63.40 63.48 63.69 64.07 64.60 65.46 64.94 64.95 63.25 63.06 62.95 62.58 61.89 62.44 62.14 62.86 63.07 63.55 63.90 64.08 64.81 64.69 64.99 64.50 64.03 64.18
43.74 45.86 38.32 39.90 31.80 30.37 36.61 39.55 42.93 48.81 50.61 52.45 53.39 53.95 54.79 56.06 56.20 56.97 58.22 59.55 60.89 62.27 63.03 63.92 63.64 63.39 64.02 64.21 65.23 64.93 65.20 63.98 63.50 62.98 62.29 62.11 62.36 62.56 62.59 62.71 63.38 63.86 64.48 64.95 65.22 64.47 64.29 64.15 64.80
40.99 41.06 42.30 42.78 40.07 34.46 33.12 38.23 50.17 51.20 53.44 53.47 54.09 55.26 55.24 55.99 56.39 57.18 58.16 59.73 60.82 62.15 62.53 62.95 62.76 62.56 62.48 63.63 64.63 65.08 65.07 63.88 63.24 63.00 62.56 62.17 62.55 62.52 62.11 62.54 62.96 63.41 64.23 65.08 64.73 63.77 62.78 62.91 63.97
44.54 42.86 43.10 37.79 35.75 39.46 38.56 40.32 51.59 52.88 53.70 53.38 53.21 54.29 55.69 57.00 57.10 57.74 58.57 59.43 59.98 60.65 61.98 62.01 62.35 62.52 62.44 63.76 63.67 64.65 65.17 63.91 62.94 63.13 63.03 62.79 62.32 62.56 62.34 63.29 63.03 63.10 63.86 64.65 64.04 62.55 61.87 61.80 62.13

GFSSGP_sfc_wetblb_006.txt.gz
Wetbulb
67.90 65.27 64.05 63.77 56.04 53.83 51.85 54.17 58.47 58.10 58.60 59.65 60.15 58.68 57.85 58.70 56.79 54.85 69.22 71.73 71.26 68.55 72.65 74.39 74.73 74.23 74.08 73.83 73.15 72.76 72.49 71.69 70.59 69.76 69.27 68.79 68.23 67.89 67.89 67.69 68.21 68.32 68.30 68.73 68.90 68.93 68.62 68.04 67.76
63.57 61.82 63.11 62.46 52.83 50.78 54.18 58.76 58.03 59.04 60.26 61.37 60.94 59.83 58.48 57.27 60.85 62.21 66.09 71.67 71.00 68.71 72.79 72.72 74.86 74.41 74.33 73.98 73.61 73.02 72.87 72.04 71.28 70.39 69.87 69.44 69.20 68.96 68.84 68.77 69.12 69.43 69.46 69.51 69.53 70.39 69.94 69.49 68.95
62.03 63.58 61.42 57.64 55.74 53.58 55.16 58.55 58.86 60.24 59.97 57.29 58.67 59.64 59.04 58.38 62.38 64.24 70.63 72.40 70.81 69.20 72.02 72.87 74.96 74.51 74.46 74.26 73.71 73.36 73.24 72.82 71.89 70.89 70.30 70.00 70.03 70.51 70.46 69.30 69.39 70.11 70.19 69.95 69.68 70.56 71.03 70.34 69.72
62.20 63.16 62.44 55.55 55.47 58.59 59.27 59.26 60.30 60.36 58.91 58.74 58.39 57.03 60.19 62.94 63.07 66.68 70.79 71.87 70.64 69.43 70.57 73.03 74.80 74.58 74.51 74.51 74.01 73.76 73.51 73.09 72.69 71.59 71.33 70.80 71.16 71.37 71.28 70.22 70.06 70.50 70.74 70.35 70.25 70.34 70.57 70.03 70.38
64.97 63.10 54.97 54.00 54.81 58.02 60.95 62.86 62.70 59.73 58.67 58.38 58.62 57.15 58.76 62.85 65.31 66.93 70.51 70.82 69.82 69.71 71.31 72.05 74.80 74.70 74.68 74.76 74.36 74.26 74.08 73.80 73.53 72.64 71.74 71.64 71.95 71.88 71.63 70.93 71.01 70.93 70.55 70.69 70.52 70.63 71.07 70.94 69.44
60.58 60.49 52.66 50.27 52.83 56.01 58.59 60.03 59.85 59.23 58.90 58.82 58.19 58.10 60.19 65.16 64.78 66.79 69.46 70.80 69.97 69.53 71.84 73.01 74.78 75.00 74.52 74.46 74.51 74.23 74.04 73.82 73.45 73.16 72.67 72.40 72.52 72.05 71.21 70.87 70.60 70.47 70.27 70.25 70.40 70.19 69.91 70.17 69.50
58.42 56.67 52.32 51.95 52.55 54.20 56.10 59.30 58.33 58.37 58.06 58.13 60.09 57.49 60.66 62.17 65.45 66.39 69.15 70.78 70.77 69.73 70.85 73.20 74.57 75.34 74.92 74.45 74.10 74.04 73.81 73.64 73.34 73.11 73.17 72.91 72.35 71.06 70.06 68.86 68.31 68.45 68.65 69.09 69.39 69.37 69.32 69.11 68.66
58.78 57.24 53.56 53.83 52.76 52.87 56.79 57.71 58.70 58.22 57.70 61.23 60.89 57.12 58.35 63.58 65.51 65.85 68.45 69.24 70.31 70.06 69.82 71.27 73.61 74.06 73.46 73.63 74.42 74.11 73.88 73.78 73.49 73.47 72.99 72.53 70.84 69.00 67.19 67.20 67.52 67.03 67.14 67.50 67.81 68.39 68.48 68.98 68.81
61.35 54.10 51.79 53.25 53.71 54.80 58.30 56.89 59.41 60.51 59.23 60.21 60.87 60.40 62.33 63.59 64.83 66.07 66.98 67.54 68.35 68.97 70.58 70.80 71.91 73.38 72.82 71.94 73.78 74.03 73.55 73.57 73.23 72.27 72.23 70.87 68.94 69.22 69.10 67.82 65.14 65.44 65.85 66.24 66.92 67.25 67.42 67.64 68.03
57.91 54.02 53.81 57.08 57.81 56.77 58.16 58.12 58.71 57.90 58.41 58.48 59.86 62.21 63.31 63.48 63.64 63.71 64.39 65.09 67.04 68.01 69.05 70.56 72.44 72.67 72.55 70.52 72.84 73.78 72.53 71.97 70.98 70.41 70.48 70.08 69.74 69.82 68.26 67.07 64.95 65.60 65.79 66.56 67.50 67.39 67.52 67.28 67.70
57.59 54.00 57.33 57.69 58.74 59.23 57.92 57.84 59.56 57.49 56.41 58.24 58.82 60.76 62.27 62.78 63.25 63.82 64.43 64.91 65.12 68.16 68.94 69.92 72.12 73.62 72.87 71.39 72.02 72.21 70.89 71.00 70.78 70.99 70.28 70.19 69.64 69.44 68.61 68.31 68.05 68.54 67.57 67.26 67.62 68.06 67.92 67.81 66.78
54.67 57.48 58.00 58.55 58.87 58.44 57.31 59.04 57.55 58.17 58.50 60.38 61.11 61.73 61.73 61.86 62.81 63.66 64.38 64.80 65.27 66.67 68.43 69.91 70.94 73.00 73.69 71.63 71.48 71.00 70.49 70.45 69.92 69.66 70.22 69.50 68.79 68.88 68.70 67.71 67.67 67.88 67.00 66.86 67.44 67.09 67.25 67.63 67.74
54.61 56.48 58.01 58.38 58.47 58.28 58.63 57.15 57.21 57.95 59.78 61.21 61.13 61.60 61.75 62.11 62.63 63.91 65.27 65.89 66.30 66.31 68.37 69.84 71.01 72.31 72.89 73.25 71.66 70.82 70.02 69.22 69.24 68.41 69.68 69.73 68.76 68.85 68.58 68.11 67.40 67.44 67.84 66.50 66.77 66.97 66.74 66.63 66.64
54.85 55.19 55.97 57.50 57.55 58.06 56.76 56.85 57.60 58.12 59.21 59.89 60.44 60.23 60.62 60.94 61.98 63.42 64.16 64.74 66.29 66.92 68.40 70.06 70.66 72.94 73.12 73.11 72.45 70.79 70.49 69.44 68.56 68.02 69.24 69.80 69.27 68.82 68.47 68.31 68.30 68.65 69.20 67.90 66.49 66.61 66.16 65.86 66.29
55.08 52.42 53.95 55.00 56.27 55.79 57.15 53.98 54.44 58.14 58.84 58.80 58.78 59.33 60.05 60.76 61.97 62.58 64.03 65.12 66.43 67.34 68.78 70.50 71.03 72.22 73.17 72.59 71.77 70.33 69.34 68.80 67.67 68.53 70.11 69.92 69.98 69.44 69.33 70.07 70.05 69.32 70.68 69.07 67.07 66.47 66.68 65.49 65.68
52.06 53.07 49.13 54.27 55.56 56.28 55.79 49.83 55.31 57.92 57.26 56.99 57.84 57.96 58.77 59.97 60.80 62.87 64.19 65.66 67.23 68.32 68.25 69.74 69.52 71.29 72.65 72.68 71.42 69.36 68.57 67.88 67.99 68.77 69.18 69.78 69.95 69.63 70.03 69.54 68.95 69.54 69.21 67.56 65.75 66.48 64.94 64.81 64.59
50.14 46.15 48.83 51.23 55.63 53.98 52.98 50.68 55.30 57.60 57.15 56.48 57.37 57.65 57.88 59.35 60.65 63.04 63.89 65.24 66.97 68.75 68.72 68.59 69.02 70.22 72.05 72.81 70.93 70.27 69.65 68.15 68.43 68.66 68.77 69.38 69.67 69.63 70.08 69.34 69.13 68.92 65.98 66.03 67.01 65.73 65.45 64.36 63.94
45.61 46.57 47.94 48.58 52.94 53.10 50.93 51.31 54.40 56.53 56.45 55.81 56.23 56.86 57.39 58.61 59.58 61.64 63.81 65.89 67.02 68.24 68.89 67.81 68.62 70.93 71.85 71.06 70.12 68.09 67.88 68.10 68.56 68.34 68.80 69.40 69.63 69.28 68.99 68.61 67.84 65.49 65.34 66.40 66.27 65.37 65.71 64.51 64.20
48.78 48.42 48.28 50.80 52.99 51.42 50.72 51.01 52.95 55.60 55.43 54.59 55.74 56.24 57.25 58.75 61.07 63.12 64.82 65.43 66.12 67.00 67.08 67.25 68.08 71.70 70.84 68.62 66.54 66.03 65.59 66.86 67.34 68.15 69.52 69.59 69.35 68.98 68.81 67.72 66.99 67.20 65.08 63.62 64.95 65.39 64.52 64.08 64.93
47.97 47.05 47.33 50.44 52.22 51.56 50.35 49.60 52.46 53.81 54.25 55.25 55.86 56.08 57.16 59.37 59.81 62.49 64.79 65.15 65.11 65.80 66.65 67.57 68.64 69.94 69.86 67.85 68.28 66.83 66.62 66.66 67.98 69.06 69.24 69.62 69.03 68.60 68.08 67.63 66.86 65.84 63.89 64.62 64.96 64.32 64.25 64.19 64.76
46.47 45.92 46.61 46.27 49.91 51.27 49.09 46.94 49.29 52.48 54.13 54.53 55.74 57.46 59.04 58.87 58.82 62.04 63.86 64.17 65.10 65.35 66.53 67.64 69.11 69.03 68.81 69.00 67.84 68.04 68.05 68.12 66.47 66.92 67.19 68.50 68.09 67.98 67.53 66.89 66.27 65.57 65.84 65.48 65.13 64.62 63.13 61.72 63.84
43.62 47.85 46.58 46.52 45.77 42.20 49.14 40.88 48.27 50.97 51.76 53.70 55.14 56.59 57.66 58.69 59.85 62.28 63.42 63.52 64.61 65.35 66.86 68.27 68.27 67.79 68.06 68.32 67.41 67.12 64.36 63.95 66.20 66.65 67.96 67.28 66.94 66.56 66.43 66.62 66.11 66.09 65.72 65.29 64.63 64.11 64.07 63.78 62.35
45.53 47.37 47.35 46.83 45.43 45.07 44.99 42.53 46.06 50.40 49.63 52.16 55.03 56.53 58.43 58.75 61.09 61.82 63.66 63.77 64.74 65.77 66.69 67.63 67.71 67.74 67.98 68.28 68.12 66.24 65.85 65.59 66.67 66.59 65.75 66.47 67.30 66.27 65.54 66.18 65.58 65.53 65.14 65.21 65.01 63.98 64.13 64.42 63.67
48.91 46.55 47.08 46.95 45.35 39.48 44.01 43.71 44.35 47.86 50.63 52.71 55.10 55.37 57.18 59.07 61.27 62.62 63.60 64.11 64.44 65.89 66.52 67.04 67.15 67.12 67.85 67.53 67.67 67.46 67.07 65.60 65.46 65.44 64.64 64.78 65.51 65.51 65.28 65.07 65.38 65.80 65.96 65.17 64.64 64.75 64.50 65.38 65.33
47.34 45.23 39.93 38.30 38.67 38.12 45.94 43.58 45.61 51.38 53.03 53.65 53.68 56.02 59.35 60.85 62.05 61.85 62.25 62.98 63.84 64.62 65.53 66.06 66.12 66.00 67.02 66.85 67.10 67.54 67.70 66.34 65.23 64.70 65.45 63.80 64.32 63.72 64.45 65.37 65.48 66.10 66.17 65.86 65.65 65.42 65.28 65.01 64.83
45.27 45.39 40.64 34.45 36.52 40.46 46.01 41.72 46.10 52.25 54.35 55.47 56.16 55.92 58.30 60.70 61.99 62.27 62.80 63.20 63.54 64.35 65.04 64.97 65.61 65.63 66.25 66.19 67.07 67.56 67.55 65.68 65.38 65.31 65.17 64.70 64.31 63.68 65.72 65.57 65.65 65.63 65.76 66.25 66.55 66.06 65.41 65.65 65.28
45.55 43.77 48.24 43.12 44.03 41.40 44.18 47.05 51.31 53.99 54.59 55.02 55.80 57.31 58.66 61.23 61.92 62.21 62.90 63.63 63.76 64.53 64.80 65.35 65.29 65.19 65.36 66.28 67.15 67.20 67.06 65.71 65.41 65.69 65.75 64.59 64.99 64.24 65.06 65.17 65.27 66.19 65.93 65.89 65.97 65.47 65.79 65.77 64.87
48.19 49.25 42.43 43.58 36.75 35.50 40.41 42.14 43.60 49.64 52.12 54.03 55.14 56.90 59.80 61.09 61.57 62.17 62.75 63.51 64.48 64.98 65.32 65.92 65.50 64.62 65.35 66.78 66.82 66.69 66.80 66.35 66.04 65.42 64.69 64.66 64.88 64.36 64.48 64.43 65.92 66.13 66.18 65.65 65.99 66.46 65.55 65.57 65.00
45.63 45.31 46.22 46.34 43.52 38.46 37.71 40.68 51.08 51.08 53.19 55.18 56.76 59.31 60.32 60.85 61.33 61.85 62.66 63.84 64.49 65.13 65.32 65.22 64.34 64.44 65.16 66.01 66.82 66.64 66.33 66.09 65.82 65.40 64.82 64.54 64.87 64.80 63.95 63.66 64.55 65.44 65.39 66.11 66.29 64.99 64.33 64.63 64.70
47.61 46.16 46.84 41.41 40.35 42.43 41.04 41.75 53.65 54.65 56.02 56.63 57.02 59.44 60.98 61.54 61.48 62.06 62.65 63.39 63.90 64.36 64.41 63.80 64.08 64.07 64.74 65.81 66.16 66.30 66.40 66.45 65.81 65.28 65.21 64.83 64.19 64.61 63.75 64.03 64.13 64.36 65.47 65.81 65.11 63.92 62.87 63.03 63.77

GFSSGP_sfc_wetblb_009.txt.gz
Wetbulb
67.58 64.50 65.51 62.73 56.26 54.81 53.27 54.57 59.35 58.26 59.20 61.06 61.19 59.37 58.72 59.33 56.74 54.90 68.97 70.91 70.65 71.03 73.15 73.45 74.19 74.14 74.13 73.66 73.23 72.81 72.32 71.36 70.45 69.71 69.18 68.57 67.80 67.34 67.07 67.05 67.29 67.74 67.93 68.12 68.65 68.95 68.90 68.47 68.09
62.38 61.52 62.82 61.35 53.19 51.61 53.01 57.96 57.77 60.14 61.28 62.15 61.05 60.51 59.48 58.12 61.80 62.37 66.43 71.50 71.48 71.62 73.95 72.28 74.52 74.26 74.44 74.01 73.42 73.15 72.82 71.76 71.00 70.35 69.73 69.15 68.94 68.48 68.28 68.17 68.30 68.90 69.17 69.11 69.25 69.78 70.38 69.98 69.51
67.17 62.15 60.14 57.66 55.24 52.27 54.53 58.66 59.99 60.80 61.58 59.33 58.83 60.90 59.63 59.24 62.94 64.27 70.95 71.26 71.24 71.24 74.16 73.51 74.49 74.14 74.44 74.34 73.62 73.40 73.02 72.67 71.71 70.76 70.32 70.01 69.74 69.68 69.71 69.20 69.04 69.21 70.05 70.09 70.03 69.90 70.72 70.94 70.27
60.39 60.85 61.51 56.12 54.50 57.38 57.99 60.56 60.76 60.34 61.24 59.89 59.54 57.86 61.18 63.95 63.04 66.45 69.58 71.19 70.65 70.58 73.89 74.88 74.24 74.12 74.39 74.42 74.09 73.67 73.32 73.12 72.42 71.28 70.86 70.61 70.63 71.35 71.33 69.90 69.75 70.00 70.39 70.86 70.77 70.64 70.53 70.70 70.22
61.84 61.05 55.15 53.89 54.06 57.04 60.22 61.77 62.79 60.98 60.29 59.35 59.57 57.87 59.71 65.11 66.50 67.22 69.37 70.50 70.18 70.06 72.23 75.16 74.41 74.44 74.32 74.64 74.37 73.99 73.62 73.49 73.15 72.22 71.58 71.25 71.80 71.88 71.56 70.90 71.00 71.05 71.32 71.22 70.77 71.29 70.56 70.26 69.89
58.89 59.75 54.54 52.05 53.38 56.24 59.22 60.35 60.46 60.36 60.71 59.77 58.72 58.96 60.05 65.46 65.48 66.20 67.96 69.77 69.91 69.85 71.12 73.46 75.00 74.51 74.39 74.46 74.27 74.06 73.81 73.68 73.49 73.22 72.82 72.28 72.25 72.55 72.11 71.34 71.17 71.07 70.79 70.59 70.44 70.16 69.97 69.80 69.43
56.87 56.87 53.53 53.87 53.61 54.06 56.55 59.77 58.60 58.80 58.97 58.99 61.29 57.29 60.80 63.61 66.27 66.03 67.27 68.82 69.88 69.59 70.18 71.07 75.60 75.12 74.65 74.48 74.24 74.06 74.02 74.01 73.79 73.57 73.16 72.94 72.40 72.63 71.66 70.65 69.92 69.34 69.00 68.95 69.10 69.39 69.69 69.50 69.16
58.29 57.21 53.39 54.47 53.46 53.10 57.52 58.54 60.16 58.67 58.14 61.90 61.53 57.67 58.97 63.61 65.66 65.91 66.33 67.13 68.29 69.62 69.44 70.78 72.86 75.35 74.45 73.58 74.40 74.30 74.14 74.03 73.65 73.36 73.13 72.83 71.91 71.76 70.82 68.76 68.10 67.86 67.33 67.40 67.58 68.01 68.71 69.03 69.40
59.93 53.89 52.03 53.56 54.08 55.24 58.56 57.78 60.21 61.29 59.89 60.85 61.49 61.52 63.00 64.61 65.29 64.92 65.17 65.85 66.82 67.47 70.01 70.29 70.70 73.11 73.91 72.36 73.32 74.43 73.88 73.72 73.59 72.85 72.59 72.18 70.30 69.56 70.14 70.17 67.02 66.50 66.16 66.07 66.61 67.04 67.41 68.06 68.57
56.05 54.05 54.23 57.63 58.06 57.14 58.68 58.83 59.07 59.06 59.37 59.44 60.45 62.75 63.84 64.33 64.28 63.41 62.71 63.25 64.74 66.70 68.35 69.74 73.48 72.12 73.22 71.31 73.20 74.12 73.01 72.74 72.20 71.27 70.68 71.69 70.46 70.15 69.58 69.59 66.54 66.31 66.24 66.36 66.95 67.75 68.31 68.28 67.72
56.82 53.52 57.53 58.57 59.23 59.44 58.98 58.38 59.79 58.70 57.44 59.66 59.12 61.10 62.61 63.15 63.50 63.09 62.81 63.61 64.95 66.34 68.09 69.68 74.15 75.30 74.00 72.27 71.92 73.61 72.56 71.97 71.62 71.48 72.16 72.50 70.15 70.92 70.11 69.25 69.28 68.70 67.26 68.37 67.55 67.85 67.84 67.26 67.85
55.08 57.62 58.29 58.80 59.37 58.43 58.06 59.12 58.38 59.30 59.50 61.66 61.43 62.48 62.63 62.15 62.87 63.08 62.74 63.79 65.31 66.48 66.92 70.35 71.70 74.91 76.10 72.73 70.67 71.94 71.93 71.81 70.86 71.37 72.69 70.98 69.26 70.30 70.00 68.68 68.88 70.25 68.13 68.33 67.60 66.90 69.07 67.42 67.60
55.03 56.10 57.65 58.76 59.01 59.01 59.84 57.91 58.06 58.86 61.10 62.11 62.29 62.19 62.03 62.36 62.90 63.06 63.44 64.44 65.70 66.82 67.65 68.94 72.79 75.10 75.68 76.01 71.83 72.59 72.30 70.65 71.74 70.79 70.98 70.34 69.43 70.60 69.75 70.40 68.72 68.56 67.93 67.93 68.54 68.16 68.13 68.55 67.05
56.94 56.62 56.41 57.36 57.18 58.58 57.45 57.63 58.48 59.40 61.09 60.80 61.05 61.05 61.80 61.98 61.86 62.63 63.17 64.53 65.79 67.34 68.12 69.10 72.56 75.39 75.62 74.58 76.03 74.50 74.79 72.10 70.61 69.94 69.59 70.55 70.24 70.37 68.98 69.06 68.86 70.08 69.81 68.22 67.80 67.17 67.12 66.14 65.14
56.69 54.21 55.81 56.28 56.57 56.04 57.48 54.84 55.62 59.25 60.23 59.67 60.01 60.71 61.08 61.74 61.81 62.26 63.09 65.34 65.94 67.61 69.16 72.93 74.52 75.36 75.72 75.78 75.55 73.41 71.81 71.01 69.88 69.22 71.15 70.31 70.94 70.95 69.90 68.65 70.28 70.22 69.57 69.08 67.88 68.07 67.80 65.85 65.90
53.18 54.20 50.01 54.87 56.18 56.41 55.84 50.57 56.43 59.36 58.54 58.30 59.55 59.68 60.23 60.95 61.41 62.38 63.51 66.69 68.92 69.59 70.73 72.93 70.80 74.49 75.80 75.55 74.66 72.98 71.18 70.33 68.92 68.82 69.55 70.78 70.60 70.34 69.34 69.04 69.81 70.69 69.78 69.80 68.45 65.86 65.81 66.24 63.79
51.94 47.88 49.87 51.87 56.30 55.72 54.47 52.22 56.99 59.39 58.48 58.32 59.33 59.58 59.47 60.40 61.62 64.28 63.72 65.87 68.77 70.84 72.68 72.22 74.16 73.31 75.32 75.94 73.81 73.43 74.30 69.95 68.76 68.84 69.22 69.90 69.97 69.86 70.00 69.39 69.79 70.23 69.54 67.92 66.85 66.33 67.79 65.68 64.60
46.25 47.99 49.64 49.56 53.49 54.60 53.21 53.13 56.27 57.99 57.04 57.19 58.00 58.91 59.34 59.65 60.54 63.22 64.97 66.01 68.49 71.78 73.63 73.91 73.25 74.70 75.71 74.05 74.52 71.38 69.69 69.33 68.81 68.86 68.72 69.56 69.74 69.42 69.96 69.44 69.06 69.37 67.70 66.42 66.76 66.75 66.32 66.46 66.31
49.62 49.03 48.93 51.45 54.46 52.77 52.18 52.51 54.46 56.84 56.63 56.49 57.41 58.49 59.15 59.26 61.09 63.23 64.18 66.84 66.96 69.77 71.01 72.75 72.19 74.09 73.38 71.91 70.29 69.04 67.39 68.60 68.02 68.57 69.58 69.50 69.71 69.99 69.56 68.63 67.75 67.87 68.04 67.24 66.73 65.89 63.23 64.91 66.59
48.40 47.66 48.20 51.45 53.65 52.33 52.30 51.88 54.71 56.03 56.43 56.81 57.28 57.53 58.10 59.00 60.14 61.69 63.76 65.32 68.22 68.82 69.93 70.18 70.72 73.78 73.59 72.25 71.52 70.02 69.57 67.96 68.06 68.28 69.66 69.81 69.41 69.26 68.86 68.11 67.10 67.51 67.75 66.12 65.20 65.09 63.94 64.17 66.38
47.75 47.10 48.01 48.55 52.01 52.58 51.55 49.79 52.04 54.80 55.76 55.93 56.60 57.50 58.22 58.57 59.80 60.98 62.36 64.87 67.86 68.02 68.73 68.93 69.94 72.11 73.43 73.09 71.38 70.37 69.45 68.76 67.26 67.04 67.53 68.76 68.54 68.27 68.19 67.74 67.04 66.90 66.86 65.60 66.17 65.61 63.99 63.08 64.09
44.61 49.91 49.58 49.18 48.35 44.46 51.22 44.17 50.12 52.60 53.25 54.85 56.06 57.24 58.00 59.18 60.35 61.49 61.73 67.01 67.10 67.75 68.89 69.74 70.63 71.56 71.71 72.24 70.30 71.43 66.93 64.99 65.81 67.84 67.45 67.47 67.48 66.91 66.83 67.18 66.78 66.95 66.66 66.07 65.59 65.77 64.76 63.96 62.57
46.83 50.30 49.89 49.45 47.40 46.98 47.12 44.62 47.88 51.96 50.70 52.88 55.27 56.60 58.11 59.18 60.14 60.55 61.88 66.76 67.14 67.95 68.61 70.18 70.23 70.25 70.63 71.25 71.27 67.36 68.42 66.19 66.50 66.56 66.72 67.78 68.27 66.75 65.66 66.57 66.15 66.24 67.28 65.94 65.65 64.50 64.36 66.02 64.99
49.93 48.63 49.37 49.54 47.49 41.81 46.01 45.52 45.72 48.90 51.19 53.36 56.12 57.01 58.21 59.07 60.59 61.52 66.43 66.69 66.91 68.04 68.89 68.96 68.36 68.66 68.74 68.54 68.60 69.10 67.29 66.17 65.19 65.49 65.48 66.11 66.55 66.04 65.91 65.64 65.97 66.37 66.29 65.66 66.31 65.31 64.97 65.99 66.06
48.80 46.92 41.02 39.62 40.24 40.10 47.65 45.16 47.30 52.16 53.38 54.20 54.83 56.31 58.39 60.87 62.77 63.99 64.81 65.12 66.05 66.96 67.44 67.63 67.66 67.16 67.83 67.79 67.55 67.92 67.95 67.42 66.32 65.53 65.52 64.94 65.06 66.22 65.70 65.79 65.92 66.53 66.79 66.38 66.41 65.89 65.82 66.14 65.31
46.97 46.74 41.90 35.96 38.66 41.80 47.70 43.07 47.50 53.88 55.47 56.15 56.77 56.91 61.29 62.33 63.49 63.81 64.80 65.28 65.83 66.40 66.78 66.80 66.84 66.46 67.02 67.06 67.43 67.77 67.96 66.20 65.82 65.86 65.46 64.94 64.63 64.83 65.90 65.87 66.21 66.36 65.83 66.13 66.84 68.08 66.85 66.26 66.44
46.36 44.62 49.06 45.55 46.88 43.76 45.92 48.64 52.44 54.19 54.95 55.74 56.12 57.61 58.08 62.49 63.60 63.91 64.93 65.52 65.70 65.93 66.37 66.69 66.62 66.40 66.71 66.65 67.35 67.66 67.46 66.52 66.50 67.03 66.85 65.65 66.98 64.92 65.45 65.61 65.70 65.86 65.98 65.92 66.23 66.61 65.53 66.02 65.79
47.81 50.09 43.74 45.84 39.51 38.34 43.59 44.72 45.48 50.48 52.43 54.31 55.72 57.54 60.81 62.78 63.52 64.13 64.57 65.10 65.61 65.99 66.61 67.20 66.96 66.23 66.08 66.87 66.84 66.86 66.72 66.75 66.94 66.51 65.82 65.57 65.84 64.93 64.81 64.95 65.56 65.41 65.57 65.64 66.13 66.04 66.30 65.79 65.12
45.82 45.73 46.93 47.68 46.13 41.04 39.55 43.37 51.63 51.89 53.43 54.97 55.76 58.41 61.76 62.78 62.96 63.64 64.30 65.23 65.53 66.05 66.34 66.23 65.74 65.42 65.83 66.39 67.04 66.38 66.22 66.01 66.64 66.08 65.39 65.29 65.48 64.88 64.23 64.47 64.53 64.36 64.67 66.30 66.56 66.02 65.13 64.24 65.44
48.34 47.57 47.83 43.92 43.07 45.42 44.36 44.78 54.50 55.02 55.47 57.33 58.41 60.69 62.21 62.97 63.45 63.89 64.28 64.79 65.02 65.41 65.64 64.80 65.10 64.61 65.60 66.01 66.45 66.38 66.34 66.62 66.26 66.01 65.40 65.49 64.59 64.51 64.27 64.23 64.23 63.98 65.22 65.68 65.48 63.98 64.14 64.24 64.46

GFSSGP_sfc_wetblb_012.txt.gz
Wetbulb
67.61 64.73 62.93 62.06 52.32 52.16 50.50 52.93 57.85 57.81 58.02 61.05 60.46 59.16 57.80 58.57 56.65 54.25 68.61 69.92 73.88 72.29 72.52 72.77 73.70 73.79 73.44 73.07 72.84 72.48 71.91 71.48 71.18 70.59 69.93 69.05 68.67 67.39 67.18 66.94 66.75 66.86 67.15 67.66 68.04 68.46 68.60 68.52 67.96
64.29 59.58 61.10 58.25 51.18 49.04 51.01 55.99 55.13 58.73 60.66 61.03 59.65 59.47 58.52 57.06 61.58 65.61 67.49 70.94 73.55 72.74 72.57 71.78 73.97 73.90 73.77 73.37 73.13 72.81 72.48 72.01 71.64 71.35 70.47 69.42 68.93 68.46 67.93 67.71 67.66 67.82 68.51 68.68 68.52 69.06 70.12 70.08 69.68
66.09 60.59 56.79 54.87 52.94 49.87 51.40 57.28 58.36 60.43 62.22 59.24 57.85 60.54 58.99 58.44 62.60 65.78 69.95 71.30 73.61 72.94 72.58 71.89 74.05 74.07 74.00 73.90 73.40 73.01 72.61 72.31 72.09 71.58 71.09 70.02 69.80 69.66 69.74 69.10 68.82 68.75 69.24 69.76 69.84 69.73 70.03 71.05 70.90
62.67 58.50 57.33 53.67 52.61 55.26 55.57 59.52 61.06 60.34 61.75 60.86 59.17 56.66 61.12 63.84 63.70 65.99 69.19 70.24 71.36 73.35 72.66 73.92 73.83 74.05 74.13 74.10 73.70 73.30 73.06 72.76 72.44 72.18 71.71 71.28 70.97 71.26 71.17 70.26 69.97 69.46 69.67 70.15 70.83 71.09 71.45 71.41 70.73
61.54 56.87 51.85 51.04 52.08 55.48 57.68 60.31 60.42 60.35 60.92 60.51 59.81 57.13 59.56 64.25 66.43 67.27 69.87 70.02 69.51 71.21 73.74 73.97 73.83 73.97 74.35 74.40 74.03 73.65 73.20 72.98 72.76 72.51 72.13 71.78 71.84 71.84 71.67 71.10 70.46 70.91 71.05 71.22 71.02 71.52 71.34 71.09 70.41
54.13 55.40 49.71 49.55 52.76 55.86 57.68 58.87 59.42 58.57 59.03 59.56 59.02 58.52 60.14 65.17 65.72 66.67 67.02 68.62 69.03 69.72 72.73 74.38 74.22 73.87 74.02 74.15 74.00 73.55 73.10 73.22 73.13 73.03 72.81 72.48 72.31 72.26 71.99 72.07 71.69 71.49 71.15 70.82 70.60 70.60 70.36 69.90 69.94
52.68 52.78 51.02 52.05 52.66 54.25 56.43 59.15 58.12 57.50 57.63 57.87 60.64 57.58 60.56 63.53 65.67 66.08 66.95 66.74 67.86 68.94 70.79 74.45 73.80 73.86 74.35 73.99 73.84 73.62 73.36 73.39 73.14 73.06 73.02 72.95 72.66 72.51 72.41 71.87 71.01 70.73 70.22 69.43 69.11 69.04 69.61 69.68 69.63
54.70 53.35 50.99 52.81 52.51 53.05 57.56 57.98 59.22 58.12 57.48 61.09 61.52 56.95 59.72 64.04 65.49 65.07 65.06 64.87 65.19 67.19 69.47 74.12 74.02 73.72 73.08 72.70 74.38 74.10 73.87 73.77 73.61 73.54 73.37 73.13 72.53 72.21 72.19 71.82 70.38 69.62 68.35 67.92 67.80 67.80 68.17 69.27 69.85
57.62 50.06 49.42 51.81 52.63 54.17 57.97 56.68 59.34 61.20 59.52 60.03 60.90 60.82 62.20 64.14 64.39 64.39 64.60 63.82 63.96 65.29 69.54 71.37 74.15 73.84 73.20 72.06 72.92 74.45 74.26 74.12 73.83 73.35 73.05 72.59 70.22 68.99 70.61 70.87 69.85 69.36 68.60 67.90 66.83 66.76 67.25 67.83 68.44
55.45 50.64 50.69 55.70 56.51 55.75 57.53 57.90 58.29 58.53 58.76 59.01 60.37 62.87 63.35 63.47 63.63 62.84 62.47 62.29 63.06 64.98 66.76 69.41 72.63 73.81 73.24 71.77 71.41 72.82 72.96 72.75 72.63 71.58 71.15 71.08 69.91 70.45 69.69 69.46 69.12 68.65 67.94 66.77 66.80 67.25 67.76 67.85 66.13
55.69 51.74 54.28 55.92 58.07 58.57 57.90 58.03 59.78 58.03 57.16 59.38 59.42 60.96 62.49 62.54 63.67 63.35 62.50 62.97 62.99 64.92 67.52 68.42 72.03 72.68 72.68 71.22 71.49 72.78 71.69 71.58 71.50 71.21 70.94 70.90 71.43 70.48 69.34 68.62 68.35 67.23 67.30 65.63 66.40 66.12 66.40 66.74 66.12
52.57 55.57 56.33 56.59 57.81 57.76 57.15 58.94 57.76 58.27 58.73 61.16 61.32 62.89 62.58 62.18 62.89 62.70 62.54 62.90 63.29 65.33 66.91 72.35 70.89 72.06 72.32 71.74 71.96 72.85 72.24 71.26 70.85 70.81 71.27 70.93 70.83 69.83 69.63 68.58 68.99 67.33 68.02 66.59 66.56 65.48 67.07 66.52 66.54
53.82 54.73 56.31 57.54 57.94 57.96 58.68 57.27 57.27 57.62 60.35 61.68 61.44 62.47 62.15 62.34 63.34 63.81 64.15 64.56 66.61 67.09 68.54 71.94 71.36 71.75 72.61 73.81 70.54 72.04 72.16 71.19 70.83 70.85 71.26 70.94 69.40 69.06 70.56 69.80 69.89 69.85 68.61 67.53 67.55 66.83 66.03 66.48 65.37
56.17 55.64 55.46 56.63 56.67 57.23 55.72 56.07 56.82 57.78 60.60 60.28 61.06 61.43 61.75 62.25 62.90 63.36 63.87 65.12 67.75 70.35 69.50 72.57 72.04 71.70 72.67 71.11 73.70 71.58 73.24 71.51 70.88 70.63 70.92 70.71 69.86 70.19 69.95 69.98 69.39 69.38 70.01 68.01 66.83 65.73 66.12 64.60 65.93
54.39 52.80 55.06 55.70 56.13 55.84 57.42 54.36 54.96 58.25 59.42 59.10 60.04 60.66 61.43 62.11 62.73 62.41 64.15 67.17 69.82 69.54 70.47 72.79 73.81 72.98 72.51 71.71 72.29 74.54 72.42 72.97 70.70 71.03 72.19 70.27 70.39 71.03 70.42 69.04 69.13 70.00 69.24 67.95 66.92 66.38 65.17 64.17 65.43
50.80 51.52 48.53 53.62 55.02 55.83 55.58 49.51 56.09 58.88 58.06 58.06 59.10 60.15 61.06 61.57 62.69 63.69 65.34 70.25 72.84 71.77 70.56 73.78 69.20 73.33 72.94 72.94 72.19 73.17 71.89 71.56 70.68 70.62 70.50 70.37 71.40 71.01 70.32 68.82 68.73 69.47 69.02 68.38 66.84 66.18 64.98 64.18 64.50
49.19 46.04 47.54 50.41 54.92 54.64 54.35 51.49 55.98 58.79 58.31 57.96 59.04 59.90 59.97 60.72 62.68 64.98 67.37 67.11 69.62 71.19 72.58 73.05 72.31 72.81 73.42 73.99 73.81 73.01 74.61 71.48 71.54 70.06 69.57 70.24 70.39 70.20 69.41 68.64 69.31 69.54 68.45 67.31 66.39 65.61 64.86 64.15 63.80
43.83 45.04 47.65 48.74 52.57 53.87 52.33 52.47 55.64 57.81 57.76 57.78 58.47 59.58 59.11 59.88 61.05 64.58 67.18 67.30 67.21 71.57 72.51 73.55 73.56 74.16 73.84 73.82 73.93 72.65 72.65 71.69 70.99 70.40 70.44 71.20 70.30 70.21 69.39 68.99 69.19 68.83 67.27 66.48 65.72 64.80 65.09 64.48 63.35
47.53 46.98 46.26 49.69 52.65 51.82 52.19 52.47 54.23 56.74 56.97 56.93 57.95 58.39 58.97 59.66 62.62 63.28 65.94 66.81 68.10 70.70 73.58 74.61 74.05 74.76 72.84 72.02 70.85 70.62 69.10 69.24 70.34 70.73 71.02 70.09 70.20 70.23 69.46 68.60 68.40 67.94 66.59 65.63 65.39 64.40 63.17 63.09 63.56
45.81 45.24 45.82 49.61 51.46 51.69 51.39 51.27 54.60 56.40 56.90 57.58 57.85 58.61 59.11 59.39 60.25 61.93 64.50 67.37 66.87 71.16 73.24 73.61 74.16 73.92 72.71 72.29 72.05 71.58 69.83 68.57 68.92 69.84 70.21 70.15 69.90 70.16 68.12 68.15 67.61 67.16 66.01 65.21 64.23 63.79 62.32 62.57 62.43
45.57 44.70 45.57 45.56 49.38 51.32 50.75 49.17 52.29 54.83 56.69 57.56 58.00 58.64 58.74 58.48 58.68 60.10 61.90 64.04 70.04 70.46 71.23 71.45 72.03 72.53 72.87 73.30 72.06 72.89 71.28 69.75 68.90 69.39 69.34 69.25 69.35 68.94 68.07 67.91 67.04 66.10 65.36 63.99 64.37 64.08 62.48 61.21 62.24
42.82 47.59 47.12 46.79 46.40 43.29 50.54 42.75 51.14 53.07 54.01 55.84 56.94 57.83 58.40 59.72 60.92 61.06 62.16 64.04 68.40 69.08 70.01 70.50 71.13 72.74 72.42 73.21 71.18 69.12 66.91 66.50 67.62 67.91 67.97 68.19 68.51 67.37 67.27 67.59 66.43 66.54 65.68 65.01 64.00 65.23 63.42 62.20 59.50
44.88 48.50 47.43 47.39 46.02 46.44 46.21 44.08 47.34 51.82 50.72 52.96 55.80 57.16 58.07 59.15 59.90 60.19 61.52 67.41 68.02 68.52 69.09 70.00 71.41 71.53 72.30 71.62 70.32 68.80 68.29 68.74 69.14 67.97 68.13 68.06 68.07 67.74 66.71 66.81 66.53 65.68 65.65 65.37 64.70 63.82 63.44 63.05 61.57
48.99 46.91 46.74 47.17 46.37 41.13 45.85 44.76 45.32 48.53 50.75 53.33 55.91 56.52 58.39 59.47 60.46 62.11 66.61 67.11 67.25 68.26 69.28 70.49 70.46 70.31 69.56 69.87 69.61 69.46 69.89 68.43 66.45 66.57 66.68 66.88 66.91 66.82 66.86 65.78 65.07 65.33 65.41 65.39 64.89 64.41 63.34 62.65 61.86
46.37 45.60 39.39 37.45 38.76 38.20 46.72 44.66 47.22 52.12 53.57 53.96 54.78 55.60 58.24 61.73 63.84 64.83 64.96 65.43 66.17 67.50 68.51 68.56 68.46 67.22 69.07 68.91 68.53 69.64 68.97 68.66 67.59 66.98 66.74 65.76 65.51 65.87 65.74 65.42 63.92 64.72 66.04 65.95 65.35 64.82 64.33 63.07 62.43
44.35 45.20 40.18 33.23 35.57 39.42 46.24 42.21 46.55 54.38 55.70 56.41 56.04 57.58 60.18 62.47 64.07 64.59 65.34 65.14 66.24 67.28 67.44 67.12 67.14 66.83 67.76 67.59 68.68 69.13 69.07 67.05 68.02 67.42 66.22 65.82 65.67 65.03 66.05 64.28 64.83 66.26 65.88 65.74 65.71 65.10 65.10 64.76 63.37
44.17 41.17 47.29 43.29 44.55 41.08 45.00 48.53 52.20 54.60 53.83 55.66 55.52 57.03 61.37 62.57 63.64 64.10 65.02 65.67 66.13 66.51 66.68 66.90 66.82 66.68 67.24 67.50 68.23 68.51 68.65 67.01 67.40 67.50 67.78 66.55 65.97 64.99 65.85 65.26 65.60 65.94 65.77 65.34 64.61 63.70 64.44 64.65 64.94
45.35 47.98 41.54 43.65 36.45 37.13 42.35 45.10 45.77 50.78 52.41 53.89 54.81 57.40 61.55 62.98 63.31 64.16 64.74 65.40 66.00 66.40 66.94 67.31 67.11 66.35 66.92 67.49 67.60 66.90 67.65 67.68 67.52 67.73 66.93 65.88 65.96 66.00 65.63 64.18 65.50 65.34 64.47 64.12 64.85 65.12 65.28 64.22 64.55
43.35 42.76 44.42 46.75 44.66 39.48 39.24 43.32 52.38 51.36 52.61 54.08 55.47 59.70 61.91 62.35 62.90 63.68 64.47 65.45 66.24 66.38 66.93 66.92 66.54 66.24 66.31 66.96 67.83 67.00 66.68 65.25 65.70 65.95 65.63 65.50 66.04 65.34 64.72 64.46 64.05 63.85 63.39 64.62 64.96 64.48 64.75 64.31 64.08
46.60 44.61 45.73 42.19 41.05 44.30 44.47 44.58 55.99 55.56 55.08 56.58 58.87 61.04 62.15 62.82 63.08 63.47 64.02 64.68 64.75 65.33 65.70 65.96 65.52 64.97 66.08 66.23 66.31 66.52 66.74 65.34 66.13 66.09 64.10 66.12 65.68 65.28 64.73 64.36 63.26 63.87 64.15 65.08 63.67 64.16 63.64 63.78 63.42

GFSSGP_sfc_wetblb_015.txt.gz
Wetbulb
66.35 65.57 60.98 59.01 47.64 46.89 43.99 48.75 53.46 56.33 57.06 58.61 57.53 56.43 54.22 56.14 55.72 52.43 63.75 70.05 69.54 70.02 71.81 73.02 74.02 73.67 73.54 72.99 72.65 72.10 71.68 71.38 71.10 70.47 69.63 68.88 68.62 67.68 67.38 67.33 66.90 66.88 66.91 67.28 67.41 67.76 68.16 68.22 67.76
63.97 60.86 56.91 54.78 45.23 42.88 44.32 52.00 54.17 56.63 59.25 59.88 58.64 55.92 55.08 57.45 64.30 63.94 65.48 70.28 69.96 69.89 70.94 71.39 74.02 73.49 73.44 73.07 72.72 72.16 71.93 71.78 71.41 70.94 69.63 68.83 69.08 68.65 67.81 67.57 67.25 67.52 67.89 68.21 68.27 68.52 69.13 69.83 69.72
65.42 63.32 50.09 48.61 47.13 45.01 46.01 52.77 55.61 59.50 61.31 60.12 58.74 58.29 57.14 57.56 64.11 64.82 66.18 70.83 70.18 69.70 70.14 70.88 73.95 73.65 73.56 73.22 72.83 72.41 72.16 72.06 71.96 71.03 70.52 69.88 69.64 70.06 69.99 68.73 68.59 68.55 68.83 69.36 69.57 69.42 69.61 69.85 71.18
60.88 56.34 51.45 46.32 47.58 52.23 52.32 55.60 58.92 59.49 60.70 61.70 61.15 55.75 59.95 63.73 62.97 65.20 70.58 71.09 70.05 70.03 69.40 72.80 73.67 73.57 73.45 73.39 73.15 72.90 72.58 72.48 72.28 71.83 71.11 70.68 70.44 71.17 70.93 69.89 69.42 69.19 69.30 69.54 70.31 70.85 71.20 70.88 71.02
58.66 52.93 43.62 44.26 47.76 52.98 55.16 56.42 58.99 58.20 59.97 60.42 60.69 56.94 58.42 63.17 65.42 66.39 68.97 71.45 69.92 69.38 68.95 71.86 73.82 74.02 73.80 73.77 73.57 73.07 72.85 72.55 72.65 72.58 72.03 71.61 72.01 71.86 71.62 70.57 70.31 70.23 70.67 71.04 71.11 71.24 70.99 70.58 70.44
49.95 49.61 42.23 42.30 48.08 53.41 55.68 57.06 58.14 58.70 60.13 59.83 57.32 57.98 57.68 62.94 63.60 64.80 66.51 69.50 70.56 69.30 69.46 70.99 73.47 74.06 73.81 73.75 73.60 73.02 72.87 72.77 72.70 72.72 72.58 72.43 72.33 72.25 71.67 71.25 71.02 71.27 71.34 71.19 70.79 70.70 70.68 70.68 70.02
48.75 44.65 43.19 45.86 48.15 51.59 54.82 57.49 54.57 54.53 54.63 55.86 56.53 55.74 58.41 60.72 61.99 62.75 63.01 63.40 70.20 70.46 70.41 70.82 71.18 72.73 74.26 73.71 73.29 73.19 72.76 72.61 72.63 72.29 72.22 72.52 72.67 72.51 72.31 72.29 72.32 71.71 71.15 70.46 70.12 69.58 69.38 70.14 69.90
52.08 46.20 43.07 45.62 48.16 49.55 55.63 56.58 56.22 54.96 55.69 60.38 60.40 54.97 53.83 59.59 62.56 61.94 61.11 59.98 59.36 70.05 71.04 70.43 70.56 70.30 71.09 71.77 73.90 73.44 73.10 72.92 72.69 72.67 72.53 72.62 72.73 72.68 72.53 71.77 72.04 71.07 70.36 69.72 69.50 68.35 68.21 68.55 69.96
56.47 42.98 40.89 45.47 47.95 50.98 56.12 54.98 57.77 59.35 57.87 59.09 60.22 59.47 60.80 62.59 61.22 58.86 57.36 58.62 57.70 68.63 70.87 70.60 70.24 70.04 69.73 70.18 72.52 73.43 73.84 73.31 73.05 72.90 72.83 72.01 69.53 69.21 69.66 70.91 71.40 70.94 70.24 69.77 68.97 68.29 67.53 67.68 68.31
55.69 45.74 45.54 50.01 50.99 51.09 54.57 55.22 56.26 56.87 56.38 57.07 59.09 61.63 62.66 63.06 60.73 58.51 57.37 55.58 56.51 58.18 69.78 70.69 70.51 70.14 69.58 69.89 70.09 71.30 71.66 71.62 71.71 71.35 70.89 69.87 67.86 65.14 67.39 69.31 72.16 70.61 70.90 70.21 68.82 67.85 67.29 67.15 64.49
54.24 50.48 52.99 52.67 53.26 54.05 54.17 55.08 57.27 56.27 54.14 57.14 56.54 59.60 60.98 61.46 61.09 58.61 57.62 56.92 57.11 58.36 65.00 70.44 70.49 70.59 70.06 69.46 69.51 70.54 70.37 70.89 71.17 69.97 68.87 68.61 67.24 66.04 66.78 65.27 67.61 65.96 69.16 64.64 65.89 64.85 64.77 64.75 64.41
49.54 52.74 54.26 54.49 54.85 54.06 53.07 55.84 55.24 56.03 55.60 57.95 58.55 59.07 59.25 59.06 58.21 58.13 57.88 58.10 58.21 58.44 58.52 69.88 70.74 70.43 69.86 69.29 68.89 69.58 69.20 69.47 69.57 69.35 67.83 67.84 66.79 66.29 65.03 64.85 65.07 64.27 63.68 62.95 63.13 63.30 63.39 64.25 64.97
51.22 52.51 53.87 54.82 55.09 54.79 55.62 54.26 54.64 55.29 58.11 58.76 58.76 58.72 58.00 58.17 58.60 58.97 59.33 59.42 59.30 58.35 60.49 66.74 70.27 70.50 69.95 67.78 69.16 69.42 68.75 68.93 68.71 68.61 68.10 67.11 66.77 64.59 64.32 63.91 64.39 64.34 64.19 63.94 64.01 63.14 63.90 64.52 63.44
48.71 52.30 53.70 54.30 53.73 54.45 53.74 53.98 54.65 55.42 57.26 57.16 57.38 56.70 57.44 58.05 58.55 58.15 58.91 58.78 58.65 58.99 59.85 64.54 68.34 70.02 69.48 68.22 68.92 69.33 69.24 68.85 68.46 68.31 68.28 67.49 66.11 64.31 64.92 65.45 65.07 63.90 64.58 63.90 63.50 63.34 63.28 62.15 62.22
48.92 45.92 48.68 51.22 52.98 52.63 54.71 51.28 51.97 55.92 56.86 56.30 56.15 56.93 57.26 57.46 58.66 58.58 58.36 58.48 59.08 60.80 60.89 65.36 66.43 68.07 68.65 68.30 67.09 69.02 69.32 69.06 68.28 67.10 68.05 68.00 66.26 65.08 65.69 64.65 64.01 64.77 64.52 63.88 63.33 63.24 63.10 62.42 62.34
46.07 46.04 41.71 47.86 50.07 52.34 52.95 46.74 52.74 55.24 55.31 55.01 56.26 57.25 57.46 57.24 58.51 58.60 59.36 58.98 61.35 60.85 61.55 64.28 68.86 68.14 68.40 67.76 68.30 68.04 68.77 68.24 67.62 66.90 68.24 67.90 66.37 66.18 65.51 64.30 63.77 65.26 64.98 64.49 63.07 62.14 62.03 61.58 61.13
42.69 39.28 41.30 44.46 50.16 50.11 49.92 47.62 52.43 55.11 54.83 54.64 55.39 56.36 56.87 57.44 57.46 58.38 59.94 60.38 61.03 61.75 60.80 64.74 67.00 68.31 68.41 67.83 67.48 68.55 67.81 66.64 66.20 65.36 65.73 67.68 67.49 67.42 65.04 64.32 63.59 65.15 64.48 63.82 63.19 62.89 61.93 60.71 60.81
38.23 39.82 42.60 42.75 47.60 49.48 48.28 48.07 51.66 53.74 54.18 54.02 54.87 55.86 56.42 56.92 57.35 57.93 58.65 60.59 59.51 60.12 63.22 64.07 64.96 68.89 69.24 69.83 68.13 68.22 68.15 65.85 65.78 64.87 64.94 66.32 66.97 67.06 65.62 64.80 64.22 64.56 63.56 63.21 62.57 61.50 61.57 60.83 60.49
43.19 42.59 41.90 45.03 48.91 47.80 47.14 47.65 50.01 52.72 52.96 52.66 53.24 53.01 54.52 54.96 56.70 57.32 59.30 60.20 59.70 59.97 62.29 63.89 66.29 69.01 70.18 69.31 68.27 66.77 65.98 64.62 64.54 65.08 66.25 66.54 66.48 66.31 64.94 64.08 64.17 63.80 62.40 61.77 61.40 60.86 60.21 59.07 59.85
42.51 40.47 40.40 44.79 48.22 46.75 46.24 46.01 49.94 51.28 51.45 52.20 52.97 53.30 53.86 54.78 55.50 57.01 57.25 58.45 59.53 59.84 64.38 66.59 68.65 69.76 69.67 69.55 68.17 66.83 65.41 64.14 64.15 65.12 64.66 65.58 64.97 64.83 65.11 63.93 63.88 62.34 61.55 61.22 60.46 59.98 58.44 58.40 58.67
41.52 40.19 40.61 40.97 45.22 46.44 44.60 43.18 46.06 49.81 51.72 53.37 53.93 53.87 54.33 55.25 53.72 54.96 55.47 55.42 58.11 65.03 66.25 68.09 69.66 69.15 68.40 69.07 68.69 66.44 64.21 63.88 63.14 63.24 63.97 64.47 65.30 64.79 64.03 63.06 62.65 62.00 61.62 60.11 59.61 59.75 58.49 55.80 57.40
37.89 44.48 44.27 43.42 41.72 36.58 44.61 35.88 43.84 47.22 49.31 51.52 53.17 53.88 53.71 55.08 55.84 56.04 55.72 54.47 63.02 65.07 66.53 66.63 68.52 68.66 68.84 68.56 66.83 64.87 62.41 61.09 61.89 61.65 63.20 64.45 64.33 64.17 63.67 63.09 62.40 61.68 60.70 59.84 59.75 60.67 58.56 57.50 55.50
40.35 45.95 44.00 43.61 41.02 39.90 41.09 37.48 40.41 46.83 46.11 48.18 50.92 51.91 52.65 53.65 54.11 54.66 55.72 58.21 64.24 65.01 64.89 65.85 67.99 67.51 68.23 67.02 65.01 62.66 61.87 62.33 62.65 62.45 61.78 62.17 62.15 62.97 63.25 62.70 62.03 61.07 60.75 60.04 59.99 59.37 58.91 58.40 56.86
44.78 43.08 42.73 42.36 39.88 33.25 39.44 39.31 40.03 42.86 45.94 49.03 50.94 52.55 53.74 55.83 55.26 57.35 62.76 63.83 63.95 65.34 66.14 67.11 66.78 66.12 65.86 65.45 63.68 62.35 62.39 61.65 61.35 60.75 61.12 61.81 61.51 61.45 61.52 62.16 61.25 60.80 60.47 60.48 60.45 59.65 59.17 59.76 58.72
40.49 37.27 30.30 29.82 30.84 31.17 40.63 38.73 41.53 46.18 49.40 50.53 50.68 51.33 55.08 58.78 59.33 60.73 61.64 62.57 64.03 65.53 66.34 66.20 64.19 64.01 64.72 63.38 63.74 62.78 61.89 61.65 60.85 60.03 60.58 60.24 60.43 60.00 59.95 60.25 60.15 60.36 61.36 61.94 61.52 59.73 59.05 59.11 59.18
36.24 37.45 31.30 25.05 28.42 32.75 41.14 35.68 40.65 48.85 51.18 52.13 53.14 51.37 58.40 59.25 60.08 60.37 60.96 62.82 64.71 65.09 64.51 63.29 62.81 62.97 62.49 63.64 63.20 63.18 61.95 61.30 61.05 60.86 61.04 60.76 60.09 59.69 59.91 60.16 60.54 61.69 62.22 62.23 61.80 60.99 60.29 60.03 59.51
36.42 33.51 40.95 35.16 37.55 34.39 37.11 41.41 45.88 48.29 49.54 51.31 51.93 53.44 57.03 58.50 59.73 60.43 61.38 63.46 63.75 63.14 62.80 62.75 62.54 62.50 62.52 63.13 63.37 61.93 62.38 62.25 61.57 61.15 60.45 60.37 60.03 60.46 59.96 60.64 60.74 61.46 61.96 62.09 60.74 59.79 59.56 60.33 59.71
39.55 40.83 33.90 35.66 27.79 27.31 35.80 38.34 39.96 46.04 47.83 50.38 50.40 54.54 56.77 58.62 59.72 60.03 61.65 62.60 62.99 62.87 63.33 62.54 62.32 62.17 62.59 63.09 62.48 62.04 62.32 62.24 61.89 61.02 60.65 59.56 59.68 61.33 60.45 60.05 60.69 61.24 62.47 62.02 60.96 59.73 61.02 60.35 60.07
37.58 35.41 36.56 37.01 35.95 31.05 30.31 36.45 47.64 48.79 48.48 48.57 49.67 56.90 56.80 58.27 59.42 60.71 61.80 62.51 62.36 63.19 62.56 62.06 61.97 62.03 62.30 62.23 61.58 61.09 61.93 61.87 61.26 60.93 60.21 59.64 59.67 59.29 59.65 60.26 61.40 61.95 61.83 61.65 60.96 60.47 60.68 60.44 60.55
40.51 38.29 37.77 32.75 33.44 36.31 35.57 37.80 49.52 49.17 48.86 52.84 54.84 57.03 58.00 59.20 60.14 61.09 61.46 61.71 61.95 61.88 62.13 61.36 61.47 61.39 61.99 62.67 61.99 61.50 60.96 61.82 60.93 60.32 61.48 59.79 58.85 59.42 59.59 60.50 61.88 63.18 62.74 60.81 60.98 60.44 60.31 60.51 60.28

GFSSGP_sfc_wetblb_018.txt.gz
Wetbulb
66.61 63.40 60.47 58.26 47.04 45.26 42.26 45.66 50.53 52.68 54.94 57.78 56.65 55.54 55.10 55.22 55.30 51.29 63.81 68.16 68.94 69.72 71.83 73.34 74.07 74.02 73.61 73.12 72.65 72.05 71.76 71.28 70.66 69.76 68.63 67.97 67.58 67.43 67.11 66.97 66.52 66.42 66.42 66.87 66.93 67.14 67.59 67.88 67.49
62.12 60.75 55.37 53.76 44.60 41.11 43.72 48.72 50.05 55.14 57.88 60.21 59.92 57.44 56.78 57.69 62.90 64.35 65.52 68.83 68.81 70.53 71.38 71.77 74.09 73.94 73.52 73.04 72.55 71.96 71.66 71.38 71.16 70.35 68.94 68.32 68.21 67.95 67.63 67.28 67.24 67.19 67.38 67.46 67.70 67.94 68.07 68.96 69.38
63.53 62.92 48.88 46.88 45.04 42.83 44.83 51.23 54.98 58.20 60.54 60.00 58.33 60.70 57.95 59.69 64.06 64.69 67.02 69.12 69.38 69.98 70.72 71.48 73.79 73.59 73.54 73.17 72.45 71.78 71.61 71.59 71.11 70.35 69.71 69.43 69.11 69.16 68.84 68.09 67.98 68.05 68.46 68.78 68.97 69.11 69.13 69.08 70.19
59.72 55.71 50.27 44.59 45.01 48.75 50.81 54.14 55.97 58.03 59.86 60.54 60.27 58.01 59.54 61.77 63.78 65.57 69.70 69.31 68.72 69.59 70.33 72.97 73.62 73.42 73.37 73.17 72.60 71.98 71.91 71.93 71.64 71.08 70.68 70.21 69.71 70.18 69.81 69.07 69.13 68.98 69.01 69.31 69.92 70.37 70.34 70.38 69.98
57.33 51.04 42.25 42.15 45.51 50.41 53.86 55.35 54.88 56.98 57.78 58.79 59.73 57.63 57.15 62.27 65.32 69.69 69.20 69.42 68.04 68.16 69.18 72.03 73.47 73.32 73.47 73.42 73.05 72.40 72.11 72.06 72.08 71.93 71.39 70.91 71.14 70.87 70.09 69.73 69.72 69.54 69.67 70.21 70.62 70.87 71.29 70.67 70.32
49.65 48.19 40.72 40.82 45.10 50.88 53.40 55.17 54.50 57.35 59.08 59.61 58.54 58.75 57.39 62.47 64.87 69.03 69.73 68.73 69.04 67.48 68.17 70.84 73.47 73.32 73.02 73.22 72.87 72.52 72.15 72.20 72.23 72.35 72.10 72.06 72.00 71.73 71.05 70.58 70.25 70.47 70.79 71.33 71.44 71.26 71.05 70.80 70.40
47.73 44.52 41.01 43.11 46.25 49.10 52.95 56.04 54.61 54.60 56.19 57.69 58.66 56.45 58.02 60.12 62.06 67.39 69.37 68.96 69.07 67.84 68.00 69.57 70.70 72.20 73.37 73.07 72.62 72.37 72.02 72.00 72.00 72.04 71.97 72.12 72.19 72.04 71.87 71.65 71.44 71.22 71.76 71.54 70.97 70.51 70.19 70.11 69.99
50.54 45.08 40.97 43.27 45.02 46.53 53.76 54.53 55.23 54.84 55.59 59.72 59.49 54.31 53.98 59.31 61.95 60.86 62.71 67.28 67.70 67.38 68.25 68.26 68.45 69.87 70.33 70.74 73.26 72.51 72.22 72.01 71.77 72.08 72.13 72.14 72.36 72.06 72.04 71.44 72.01 71.95 71.82 71.33 70.97 69.84 69.04 68.79 69.08
54.85 41.19 39.09 43.17 45.85 47.94 52.65 51.85 57.62 59.22 57.05 58.57 59.33 58.40 59.66 61.89 62.22 58.16 57.38 57.57 65.82 67.41 67.87 68.62 68.01 67.80 69.28 69.23 71.24 72.51 72.79 72.44 72.01 72.01 72.13 71.26 69.86 69.94 70.05 71.25 71.17 72.10 71.98 71.25 70.38 69.62 68.77 67.99 67.77
52.70 42.05 42.72 47.82 49.68 47.85 50.66 51.21 52.85 53.95 54.91 56.07 57.70 60.44 61.13 61.38 58.98 57.97 57.02 56.37 62.51 65.87 67.97 68.74 68.74 67.55 67.80 68.55 68.77 70.36 70.13 70.17 69.94 69.64 69.53 69.42 68.42 67.52 69.12 69.60 71.82 72.26 71.87 70.81 70.13 69.69 68.50 66.78 63.66
52.98 50.22 52.23 52.19 52.81 52.14 50.98 52.25 54.60 53.22 52.13 55.10 55.87 56.94 59.90 59.77 59.17 58.91 57.93 57.79 57.07 63.92 68.28 69.01 68.74 68.47 67.19 66.27 67.58 69.68 69.31 69.26 69.35 68.88 68.94 68.83 67.84 66.35 66.00 65.02 68.33 69.19 70.47 66.83 67.99 66.35 64.56 63.73 63.69
49.20 53.36 55.54 56.19 56.35 54.49 52.07 54.37 52.91 53.74 53.83 57.04 57.44 58.02 58.34 58.42 57.91 57.52 57.44 57.58 56.98 57.54 67.11 69.03 68.95 68.50 67.91 66.99 66.61 68.30 68.37 68.97 69.04 68.89 68.60 67.93 65.39 63.84 63.54 63.83 64.24 64.32 64.89 63.64 62.12 61.83 62.53 63.13 64.05
46.27 51.25 53.88 53.34 53.68 54.57 54.87 53.07 52.93 53.44 56.50 58.13 58.12 57.44 56.55 55.82 56.52 57.07 57.64 57.40 57.28 56.61 58.01 68.23 68.82 68.53 68.40 67.34 67.39 67.30 67.43 68.18 68.65 68.51 67.93 67.37 65.63 64.63 64.20 63.39 63.10 63.49 62.65 62.55 61.65 61.99 62.39 62.43 62.77
45.47 46.24 47.61 50.88 52.24 52.61 51.79 52.46 53.60 54.64 57.37 57.08 55.86 55.55 55.64 55.09 55.96 56.24 56.51 56.93 57.06 57.64 57.53 66.31 68.38 68.71 68.60 67.77 66.97 67.64 67.39 67.22 67.55 67.72 67.32 66.98 66.14 65.14 64.09 63.14 62.45 63.07 62.92 62.63 62.53 62.44 61.92 62.19 62.31
47.04 43.36 45.47 47.06 47.28 48.62 53.25 49.82 50.45 55.12 56.28 54.89 55.32 55.05 55.36 55.79 56.54 56.06 56.94 56.74 57.64 58.12 58.49 62.73 67.58 68.72 68.31 67.86 66.57 67.65 67.67 67.90 67.33 67.01 67.02 66.86 66.18 64.72 63.77 63.71 64.17 63.18 63.33 62.82 62.36 62.23 61.83 61.50 62.02
42.78 42.06 38.63 45.47 47.36 48.65 48.57 42.91 51.42 54.70 53.66 53.51 54.65 55.64 56.10 56.49 57.23 57.77 57.44 56.87 56.90 56.67 58.01 61.23 67.52 68.23 68.13 67.63 66.53 67.99 68.01 67.73 67.14 66.68 67.02 67.20 66.37 64.98 64.36 64.19 62.73 63.66 63.50 62.86 62.07 61.15 60.75 60.62 60.55
39.83 36.87 38.58 42.08 47.02 46.98 47.02 44.64 50.55 53.71 52.94 51.68 52.71 53.92 55.01 56.04 56.41 55.98 57.94 58.41 58.33 58.80 58.71 59.86 64.12 66.16 67.02 67.29 66.27 67.60 67.65 67.71 66.76 66.44 67.18 66.90 66.46 66.22 65.26 64.16 63.28 63.73 63.37 62.83 62.38 61.76 60.70 59.43 59.57
35.57 37.38 40.31 40.11 44.61 46.58 45.38 45.34 49.16 51.29 51.68 51.68 52.55 53.49 54.25 55.12 55.88 57.43 57.65 58.46 57.69 58.33 57.40 59.24 64.57 65.39 66.06 65.03 65.92 65.58 65.52 65.12 65.50 66.19 66.85 66.74 66.56 66.31 64.58 63.60 63.10 63.41 62.55 62.14 61.69 61.01 60.64 60.26 58.95
40.91 39.86 39.73 42.17 45.95 45.04 44.96 45.56 47.60 50.01 50.53 50.39 51.70 52.87 53.37 52.97 55.86 56.35 56.52 57.12 58.25 56.91 58.00 59.17 63.45 64.85 66.65 65.84 66.44 65.94 65.15 64.21 63.39 64.66 65.91 66.16 66.07 65.94 63.79 63.67 63.21 63.10 62.06 61.31 60.91 59.98 59.80 58.51 58.35
39.18 37.25 37.38 41.80 44.75 43.66 43.84 44.07 47.33 49.37 49.72 50.82 50.94 51.85 52.50 52.55 54.00 56.13 56.25 56.65 57.37 57.29 57.01 59.95 62.98 66.79 67.50 67.48 67.26 66.38 64.81 62.94 63.71 63.53 65.18 65.31 65.51 64.92 64.41 63.12 62.66 62.05 60.71 60.60 59.17 59.27 57.33 57.00 57.97
38.48 36.74 37.60 38.19 42.66 44.36 42.45 40.61 42.68 46.69 48.11 49.06 50.78 52.04 52.41 52.62 53.01 53.25 54.37 54.64 54.16 56.03 58.81 61.88 64.96 67.61 67.78 66.74 66.08 64.21 63.00 62.13 61.71 61.98 62.93 63.83 64.55 64.46 63.96 62.46 62.15 61.20 60.37 59.25 58.58 58.34 57.43 55.50 55.80
34.32 41.42 41.71 40.62 38.93 33.67 41.99 32.94 40.96 44.02 45.55 47.71 49.17 49.67 50.10 51.79 53.97 53.70 54.62 52.56 53.47 59.74 64.19 66.16 66.60 66.85 67.16 67.45 66.26 65.20 62.22 60.75 60.77 61.54 61.81 62.66 63.68 63.70 63.24 62.71 61.91 60.65 59.73 58.64 58.86 59.26 57.80 56.12 54.32
36.93 42.60 41.34 40.95 37.80 35.39 37.84 32.95 36.25 43.50 43.39 45.90 48.66 50.50 49.81 51.07 52.01 53.19 54.45 53.22 60.21 64.37 65.61 67.10 67.10 67.44 66.99 66.11 65.37 63.52 61.72 60.41 60.90 61.48 61.44 60.46 60.98 62.13 62.65 62.02 60.99 60.07 59.33 59.00 58.87 58.86 57.48 56.66 55.32
41.34 39.79 39.56 39.46 34.99 29.43 36.64 35.41 35.07 39.84 43.05 45.96 48.16 49.83 51.43 50.98 52.39 54.08 58.23 61.97 62.88 64.62 66.69 66.56 66.72 65.23 65.40 64.36 62.37 62.47 60.85 60.91 60.28 59.75 60.25 59.93 60.62 61.58 61.02 61.59 60.11 59.22 59.71 59.13 59.74 59.51 58.10 57.44 56.90
37.01 30.62 25.25 24.07 25.99 28.22 38.38 35.47 38.26 42.29 45.12 47.10 47.75 49.27 49.92 55.93 57.08 59.02 60.13 61.68 63.17 64.30 64.85 64.93 65.23 63.38 62.34 62.06 61.76 61.43 60.61 60.83 59.85 59.85 60.14 59.50 60.41 58.56 59.07 59.04 59.14 59.27 59.36 60.42 60.14 59.12 58.59 57.56 57.36
32.75 31.16 25.85 21.02 23.72 29.12 38.79 32.17 37.14 45.17 47.84 48.91 50.33 49.82 56.32 57.06 58.06 59.23 61.30 63.19 63.94 64.07 63.21 63.28 63.26 61.08 62.19 61.58 60.77 60.88 60.39 60.17 59.65 60.00 59.42 59.17 59.10 59.11 58.33 59.05 59.15 59.87 61.37 61.65 61.07 59.44 59.02 58.64 58.64
33.56 30.62 34.18 29.71 33.72 28.78 33.25 38.06 42.34 45.69 46.32 47.22 47.95 54.60 55.62 56.69 58.43 60.69 62.46 63.45 62.51 62.30 61.51 62.29 61.26 61.59 61.80 61.35 60.14 60.28 60.59 60.41 59.50 59.47 59.58 59.50 59.13 59.18 59.27 59.29 59.76 60.88 61.30 61.61 60.75 59.32 59.01 59.03 59.07
36.64 38.62 29.45 28.81 23.77 22.52 31.44 34.25 36.11 41.90 44.41 46.80 46.48 53.41 54.83 56.84 58.50 61.00 62.08 61.62 61.74 61.41 61.29 61.22 61.41 61.62 61.48 60.76 61.46 61.01 60.25 60.16 59.89 59.53 59.06 58.31 58.13 58.61 59.24 59.05 59.58 60.12 60.70 60.82 60.58 59.22 58.80 58.68 58.88
33.14 31.97 32.33 32.09 30.70 25.96 26.00 31.28 42.16 42.86 45.65 46.08 47.07 54.78 56.16 57.06 58.92 60.54 61.22 61.33 61.71 61.44 61.11 60.36 61.03 61.31 60.79 60.24 60.71 60.40 59.98 60.13 59.75 59.56 58.71 58.32 58.59 58.96 59.22 59.26 59.37 60.08 60.33 60.19 59.80 59.40 59.12 59.89 59.09
37.05 34.53 33.73 26.20 27.20 31.96 31.28 32.95 45.52 44.33 46.78 46.98 54.16 56.23 56.83 57.85 59.65 60.43 60.83 61.35 61.02 60.78 60.35 60.02 60.30 60.88 60.45 59.99 59.97 60.09 59.88 59.66 59.37 58.93 58.15 58.20 57.72 57.85 58.40 58.98 59.74 61.51 61.41 60.47 59.57 59.57 60.16 59.65 59.57

GFSSGP_sfc_wetblb_021.txt.gz
Wetbulb
67.30 64.43 58.31 57.20 45.64 43.47 40.48 44.37 49.10 50.95 52.92 55.98 56.01 54.58 53.71 54.88 54.64 49.76 62.25 66.98 68.48 68.81 71.99 73.62 74.66 74.11 73.66 73.09 72.57 72.10 71.80 71.30 70.80 69.55 68.52 67.86 67.71 67.04 66.88 66.59 66.27 66.05 66.34 66.70 67.15 67.46 67.62 67.41 66.85
61.83 60.13 54.95 52.22 42.83 37.92 39.74 47.54 49.37 51.84 56.50 57.94 56.67 56.43 56.89 56.92 61.58 63.06 63.21 67.94 69.10 70.05 71.57 72.02 74.43 74.09 73.81 73.29 72.70 72.13 71.56 71.28 70.43 69.60 68.75 68.20 67.99 67.70 67.46 67.03 66.90 66.80 67.26 67.60 67.55 67.47 67.63 68.07 68.60
62.60 61.43 49.26 46.84 43.17 40.63 42.49 49.34 53.22 55.94 58.68 57.81 56.61 58.22 58.17 59.16 63.50 64.19 65.37 68.08 69.70 69.89 71.26 71.07 74.16 73.99 73.72 73.34 72.65 71.98 71.73 71.49 70.86 69.92 69.47 68.84 68.52 68.69 68.05 67.78 67.60 67.51 68.03 68.29 68.53 68.66 68.66 68.71 69.06
59.04 54.93 49.80 43.29 42.75 46.23 48.09 51.61 54.90 54.35 57.96 58.24 57.99 56.74 58.23 62.45 64.55 64.82 68.47 68.61 68.83 69.67 70.50 72.12 73.74 73.84 73.54 73.34 72.75 72.06 71.86 71.63 71.26 70.68 70.35 69.78 69.27 69.77 69.24 68.28 68.48 68.46 68.96 69.46 69.46 70.00 69.81 69.83 69.69
56.33 49.01 41.15 41.09 43.45 48.01 51.68 52.72 53.02 52.32 56.32 56.96 57.76 55.75 56.33 62.00 64.48 68.28 68.08 68.45 67.40 68.58 69.46 70.93 73.74 73.71 73.62 73.32 72.92 72.20 71.91 71.61 71.41 71.26 70.76 70.41 70.40 70.23 69.41 68.99 69.11 69.08 69.45 69.56 69.97 70.02 70.68 70.77 70.49
49.65 47.33 39.54 38.87 43.10 48.49 52.07 52.77 53.71 54.28 57.23 57.02 56.29 57.07 55.94 61.00 64.73 67.31 68.14 67.11 67.45 68.04 68.61 70.20 73.37 73.52 73.37 73.07 72.72 72.06 71.86 71.71 71.68 71.49 71.44 71.24 71.00 70.70 69.83 69.61 69.72 69.67 69.71 70.18 70.56 70.91 71.14 71.34 70.82
46.72 42.94 39.88 41.64 44.66 47.49 51.80 53.10 52.57 52.37 53.76 54.44 57.47 56.18 56.46 59.16 62.10 66.50 67.04 66.23 66.36 67.28 67.70 69.49 70.70 72.00 73.54 72.97 72.47 72.20 71.88 71.68 71.63 71.55 71.48 71.61 71.63 71.53 71.14 70.90 70.26 70.23 70.55 70.92 71.07 71.22 71.00 70.60 70.35
49.41 44.70 40.14 42.82 43.80 45.17 52.85 52.97 54.20 54.01 54.15 58.03 59.27 54.12 53.72 58.69 62.12 62.53 66.40 66.06 65.64 64.88 66.38 68.01 69.07 69.84 69.77 70.59 72.84 72.32 72.22 71.80 71.62 71.67 71.70 71.72 71.99 71.96 71.86 71.25 71.29 70.70 71.14 71.60 71.53 70.87 70.09 69.74 69.42
50.60 40.44 38.47 42.25 44.41 46.61 51.61 53.20 57.21 57.86 55.80 55.35 57.36 57.39 59.31 61.48 60.53 58.34 60.29 63.03 64.55 65.86 64.47 66.50 67.62 68.11 68.11 68.67 70.50 72.41 72.57 72.29 71.96 71.67 71.89 70.87 69.16 69.49 69.37 70.67 70.51 71.02 71.70 71.50 71.25 70.60 69.76 68.77 68.43
51.32 40.94 41.35 46.33 47.90 46.99 49.68 50.94 55.27 56.04 55.60 53.95 54.61 58.71 60.04 59.98 58.91 56.31 55.69 57.93 64.04 64.85 65.26 66.69 66.46 66.66 67.07 67.69 67.37 69.65 69.42 69.43 69.56 68.92 68.55 68.63 66.95 67.17 68.67 69.61 70.81 70.77 71.69 71.30 71.03 70.42 69.18 68.23 63.36
51.18 48.27 49.83 49.28 49.39 51.56 51.02 51.35 51.45 51.96 50.54 53.46 52.76 55.67 57.61 57.81 57.30 56.42 56.01 55.39 57.74 65.27 66.16 67.04 66.83 65.50 66.08 65.82 66.12 68.61 68.48 68.40 68.59 67.60 66.86 67.01 67.31 66.79 67.69 65.41 66.73 68.05 70.91 68.10 68.23 67.40 66.39 63.29 62.67
47.85 52.27 53.95 54.43 55.96 55.94 54.23 54.48 53.26 51.98 52.33 55.17 56.16 57.00 56.76 56.85 56.62 56.43 56.51 56.22 55.18 58.79 65.25 67.32 67.41 66.68 64.96 65.21 65.29 66.27 67.33 67.27 67.62 67.98 67.15 67.37 66.22 64.18 63.60 63.60 63.21 65.93 65.95 65.91 64.05 63.45 62.67 62.40 63.10
45.37 49.64 52.40 53.43 52.62 52.25 54.97 53.92 53.43 53.16 55.30 56.44 56.48 56.75 56.42 56.22 55.88 55.82 56.68 56.79 56.45 54.19 60.10 65.86 67.72 67.16 66.44 64.13 64.07 65.38 66.52 66.16 66.78 67.42 67.74 67.51 65.82 64.58 62.54 62.37 62.64 63.22 63.55 63.63 62.30 61.02 60.92 61.16 61.73
43.68 44.60 46.54 47.73 48.26 50.48 50.32 51.46 52.47 53.25 55.95 55.66 56.00 55.85 55.67 54.82 54.90 54.12 54.34 54.98 55.45 56.57 55.65 63.46 67.21 67.55 67.34 65.72 63.73 64.43 65.91 65.79 66.44 67.28 67.35 67.11 65.56 63.74 62.78 62.17 62.59 62.12 62.16 62.28 61.94 61.31 60.89 61.31 61.61
44.66 41.33 43.95 44.84 44.20 45.33 48.59 46.50 47.79 53.01 55.43 54.32 54.99 55.30 55.40 54.39 55.00 54.72 55.54 55.09 56.17 57.35 57.57 58.92 66.22 67.50 67.04 66.57 65.65 65.05 65.10 65.50 66.15 66.88 67.31 66.75 65.09 63.83 63.30 63.17 62.79 62.28 62.50 62.02 61.31 61.42 61.15 60.61 60.80
40.52 40.42 37.58 44.22 45.85 46.62 47.24 41.87 50.32 52.50 53.31 53.20 53.74 53.57 54.08 54.89 55.34 55.99 55.26 54.88 56.20 56.35 55.69 56.21 64.96 66.69 66.96 67.00 66.61 66.11 66.22 65.55 65.59 66.41 66.57 66.24 65.70 64.82 63.86 64.13 63.43 63.56 62.36 61.80 61.08 60.84 60.68 62.00 59.75
37.46 33.60 35.18 39.15 45.38 45.76 45.94 43.29 49.30 51.68 51.25 50.63 51.80 52.64 53.47 53.59 53.68 54.29 56.04 57.01 56.97 56.55 56.64 55.48 60.54 65.55 66.59 66.89 66.42 66.01 66.15 66.28 65.83 65.64 65.74 65.95 65.83 65.04 64.39 63.46 63.00 62.86 62.23 61.46 61.22 60.36 59.65 58.55 58.49
33.59 34.73 37.55 37.57 42.42 44.54 43.23 43.30 47.41 49.24 49.17 48.80 49.82 51.09 51.84 52.67 53.65 55.37 56.31 56.59 55.95 55.25 55.49 55.88 61.10 64.99 66.16 65.85 63.71 64.25 64.85 65.86 65.39 65.81 65.99 66.14 65.68 65.49 63.96 63.91 62.88 62.33 61.93 61.39 60.68 60.72 59.48 59.50 58.23
37.62 36.35 36.05 40.08 44.05 42.49 42.36 42.80 45.20 47.18 48.10 48.61 49.81 50.53 51.07 50.91 53.70 54.98 55.56 55.83 55.52 55.22 55.20 55.78 60.64 62.16 64.51 63.92 63.55 63.43 64.63 64.46 64.70 65.75 66.37 66.17 65.57 65.44 65.17 63.14 62.18 62.06 61.98 61.51 60.75 59.61 58.71 58.82 60.22
36.45 34.77 34.63 39.01 42.62 41.14 40.60 40.21 43.64 45.98 47.14 48.58 49.34 49.93 50.26 50.93 52.28 53.71 54.78 55.37 54.90 55.87 55.45 55.37 58.98 62.18 64.24 65.14 65.28 63.78 65.12 63.00 63.13 64.66 65.74 66.06 65.94 65.70 63.95 62.72 61.91 61.83 60.96 60.25 59.23 58.47 56.83 57.39 58.05
34.68 34.06 34.87 35.47 40.23 41.90 39.83 38.01 40.53 44.36 45.88 47.42 48.29 48.42 49.24 50.02 51.07 52.56 53.39 53.39 54.46 53.92 54.66 55.54 58.66 63.34 64.00 63.85 63.66 62.31 62.08 62.21 61.04 62.57 63.45 64.26 64.75 64.51 63.68 62.81 62.05 61.20 60.50 59.29 58.23 57.63 57.09 55.92 54.94
31.25 37.89 38.83 38.82 35.99 30.97 39.13 30.09 38.60 41.84 43.21 45.21 46.60 45.98 47.99 49.89 50.65 51.40 52.63 52.28 51.53 53.85 53.65 56.23 60.07 63.69 64.48 64.60 63.62 63.25 61.51 61.49 60.18 62.88 61.59 62.20 63.90 63.64 63.35 62.44 61.52 60.83 59.63 58.47 57.95 58.57 57.19 55.90 54.28
33.86 39.67 38.02 37.44 34.89 32.60 35.18 30.37 36.50 39.99 39.91 42.87 45.49 46.79 48.24 49.14 50.46 49.99 51.49 51.29 51.49 53.47 60.21 62.80 64.49 64.94 65.13 64.21 63.89 62.18 60.33 59.79 60.65 61.52 60.86 62.40 61.33 62.65 62.69 62.60 61.75 59.64 58.75 58.30 58.28 58.13 57.05 56.66 55.48
39.12 36.74 36.40 35.88 32.80 25.91 33.66 32.84 34.49 37.56 40.27 42.40 45.01 46.53 48.30 48.55 49.41 51.19 57.68 59.49 60.15 64.25 64.45 64.84 65.01 64.26 64.32 63.97 62.42 62.08 60.33 60.42 60.39 60.27 59.65 59.50 59.33 60.88 62.51 61.26 59.97 59.12 58.34 58.62 58.70 58.22 57.60 57.03 55.84
35.91 29.11 22.43 21.87 23.21 25.13 35.05 33.45 35.96 39.95 42.44 43.40 43.94 45.67 46.96 47.47 52.52 56.58 55.73 59.47 62.40 63.50 63.68 64.58 64.37 61.95 61.76 61.71 61.27 61.12 60.66 60.71 60.33 59.97 59.75 58.96 59.21 58.38 58.06 59.01 58.20 57.80 58.69 58.71 58.74 58.40 57.60 56.85 56.40
31.12 30.31 22.90 20.39 22.32 25.82 36.07 30.28 35.05 42.51 45.14 46.62 47.02 47.33 46.84 52.03 56.47 57.64 59.15 60.72 62.21 62.23 62.80 63.04 61.87 60.77 60.65 61.00 59.79 59.54 59.78 60.15 60.45 60.21 59.60 58.97 58.63 58.20 58.19 58.36 58.43 58.86 59.29 59.84 59.40 58.97 58.57 57.44 57.39
32.25 27.31 33.28 26.74 29.40 24.87 30.21 34.93 40.83 44.15 44.84 45.44 45.16 46.21 49.82 54.95 56.82 59.52 60.72 60.80 60.95 60.75 60.79 60.97 60.50 59.69 59.49 59.21 59.45 59.17 59.56 59.60 59.60 58.71 58.51 58.51 58.06 58.52 58.12 58.48 58.30 58.71 59.75 59.80 59.33 58.99 58.34 58.35 57.50
34.71 36.71 27.14 24.97 21.55 21.17 27.94 30.84 33.87 38.68 41.85 43.97 44.19 44.60 50.41 55.55 58.39 60.06 60.30 60.13 59.67 60.16 59.86 60.74 60.66 59.50 59.38 59.81 60.12 59.75 58.98 59.12 58.88 58.76 58.42 58.13 57.92 57.87 58.45 57.91 57.99 58.81 59.80 60.32 59.11 58.62 57.70 57.74 57.69
32.14 30.07 30.68 29.38 27.64 22.94 23.27 28.23 38.80 40.32 41.88 42.57 46.07 45.55 53.41 56.36 59.22 59.80 59.52 59.91 60.04 59.48 60.03 60.17 60.11 59.65 59.58 59.85 59.67 59.23 58.87 58.89 58.73 58.26 57.78 57.17 57.11 57.47 58.23 58.63 58.06 58.93 59.07 59.87 58.41 58.66 58.21 58.91 57.80
36.91 32.57 31.63 24.62 25.14 27.74 27.90 30.31 42.17 41.20 43.07 46.74 47.41 50.32 55.57 58.04 59.29 59.45 59.86 59.68 59.88 59.10 59.85 59.92 59.75 59.48 59.59 59.49 59.04 58.31 58.29 58.37 57.92 57.79 57.40 57.60 57.61 57.87 58.42 58.48 58.45 59.74 59.92 59.62 59.04 59.56 59.95 58.91 59.04

GFSSGP_sfc_wetblb_024.txt.gz
Wetbulb
66.71 64.76 56.55 55.27 44.44 43.15 39.23 42.73 46.94 48.33 51.64 54.81 54.10 54.42 56.03 55.54 54.29 49.84 61.53 66.54 67.38 68.11 72.45 73.84 74.86 74.51 73.99 73.59 73.09 72.89 72.45 71.90 71.17 70.54 70.06 69.45 69.29 68.16 67.47 67.49 66.75 66.53 66.48 66.68 66.99 67.23 67.23 67.07 66.78
61.93 59.20 54.12 50.87 40.91 37.14 39.39 46.08 47.01 50.19 54.82 57.58 55.83 55.85 56.03 54.51 59.48 60.88 61.41 67.15 67.74 69.59 71.80 72.35 74.76 74.34 74.21 73.66 72.99 72.75 72.25 71.73 71.17 70.53 70.16 69.63 69.51 69.04 67.44 67.07 66.86 66.66 66.79 67.20 67.47 67.42 67.57 67.72 68.05
60.67 59.08 48.83 46.64 41.98 39.40 39.89 48.42 50.82 54.09 56.00 56.75 54.58 57.11 57.48 57.28 62.31 63.15 64.55 67.97 68.63 69.51 71.38 71.38 74.71 74.16 74.29 73.67 72.92 72.38 72.08 71.68 71.18 70.85 70.39 70.16 69.78 69.57 68.92 67.72 67.28 67.31 67.74 67.90 67.74 67.77 67.87 67.97 68.68
58.12 53.93 48.85 41.71 41.38 46.11 46.12 50.37 52.33 51.92 55.39 58.16 56.92 54.74 57.28 61.89 63.63 64.65 67.34 69.16 68.67 69.09 70.54 72.11 74.21 74.09 73.96 73.89 73.09 72.50 72.13 71.93 71.48 71.20 70.97 70.65 69.98 69.90 69.56 68.32 68.13 68.15 68.37 68.75 68.61 68.97 69.05 68.87 68.93
54.88 48.84 40.45 38.65 42.35 46.80 49.42 50.91 50.01 50.34 53.69 56.94 56.38 54.80 55.46 60.44 64.00 67.29 67.18 68.84 67.91 68.67 69.62 70.87 74.23 73.91 73.89 73.92 73.24 72.65 72.38 71.91 71.56 71.46 71.00 70.60 70.54 70.13 69.25 68.59 68.63 68.91 69.27 69.50 69.65 69.84 70.28 70.32 70.51
48.03 46.83 38.07 38.06 42.49 47.27 49.25 50.89 50.66 51.05 55.55 54.11 55.67 55.44 55.11 59.35 62.80 65.91 67.38 66.19 67.05 68.19 68.75 69.56 73.67 73.69 73.71 73.47 73.05 72.47 72.08 71.88 71.64 71.39 71.26 70.96 70.80 70.50 69.61 69.15 69.21 69.30 69.60 69.71 69.82 70.01 70.57 71.46 70.77
46.79 42.66 39.51 40.79 43.68 45.85 49.02 51.36 50.79 51.02 51.79 52.58 56.40 54.94 55.55 57.61 62.25 66.63 66.42 66.03 66.47 67.64 67.66 68.13 71.07 72.22 74.04 73.29 72.75 72.20 71.95 71.85 71.44 71.24 71.22 71.24 71.14 70.97 70.60 70.55 70.18 69.80 70.35 70.52 70.65 71.17 71.14 70.92 70.55
48.54 44.66 39.82 41.84 43.02 44.25 50.10 50.66 53.39 52.92 52.85 57.16 57.47 52.21 52.47 57.20 61.60 66.06 65.76 65.14 64.42 65.24 66.77 66.95 68.95 70.32 70.55 71.00 73.14 72.42 72.12 71.92 71.57 71.60 71.45 71.51 71.58 71.46 71.26 70.63 71.01 70.50 70.82 70.90 71.26 71.14 70.72 69.96 69.89
48.54 40.32 37.84 41.50 43.80 45.57 49.94 49.09 53.95 56.88 55.06 55.04 56.34 55.69 57.47 59.54 59.07 61.46 62.72 63.66 64.49 64.91 64.01 65.67 67.53 68.38 68.97 69.30 70.50 72.44 72.35 72.29 71.89 71.84 71.86 70.81 69.31 69.76 69.72 70.62 70.63 71.06 71.53 71.47 71.69 71.35 70.64 69.33 68.79
46.20 39.14 40.75 45.65 47.55 46.80 48.78 48.11 50.42 51.83 51.89 53.61 54.94 56.42 58.28 59.25 57.21 56.82 57.35 61.14 62.96 64.21 64.45 64.84 66.33 67.22 67.38 68.11 67.76 69.50 69.38 69.40 69.78 69.67 69.51 69.16 68.26 68.10 69.17 69.90 70.76 71.03 71.50 71.52 71.39 71.20 69.88 68.77 66.37
50.42 45.83 45.28 46.87 48.24 49.10 49.57 49.95 52.02 51.53 49.14 52.06 53.50 54.51 55.97 56.42 56.42 56.15 55.68 57.13 61.01 65.07 65.14 65.14 65.48 66.56 66.37 66.44 65.90 67.89 68.61 68.32 68.74 68.59 68.32 68.66 68.01 68.30 69.02 67.38 68.68 68.61 70.37 69.45 70.57 69.68 68.05 66.56 64.79
46.67 51.29 52.38 51.38 53.36 54.35 52.97 55.16 53.60 53.00 52.80 55.12 54.93 55.47 54.67 55.09 54.72 54.57 55.02 55.55 55.38 56.86 64.61 65.84 65.87 65.74 65.51 65.84 64.98 65.72 67.34 67.12 67.56 67.85 67.56 67.40 67.29 66.41 67.02 66.01 65.31 66.09 67.81 68.26 67.51 66.46 66.22 65.35 64.42
47.36 48.91 52.42 54.03 53.78 53.51 54.40 52.63 53.34 53.85 56.35 56.70 56.34 56.09 54.89 54.51 54.87 55.39 55.46 55.37 55.35 55.19 58.36 63.83 65.87 65.77 65.14 64.58 64.24 64.42 65.83 66.14 66.22 66.86 67.35 67.06 66.57 65.47 65.65 65.15 63.66 63.89 65.76 66.50 65.74 64.70 64.19 63.49 63.08
43.02 44.23 46.31 48.27 49.52 49.72 50.38 50.89 50.99 52.97 55.11 54.93 55.18 54.89 55.34 54.67 54.68 54.37 53.79 53.79 54.70 55.35 55.03 57.98 65.11 66.34 66.11 64.12 64.21 63.71 64.31 65.44 65.11 65.86 67.16 67.03 66.25 64.99 64.20 63.74 63.11 63.16 63.95 64.93 65.17 63.63 62.92 62.35 62.97
43.09 39.85 41.42 42.90 43.27 45.38 47.85 45.78 47.24 52.12 53.27 52.54 53.48 54.63 54.92 54.92 54.46 53.76 55.31 54.07 54.95 55.86 55.69 54.94 61.49 66.11 66.10 65.49 64.15 63.41 63.95 64.85 64.41 65.39 66.94 67.17 65.90 64.44 64.10 63.33 62.73 63.31 63.91 63.92 63.43 63.19 63.06 62.78 62.95
39.86 39.49 36.33 43.48 43.47 45.82 47.58 42.17 49.31 52.01 52.22 52.04 53.26 53.53 53.77 53.36 53.84 54.21 54.42 54.13 54.79 54.51 54.54 54.91 59.78 64.77 65.94 66.15 65.69 64.21 63.64 64.37 64.57 65.23 66.59 66.97 65.79 64.54 63.69 62.97 62.85 63.14 63.73 63.16 63.12 62.87 62.23 62.51 62.75
35.40 34.46 33.32 38.12 44.01 43.93 44.73 42.77 47.11 50.93 50.38 49.06 49.39 50.47 51.57 52.97 53.35 53.35 54.52 54.58 54.53 54.97 54.91 54.81 56.65 62.43 65.23 66.12 66.18 65.44 64.42 64.05 64.58 65.59 66.42 66.86 65.55 64.97 64.27 63.61 63.90 64.60 64.00 63.43 62.94 62.27 62.68 62.14 61.64
31.73 31.36 35.80 35.83 41.11 43.15 41.04 42.29 45.61 48.21 48.42 48.04 48.41 49.54 49.91 50.47 51.04 53.16 53.72 54.75 55.31 54.65 54.17 54.15 54.16 58.90 63.74 65.04 64.95 64.28 64.27 65.08 64.99 64.91 65.93 66.11 65.86 65.57 64.56 64.21 64.17 64.27 63.41 62.92 62.60 62.73 62.20 62.07 61.13
35.48 34.54 33.65 37.82 41.95 39.52 39.92 41.43 43.51 44.91 45.49 46.17 47.55 48.56 49.71 50.64 52.44 52.38 53.73 54.43 54.41 53.90 54.09 54.47 54.56 58.01 64.04 64.27 63.22 62.92 63.45 64.21 64.54 65.37 65.77 65.79 65.73 65.66 64.65 64.18 63.77 63.31 63.43 63.28 63.08 62.49 61.65 61.20 61.58
34.49 32.30 31.87 37.19 40.70 39.25 38.31 37.71 41.22 43.13 43.82 44.92 46.08 47.57 47.86 47.93 49.56 51.54 53.00 52.55 52.91 54.26 54.53 54.67 54.89 60.24 64.13 64.79 63.72 63.68 63.84 63.67 64.62 65.36 65.88 66.17 65.79 65.32 64.93 64.22 63.54 63.13 62.70 62.83 62.08 61.18 59.70 60.16 60.51
32.77 31.87 33.08 33.81 38.70 40.38 38.25 36.93 39.57 43.47 44.15 45.57 46.28 46.90 47.74 48.20 49.01 50.49 50.71 51.49 52.88 52.37 53.43 54.61 54.92 59.76 63.13 63.60 63.06 62.04 62.02 62.10 62.24 63.80 64.61 65.80 65.91 65.48 65.02 64.17 63.57 62.92 63.02 62.11 61.06 60.70 59.77 58.65 58.05
28.99 36.50 36.69 36.65 34.33 28.82 37.49 28.62 37.44 40.89 41.85 43.41 44.62 45.48 46.77 46.37 48.97 49.85 51.06 51.03 52.34 52.40 52.37 53.28 55.05 59.62 62.41 63.68 63.00 62.85 60.63 60.13 61.25 63.26 63.58 64.57 65.41 65.03 64.53 63.84 63.31 62.88 62.29 61.26 60.73 60.31 59.43 58.75 57.41
32.36 37.99 35.73 35.13 31.97 29.38 32.37 28.70 35.65 38.45 37.44 40.01 43.41 44.92 45.54 46.62 46.69 48.16 49.73 50.75 50.66 51.85 51.09 52.84 56.69 61.82 63.13 63.33 62.99 62.05 60.90 60.08 61.80 62.31 62.57 63.12 63.32 64.25 63.78 63.24 63.13 62.64 61.67 61.05 60.30 59.79 59.23 58.71 58.51
37.71 35.00 34.10 32.77 29.78 23.36 30.60 30.59 31.99 34.56 38.65 41.80 43.20 43.58 45.24 45.63 46.34 47.61 48.80 58.07 59.67 63.05 62.60 63.25 62.87 62.78 63.09 63.33 62.36 61.23 60.53 60.83 60.97 61.13 60.99 60.91 61.37 62.20 62.85 63.09 62.52 61.33 60.82 60.09 60.18 60.40 59.60 59.27 58.61
33.73 27.55 20.74 19.79 20.72 22.84 32.47 30.30 33.92 37.50 40.74 41.61 42.99 44.24 45.27 45.97 45.96 46.66 55.26 58.86 62.43 62.72 63.45 63.84 63.04 61.43 61.70 61.93 61.37 61.24 61.49 61.73 60.89 61.02 60.31 60.26 60.04 60.48 61.28 60.97 60.48 60.29 60.21 60.61 60.75 60.22 59.97 59.73 58.61
30.38 28.56 21.25 19.39 20.47 23.05 33.27 27.56 32.69 40.80 43.15 43.79 44.53 44.07 44.45 44.81 45.57 54.17 57.34 61.59 62.48 62.93 62.82 61.80 61.55 60.63 61.12 60.98 60.26 60.51 61.41 61.46 61.49 61.55 61.24 60.60 59.73 59.78 60.40 60.75 60.15 59.76 60.58 60.73 60.76 60.31 60.22 59.73 59.17
30.55 26.81 31.89 25.07 26.38 22.66 27.60 32.13 38.13 42.15 42.17 43.17 42.85 44.04 43.34 44.66 51.90 58.16 60.25 62.01 61.35 60.61 60.22 60.52 60.13 59.95 59.90 59.78 60.06 59.90 60.42 60.87 60.20 59.64 60.16 59.92 59.77 59.86 59.78 59.97 59.68 60.02 60.73 61.23 61.23 60.74 60.80 60.42 59.80
33.20 34.42 25.25 23.15 19.88 19.89 25.37 27.93 30.44 36.77 38.58 41.78 42.55 43.73 44.32 49.78 57.64 59.11 60.30 59.38 59.12 59.59 59.53 59.18 59.56 59.17 59.43 59.71 60.06 59.96 59.83 60.28 60.00 60.11 59.57 59.48 59.26 59.67 59.50 59.32 59.74 60.45 61.22 61.61 61.42 60.96 60.49 60.00 59.70
32.86 28.24 28.57 26.61 24.90 22.04 22.07 26.22 36.63 38.20 40.06 40.33 46.43 52.45 45.74 53.60 58.28 59.10 59.29 58.98 58.57 59.22 59.22 58.70 59.30 59.25 59.30 59.44 59.52 59.59 59.40 59.62 59.76 59.31 59.30 59.25 58.58 58.92 59.45 59.72 59.77 60.32 60.72 61.22 60.69 60.64 60.44 59.84 59.72
33.75 30.91 29.85 24.00 23.87 25.32 24.07 26.06 39.56 39.03 40.43 42.54 44.00 53.01 52.97 57.89 58.73 59.08 58.87 58.63 58.40 58.58 58.70 58.49 58.76 59.06 59.28 59.48 59.18 58.78 59.05 59.02 58.75 58.45 58.31 58.53 58.21 59.02 59.84 60.13 60.19 60.34 60.49 61.03 60.52 60.54 61.14 59.79 60.09

GFSSGP_sfc_wetblb_027.txt.gz
Wetbulb
67.65 66.15 61.08 60.31 50.94 50.41 45.74 47.49 50.69 51.17 55.15 58.45 57.98 59.56 60.62 61.99 59.62 57.30 67.89 70.54 70.72 71.18 73.77 74.94 75.18 74.96 74.63 74.33 74.13 74.08 73.83 73.81 73.56 73.31 72.96 72.12 71.81 70.72 69.55 69.54 68.85 67.96 67.58 67.19 66.84 66.98 67.26 67.18 67.16
66.58 60.22 59.18 56.42 47.19 44.04 45.53 49.60 50.89 54.15 58.33 59.26 60.30 59.53 59.90 59.05 62.79 64.64 66.64 70.63 71.01 72.80 74.19 73.32 75.15 74.83 74.60 74.23 73.76 73.41 73.04 72.91 72.59 72.12 71.59 70.79 70.63 70.17 68.95 68.56 67.94 67.80 67.55 67.77 68.15 68.12 68.12 67.93 68.08
61.77 59.79 55.15 53.01 46.59 43.52 45.92 50.74 52.25 56.77 58.26 57.26 59.35 60.81 61.08 60.81 64.67 66.58 69.27 71.18 71.23 72.71 73.93 73.95 74.90 74.56 74.53 74.08 73.63 73.06 72.62 72.29 71.74 71.39 71.11 70.93 70.56 70.16 69.54 69.23 68.67 67.69 67.82 68.18 68.29 68.23 68.31 68.82 68.90
61.02 58.88 54.37 47.85 46.37 49.02 49.15 54.94 56.10 55.71 57.84 59.47 60.57 58.20 61.22 64.88 66.30 68.56 70.84 71.21 71.63 72.33 72.99 73.54 74.80 74.43 74.43 74.11 73.61 73.04 72.54 72.14 71.64 71.51 71.21 70.91 70.77 70.28 69.91 69.59 69.42 68.18 68.61 68.85 68.90 68.86 69.00 68.94 68.97
59.33 54.48 47.89 45.75 46.11 49.71 53.17 54.86 55.74 54.72 56.11 59.07 60.11 58.14 59.92 64.60 68.85 70.61 71.24 71.56 71.43 72.25 73.23 72.72 74.70 74.25 74.48 74.38 73.83 73.06 72.57 72.07 71.77 71.59 71.39 71.27 70.88 70.61 70.34 69.81 68.92 68.84 69.22 69.47 69.54 69.86 70.20 70.15 70.22
52.54 52.52 44.86 42.18 45.12 49.15 52.46 54.59 54.27 55.56 57.57 58.13 58.75 59.13 60.66 63.91 67.74 70.43 71.60 71.95 72.37 71.98 72.85 72.39 74.40 74.23 74.15 74.06 73.78 72.91 72.54 72.25 71.92 71.75 71.77 71.45 71.23 70.91 70.44 70.36 69.60 69.55 69.99 70.22 70.42 70.52 70.48 70.64 70.79
50.85 49.26 44.16 44.26 44.76 47.49 49.66 54.44 53.75 55.82 56.17 57.56 60.88 58.11 61.61 62.80 66.38 70.68 71.34 71.75 71.95 72.17 72.13 71.83 72.92 73.73 74.23 73.78 73.21 72.96 72.29 72.19 71.73 71.38 71.31 71.38 71.43 70.94 70.72 70.62 70.64 70.69 71.03 71.13 71.30 70.96 70.84 71.18 70.81
53.55 51.03 45.37 45.53 44.08 45.77 52.44 54.78 56.88 56.60 56.57 59.78 60.65 56.26 57.86 61.99 68.87 70.31 70.54 70.54 70.67 71.46 71.61 71.41 71.81 72.61 72.18 72.37 73.66 73.13 72.56 72.36 71.82 71.67 71.48 71.31 71.50 71.21 71.01 70.37 70.67 70.99 71.16 71.19 71.18 71.11 71.09 70.62 69.98
53.74 47.17 44.37 45.02 45.28 47.02 52.94 52.32 56.63 58.02 57.68 58.07 59.33 59.90 61.33 63.68 68.79 69.31 69.26 69.51 69.84 69.69 70.66 71.09 70.57 72.24 71.80 71.21 71.93 73.21 73.11 72.66 72.04 71.83 71.72 71.01 69.55 69.94 70.26 69.92 70.96 71.40 71.60 71.47 71.40 71.35 71.41 70.20 69.27
52.15 47.69 46.85 49.35 49.35 49.20 51.51 51.99 53.47 53.82 55.09 55.24 57.45 58.94 60.73 62.09 62.21 62.34 63.98 65.51 68.40 69.62 69.87 70.15 70.85 71.15 71.81 70.14 71.55 72.09 71.48 71.25 71.62 70.99 71.13 70.83 70.67 70.55 69.34 70.23 70.78 71.57 71.67 71.38 71.57 71.73 71.00 69.88 69.40
53.33 47.91 50.72 50.46 50.24 51.20 50.85 50.96 52.82 52.78 53.19 55.75 55.61 57.38 59.47 59.85 61.29 61.17 61.16 62.53 63.13 66.00 69.98 70.28 70.37 71.24 71.29 70.63 70.70 71.40 72.05 71.73 72.31 71.37 71.85 71.99 70.84 70.29 69.96 69.49 70.22 70.15 70.85 70.99 71.49 71.34 70.62 69.81 69.46
49.31 52.87 52.91 52.19 51.21 50.32 49.23 52.07 52.31 54.26 54.78 58.27 59.55 60.19 60.03 59.40 59.85 60.48 60.76 61.47 62.52 63.93 65.88 70.96 70.44 70.81 71.79 71.33 70.07 69.76 70.08 70.70 70.36 70.57 71.94 71.36 69.97 69.95 70.28 68.69 69.22 69.96 68.93 70.45 71.35 70.78 70.82 70.20 69.58
49.42 51.15 53.87 55.00 55.03 54.14 55.99 54.60 54.70 55.88 58.71 60.15 59.93 59.47 59.21 59.69 60.30 60.99 61.82 62.72 63.60 63.32 65.51 66.39 71.00 70.79 71.33 71.33 70.41 69.90 70.02 70.17 70.11 69.81 70.96 71.00 69.59 69.84 69.34 69.54 68.49 68.86 68.57 69.42 70.47 70.50 70.40 69.65 69.05
49.37 50.06 51.49 53.87 55.04 55.55 54.03 54.22 55.60 55.97 58.41 57.62 58.15 58.24 58.69 59.14 59.77 60.62 61.75 62.30 64.35 64.47 65.07 66.46 68.34 72.00 71.44 70.77 71.25 70.19 69.89 70.42 69.99 70.04 70.70 71.03 69.84 69.37 68.29 68.50 67.75 67.69 67.61 68.28 69.69 70.00 69.65 69.11 68.58
47.00 44.63 46.92 47.79 51.23 52.35 54.29 50.08 51.61 55.64 56.35 55.21 55.89 56.81 58.00 59.16 60.06 60.05 62.33 63.91 64.00 64.99 65.58 67.26 67.42 70.01 71.76 71.49 71.03 70.36 69.37 69.21 69.76 69.04 71.02 70.07 70.68 69.86 69.57 67.87 67.67 68.04 68.02 68.74 69.24 68.94 69.03 68.43 68.23
43.19 44.06 40.62 46.99 47.15 48.33 49.05 44.10 51.61 54.47 54.07 53.70 55.19 56.39 57.26 58.68 59.94 61.08 61.92 63.55 64.52 64.56 65.60 66.76 64.14 66.35 71.52 71.84 71.11 69.88 69.84 68.82 68.86 68.94 68.78 69.49 70.00 69.42 68.64 67.34 67.18 68.36 68.19 67.27 67.35 68.01 67.14 67.58 67.79
42.21 38.28 40.32 43.20 48.28 47.60 47.16 45.82 51.37 54.41 54.25 54.20 55.65 56.31 56.14 57.02 58.67 61.52 61.24 62.10 64.53 65.62 66.07 65.97 65.95 64.63 70.21 71.53 70.77 70.78 70.80 68.50 68.61 68.74 68.53 69.23 69.31 68.83 67.83 67.10 67.45 68.64 66.13 66.36 67.84 67.62 67.54 68.49 68.20
36.91 37.83 40.37 40.73 45.56 46.48 45.54 45.81 49.84 52.54 51.86 52.29 53.43 54.09 54.48 55.29 57.18 59.72 60.96 61.95 63.04 65.34 66.58 66.90 65.46 65.44 67.75 68.92 70.21 69.80 69.23 68.04 68.48 68.39 68.61 69.30 69.22 68.49 68.81 68.01 68.31 67.38 66.69 66.71 67.73 67.92 68.26 68.64 67.93
40.23 39.48 39.61 43.02 45.84 45.42 44.61 45.47 47.78 50.32 50.76 50.59 51.42 52.38 53.41 54.57 56.82 58.70 59.92 61.98 63.17 65.48 65.96 66.76 65.38 66.67 64.76 67.00 67.37 67.76 67.38 68.16 67.92 68.55 69.33 69.35 69.03 68.69 68.74 67.65 67.69 67.72 66.77 67.23 68.39 67.67 67.93 66.57 66.06
39.23 37.76 37.51 40.94 43.71 43.20 44.12 43.63 46.76 48.15 48.47 49.95 50.45 51.43 52.39 53.65 55.15 57.24 59.25 61.47 62.89 63.48 64.66 65.98 65.20 65.85 66.03 67.48 68.87 68.85 68.63 68.69 68.91 68.47 68.85 69.64 69.47 69.49 68.71 68.37 67.54 68.02 66.66 68.67 67.19 66.68 65.06 65.15 63.88
38.25 37.10 37.97 37.51 41.55 43.89 42.45 41.12 44.06 47.69 49.53 50.32 51.06 52.11 52.74 53.53 54.34 56.01 57.51 59.89 61.69 62.62 64.04 64.37 65.29 65.43 67.06 68.61 68.83 68.86 68.76 66.89 66.57 67.79 68.44 69.24 69.40 69.52 69.18 68.41 67.09 67.17 68.35 66.82 66.44 68.55 67.07 64.35 62.23
34.22 39.64 39.51 39.21 38.56 35.01 42.36 33.88 42.29 45.45 46.45 48.08 49.33 50.69 52.21 52.81 54.17 55.63 56.93 59.06 60.94 61.39 62.15 61.84 63.12 64.31 66.93 69.30 68.63 68.33 67.42 65.36 66.48 66.19 68.52 67.91 69.44 68.97 68.70 67.94 67.49 68.36 68.29 66.06 68.61 68.15 67.01 65.46 62.57
36.03 40.49 38.71 38.15 37.00 36.70 37.70 34.88 39.85 44.67 43.39 46.09 48.53 50.16 51.65 52.74 53.32 53.71 54.79 57.11 58.85 59.92 62.22 67.08 65.20 62.97 66.48 68.80 69.39 68.41 68.12 68.13 68.50 68.49 67.03 66.60 68.65 69.44 68.15 68.34 69.03 69.07 66.82 66.76 68.12 66.78 65.75 64.66 63.47
40.26 38.48 38.66 38.69 36.84 29.80 35.79 35.24 37.35 41.02 43.40 45.30 47.98 49.50 51.16 52.93 53.55 54.04 55.24 56.64 58.44 64.94 66.38 66.42 66.05 65.40 66.85 68.10 68.81 69.05 68.65 67.67 67.26 67.57 65.85 66.76 68.32 68.49 68.81 68.92 69.15 69.22 68.56 67.77 66.74 66.38 65.80 64.93 64.24
38.10 34.87 28.32 26.88 27.89 27.50 37.45 34.73 38.08 43.86 45.25 46.40 47.87 49.19 51.22 52.94 54.42 55.47 55.17 58.69 64.02 65.40 65.56 65.00 66.57 66.45 67.62 68.06 68.49 68.74 68.75 68.45 68.32 67.89 67.58 67.48 67.11 67.52 68.01 68.71 68.36 67.62 67.44 66.79 66.28 65.87 65.36 64.90 64.11
36.44 35.18 30.08 22.98 25.89 29.53 36.36 32.04 38.25 45.62 48.01 48.84 49.49 51.17 52.28 53.51 54.74 54.24 58.45 63.33 64.62 65.69 65.34 67.05 67.18 66.88 67.64 67.60 67.59 68.15 68.48 67.97 67.95 68.42 67.55 66.90 67.09 67.41 67.93 67.81 67.52 66.60 65.98 66.00 66.22 65.45 65.26 65.63 64.75
36.40 32.26 38.09 31.90 33.25 30.88 33.89 37.34 42.00 44.40 45.91 47.87 49.86 52.35 53.56 57.83 55.98 56.29 62.57 64.20 64.41 64.60 66.74 67.47 67.32 67.03 67.06 66.82 66.88 67.21 67.62 67.89 67.93 67.99 68.13 67.24 67.55 66.75 66.80 66.82 66.00 65.52 65.59 65.98 66.22 65.40 65.54 65.62 64.94
37.90 40.04 31.71 33.20 25.32 24.96 32.20 33.99 36.98 41.99 44.35 47.09 48.44 50.86 54.55 57.67 56.84 60.52 61.97 62.97 64.79 66.84 66.91 67.32 67.55 66.72 66.65 66.75 67.04 66.84 67.18 67.26 67.11 67.43 66.98 67.06 66.57 66.34 66.00 65.64 65.52 65.19 65.52 65.93 66.67 67.00 66.44 65.54 64.88
32.98 34.77 35.77 35.48 33.74 29.03 29.65 34.79 43.91 44.27 45.01 45.61 47.31 50.11 57.05 55.75 59.29 60.40 62.03 63.85 65.73 66.24 66.32 66.25 66.20 66.03 66.05 66.29 66.32 66.39 66.10 66.46 66.89 66.65 66.39 66.10 66.14 65.64 65.09 64.84 64.63 64.96 65.33 66.04 66.51 66.25 65.57 63.75 65.14
37.32 35.20 36.82 31.44 30.18 32.85 32.20 33.42 45.33 45.32 45.92 46.93 47.32 49.17 57.95 59.40 59.44 60.53 62.10 64.07 65.24 65.35 65.42 65.28 65.96 65.87 65.83 66.10 66.15 65.88 65.86 66.05 65.78 65.62 65.64 65.36 64.64 65.10 64.64 64.51 64.41 64.32 64.53 65.38 64.85 64.47 63.96 62.84 63.91

GFSSGP_sfc_wetblb_030.txt.gz
Wetbulb
65.61 67.56 61.30 61.67 53.43 51.41 50.23 51.56 56.17 56.85 57.47 60.81 60.57 60.99 61.61 62.43 60.34 59.69 70.19 72.62 72.81 73.28 74.13 75.70 75.57 75.64 75.77 75.42 74.84 74.39 74.24 74.29 74.42 74.54 74.32 73.57 73.19 72.45 71.44 70.78 69.79 69.18 68.30 67.68 67.37 67.05 66.90 67.09 67.36
67.88 62.92 61.07 58.30 49.83 47.80 49.99 54.23 54.07 58.22 60.76 61.33 61.64 61.21 61.09 61.38 65.14 66.71 68.46 72.86 72.84 74.42 74.58 73.09 75.29 75.14 75.44 75.24 74.79 74.47 74.29 73.99 73.89 73.82 73.67 73.22 72.95 72.31 70.64 69.39 68.56 68.26 68.24 67.96 67.81 67.90 68.10 68.24 68.10
65.80 60.49 55.79 52.65 50.19 47.90 51.35 53.79 57.54 59.11 60.28 60.11 60.37 62.48 62.85 61.85 66.09 66.79 70.84 73.45 73.57 74.78 75.01 73.21 75.11 75.01 75.11 74.91 74.51 74.34 74.19 73.99 73.79 73.84 73.37 72.90 72.30 71.27 70.51 69.84 69.57 68.39 68.16 68.38 68.75 68.59 68.48 68.56 68.90
61.03 59.19 56.49 50.34 48.95 51.03 51.95 56.35 58.88 58.04 60.31 61.66 62.02 59.80 63.22 66.95 67.65 67.72 72.70 73.09 74.01 74.39 74.74 74.60 74.76 74.99 74.71 74.69 74.27 73.92 73.72 73.54 73.37 73.20 72.70 72.15 71.54 71.05 70.61 70.39 70.17 69.07 68.49 68.99 68.88 68.67 68.90 69.03 69.46
61.34 56.07 49.75 48.41 49.09 52.34 54.62 56.35 58.97 57.49 58.81 61.27 62.39 60.56 61.78 67.36 70.70 71.68 72.62 72.78 73.21 74.06 74.77 74.82 74.79 74.94 74.81 74.64 74.24 73.67 73.30 72.80 72.47 72.27 71.94 71.77 71.47 71.08 70.71 70.52 70.08 69.73 69.29 69.45 69.52 69.58 69.84 69.61 69.71
55.40 55.03 47.72 46.44 48.52 51.72 54.33 56.15 56.94 57.16 60.32 61.50 60.64 61.21 63.11 69.26 70.47 71.82 72.28 72.54 72.97 73.50 74.59 74.40 75.06 74.76 74.41 74.32 74.07 73.34 72.80 72.45 72.08 71.78 71.70 71.65 71.45 71.14 70.89 70.83 70.34 70.64 70.92 70.38 70.24 70.34 70.62 70.69 70.74
54.81 51.45 47.86 48.21 47.80 49.78 52.41 56.03 55.04 57.37 59.89 60.58 62.93 60.49 63.66 66.40 69.95 72.16 72.69 73.04 73.69 74.49 75.08 75.01 74.76 74.54 74.48 74.21 73.77 73.29 72.60 72.21 71.93 71.54 71.56 71.61 71.54 71.27 71.12 71.04 71.06 71.06 71.35 71.68 71.50 70.93 70.83 70.74 71.24
56.96 54.51 49.48 49.15 47.34 47.27 53.15 55.54 55.85 56.94 59.36 62.52 62.97 60.33 61.25 64.90 69.70 72.13 72.62 73.08 73.43 74.35 74.54 74.33 74.82 73.67 73.08 73.07 74.03 73.41 72.84 72.60 72.00 71.81 71.86 71.69 71.76 71.47 71.07 70.72 70.90 71.32 71.59 71.64 71.54 70.99 71.17 71.47 70.78
59.14 51.97 49.71 50.11 48.74 49.33 52.97 52.75 57.13 59.93 59.51 60.58 61.63 62.25 63.85 67.54 70.28 70.25 70.83 71.00 71.08 72.01 74.17 74.76 73.94 74.27 73.26 71.49 72.56 73.72 73.34 72.91 72.52 72.06 72.03 71.49 70.14 70.48 70.14 69.83 70.94 71.59 71.69 71.47 71.32 71.27 71.41 71.19 70.33
55.21 51.99 51.95 54.39 53.83 50.32 51.33 53.01 55.29 56.53 58.48 59.36 60.15 61.68 62.47 64.43 66.38 66.79 67.10 67.39 69.02 70.32 72.20 73.88 74.91 74.17 73.99 71.27 72.47 73.24 71.64 71.56 71.31 70.72 70.48 70.32 70.26 70.72 69.58 70.32 71.34 71.71 71.71 71.32 71.37 71.46 71.60 70.73 70.83
55.69 51.67 55.30 55.55 55.61 53.59 52.69 53.79 55.16 54.70 55.71 59.50 59.54 61.13 61.92 62.26 63.20 63.43 64.04 64.36 65.28 66.27 67.48 72.02 74.47 74.83 74.15 72.95 71.89 71.92 72.36 72.25 71.79 70.91 72.49 71.89 70.21 71.02 69.94 69.84 70.26 70.68 71.17 71.38 72.01 72.09 71.58 71.43 70.75
51.69 55.26 55.74 55.93 56.23 53.72 51.95 55.33 54.44 54.95 55.33 59.26 60.25 61.43 62.50 62.62 63.11 63.07 63.30 64.46 65.24 65.75 66.88 68.72 73.76 74.71 74.88 73.77 72.73 72.67 71.96 72.58 71.48 71.25 73.45 72.09 71.48 72.09 70.87 69.37 70.32 70.18 67.96 70.45 71.84 71.09 72.18 71.81 71.06
51.43 53.24 55.73 56.42 55.76 54.80 54.17 53.64 54.50 55.38 58.28 60.14 60.48 61.46 61.73 62.07 62.89 64.03 64.34 64.89 65.75 65.81 67.53 68.64 71.67 74.37 74.84 74.84 74.21 73.98 72.83 72.48 72.91 72.04 72.68 72.48 70.58 71.96 71.02 70.92 69.73 70.49 70.01 69.64 70.82 70.94 71.53 71.55 71.24
51.55 51.53 53.13 55.02 55.22 56.37 54.22 55.57 56.29 57.89 60.19 60.33 60.96 61.16 61.66 61.81 62.46 63.52 63.89 64.26 65.73 66.41 67.37 68.83 69.48 73.65 74.84 74.78 75.17 74.56 74.88 73.95 73.13 72.34 71.99 73.22 71.41 72.50 69.95 70.72 69.55 69.62 69.84 69.50 70.32 70.51 70.93 70.01 70.65
49.70 47.71 50.26 51.72 53.87 53.57 55.95 52.95 54.12 58.01 59.68 59.51 59.84 60.72 61.03 61.65 62.37 62.56 63.88 64.95 66.01 66.59 68.31 69.56 70.70 72.08 75.02 75.18 74.69 74.39 73.63 73.45 72.48 72.58 74.41 72.49 73.44 72.97 71.92 69.57 69.32 68.60 70.17 71.22 70.16 70.87 70.51 70.05 70.02
45.49 46.54 43.48 49.75 51.31 52.06 53.10 48.93 55.82 58.54 58.13 57.83 58.53 58.89 59.31 60.76 61.64 62.96 63.88 65.38 66.58 67.75 68.06 69.30 68.26 68.95 73.32 75.45 74.29 73.09 72.67 72.70 72.41 72.39 72.65 72.61 72.78 72.96 72.32 69.28 69.15 69.06 69.97 69.29 68.42 69.66 68.97 69.18 69.18
45.18 40.56 43.17 45.37 51.02 50.19 49.84 48.12 53.59 56.85 56.79 56.37 57.41 58.02 58.59 59.98 61.77 63.72 64.20 65.10 65.77 66.86 68.00 68.63 69.78 69.07 72.28 73.15 72.41 73.70 75.26 72.87 72.14 72.26 72.40 72.65 71.97 71.86 71.27 69.63 69.09 72.18 68.71 68.23 68.42 67.96 68.60 68.19 69.02
40.04 41.68 43.14 43.57 48.33 49.83 48.40 48.21 52.04 54.78 55.28 55.88 56.90 57.80 58.88 59.47 60.16 61.70 62.78 63.55 64.76 66.01 69.24 70.93 70.36 72.49 71.58 70.43 72.21 71.37 71.87 72.11 72.12 71.85 71.99 72.50 72.14 71.51 71.12 70.13 70.36 70.57 68.09 67.74 67.52 68.37 68.96 70.16 70.40
42.97 42.71 42.75 45.41 48.56 47.72 47.92 48.23 50.21 53.09 53.79 54.21 55.79 56.37 57.10 57.75 59.71 60.60 61.38 62.61 63.50 65.70 69.32 70.23 70.50 73.86 70.17 68.15 68.78 70.16 70.09 71.41 71.36 71.48 72.44 72.20 71.73 71.12 71.09 70.15 69.87 69.63 68.47 68.41 69.03 68.07 69.33 70.07 70.03
41.80 40.71 41.75 45.03 47.59 47.72 47.11 47.01 50.08 51.88 52.74 54.12 54.71 55.40 56.02 57.22 58.15 59.30 60.77 61.88 63.34 66.58 68.82 70.55 70.76 71.61 70.60 68.93 71.37 71.48 71.81 71.73 71.91 71.66 72.08 72.26 70.61 71.59 71.11 70.86 70.24 69.74 67.64 68.67 69.11 69.59 67.75 69.11 69.44
40.12 39.43 40.64 41.50 45.30 47.14 46.14 44.84 47.62 51.02 52.67 53.52 54.43 55.42 55.98 56.54 57.19 58.52 59.61 61.54 62.86 64.77 67.79 68.28 70.01 70.96 70.94 71.03 70.94 72.01 72.28 72.21 71.10 71.19 69.92 69.86 71.51 70.93 71.18 71.16 70.91 69.84 68.59 67.09 68.99 71.34 68.80 68.32 66.47
36.09 41.82 41.99 41.54 41.31 37.51 46.17 37.44 45.49 48.59 49.61 51.46 52.87 54.46 55.17 56.25 57.35 58.10 58.89 60.17 62.06 62.73 64.73 66.37 68.28 68.66 68.64 71.08 72.68 73.07 70.29 69.03 70.16 70.89 69.64 71.11 71.08 70.68 70.51 70.15 70.99 70.07 68.24 69.94 70.61 70.77 69.01 68.68 65.57
38.46 42.09 41.86 41.54 40.69 40.58 40.96 39.22 43.57 47.89 46.76 49.68 52.20 53.57 54.99 56.06 56.73 57.25 58.22 59.38 60.73 61.92 63.32 66.16 67.37 70.11 69.81 70.93 73.10 71.33 71.35 71.08 71.28 70.79 70.81 69.49 70.32 70.21 70.33 71.34 70.40 69.53 69.18 71.32 70.10 69.99 69.54 68.26 65.50
42.70 39.67 39.86 40.80 39.09 34.06 39.78 39.94 40.84 44.29 47.05 49.47 51.77 52.88 53.76 54.72 55.99 57.40 59.34 60.16 60.65 61.82 62.72 66.56 69.78 71.09 69.85 70.49 71.63 72.36 72.04 72.12 70.88 71.11 66.68 67.67 68.46 69.45 70.81 70.51 70.91 71.32 71.49 71.18 70.18 69.66 69.03 67.72 66.08
40.61 36.99 31.14 29.79 31.05 30.39 40.98 38.74 41.27 47.43 48.86 48.76 50.10 52.41 53.43 55.45 56.28 57.36 58.08 59.12 61.07 64.66 67.72 69.25 70.15 69.82 69.73 70.11 70.99 71.84 72.50 72.36 72.10 67.98 68.57 69.55 68.96 69.19 70.24 71.57 71.69 71.43 71.28 70.34 69.85 69.02 67.69 66.95 65.75
37.74 36.59 31.01 26.05 29.33 32.66 39.96 35.65 41.03 48.05 50.08 50.52 51.79 53.35 55.43 57.19 59.33 60.29 59.85 59.73 62.85 66.63 68.63 69.95 69.85 69.33 69.95 70.57 71.21 72.17 72.68 71.90 71.66 71.89 71.08 70.51 70.38 70.45 71.68 71.53 71.25 70.94 70.59 69.64 68.66 67.04 66.46 67.10 66.24
37.64 33.09 40.37 33.31 35.18 34.40 37.41 40.85 45.29 47.90 48.32 49.92 51.54 53.94 56.07 60.17 62.25 62.16 60.46 65.21 67.53 69.07 70.07 70.27 70.27 70.34 70.86 71.22 71.70 71.95 72.22 72.39 71.92 72.08 72.09 70.82 71.42 70.78 71.16 71.10 70.53 69.77 68.61 68.15 68.14 66.04 66.43 66.86 67.65
40.56 39.82 31.29 33.73 25.35 28.11 35.82 37.53 39.25 44.60 45.91 48.49 50.48 52.07 56.73 62.40 60.55 60.88 64.77 67.22 68.97 70.37 70.88 71.33 71.42 70.67 71.00 71.41 71.60 71.62 72.01 72.06 71.69 71.22 70.26 70.48 70.36 70.27 70.01 69.55 68.71 67.78 67.56 67.48 67.77 66.76 67.39 67.07 68.56
36.40 35.86 37.31 36.20 34.92 31.28 32.35 37.00 46.21 47.53 48.81 48.72 50.54 52.68 59.42 61.80 61.73 63.06 64.91 67.78 69.75 70.36 70.82 70.67 70.64 70.59 70.56 70.75 70.89 70.94 70.64 70.67 70.69 70.13 70.13 70.04 70.05 69.42 68.37 67.39 66.94 66.50 66.65 67.32 67.80 67.61 66.74 65.44 66.25
38.91 37.41 35.39 31.16 31.39 36.03 35.49 39.12 49.34 49.57 49.58 49.95 50.54 52.72 59.89 60.31 60.70 62.62 64.77 68.40 68.90 69.41 69.87 69.98 70.06 69.87 70.31 70.37 70.24 69.94 69.82 69.88 69.59 69.23 69.39 69.18 68.10 67.67 66.67 66.24 65.73 65.82 66.46 67.19 66.75 66.11 66.07 64.83 64.05

GFSSGP_sfc_wetblb_033.txt.gz
Wetbulb
66.34 65.63 64.97 59.89 53.48 51.67 50.05 51.19 56.44 55.99 57.22 60.62 61.68 60.48 61.00 63.13 60.07 59.25 68.75 70.05 70.79 73.79 75.22 75.59 76.07 76.19 75.53 75.33 75.79 76.06 76.33 76.45 76.53 76.24 75.81 75.04 74.52 73.66 72.68 72.07 70.92 70.26 69.45 68.34 67.25 66.69 66.72 66.65 66.65
62.88 64.81 60.31 57.32 50.67 48.78 49.43 54.74 54.56 58.43 60.93 62.83 62.88 62.43 62.34 61.65 66.18 67.52 68.37 70.79 72.10 75.21 75.14 72.93 75.94 76.04 75.89 75.14 74.71 75.14 75.36 75.73 75.78 75.68 74.96 74.22 73.67 73.21 71.99 71.08 70.40 69.51 68.57 67.86 67.41 67.27 67.45 67.72 67.55
68.56 63.19 55.35 52.61 51.32 48.20 50.88 54.88 57.52 60.27 62.54 61.79 61.07 63.00 62.76 62.85 66.49 67.39 71.02 71.37 72.65 75.02 75.12 73.81 75.74 75.69 75.87 75.44 74.79 74.37 74.36 74.64 74.89 74.84 74.39 73.89 73.39 73.19 72.27 71.17 69.92 69.07 68.71 68.46 68.40 68.47 68.35 68.32 68.32
63.23 58.97 55.93 51.04 49.07 51.94 53.02 56.98 58.95 60.16 62.06 63.09 62.90 59.94 64.42 67.50 67.23 68.87 71.53 71.70 73.74 74.71 74.92 75.43 75.19 75.36 75.59 75.59 75.12 74.66 74.27 74.09 74.27 74.17 73.87 73.54 73.27 72.53 71.58 70.81 70.52 69.67 68.96 68.98 69.29 69.08 68.86 69.13 69.27
62.59 57.69 50.94 49.44 50.12 53.29 55.35 57.02 59.90 59.89 61.14 62.25 62.64 60.69 62.14 66.42 68.96 70.64 71.33 72.09 73.23 74.17 74.98 76.16 74.91 75.11 75.24 75.34 75.04 74.79 74.54 74.16 73.97 74.09 73.74 73.17 72.60 71.86 71.21 70.85 70.26 69.82 69.75 69.54 69.54 69.34 69.38 69.25 69.38
57.76 56.42 48.06 47.14 50.02 52.96 55.32 57.24 58.39 60.58 61.09 62.22 61.97 62.16 63.32 69.25 69.50 69.03 70.13 71.02 72.00 73.08 74.63 75.97 75.05 75.19 74.94 74.84 74.52 74.24 73.81 73.81 73.79 73.39 73.20 72.60 72.10 71.76 71.31 71.08 70.75 70.68 71.06 70.84 70.22 70.04 70.19 70.25 70.26
55.86 54.02 49.68 49.83 50.29 51.74 53.98 56.80 56.32 58.48 59.66 61.12 64.09 60.89 64.29 67.99 70.03 68.67 69.18 69.92 70.84 72.54 73.86 75.68 75.97 74.57 75.01 74.51 74.04 73.69 73.29 72.87 72.62 72.23 71.93 71.96 71.93 71.66 71.34 71.21 71.15 71.22 71.31 71.63 71.68 71.11 70.82 71.03 70.98
58.06 55.81 51.57 51.35 49.60 50.77 54.83 55.71 57.09 58.55 59.10 64.05 64.07 60.71 62.18 67.12 69.11 68.61 68.92 69.52 70.58 72.00 72.93 73.93 76.38 73.54 73.11 73.21 74.39 73.84 73.26 72.77 72.30 72.08 72.11 71.86 72.01 71.71 71.51 70.97 70.97 71.63 71.78 71.96 72.05 71.46 71.28 71.09 71.56
60.71 52.95 50.50 51.41 50.78 51.96 55.35 54.02 57.08 59.86 59.40 62.22 63.76 63.69 65.63 68.02 69.72 68.43 68.25 68.96 69.56 70.48 72.60 74.11 74.82 74.67 73.17 72.00 73.13 73.87 73.59 73.14 72.50 72.35 72.20 71.56 69.27 69.75 69.37 69.31 70.84 71.84 71.91 72.13 71.98 71.49 71.49 71.59 71.51
56.40 53.27 52.71 55.45 55.23 54.14 55.30 54.44 55.30 56.59 57.74 59.53 62.19 63.88 64.96 67.65 68.27 66.98 66.85 67.34 68.43 69.49 70.95 73.31 75.66 75.17 74.51 71.92 73.37 73.18 71.54 71.45 71.25 70.46 70.96 70.39 70.15 70.06 68.65 69.75 70.90 71.54 72.08 71.96 71.86 72.03 71.76 71.47 70.20
56.20 53.54 56.20 56.14 56.66 56.69 55.32 54.73 55.57 54.74 56.28 59.96 60.80 62.56 63.48 64.07 66.53 67.14 66.87 67.48 67.28 69.03 70.30 71.63 76.90 77.52 76.14 74.15 72.49 74.11 73.44 72.65 72.31 72.21 71.72 72.22 69.88 70.72 70.11 70.10 69.32 70.35 71.24 70.26 71.22 71.33 71.11 70.47 70.46
51.75 55.43 56.74 57.25 57.63 57.10 55.57 56.72 55.59 55.65 55.78 60.44 62.83 63.88 63.89 63.72 64.39 64.79 64.99 65.73 66.26 66.81 67.65 69.19 71.80 76.82 77.58 74.89 73.10 72.52 73.00 73.96 72.43 72.30 73.34 72.07 70.83 71.39 72.00 70.29 70.17 71.39 70.14 70.62 70.82 70.64 71.19 70.76 71.98
52.58 54.17 55.37 56.72 56.76 57.34 57.68 55.37 55.56 56.31 58.35 59.20 59.95 62.09 62.18 63.03 63.94 65.49 65.85 66.38 67.04 66.85 67.99 69.01 70.94 76.79 77.11 77.57 74.53 74.55 74.20 73.65 74.08 73.05 73.74 73.31 71.28 71.63 70.82 71.92 70.63 71.25 70.07 69.73 71.33 71.57 72.03 72.31 71.29
51.53 51.60 52.56 54.46 54.82 56.20 55.47 55.50 55.99 56.97 59.43 59.37 59.18 59.45 61.16 61.87 63.39 64.16 64.72 65.57 66.99 67.62 68.10 68.70 69.61 77.62 77.18 76.94 77.81 77.57 77.01 75.35 74.70 74.31 75.03 74.29 72.59 72.54 71.81 72.29 71.34 71.26 70.91 70.72 70.72 71.40 71.59 71.01 71.32
50.52 47.73 50.14 51.88 53.09 53.55 56.65 52.59 53.50 58.14 59.63 58.99 59.47 60.30 61.72 63.07 63.87 63.88 65.05 67.16 66.57 67.40 68.93 72.29 72.71 74.98 77.90 78.10 77.92 76.31 74.12 75.06 73.64 74.06 76.76 76.45 74.61 73.87 73.28 72.28 71.09 71.09 71.82 73.27 72.57 73.16 71.75 70.78 70.70
47.57 47.92 43.99 49.55 51.91 53.02 52.42 48.71 54.84 58.14 58.36 58.19 59.55 60.70 61.29 62.67 63.76 64.72 65.09 66.29 68.69 69.87 70.02 72.56 69.29 72.47 76.87 77.44 76.85 75.36 73.74 72.91 73.00 73.53 74.51 76.28 76.08 75.13 74.54 71.37 71.54 72.18 71.51 71.11 69.58 69.58 68.60 70.21 69.47
44.32 41.73 44.24 45.88 50.49 50.89 50.64 48.99 54.23 57.12 57.78 58.15 58.99 60.06 60.74 61.94 63.45 65.79 64.90 66.43 67.05 68.96 70.21 70.86 72.74 70.07 75.53 76.88 74.25 74.64 76.06 73.43 72.82 73.21 73.17 76.17 75.46 74.67 74.10 72.45 72.19 73.77 71.08 70.42 69.35 69.53 69.96 68.83 68.73
39.95 41.41 43.56 44.07 48.34 48.86 48.16 49.46 52.28 54.48 54.98 56.62 57.89 59.26 59.72 60.22 61.51 63.76 64.90 65.82 66.81 70.11 71.84 72.44 71.40 73.62 75.87 73.30 75.00 71.27 70.87 72.41 73.42 72.85 73.23 76.04 75.00 73.85 74.49 72.79 72.86 72.88 70.44 69.65 69.28 70.04 69.28 69.22 68.36
42.49 41.52 42.14 45.79 48.90 47.79 47.40 48.75 50.63 53.29 53.99 54.26 56.50 58.17 59.67 61.33 62.01 63.61 64.51 64.84 65.19 69.13 70.63 72.16 72.03 74.23 72.28 68.91 68.32 68.25 67.88 71.03 72.35 73.14 76.01 75.55 74.48 74.29 74.11 72.14 72.83 72.45 70.45 70.46 71.19 70.03 70.29 68.11 69.99
41.98 40.69 40.86 44.19 47.42 48.03 47.92 47.48 50.25 52.54 53.53 54.53 55.32 56.33 57.67 59.36 60.67 61.82 63.14 65.22 67.07 68.29 69.45 70.86 72.09 73.57 73.92 70.36 71.39 70.02 72.33 71.15 72.40 73.26 75.22 74.63 73.57 73.69 73.29 72.89 72.50 72.23 69.99 72.04 71.68 70.57 67.10 67.40 70.11
41.02 39.74 40.54 41.19 45.44 47.66 46.83 45.23 48.38 51.11 52.83 54.20 55.23 56.46 57.25 58.05 58.99 61.01 61.42 64.56 66.39 67.17 68.82 69.26 71.22 72.75 74.04 73.22 72.59 73.92 73.63 73.97 72.15 72.85 72.36 73.04 73.03 72.78 73.12 72.28 73.09 73.22 71.28 68.69 71.11 69.66 69.41 66.97 68.81
38.20 42.86 41.91 41.14 41.28 38.10 46.76 38.39 46.03 49.67 50.59 52.11 53.87 55.43 56.27 57.39 58.58 59.57 60.99 62.92 65.18 66.20 67.36 69.53 70.62 72.70 73.76 75.76 71.57 73.79 70.80 69.86 71.04 72.69 72.75 72.38 72.88 71.35 72.00 71.62 71.51 71.91 70.51 71.08 69.73 70.27 70.37 70.24 67.09
40.16 43.26 42.03 41.63 40.00 40.92 41.32 39.63 44.11 49.17 48.00 50.38 53.05 54.09 55.71 57.06 57.85 58.17 59.41 60.64 62.60 65.07 67.13 69.07 71.24 72.57 73.23 73.97 72.65 70.59 72.68 71.34 72.30 72.37 72.66 72.73 72.50 72.13 70.88 71.43 71.28 71.06 70.52 71.46 71.27 72.18 71.64 69.51 67.18
43.81 41.26 41.60 41.63 39.78 34.23 39.88 39.81 41.08 44.87 47.61 50.45 53.11 54.20 55.33 55.97 57.22 58.26 59.45 61.66 61.20 62.98 63.15 67.43 70.51 71.40 72.79 73.40 74.05 74.90 74.87 74.32 72.16 72.30 70.12 70.64 70.21 70.36 70.41 70.61 70.98 71.84 71.24 73.22 71.70 72.35 70.64 69.53 68.97
42.07 38.24 30.90 29.85 30.59 30.75 40.78 38.91 42.10 47.65 49.75 51.48 51.96 53.63 55.02 56.44 56.90 57.86 58.21 58.44 60.62 61.77 62.94 63.48 65.93 69.30 72.32 71.78 72.47 72.71 74.73 76.48 75.32 71.92 69.15 68.69 68.40 68.90 69.84 71.77 71.98 71.03 73.11 72.04 71.77 70.85 70.10 68.88 67.38
39.82 38.70 31.81 24.13 27.17 32.00 39.59 34.74 40.57 49.50 51.70 52.51 52.91 53.70 54.70 56.12 57.16 59.22 59.66 59.93 60.43 62.30 66.27 68.22 69.36 70.31 71.44 71.01 71.94 72.93 74.18 72.85 72.53 71.53 69.91 69.63 69.53 70.73 72.41 72.26 72.79 71.93 71.28 70.59 70.87 69.12 68.14 68.85 66.69
40.47 35.73 41.82 34.68 35.79 30.57 34.15 39.37 44.92 48.49 49.79 50.83 52.49 53.82 55.44 57.36 59.46 60.83 62.35 62.53 61.35 64.52 69.16 70.53 70.90 71.05 71.01 71.40 71.97 73.00 72.85 74.55 71.97 73.59 74.00 71.93 73.69 71.88 71.84 71.98 71.38 70.83 70.29 70.20 70.22 67.62 67.16 68.40 68.36
42.22 43.43 33.36 34.49 26.95 25.20 33.47 35.82 39.22 44.16 47.19 49.93 51.68 52.76 55.15 60.73 62.26 62.40 62.31 63.39 67.76 70.18 71.32 71.71 71.57 71.27 71.89 72.27 72.44 72.63 73.07 73.46 72.54 73.24 70.58 71.24 72.77 72.60 71.49 70.73 70.62 70.01 69.48 68.93 68.59 67.90 67.52 67.34 69.05
36.63 35.16 38.12 37.73 34.27 28.66 29.86 35.02 46.49 46.62 48.26 49.42 51.54 53.27 59.19 61.94 62.53 62.96 66.08 68.17 70.30 71.25 71.40 71.53 71.51 71.36 71.39 71.76 71.35 71.29 70.69 70.96 71.38 70.85 71.10 71.22 71.93 70.54 69.71 69.22 68.81 68.17 67.62 67.69 67.81 67.86 67.04 66.22 66.95
42.66 39.44 38.10 30.02 31.25 36.68 34.32 34.33 46.97 51.13 51.75 52.51 51.78 53.68 59.38 61.93 62.69 63.18 66.47 68.91 69.58 70.23 70.60 70.73 71.23 71.17 71.14 70.64 70.21 69.93 70.89 70.91 71.35 70.21 70.13 70.07 69.55 69.60 68.76 68.02 67.14 66.28 66.29 67.27 67.06 66.53 66.30 65.75 65.48

GFSSGP_sfc_wetblb_036.txt.gz
Wetbulb
64.60 62.40 63.72 59.59 51.05 50.31 47.52 48.61 54.23 53.83 55.07 58.85 61.11 60.29 60.02 62.12 60.36 57.76 68.06 70.71 74.79 72.46 73.84 75.18 75.53 75.43 76.33 76.80 77.07 77.14 76.94 76.92 76.77 76.72 76.27 75.60 75.25 74.48 73.83 73.01 72.17 71.60 70.02 68.85 67.80 66.82 66.72 67.05 67.18
62.40 61.14 61.87 55.81 48.42 45.97 47.34 51.73 51.73 54.85 58.15 61.05 60.95 60.63 60.71 61.73 66.03 65.78 66.93 70.47 75.01 72.37 73.27 73.24 75.75 75.35 75.68 76.30 76.54 76.58 76.53 76.63 76.66 76.26 75.79 75.30 74.78 74.01 72.96 72.25 71.67 70.81 69.10 67.82 67.23 66.70 66.75 67.07 67.33
65.35 65.81 55.26 50.83 48.19 46.14 47.75 52.91 54.32 57.23 61.53 60.72 60.22 62.50 62.52 63.15 66.88 67.63 70.66 73.56 75.16 72.82 72.22 73.84 75.90 75.43 75.48 75.50 75.91 75.88 75.98 76.20 76.23 75.81 75.40 74.95 74.30 73.71 72.86 72.21 71.41 69.99 68.70 67.97 67.55 67.65 68.14 67.96 67.88
63.22 61.85 55.46 48.68 46.65 49.84 51.56 53.91 55.26 57.64 61.92 62.47 61.97 59.49 63.42 67.90 67.61 69.57 70.88 74.26 74.19 73.52 72.38 75.21 75.72 75.60 75.40 75.13 75.08 75.04 75.33 75.56 75.53 75.37 75.10 74.47 73.86 73.43 72.74 71.89 71.35 70.80 69.15 68.82 68.88 69.10 68.94 68.67 68.83
63.35 57.38 48.89 47.13 47.80 50.96 53.27 55.17 56.05 57.83 59.91 60.87 61.66 59.77 61.57 67.00 70.18 70.07 70.17 72.48 72.54 73.37 73.02 74.65 75.37 75.47 75.63 75.55 74.93 74.60 74.42 74.49 74.77 74.77 74.45 74.05 73.58 73.18 72.24 71.55 71.18 70.95 70.79 70.07 70.28 70.17 70.07 69.88 69.39
56.77 56.26 47.69 45.03 48.32 51.84 53.66 55.26 55.95 58.77 60.17 60.85 60.91 61.11 62.34 67.48 69.25 69.93 70.46 71.28 72.27 72.75 73.90 74.96 75.03 75.22 75.19 75.25 74.83 74.23 74.02 73.87 74.02 73.93 74.00 73.71 73.33 72.59 71.85 71.30 71.23 71.01 71.01 71.24 71.20 70.95 70.91 70.72 70.47
55.93 53.71 49.35 48.72 48.59 49.85 52.48 55.83 54.44 55.74 58.77 60.03 62.96 59.68 63.61 65.68 69.01 68.92 69.87 70.60 70.92 72.87 74.64 74.44 73.71 74.63 75.25 74.82 74.51 74.24 73.88 73.81 73.66 73.51 73.39 73.30 72.78 72.00 71.50 71.36 71.10 71.22 71.11 71.37 71.52 71.44 71.55 71.53 71.58
56.64 54.55 50.27 51.06 49.71 49.64 54.20 55.45 56.42 55.38 55.75 61.54 62.93 59.37 61.70 66.70 69.35 68.50 68.20 68.71 69.78 71.54 74.03 74.96 74.14 72.93 72.58 72.99 74.54 74.11 73.80 73.38 73.03 73.06 72.92 72.38 72.14 71.97 71.68 71.00 71.18 71.06 71.40 71.70 71.80 71.80 71.80 72.05 71.75
57.70 51.79 49.62 50.49 50.82 51.71 55.12 53.96 56.67 57.59 56.14 59.67 62.29 63.83 65.75 68.21 67.91 66.76 66.69 67.14 68.56 70.02 71.50 75.40 75.24 73.35 71.61 71.14 72.83 73.91 73.85 73.52 72.81 72.65 72.38 71.46 69.60 69.30 69.34 69.93 70.04 71.23 71.55 71.85 72.17 72.27 72.19 71.99 72.07
53.56 51.27 51.70 55.06 54.94 54.03 55.34 55.10 55.81 54.83 54.67 56.13 60.48 64.29 66.31 67.30 67.21 66.05 65.37 65.73 67.32 69.16 71.03 73.60 75.13 72.94 71.67 70.76 71.25 72.42 72.31 72.12 71.70 70.82 70.32 70.08 68.56 67.84 68.14 69.21 70.27 71.06 71.80 72.02 72.16 72.18 72.13 71.80 69.56
52.09 50.35 54.82 55.96 56.85 56.90 55.52 55.43 57.25 54.26 52.50 56.02 57.99 62.20 63.75 66.28 67.08 65.85 65.81 66.29 66.94 69.19 69.23 72.65 75.06 74.25 72.79 71.68 72.39 72.31 70.81 70.48 70.58 69.91 69.24 69.44 68.43 67.70 68.10 66.97 67.62 69.76 71.11 69.71 70.62 70.73 70.37 69.22 68.78
48.26 52.45 54.15 55.80 57.53 56.87 55.79 57.40 55.60 55.93 55.19 57.30 59.25 62.47 63.91 63.65 65.30 65.52 66.12 67.06 69.74 66.89 66.35 72.21 75.71 76.09 75.59 74.20 73.68 73.13 71.86 70.83 69.75 69.47 69.22 68.47 68.07 67.48 67.46 67.21 67.80 67.64 68.31 67.72 68.01 68.40 68.81 68.80 69.41
47.90 50.01 53.17 54.83 55.36 55.91 57.00 55.86 56.06 56.04 58.31 59.11 58.69 60.30 63.16 63.08 64.72 66.34 67.47 69.37 72.11 72.31 72.45 72.23 75.89 76.06 76.70 77.48 75.91 73.72 72.78 72.25 70.97 70.48 70.02 69.08 69.12 67.26 67.45 68.46 68.39 67.59 68.25 67.71 67.50 68.37 68.89 69.45 69.52
49.95 49.67 50.05 52.21 54.50 55.27 53.96 54.93 56.43 57.47 59.18 58.51 59.21 58.95 61.46 62.79 63.26 65.33 67.10 68.16 69.86 71.81 76.02 73.00 73.60 77.21 76.71 75.81 76.11 76.80 74.41 73.35 73.37 71.78 71.32 70.11 69.14 68.76 68.62 67.81 68.49 69.48 68.56 68.56 67.62 68.58 68.69 69.71 70.35
49.73 46.84 48.79 49.85 50.73 51.20 53.65 51.01 52.80 57.87 58.96 57.82 58.59 59.04 60.02 61.83 63.89 63.06 65.38 66.78 70.00 70.50 73.15 72.86 73.90 78.24 76.66 75.72 76.05 75.35 75.88 73.84 73.93 73.11 73.60 71.55 71.03 69.83 68.59 69.06 68.32 67.90 69.99 69.21 68.02 68.17 70.33 70.58 69.97
44.46 46.11 42.85 47.98 49.42 50.67 50.32 45.61 51.99 56.55 57.27 57.60 58.44 59.12 59.84 61.00 61.13 64.00 66.53 67.77 70.26 69.79 69.49 70.73 68.25 72.47 76.31 75.84 75.81 75.52 74.37 74.26 73.99 73.47 74.38 74.60 72.04 70.64 71.07 69.45 69.28 69.80 68.58 68.95 69.40 68.01 68.06 68.00 68.13
42.41 38.28 41.02 44.35 49.41 48.58 48.25 46.73 52.09 54.90 55.53 56.06 57.79 59.05 59.87 61.13 62.94 64.79 66.17 67.18 69.52 70.39 71.52 73.06 73.74 73.35 76.42 76.88 75.72 75.49 74.82 74.46 73.48 73.66 73.52 74.90 73.89 71.97 70.66 70.86 70.63 70.44 69.67 69.13 67.67 68.06 68.42 67.03 68.30
38.62 39.16 40.73 40.86 45.17 47.53 46.86 46.92 51.17 53.72 54.00 54.13 55.98 57.10 58.72 60.53 61.26 64.74 66.66 67.20 68.68 71.58 72.12 73.20 73.74 74.77 75.37 75.34 74.67 72.61 72.28 71.96 72.62 72.26 72.30 74.74 74.06 73.40 71.84 71.37 70.70 72.55 68.91 68.25 68.65 67.08 67.33 67.33 67.63
42.93 41.34 40.03 42.91 45.60 45.26 46.19 47.29 49.47 51.60 52.58 53.21 55.25 57.03 57.73 58.82 62.06 63.31 65.64 65.71 69.58 70.77 71.11 72.51 72.39 72.50 72.64 71.89 70.32 69.45 68.70 69.04 70.45 72.48 74.14 75.32 74.68 73.49 72.65 71.19 72.07 70.19 69.87 68.17 68.80 67.97 66.85 66.88 68.02
42.35 40.17 39.68 42.66 44.96 44.79 44.28 44.47 49.01 51.12 51.93 53.35 54.66 55.31 56.81 58.79 60.77 62.59 62.73 64.27 69.21 69.33 70.25 71.37 72.36 72.97 72.38 70.61 69.97 70.07 70.31 69.35 69.86 72.42 74.13 75.09 74.92 73.41 72.87 72.16 70.64 71.01 69.79 69.00 69.25 67.47 65.80 67.20 67.60
41.44 39.95 40.07 39.46 42.67 43.94 43.19 42.34 45.72 49.63 52.15 53.29 54.22 56.33 57.11 57.57 58.35 60.87 62.75 66.17 68.20 67.86 69.53 69.61 69.85 70.47 70.85 70.42 70.97 71.66 71.97 72.19 72.28 73.36 73.64 73.95 74.12 73.68 72.80 72.02 71.23 71.23 69.65 68.34 68.59 68.47 66.40 64.50 66.75
37.79 43.10 42.34 40.81 38.99 34.70 42.71 35.75 44.23 47.53 49.27 51.30 53.21 54.18 55.61 57.54 58.69 59.54 61.08 62.52 65.90 67.42 68.61 70.83 70.73 69.46 69.97 71.93 70.34 70.08 67.94 67.37 70.13 73.64 73.00 72.92 73.33 73.13 72.59 72.00 71.13 72.01 69.70 69.19 68.47 68.44 67.33 66.51 65.81
40.36 44.24 41.76 40.90 38.61 38.10 38.40 36.08 40.70 46.86 46.67 49.74 52.36 54.75 55.40 55.76 58.20 58.75 59.77 60.97 63.15 63.61 63.91 65.54 66.60 68.80 69.91 70.52 70.24 69.26 70.85 70.97 72.82 72.94 74.10 72.44 73.16 72.41 71.34 71.65 70.89 71.62 69.56 69.32 68.10 68.23 67.36 67.42 67.31
45.00 42.09 41.43 40.41 37.82 32.37 37.04 36.94 37.48 42.35 46.03 48.99 52.46 54.22 55.48 56.16 56.43 57.33 59.24 60.94 61.25 63.29 65.04 66.22 68.21 68.48 70.72 70.59 72.13 71.47 70.66 69.85 71.34 72.99 71.08 70.91 70.79 70.63 69.97 70.86 70.09 70.13 68.98 69.68 69.06 68.33 68.74 68.45 67.32
42.39 38.45 30.77 29.26 30.39 29.67 38.43 36.46 39.75 44.54 47.41 49.26 50.86 52.74 54.61 56.90 57.90 57.99 57.77 58.49 60.57 62.17 63.48 66.31 69.09 69.96 70.46 70.24 70.35 71.44 69.68 73.43 73.72 72.75 70.64 69.81 68.90 68.92 68.82 69.10 69.86 68.84 70.02 70.83 70.83 69.78 68.46 67.65 66.21
37.63 37.02 30.11 23.39 26.23 30.28 37.65 32.89 38.24 46.01 48.97 50.73 52.26 53.28 55.04 56.43 57.53 58.73 60.82 61.88 60.33 61.67 64.42 65.71 66.03 67.67 68.99 69.89 71.41 72.16 71.92 73.53 74.32 71.92 70.02 68.91 68.35 68.83 69.47 70.03 69.59 70.10 70.30 70.77 70.10 68.89 67.86 67.41 66.71
39.11 36.14 41.23 33.54 35.22 30.13 34.26 37.64 43.05 45.89 46.27 48.61 50.77 53.11 54.02 55.67 57.15 58.81 59.57 62.36 61.43 62.25 65.87 66.71 67.49 67.78 70.80 72.07 71.63 72.75 73.09 74.09 72.17 71.59 69.90 69.43 69.53 69.41 69.19 70.93 70.43 70.83 70.12 69.45 68.77 67.70 67.20 67.17 66.55
40.87 42.68 33.93 35.49 25.29 23.71 31.24 33.10 35.43 42.02 44.11 47.26 49.55 52.10 54.28 56.14 57.10 59.05 61.70 63.08 65.13 67.12 70.20 71.83 72.63 71.87 71.60 72.15 72.49 72.65 73.05 73.75 72.14 71.38 70.09 70.87 71.19 70.79 70.47 70.44 70.14 69.60 69.15 68.51 68.80 67.81 67.22 66.90 66.63
39.36 36.57 35.72 36.11 33.53 26.30 25.94 31.64 42.32 44.27 45.17 46.81 49.43 52.68 54.41 56.73 60.58 64.08 62.78 64.09 68.45 70.15 71.11 71.60 71.14 71.22 70.82 70.82 71.51 72.62 72.47 72.33 72.44 71.57 71.05 71.05 71.15 70.64 69.81 69.54 68.93 68.60 68.25 68.39 67.65 67.28 66.16 65.61 65.63
41.01 39.34 37.20 31.64 29.93 33.42 31.96 32.08 44.95 43.85 43.49 42.95 50.43 52.61 56.23 60.59 62.41 64.67 65.52 66.23 67.24 69.39 70.01 70.73 70.81 70.17 69.98 70.20 69.70 69.49 69.49 69.51 69.69 69.53 69.35 69.93 69.86 69.89 69.16 68.80 67.79 67.40 67.08 67.64 66.96 66.03 65.65 64.81 65.00

GFSSGP_sfc_wetblb_039.txt.gz
Wetbulb
63.27 59.51 57.38 56.49 43.98 41.99 39.10 43.48 48.65 48.97 50.70 53.86 57.44 56.99 55.76 59.56 58.63 55.05 67.19 71.02 70.94 72.12 73.70 74.36 75.83 76.66 77.23 77.45 77.32 77.06 76.78 76.51 76.64 76.53 76.21 75.84 75.39 74.63 73.86 73.21 72.55 71.94 70.17 69.37 68.46 67.61 67.57 67.49 67.40
61.29 59.48 55.51 52.31 40.44 35.67 39.88 46.91 47.12 50.08 52.09 56.45 57.84 57.64 58.98 59.15 63.53 66.94 68.65 70.82 70.99 72.40 73.16 72.50 75.48 76.38 77.03 77.11 76.95 76.80 76.70 76.55 76.55 76.43 76.06 75.66 75.24 74.53 73.08 72.28 71.69 70.97 69.84 68.57 67.76 67.32 67.54 67.90 67.89
62.34 62.97 52.43 44.08 40.03 39.17 40.54 48.58 48.80 52.22 54.82 57.66 56.34 59.50 60.10 61.09 64.68 65.24 71.08 70.91 70.12 71.63 72.18 72.61 75.23 75.88 76.80 77.06 76.62 76.41 76.41 76.52 76.40 76.33 75.88 75.36 74.99 74.02 73.23 72.39 71.95 70.42 69.29 68.45 67.81 67.83 68.46 68.52 68.35
59.19 57.97 52.63 41.06 40.98 44.54 47.08 49.46 51.58 52.47 54.67 59.14 59.32 57.32 62.54 66.31 66.08 68.87 72.36 71.13 70.06 70.07 71.67 74.78 74.95 75.10 76.13 76.54 76.40 76.34 76.44 76.41 76.24 76.03 75.63 75.08 74.44 73.65 72.91 72.34 71.91 71.08 69.35 69.05 68.89 69.53 69.60 69.31 69.16
60.06 55.22 42.90 39.37 42.32 47.00 50.42 51.79 52.37 51.48 53.09 58.23 59.30 58.00 60.10 66.83 68.87 72.65 72.10 71.68 69.25 68.36 71.89 73.88 74.88 74.78 75.08 75.99 76.00 76.02 75.99 75.75 75.86 75.90 75.58 74.91 74.16 73.59 73.03 72.37 71.46 71.09 71.16 69.97 70.07 71.10 70.74 70.69 70.61
54.80 52.08 42.62 38.96 44.73 49.19 51.20 52.26 50.95 51.43 54.81 58.73 58.06 58.55 59.73 66.93 68.03 70.74 71.91 70.79 70.59 68.60 72.32 72.81 75.08 74.85 74.50 74.60 74.99 75.00 75.14 75.06 75.23 75.14 75.07 74.68 73.96 73.49 72.81 72.19 71.67 71.53 71.51 71.36 71.55 71.26 71.15 70.89 70.89
49.74 50.77 44.67 44.65 45.73 47.84 50.29 52.74 51.07 50.42 51.46 58.00 60.82 59.30 60.94 64.02 66.50 69.92 70.54 71.25 70.91 70.73 71.56 71.82 73.05 74.42 74.95 74.42 74.05 73.97 74.12 74.12 74.19 74.04 73.87 73.91 73.53 73.04 72.36 71.80 71.48 71.52 71.47 71.37 71.66 71.40 71.40 71.40 71.45
50.60 49.48 47.29 48.34 47.09 48.07 53.53 53.95 52.26 51.07 52.03 57.07 59.44 56.95 59.00 64.03 66.52 66.66 69.26 69.77 70.20 72.04 71.62 71.20 71.42 72.80 72.97 73.19 74.28 73.91 73.61 73.46 73.30 73.23 73.41 73.24 73.21 72.67 72.26 71.02 71.16 71.50 71.55 71.55 71.77 71.73 71.72 71.76 72.05
53.34 45.33 42.82 46.73 47.96 50.09 54.60 52.83 56.56 56.16 52.90 54.25 57.90 62.34 64.04 66.65 67.28 65.40 64.71 67.41 69.72 71.63 71.03 70.99 70.52 70.85 71.15 71.69 73.46 74.01 74.04 73.81 73.13 72.98 72.98 72.00 69.85 69.80 69.50 70.36 70.81 71.31 71.36 71.58 71.85 71.82 71.86 72.02 72.02
46.88 44.08 45.53 50.83 52.78 51.99 54.20 54.13 54.79 54.42 54.18 52.70 56.61 63.65 64.86 65.59 66.24 65.01 64.50 63.92 67.43 70.33 71.03 70.72 70.40 69.61 68.61 70.49 70.36 71.01 71.22 71.32 70.88 70.24 69.69 69.21 66.87 66.16 68.39 69.45 70.89 71.18 71.43 71.82 71.99 72.01 72.36 71.90 68.73
46.90 44.50 49.89 51.77 54.33 55.49 54.63 54.69 56.45 54.32 51.75 52.01 52.93 60.92 63.24 64.45 64.57 63.62 63.86 65.11 64.35 66.51 72.17 71.99 71.02 69.98 68.16 67.96 68.68 70.30 70.02 69.82 69.67 68.39 67.59 67.70 67.06 66.02 67.31 65.51 67.54 67.16 70.12 68.58 70.11 70.12 70.12 68.52 67.86
42.84 47.00 50.16 51.01 52.87 52.71 52.46 55.35 54.17 55.03 54.81 56.52 56.14 57.52 60.40 62.80 62.97 63.14 62.86 63.54 65.30 65.36 70.62 72.48 71.30 69.59 68.29 68.12 68.68 69.12 68.51 68.24 67.98 68.22 67.09 67.22 66.05 64.95 63.31 64.17 64.22 64.68 66.71 66.58 65.78 67.16 68.00 67.21 67.11
43.28 45.71 47.90 50.29 51.68 52.27 53.20 51.74 52.87 54.09 57.16 58.80 57.77 56.98 56.47 60.55 62.40 62.87 63.89 63.84 65.16 65.01 67.21 68.54 70.85 69.97 69.19 68.14 69.50 69.23 68.55 68.00 67.38 67.27 67.37 66.90 66.14 64.32 63.84 63.32 63.71 63.97 65.81 66.24 64.53 65.22 66.55 66.67 67.04
43.67 45.07 46.61 48.10 47.90 50.67 50.73 51.24 52.98 54.40 56.96 57.47 57.95 56.37 56.31 59.74 60.07 59.93 62.65 63.38 63.43 63.59 64.33 69.21 71.10 71.42 70.78 70.27 70.26 70.10 69.67 69.18 68.36 67.76 67.45 67.21 66.55 65.37 64.39 63.89 64.25 64.24 65.39 66.08 64.78 64.95 65.81 66.55 67.17
44.38 40.91 44.10 45.63 46.77 47.09 48.90 47.34 50.53 54.74 55.56 54.83 56.43 56.83 56.52 57.20 60.17 60.19 60.69 61.18 62.69 63.67 63.90 67.40 71.83 73.14 72.76 71.66 71.11 71.56 69.91 70.35 69.67 69.09 68.66 67.78 66.42 66.29 65.24 64.52 64.54 64.79 65.45 65.43 65.09 64.79 66.23 66.04 67.83
40.09 40.02 34.12 40.63 45.99 47.33 45.84 40.67 47.94 51.69 53.63 53.61 55.33 56.91 57.71 57.21 57.59 60.06 60.95 60.66 62.28 62.71 62.47 65.01 72.86 73.70 72.85 72.36 72.07 71.11 71.66 71.28 70.89 70.55 69.72 69.07 67.88 66.68 66.43 65.68 64.85 65.50 65.61 65.80 65.21 64.73 64.98 66.75 66.31
36.48 32.32 34.11 37.85 43.06 44.36 44.22 42.13 47.70 50.37 51.03 51.51 52.60 54.50 56.98 57.61 58.40 58.32 60.67 61.82 62.35 62.59 61.67 61.72 64.19 72.39 72.42 72.39 72.36 72.18 71.34 70.40 70.27 69.74 70.18 70.66 68.93 68.48 67.54 66.31 66.36 65.58 65.52 65.84 65.74 64.92 64.10 63.68 63.83
32.23 33.51 36.55 36.52 39.52 41.68 40.48 42.05 46.76 48.84 49.32 49.54 51.14 53.74 56.40 56.84 57.52 58.58 59.28 61.85 62.50 63.65 62.95 65.30 65.41 68.36 71.79 72.58 71.79 71.41 71.07 70.60 69.92 69.89 68.66 69.61 70.75 69.68 67.44 67.86 66.61 66.48 66.18 64.88 65.27 63.54 64.41 63.37 64.87
39.72 38.15 37.17 40.08 42.94 40.20 39.67 40.63 43.14 45.32 47.73 48.28 49.77 50.82 53.94 56.47 57.90 58.34 58.77 60.06 61.98 64.04 64.46 64.96 65.19 66.03 68.10 67.70 69.54 68.33 67.25 66.59 66.51 67.38 68.52 68.35 71.72 70.49 68.73 67.66 67.78 68.21 66.32 66.06 64.86 63.64 62.78 63.55 64.38
40.07 37.76 36.82 40.03 42.45 41.15 39.71 39.34 42.58 44.36 45.17 46.43 48.87 50.33 51.77 54.42 55.57 56.92 58.12 59.12 60.46 63.18 63.43 63.76 63.95 64.34 63.89 63.90 64.49 64.11 63.85 63.92 64.44 65.60 67.98 69.20 71.08 71.10 69.66 68.76 68.44 67.37 66.65 64.87 64.29 64.16 62.01 63.35 63.92
38.06 36.50 36.86 37.04 41.18 41.79 39.10 36.97 39.50 43.25 45.30 47.50 48.57 50.76 51.71 53.15 54.31 56.08 57.18 58.88 59.99 62.15 62.82 64.77 64.66 64.51 63.61 63.70 64.42 64.26 64.07 63.83 64.19 65.94 66.78 69.04 71.24 71.04 70.54 69.40 68.44 67.47 66.35 65.58 64.67 64.01 62.51 61.54 62.98
34.67 40.66 39.94 38.72 36.10 30.45 38.54 28.33 36.53 40.62 42.40 45.50 47.26 48.04 48.86 51.12 54.04 55.09 55.58 56.29 57.52 61.16 61.81 62.86 63.59 64.36 65.14 65.01 63.66 63.90 64.64 63.11 63.02 62.21 68.53 69.14 70.61 70.40 70.17 69.82 68.59 67.88 66.79 65.20 65.20 65.38 63.19 62.18 60.74
38.23 42.85 40.45 39.50 36.35 32.92 34.13 29.58 34.58 39.28 39.38 41.70 45.35 47.96 48.48 49.72 52.04 52.93 53.88 54.94 56.76 60.16 60.28 62.64 63.84 63.84 63.88 64.58 64.71 64.49 63.37 63.48 63.79 65.12 67.87 68.03 68.31 69.70 69.83 69.15 68.19 67.57 67.68 66.73 66.17 65.20 63.68 62.86 63.21
43.62 39.86 38.30 37.45 34.38 27.10 32.26 31.08 32.31 35.95 39.41 41.96 44.96 47.11 49.25 51.35 51.42 51.92 53.10 55.38 55.46 56.42 57.13 57.35 59.55 63.16 63.68 63.11 65.53 63.99 63.04 64.21 64.75 66.91 67.16 67.14 67.63 67.39 68.38 69.16 69.02 68.32 67.62 67.32 66.51 66.50 64.47 64.26 63.85
39.28 32.24 24.41 22.28 24.40 24.80 34.31 31.73 33.34 38.94 42.57 43.52 43.92 45.64 47.98 49.63 51.20 53.01 52.56 52.55 54.34 55.21 55.27 56.65 58.22 58.56 62.37 64.39 65.74 64.99 64.34 64.43 63.89 67.61 67.55 66.83 66.41 65.83 66.20 67.34 67.79 68.10 68.00 67.85 66.38 65.01 64.95 64.30 63.26
34.48 34.21 27.10 21.64 20.59 24.90 34.90 28.62 33.24 41.55 43.69 45.43 46.71 46.13 47.12 48.89 49.97 50.38 53.91 54.13 54.55 54.82 55.16 56.24 58.49 62.17 64.56 64.57 66.39 66.66 65.14 64.58 66.92 68.59 67.52 66.63 66.66 66.62 66.94 67.23 68.43 68.41 68.42 68.15 66.72 65.36 65.02 64.39 62.77
36.54 30.52 37.62 30.39 32.12 25.51 29.20 34.31 39.06 41.70 42.96 43.25 43.19 44.83 46.48 48.04 49.98 50.91 52.38 54.03 54.13 53.94 56.12 57.82 58.30 61.28 64.20 65.09 65.55 66.33 67.15 65.99 68.45 67.50 67.14 66.94 66.67 67.32 67.19 68.22 68.19 68.25 67.91 67.01 66.09 65.50 63.67 63.96 62.45
37.45 39.96 28.39 30.46 20.95 20.61 27.29 29.83 30.81 37.75 38.24 41.14 41.77 42.47 44.76 47.16 50.49 51.31 53.31 54.15 55.37 55.14 56.15 57.33 58.79 60.55 63.21 65.63 67.16 68.60 68.85 69.76 68.05 67.42 66.54 66.33 65.97 66.76 67.21 67.77 67.46 67.37 66.92 66.98 65.42 63.74 63.44 62.89 61.45
34.35 33.18 33.02 31.83 29.73 20.95 20.20 25.79 40.33 37.55 39.25 40.05 41.32 43.31 45.22 46.15 51.12 52.37 59.06 59.46 57.72 61.13 63.92 64.87 66.53 66.36 66.81 67.73 68.09 68.53 68.80 69.50 68.23 67.05 67.05 66.78 67.05 66.81 67.25 67.55 67.12 66.93 65.98 64.85 63.15 62.44 61.97 62.22 61.75
38.52 35.78 33.83 28.51 25.65 28.49 26.87 28.01 40.36 39.59 41.04 41.92 41.71 44.28 46.32 47.95 50.53 56.55 60.57 61.18 61.92 65.45 66.33 66.60 66.92 67.22 67.59 68.23 68.63 68.20 68.97 69.22 68.60 68.06 68.69 68.24 67.39 67.61 67.62 67.54 67.01 66.17 65.56 64.40 61.93 61.84 62.72 62.04 61.22

GFSSGP_sfc_wetblb_042.txt.gz
Wetbulb
60.86 59.84 55.62 54.83 43.04 39.58 36.51 41.36 46.54 46.80 47.37 50.21 51.88 52.21 56.01 58.14 57.47 53.19 65.13 68.32 69.57 69.99 72.62 75.28 76.60 77.44 77.41 77.01 76.95 76.54 76.23 76.24 76.24 75.94 75.54 75.34 74.95 73.81 73.07 73.09 72.66 71.62 69.97 69.48 68.99 68.08 67.61 67.51 67.17
60.43 60.07 54.13 49.73 39.25 33.66 36.79 43.65 45.96 46.85 50.01 51.94 52.86 55.28 58.12 57.72 64.14 65.90 66.92 69.41 68.82 70.98 72.05 73.04 76.73 77.01 77.23 76.98 76.67 76.26 76.06 76.13 76.21 75.86 75.59 75.29 74.99 74.01 72.69 72.06 71.54 70.47 69.86 69.10 67.97 67.93 68.00 68.02 67.95
61.95 61.63 51.60 44.56 37.54 35.55 38.62 44.52 46.30 49.76 52.26 52.40 51.83 57.75 60.27 59.57 66.63 66.74 68.70 68.65 69.58 70.44 71.14 72.00 76.50 76.60 77.08 76.82 76.36 76.03 76.11 76.03 76.03 75.91 75.69 75.26 74.84 74.27 73.39 72.54 71.88 70.55 69.54 68.48 67.94 68.04 68.56 68.67 68.40
58.07 55.89 51.66 39.90 38.17 41.21 44.90 46.94 49.14 50.10 52.31 53.47 52.52 57.91 61.99 64.94 66.11 69.25 69.43 69.10 68.50 70.17 70.45 73.49 75.82 76.22 76.49 76.64 76.31 76.18 76.13 76.05 75.92 75.96 75.63 75.26 74.64 74.02 72.91 72.40 72.14 71.32 69.46 68.74 68.58 69.32 69.19 68.95 68.92
59.23 52.31 42.06 37.36 39.66 43.37 47.49 48.89 49.33 49.42 50.12 51.34 54.10 56.19 59.60 65.22 70.25 69.65 68.37 68.59 67.75 69.02 69.97 73.07 75.57 76.02 76.27 76.64 76.44 76.18 76.05 75.84 75.82 75.83 75.50 75.11 74.50 73.59 72.81 72.45 71.64 71.25 70.89 69.89 69.72 70.46 70.70 70.58 69.99
53.68 50.71 39.91 40.44 43.70 47.66 49.43 50.64 49.39 49.50 50.59 51.29 55.32 58.51 59.57 67.12 69.02 68.96 68.18 67.02 67.91 68.37 70.15 71.80 75.01 75.49 75.71 75.96 76.05 75.79 75.66 75.66 75.64 75.54 75.24 75.05 74.27 73.64 72.96 72.42 71.92 71.64 71.67 71.32 71.18 71.35 71.09 70.92 71.16
48.04 47.29 41.79 42.45 45.49 48.16 50.78 52.49 48.47 48.09 48.68 49.92 57.42 57.32 59.85 63.04 68.56 70.10 68.24 67.24 66.78 69.08 70.33 70.86 72.06 74.02 75.51 75.35 75.33 75.35 75.14 75.22 75.17 74.92 74.77 74.58 74.09 73.41 72.93 72.37 72.15 71.63 71.83 71.45 71.45 71.51 71.26 71.04 71.09
49.15 48.19 44.43 46.50 47.00 47.77 53.64 53.88 52.65 51.84 53.37 55.04 56.57 56.57 57.39 63.32 67.38 68.16 68.74 67.16 66.46 69.61 69.51 70.51 70.97 71.72 71.81 72.73 74.96 74.80 74.59 74.56 74.32 74.45 74.31 74.20 73.87 73.33 72.70 71.46 71.40 71.41 71.53 71.53 71.63 71.75 71.38 71.33 71.39
49.13 40.25 39.57 45.74 47.90 49.93 53.74 51.56 55.03 56.99 53.81 55.22 56.90 61.38 63.24 66.03 68.01 66.59 66.87 67.05 69.09 69.77 69.48 69.62 70.81 70.99 71.06 70.93 72.38 73.72 74.51 74.26 73.95 73.82 73.85 72.62 70.96 70.61 70.20 70.61 70.61 71.09 71.26 71.48 71.56 71.68 71.60 71.42 71.54
42.86 40.25 42.86 48.28 50.70 50.30 52.29 52.73 54.40 54.43 54.04 54.12 54.86 63.00 65.50 65.53 65.09 63.68 65.45 66.30 68.12 68.08 68.59 68.70 69.08 69.95 70.41 71.33 70.49 70.45 70.81 70.81 70.52 70.34 70.11 69.94 67.74 67.53 68.76 69.56 70.81 70.99 71.26 71.33 71.45 71.64 71.83 71.20 68.57
41.67 41.36 48.35 49.83 51.35 52.11 51.99 52.27 54.42 51.99 51.09 53.34 53.18 55.72 63.42 64.74 63.98 64.11 62.96 65.51 67.00 69.37 70.00 68.89 67.66 68.15 68.64 68.80 69.64 70.20 69.96 69.65 69.50 68.73 68.30 67.44 66.86 66.57 67.93 65.68 68.00 66.77 69.92 67.71 69.47 69.39 69.60 68.14 67.69
39.17 43.98 45.64 48.04 50.59 50.51 49.74 52.43 50.96 51.94 52.45 55.70 56.77 57.06 60.20 62.80 61.92 63.60 62.13 64.74 65.44 68.76 71.05 70.88 69.84 67.96 66.16 66.52 68.03 68.42 68.45 68.68 68.30 68.34 66.97 66.45 65.04 64.13 64.00 64.15 64.55 64.62 65.64 65.76 65.89 66.61 67.96 67.17 67.22
39.88 42.78 44.48 46.12 46.96 49.69 51.44 50.18 50.21 50.98 53.95 56.17 57.30 57.52 55.52 61.61 62.45 62.35 63.44 64.91 65.85 68.85 71.16 71.62 71.31 69.21 68.41 65.83 67.17 67.53 66.96 66.74 66.90 66.91 67.02 66.66 65.30 64.13 63.56 63.90 62.73 63.40 64.30 65.83 64.99 64.85 66.70 66.88 66.70
40.70 41.89 42.23 43.54 44.38 45.32 46.36 48.39 49.84 51.28 54.26 54.60 55.88 56.24 55.28 56.61 60.89 61.43 62.74 63.86 64.34 65.01 67.10 69.71 69.10 68.68 69.41 67.46 66.97 67.27 67.57 66.99 65.75 65.79 66.22 66.45 65.40 64.04 63.46 62.56 62.59 62.55 64.24 65.48 64.82 63.95 64.77 65.32 65.39
42.39 38.44 40.70 42.00 42.77 43.86 46.90 44.42 45.92 50.16 52.41 53.63 54.78 55.43 55.51 55.82 56.91 61.89 62.68 62.66 63.63 64.44 65.04 67.54 66.36 67.31 67.43 68.51 67.81 67.81 67.97 67.79 66.87 66.46 66.38 66.37 65.33 64.56 63.18 62.54 62.30 62.69 63.46 64.29 64.46 62.49 63.58 63.95 65.14
37.82 36.65 31.21 37.84 41.71 44.74 44.67 39.44 46.19 49.07 48.82 49.51 51.16 53.87 55.06 56.47 56.65 57.11 60.65 61.68 62.68 64.44 63.11 65.75 69.40 69.75 69.64 69.40 69.49 69.29 68.97 68.58 68.22 67.55 66.92 66.66 66.16 65.07 64.13 63.04 62.33 63.22 63.63 64.13 64.14 62.79 62.53 63.62 64.11
33.00 28.60 31.48 35.19 40.52 41.22 41.39 39.71 45.94 48.07 47.90 48.03 49.56 50.62 52.35 53.89 56.22 56.53 58.01 60.05 60.60 61.73 63.61 65.93 69.08 69.97 70.19 70.49 70.62 70.52 70.19 69.28 69.15 68.81 67.95 67.45 66.81 65.82 65.15 64.33 63.89 62.85 64.20 63.81 64.09 63.49 62.57 62.84 63.45
29.82 30.57 33.76 33.43 37.98 38.78 37.68 37.76 41.47 44.31 44.87 45.55 47.53 49.24 50.78 52.38 53.59 57.05 57.71 58.35 58.91 60.75 61.21 61.86 68.77 70.12 70.32 70.74 69.90 70.03 69.28 70.37 69.52 69.32 69.32 68.48 68.01 67.46 65.36 65.66 64.54 63.82 63.98 64.29 63.65 63.61 62.95 61.70 63.41
37.79 35.90 34.64 37.70 41.28 37.88 37.51 38.25 40.34 42.26 42.88 42.62 43.86 46.07 48.34 50.45 54.22 56.94 57.86 57.77 57.86 58.83 59.98 59.97 60.97 68.10 69.64 69.61 69.23 69.07 69.23 69.29 68.03 68.38 69.01 68.95 69.55 68.41 66.71 66.23 65.25 64.93 63.92 63.88 64.29 63.11 62.69 61.91 62.86
36.83 34.58 33.60 37.89 41.00 39.31 37.70 38.32 41.50 41.58 41.57 42.47 43.38 44.72 46.07 48.61 51.05 54.12 57.11 55.57 55.43 57.23 60.38 61.35 62.57 65.25 69.59 70.17 70.18 68.31 68.94 65.64 69.11 68.98 67.96 68.23 69.12 69.73 68.33 66.74 66.05 65.72 65.23 63.34 63.76 63.49 60.87 62.42 62.92
36.23 33.75 35.40 35.43 39.08 39.51 37.52 35.69 38.45 41.76 42.15 43.56 44.44 45.37 46.47 47.22 48.87 51.73 54.45 56.01 54.60 55.87 59.86 61.64 63.28 65.03 68.43 68.25 64.74 63.17 62.72 62.25 62.55 63.06 63.03 65.15 67.16 69.80 69.07 67.68 66.71 66.77 66.38 64.61 63.75 63.91 62.25 60.53 61.77
32.66 40.25 39.26 38.12 34.72 27.58 36.98 27.20 35.51 38.50 39.31 40.85 42.35 42.65 44.00 46.54 49.00 51.00 53.43 54.70 54.64 56.92 59.71 61.79 62.80 63.22 63.68 62.02 62.95 62.43 63.00 60.72 60.66 60.39 62.58 64.37 66.79 69.09 69.51 68.21 67.47 67.31 66.61 65.15 64.33 64.04 63.69 63.22 61.98
35.76 41.42 38.55 37.56 34.16 30.45 33.46 27.23 33.82 36.50 36.85 39.40 41.45 42.73 43.92 45.37 46.51 48.43 51.34 52.85 53.35 55.46 58.48 60.80 61.96 61.82 61.79 62.50 62.39 61.82 58.97 59.89 60.42 61.18 62.11 63.58 66.41 68.78 69.48 68.69 67.54 66.57 65.89 65.03 64.79 64.24 64.07 63.74 63.08
42.01 37.83 35.86 34.31 31.17 25.41 31.62 29.16 31.35 33.32 36.13 39.29 41.71 43.14 45.04 45.09 46.28 47.89 50.80 52.06 52.73 53.29 56.87 58.75 60.24 61.84 62.03 61.36 61.13 60.51 59.85 60.77 61.45 61.73 63.16 64.27 65.57 66.79 68.70 68.65 67.81 67.02 66.84 65.39 64.98 65.59 65.28 63.81 64.02
36.14 29.94 22.59 20.57 20.22 22.88 32.63 29.80 32.66 36.51 39.32 41.15 41.87 43.45 44.57 46.71 46.58 47.61 47.68 49.01 51.37 51.12 53.45 56.49 58.93 61.07 61.48 61.08 60.88 62.03 61.53 61.56 61.78 62.43 64.35 64.63 64.64 64.64 66.70 67.60 67.47 67.15 67.98 67.17 65.72 65.88 64.80 64.46 63.38
31.39 33.51 24.32 19.42 20.23 23.16 33.09 25.62 31.86 39.31 42.43 43.76 44.63 44.36 45.46 45.76 46.86 47.42 49.26 50.19 50.81 52.10 52.01 54.31 55.82 57.25 59.05 61.16 60.60 62.20 62.38 62.50 62.33 63.88 65.77 66.21 66.89 66.10 66.48 66.66 66.61 66.77 66.66 66.46 66.62 65.66 65.17 64.21 62.46
33.28 29.59 36.60 29.79 30.57 27.18 27.72 31.41 36.59 41.75 41.51 42.50 42.79 44.06 43.56 44.37 46.31 47.77 50.40 53.14 53.52 52.57 52.37 51.87 52.69 55.32 57.20 59.10 61.87 62.62 63.01 62.29 64.42 65.78 65.73 65.98 65.61 66.37 65.60 65.99 66.12 66.51 67.82 67.42 66.46 64.67 64.03 63.96 61.42
35.26 36.87 26.12 27.56 21.34 20.66 25.26 27.69 28.80 35.80 38.01 40.11 40.25 41.05 42.64 44.81 45.70 47.84 49.28 52.72 54.71 55.92 53.00 51.70 52.59 54.39 58.66 61.74 63.07 64.80 64.24 63.98 65.54 66.27 66.07 66.16 66.02 66.77 65.56 65.58 65.87 67.33 67.49 66.75 65.63 63.89 64.43 63.50 60.63
30.96 29.86 31.75 31.67 29.70 22.52 20.06 24.43 36.84 37.51 37.98 37.98 39.42 41.68 42.19 43.77 45.01 47.28 48.55 50.03 51.45 58.19 56.43 52.31 53.27 57.33 61.01 62.93 64.01 65.28 66.07 66.38 66.30 66.48 66.27 66.16 65.65 65.69 65.90 65.69 66.30 66.53 65.56 64.39 63.77 63.99 63.05 61.76 60.36
36.70 32.80 31.33 22.82 22.94 28.02 24.89 26.43 38.96 38.41 39.08 39.31 40.38 42.02 43.79 45.38 45.80 47.24 47.46 48.51 49.87 55.47 61.08 60.47 61.31 62.31 63.52 64.64 66.04 66.62 67.85 66.63 65.78 65.62 66.37 66.73 65.28 65.73 66.61 66.77 66.57 66.55 65.63 64.51 63.60 61.81 61.71 60.74 60.21

GFSSGP_sfc_wetblb_045.txt.gz
Wetbulb
62.12 58.38 54.35 53.18 42.59 38.41 34.84 39.41 43.41 44.81 46.64 48.21 49.14 48.18 48.70 53.04 56.27 52.28 63.45 66.95 68.43 69.19 74.39 76.16 77.05 77.26 77.04 76.76 76.58 76.10 75.90 75.77 75.63 75.31 75.21 74.86 74.49 74.14 73.72 73.37 73.05 72.11 70.43 69.68 69.08 68.29 67.38 66.87 66.58
63.20 58.50 53.23 47.49 38.10 32.64 35.31 41.45 41.95 45.55 48.27 49.85 50.65 50.63 52.65 55.46 62.83 63.89 64.16 67.12 67.98 70.09 73.83 75.20 77.10 77.08 76.99 76.63 76.22 75.90 75.85 75.72 75.58 75.25 75.26 74.88 74.46 73.89 72.92 72.52 71.98 71.07 69.92 69.51 68.83 67.86 67.62 67.31 67.32
63.54 59.80 50.23 44.05 37.08 35.46 36.40 42.18 44.22 47.90 50.12 49.61 49.42 52.39 54.23 58.72 65.54 64.84 65.95 67.68 67.00 69.63 72.92 74.29 76.87 76.83 76.94 76.61 76.00 75.74 75.65 75.62 75.47 75.40 75.23 75.05 74.46 73.91 73.12 72.45 72.19 70.77 70.16 69.21 68.49 68.25 68.32 68.27 68.06
57.21 55.71 49.87 40.43 38.55 41.54 43.07 44.46 46.66 47.94 50.18 50.38 50.15 49.92 58.64 64.01 66.15 66.98 67.88 66.74 67.53 69.15 71.13 75.14 76.38 76.68 76.63 76.53 76.05 75.67 75.55 75.65 75.47 75.52 75.34 74.95 74.60 73.88 73.14 72.55 72.27 71.73 69.95 69.05 68.72 69.38 69.20 68.80 68.55
57.87 50.56 43.47 37.34 40.05 43.04 45.93 47.08 47.03 47.04 47.63 49.22 50.16 49.96 57.81 63.63 69.09 67.79 66.51 66.99 66.06 68.17 69.52 74.21 75.90 76.27 76.48 76.51 76.23 75.82 75.62 75.41 75.49 75.52 75.44 75.07 74.59 73.85 72.97 72.53 72.12 71.63 70.73 69.60 69.59 69.84 70.55 70.36 69.14
52.22 49.52 38.78 39.82 43.17 46.70 48.03 49.27 47.65 48.05 48.57 49.61 49.09 53.19 58.63 67.20 67.50 66.68 66.60 65.48 67.44 67.36 69.52 72.97 75.63 75.96 75.95 76.13 75.90 75.46 75.28 75.38 75.36 75.38 75.21 75.11 74.59 73.72 73.02 72.36 72.03 72.07 71.35 71.14 70.80 70.82 70.87 70.80 70.41
48.43 45.69 40.57 40.42 44.66 46.59 49.81 52.20 50.44 47.91 49.41 51.54 53.99 54.76 59.00 62.37 67.73 66.60 65.19 64.92 65.70 67.23 69.57 71.29 73.17 74.98 75.85 75.54 75.38 75.37 75.04 74.86 74.86 74.78 74.68 74.77 74.34 73.71 72.84 72.18 72.03 71.98 71.66 71.48 71.38 71.32 71.07 70.85 70.29
49.20 47.90 43.53 45.21 45.73 46.69 52.61 52.81 52.63 51.16 52.12 56.49 55.70 51.81 56.72 62.36 67.71 66.87 64.80 64.00 66.51 66.30 67.87 69.23 71.20 73.20 73.50 73.80 75.37 75.31 75.20 74.77 74.57 74.66 74.48 74.59 74.38 73.70 73.10 71.71 71.92 71.96 71.74 71.79 71.47 71.66 71.46 71.11 71.09
49.10 40.96 40.14 45.63 47.36 48.65 52.45 50.27 54.07 55.96 53.59 54.88 55.93 56.76 60.40 67.70 67.95 65.65 64.37 66.35 66.96 67.49 66.98 68.40 69.41 69.57 69.82 70.43 73.78 74.94 75.27 75.17 74.65 74.56 74.48 73.56 72.16 71.46 70.82 71.17 71.15 71.96 71.66 71.66 71.68 71.70 71.70 71.35 70.75
43.16 38.69 41.69 48.05 51.03 49.44 50.34 50.82 51.65 51.64 51.02 52.59 54.16 57.24 58.75 66.48 66.93 65.28 63.53 63.64 65.31 65.74 67.02 68.40 68.83 68.85 68.67 70.15 68.95 70.03 71.89 72.86 72.68 72.54 72.36 71.79 69.10 68.31 69.58 70.45 70.92 71.66 71.51 71.46 71.46 71.57 71.69 70.82 67.37
41.34 40.03 46.38 48.90 49.62 50.52 50.18 50.51 52.08 50.35 49.21 51.49 51.89 54.34 56.70 62.08 62.13 63.92 64.43 63.97 63.89 66.05 67.22 67.79 68.08 68.31 68.06 67.81 67.73 67.77 68.24 68.42 69.55 69.01 69.30 68.69 67.31 67.61 68.58 66.16 67.84 66.67 69.84 66.43 69.00 68.36 68.72 67.19 66.75
37.90 42.16 43.79 45.31 47.81 48.06 47.18 49.48 48.47 49.33 49.73 53.44 54.16 55.43 55.93 55.09 62.29 61.52 61.51 63.61 66.06 66.67 67.21 67.67 67.11 67.05 67.07 65.91 67.28 67.90 67.43 67.02 67.18 67.59 66.42 66.41 65.57 65.03 65.48 65.06 64.59 64.75 64.61 64.73 64.80 65.40 66.37 66.57 66.37
36.73 40.51 42.57 43.94 43.69 44.26 47.07 46.86 47.94 48.53 51.53 53.31 54.23 55.47 55.16 55.02 57.38 61.05 63.47 64.37 65.54 67.53 68.16 68.28 67.64 66.59 66.18 65.17 65.18 66.22 66.94 66.38 66.25 65.97 66.19 66.31 65.25 64.07 63.68 63.94 62.76 63.16 62.94 63.78 63.84 63.82 64.77 65.85 65.83
39.54 39.71 41.18 41.63 42.59 43.26 43.73 45.10 46.81 48.26 51.42 51.44 52.53 52.85 54.59 54.23 57.11 60.21 62.36 63.38 65.04 68.31 69.38 69.59 68.65 67.78 66.73 66.03 64.98 65.81 66.33 66.18 64.85 65.60 66.33 66.07 64.96 63.63 63.10 62.36 61.90 61.35 62.73 63.50 64.00 63.57 63.53 64.50 64.70
40.92 37.07 38.57 40.33 41.71 42.81 45.58 42.54 43.70 48.58 50.73 49.28 50.28 51.83 53.64 54.42 55.35 60.09 62.14 63.21 65.72 67.81 70.46 69.91 69.30 69.15 68.55 67.59 66.34 65.91 66.39 66.37 65.41 64.76 64.98 65.90 65.22 63.33 62.80 61.54 61.53 61.78 61.95 62.34 63.15 62.03 61.96 62.04 62.88
35.97 34.85 30.02 36.60 39.64 42.61 43.09 38.19 44.99 47.83 47.67 48.21 49.56 50.39 52.38 53.34 54.46 58.42 61.26 61.70 62.94 62.51 63.74 69.42 70.82 68.37 67.37 67.16 66.90 66.77 66.96 66.77 66.24 65.72 65.18 65.43 65.16 63.75 62.21 61.82 60.91 61.58 61.79 62.38 62.94 61.77 60.89 61.50 61.77
32.00 26.64 28.93 33.75 38.44 38.54 39.82 37.04 42.93 44.53 44.47 44.53 46.10 47.46 49.99 50.37 53.61 54.86 58.03 61.11 61.20 61.76 61.96 61.73 65.02 65.23 64.77 65.89 66.93 67.43 67.38 67.25 67.27 66.81 66.11 65.76 65.56 64.75 63.75 62.57 61.97 61.17 61.86 61.99 62.40 61.46 61.33 60.34 61.06
29.53 28.77 31.98 32.36 37.43 37.31 36.64 37.44 40.29 43.08 43.35 43.02 43.50 44.81 46.05 48.14 49.58 52.73 55.57 57.21 58.77 59.96 61.26 60.54 61.91 65.22 65.42 65.78 65.97 66.88 67.67 67.99 68.28 67.65 67.16 66.52 66.26 66.06 64.16 63.92 62.47 61.65 61.95 61.84 62.07 61.87 61.49 60.43 61.61
35.52 33.56 32.42 36.05 39.85 36.44 36.28 37.38 39.66 41.39 41.39 41.37 42.23 43.34 44.61 46.33 48.88 51.17 54.21 56.80 57.64 58.83 58.60 59.04 58.84 62.70 66.16 66.38 65.87 66.79 67.08 68.43 68.48 68.32 67.90 67.31 67.08 66.72 64.67 64.40 63.50 62.54 61.97 62.41 62.49 62.14 60.82 60.25 61.28
34.73 31.99 31.97 35.96 40.55 38.48 36.68 36.66 39.91 40.20 40.45 40.94 41.91 42.50 43.47 44.91 47.42 49.82 51.23 54.29 55.91 56.89 57.82 59.36 59.55 60.96 65.59 68.42 68.51 68.55 68.43 69.05 69.20 68.89 67.86 68.26 68.06 67.60 66.35 65.13 64.58 63.41 62.78 61.44 62.82 62.17 60.06 60.61 61.41
33.85 32.70 33.52 33.74 38.30 38.49 35.78 34.91 36.28 39.41 40.63 41.78 42.05 42.72 43.13 43.94 45.15 47.25 49.46 51.27 53.80 54.63 54.57 57.13 59.24 60.00 61.23 68.32 68.56 62.54 63.17 62.52 65.11 64.83 65.73 67.33 68.22 68.55 67.76 66.42 65.51 64.20 64.15 62.59 62.50 63.03 61.54 59.49 60.74
30.14 37.85 38.19 36.56 32.88 26.35 36.16 25.62 34.67 37.40 37.81 39.40 40.14 40.22 41.31 42.49 44.05 45.67 47.14 48.04 49.61 52.16 53.64 55.34 58.39 60.63 61.69 66.05 67.56 67.04 66.63 65.68 62.26 65.58 66.67 64.76 66.31 67.28 68.43 67.67 66.14 65.29 65.05 63.92 63.22 63.99 62.92 61.81 61.39
34.19 39.71 36.80 35.60 31.93 28.59 30.90 25.49 32.65 35.50 36.15 38.00 39.73 40.35 41.40 42.46 43.67 44.28 45.47 47.02 49.34 50.71 51.79 55.12 57.23 59.02 61.66 65.00 67.16 66.59 63.90 62.04 59.87 58.48 59.71 61.39 62.11 65.27 67.83 67.57 66.36 65.63 65.89 64.62 63.74 62.77 62.94 63.98 63.31
40.58 35.62 33.43 31.45 28.40 21.20 28.82 28.64 29.93 33.61 35.72 37.12 39.82 43.04 44.99 44.90 45.98 46.65 47.58 48.86 49.16 49.68 49.53 52.26 56.15 58.42 60.03 61.83 64.34 64.60 65.04 59.84 58.96 58.82 59.31 59.81 61.95 64.84 66.40 67.25 66.51 66.31 65.93 64.52 64.55 65.24 64.75 64.04 64.02
34.26 27.56 20.80 19.97 19.55 20.61 30.63 27.88 30.74 35.59 37.93 39.71 41.10 42.56 43.82 44.36 44.26 45.03 45.94 47.51 49.31 50.49 49.78 49.24 53.51 57.08 58.80 60.12 61.90 61.01 60.40 60.02 59.98 59.80 60.13 60.74 62.55 63.45 65.09 66.19 65.78 65.99 66.17 65.57 65.43 65.59 64.94 64.22 63.53
30.35 29.13 21.86 17.11 19.88 22.44 31.40 24.38 29.75 38.08 41.18 42.91 43.63 43.28 43.86 43.21 43.18 44.35 46.12 47.29 48.86 50.54 54.27 53.87 49.52 54.91 57.73 59.69 60.33 60.49 60.39 59.75 59.61 59.30 61.08 62.12 63.49 63.89 66.05 66.98 66.73 66.26 66.56 65.93 65.46 65.74 64.97 64.48 64.06
31.27 27.68 32.42 25.73 26.27 21.73 25.90 30.47 35.24 39.51 40.18 41.38 41.32 42.56 41.28 41.92 42.57 43.86 46.24 47.40 47.97 49.75 50.59 52.64 54.71 51.04 56.48 59.17 59.89 57.95 59.29 59.32 59.57 60.37 62.67 63.54 63.92 64.81 65.53 65.86 66.13 66.29 66.20 65.64 64.62 64.81 64.61 64.40 62.77
34.41 35.99 27.75 27.57 21.31 18.73 24.02 25.99 27.80 33.50 35.83 39.47 39.72 39.33 40.48 42.13 42.90 44.33 45.80 47.07 47.97 48.60 49.29 52.31 54.54 51.01 52.64 56.08 58.98 59.46 59.81 60.33 60.89 62.42 63.51 63.97 64.07 65.29 65.68 65.61 65.55 65.61 65.79 65.75 65.84 64.98 64.33 61.83 61.61
30.45 27.93 30.03 28.40 28.01 21.06 20.16 24.03 33.17 35.06 37.85 37.76 39.05 40.22 40.15 41.23 43.32 45.16 46.25 47.93 47.62 47.68 48.70 53.55 56.66 51.61 50.26 54.61 56.34 58.89 61.00 61.38 63.35 64.40 64.23 64.77 64.95 65.34 65.46 65.55 65.19 65.55 65.39 65.82 65.10 64.09 62.96 62.67 61.19
37.00 32.83 31.73 24.27 22.80 25.31 25.38 25.99 39.48 38.17 38.03 38.27 39.31 41.17 42.30 42.87 44.21 45.26 46.10 47.17 46.91 46.86 51.94 53.80 58.23 53.67 54.29 58.21 60.51 61.98 63.20 63.95 64.19 64.34 64.25 64.61 64.41 65.52 65.94 66.56 66.47 66.07 65.83 64.75 63.43 62.32 62.52 60.98 59.57

GFSSGP_sfc_wetblb_048.txt.gz
Wetbulb
65.30 58.46 53.65 51.36 41.76 37.95 33.22 37.96 41.75 43.31 44.81 46.85 47.85 47.50 49.00 49.70 54.66 50.63 63.05 67.80 66.87 69.24 74.07 75.22 76.81 77.22 76.90 76.47 76.37 75.94 75.71 75.59 75.47 75.22 75.24 75.09 75.14 75.12 75.01 74.54 73.97 73.23 72.17 70.86 69.62 68.72 67.92 67.26 66.67
63.98 58.16 53.23 46.09 37.68 32.05 33.64 39.76 40.79 44.09 46.41 48.81 49.15 48.16 47.80 48.79 53.09 60.79 63.25 66.09 67.24 69.91 73.89 74.99 76.86 76.89 76.77 76.29 76.08 75.85 75.73 75.66 75.41 75.09 75.07 74.97 74.77 74.54 74.10 73.50 72.84 71.81 70.59 69.87 69.29 68.44 67.95 67.57 67.45
61.21 59.21 49.67 43.72 35.10 33.38 35.36 40.78 42.22 45.79 48.62 47.77 47.58 50.67 50.20 54.21 63.66 63.59 64.97 66.17 67.03 70.42 73.49 74.63 76.68 76.64 76.62 76.32 75.98 75.64 75.67 75.45 75.33 75.31 75.06 74.62 74.49 74.04 73.57 73.23 72.62 71.19 70.27 69.87 68.93 68.41 68.24 68.03 68.09
57.23 55.65 48.86 40.92 38.67 40.82 40.57 42.74 43.87 45.64 47.96 48.54 49.14 48.09 51.88 63.49 65.33 65.86 66.02 66.60 67.52 70.66 73.09 75.07 76.44 76.24 76.19 76.29 76.01 75.53 75.58 75.38 75.38 75.28 75.04 74.76 74.42 73.72 73.10 72.81 72.57 72.07 70.62 69.65 69.32 69.67 69.55 68.91 68.42
56.83 51.24 43.69 38.54 40.40 43.06 45.20 46.05 44.64 45.54 46.43 48.20 48.70 48.58 50.58 64.86 67.66 66.28 65.43 65.97 66.60 70.02 71.63 74.82 76.11 76.11 76.29 76.19 75.84 75.63 75.48 75.23 75.10 75.33 75.11 74.91 74.36 73.49 72.93 72.66 72.65 72.39 71.77 70.64 70.23 70.28 70.51 70.26 69.31
51.74 48.53 39.72 39.13 41.92 45.75 47.72 48.23 46.68 46.54 47.05 49.67 51.39 51.23 54.15 65.81 66.00 64.59 65.00 63.89 67.76 68.65 70.18 74.17 75.89 76.04 75.84 75.82 75.54 75.40 75.22 75.00 75.15 75.10 75.03 74.88 74.32 73.66 72.93 72.61 72.58 72.32 71.83 71.31 70.80 70.88 70.68 70.66 70.31
48.01 44.85 41.51 42.48 44.00 46.34 49.30 52.30 49.75 48.11 49.02 50.67 52.93 50.84 55.74 62.00 64.93 64.14 63.35 64.66 65.74 67.05 70.37 72.17 73.92 75.32 75.94 75.45 75.22 75.09 74.91 74.66 74.63 74.51 74.46 74.51 74.39 73.68 72.85 72.24 72.19 72.33 71.71 71.46 71.29 71.12 71.03 70.90 70.12
48.12 47.55 43.31 44.68 44.99 45.62 52.14 52.27 52.56 50.90 50.60 55.04 55.44 50.70 51.23 62.25 64.81 64.28 65.82 65.35 64.34 66.19 68.55 69.66 71.08 72.91 73.91 74.54 75.51 75.27 75.05 74.69 74.41 74.52 74.50 74.52 74.30 73.74 73.14 71.77 71.89 72.33 72.01 71.67 71.52 71.52 71.59 71.17 70.70
49.62 40.38 38.84 44.68 46.38 47.90 52.28 50.25 52.96 54.59 52.77 52.39 54.58 54.63 56.15 66.77 65.46 63.50 64.48 65.39 65.24 66.39 65.97 68.00 69.99 70.71 71.75 72.41 74.30 75.09 75.23 74.99 74.62 74.63 74.61 73.63 73.13 72.57 72.07 71.40 71.60 72.09 71.96 71.86 71.81 71.76 71.82 71.30 70.51
43.26 36.44 40.57 46.86 49.69 48.43 50.49 50.49 51.00 50.81 50.10 49.95 52.57 54.87 56.43 66.35 65.52 63.67 62.40 62.63 63.43 64.34 65.97 67.40 68.72 70.07 70.42 72.19 72.00 73.10 72.83 73.50 73.31 73.38 73.22 72.98 71.99 70.58 70.57 71.20 71.73 72.08 71.86 71.84 71.76 71.75 71.86 70.61 68.78
40.80 36.81 44.37 47.88 48.53 48.99 48.00 48.32 49.75 47.74 46.63 49.56 49.18 51.56 54.45 54.97 60.50 62.95 64.87 62.57 63.14 64.51 65.94 67.55 68.11 68.71 69.41 69.16 68.77 70.17 69.65 71.73 71.84 71.19 71.39 71.82 69.68 69.90 70.59 68.57 69.86 68.87 70.98 68.09 70.21 70.15 69.92 68.70 68.00
35.00 41.06 42.35 44.08 45.68 45.44 45.08 47.30 46.34 47.52 47.58 50.43 51.33 52.35 53.03 54.30 54.79 59.82 62.77 64.22 62.70 63.59 65.20 66.75 67.17 67.37 67.29 66.68 67.22 68.07 68.86 67.87 68.14 68.27 68.29 68.82 67.03 66.56 67.12 66.63 66.36 66.61 66.52 66.43 66.23 66.97 67.80 67.93 67.42
36.01 39.19 42.06 43.21 43.29 42.93 44.80 44.08 44.88 45.59 49.07 51.21 51.47 51.99 52.70 52.95 53.94 58.20 61.49 64.02 65.70 64.89 65.70 66.18 66.97 66.75 67.24 66.19 67.03 67.53 67.73 67.31 67.19 66.88 66.79 66.94 66.31 65.32 65.14 65.60 64.59 64.97 64.66 65.18 64.96 64.96 65.70 66.68 67.02
38.26 39.18 40.78 41.88 42.57 42.43 42.72 43.80 44.94 46.92 49.80 49.98 50.62 50.62 51.45 52.23 53.55 56.88 60.80 62.27 64.55 66.85 66.24 67.34 66.59 66.58 66.81 66.41 64.88 66.31 67.34 67.12 66.70 66.54 67.00 66.79 66.26 65.32 64.38 64.18 64.05 63.19 63.75 64.03 64.48 64.21 64.29 65.05 66.01
39.25 35.82 38.04 39.34 40.70 41.10 43.37 40.51 41.76 46.96 49.70 48.81 48.89 49.07 49.86 51.15 52.98 53.75 58.69 61.37 63.97 66.56 67.91 67.49 66.99 65.99 65.31 65.45 65.17 65.07 65.85 66.42 65.88 65.99 66.52 66.66 65.90 64.61 64.30 63.23 62.91 63.25 62.67 63.33 63.95 63.58 63.54 63.60 64.30
33.89 32.56 27.93 35.39 39.42 41.49 41.61 35.75 43.37 44.31 45.44 45.90 47.36 47.77 48.53 49.12 50.54 52.29 54.72 60.19 63.35 64.60 68.02 68.84 68.71 67.32 65.83 64.46 64.29 64.03 64.31 65.60 65.41 65.20 65.14 66.00 66.02 65.20 63.82 62.72 62.22 62.61 62.22 62.74 63.29 62.98 62.63 62.69 62.86
30.97 26.26 27.85 33.44 37.73 38.29 38.15 35.49 42.33 43.93 43.62 43.74 44.95 47.50 46.60 46.47 48.21 49.73 51.62 55.88 60.75 62.37 63.20 66.64 69.19 68.39 67.55 67.36 66.83 66.46 65.94 65.48 65.66 65.66 64.99 64.98 65.61 65.30 63.82 62.72 62.31 61.74 61.84 62.19 62.66 62.53 62.94 61.72 62.00
27.07 27.67 30.77 30.53 36.30 37.55 35.64 35.18 39.69 42.54 42.46 42.20 43.58 44.73 45.51 46.03 47.21 48.88 50.53 52.08 54.16 59.02 61.98 63.37 64.72 66.24 65.02 64.45 65.23 66.01 66.15 66.42 66.59 66.40 66.23 65.87 65.33 65.28 64.00 63.25 62.50 61.91 61.60 61.81 62.29 62.32 62.63 62.23 62.46
33.30 31.76 30.65 34.38 38.01 35.81 35.05 36.08 38.52 40.54 40.82 40.86 41.71 43.49 44.78 45.67 47.32 49.38 50.37 51.42 53.58 54.69 57.10 59.84 60.23 63.37 65.61 64.54 64.79 65.08 65.57 66.47 67.10 67.38 67.74 66.73 66.31 66.08 64.61 64.19 63.18 62.23 61.93 62.24 62.49 62.49 62.10 61.74 63.02
33.44 30.53 30.63 35.03 38.59 36.77 35.23 35.45 39.05 39.56 39.90 40.83 41.43 42.01 43.05 44.64 46.59 48.10 49.22 50.54 50.73 52.88 54.63 56.18 58.15 60.45 63.25 66.32 66.33 66.27 66.29 66.70 67.95 68.34 67.96 67.58 66.94 66.73 65.87 64.90 64.26 63.32 62.72 62.46 62.45 62.61 61.68 62.40 63.03
31.81 30.76 31.25 32.46 36.75 36.68 34.19 32.57 34.81 38.45 39.57 41.14 41.60 41.81 42.35 42.86 43.82 45.37 47.54 48.08 48.75 49.69 52.36 54.44 55.71 57.76 59.10 64.37 65.78 64.83 64.37 64.28 66.06 66.75 67.80 67.98 68.05 67.62 67.02 65.63 65.41 64.16 64.04 62.43 62.97 63.26 62.60 61.43 61.99
28.61 36.30 36.12 35.12 30.76 23.73 34.48 22.44 30.86 35.27 37.66 38.71 39.69 39.54 40.87 40.91 43.72 45.51 47.29 47.47 47.74 48.38 50.00 51.30 53.49 55.17 57.57 59.02 64.73 64.57 65.51 64.87 66.17 67.33 67.84 67.55 68.58 68.64 67.93 66.86 66.23 65.37 64.70 63.99 63.16 64.09 63.79 63.05 61.41
32.55 37.85 35.18 33.86 29.36 26.69 28.31 24.14 26.55 34.16 33.44 36.42 40.23 41.83 40.33 43.59 44.18 45.14 46.44 47.31 48.67 49.79 48.67 49.19 50.97 52.94 56.37 58.01 61.32 64.70 64.75 65.43 66.12 63.23 65.62 65.54 65.76 67.59 68.15 68.31 67.08 66.03 65.30 65.41 63.97 64.11 63.38 64.05 63.22
38.71 34.07 31.41 29.05 26.23 20.32 26.07 25.49 25.78 29.43 32.67 35.42 38.47 40.70 43.42 44.08 44.92 45.14 46.16 47.16 47.73 49.12 49.51 47.96 49.02 52.30 56.34 58.93 60.29 61.98 63.80 64.60 61.76 60.95 61.78 62.31 62.44 63.84 65.68 67.37 67.46 66.73 66.14 65.45 64.54 64.71 64.25 64.05 65.13
33.01 26.49 19.97 18.68 18.54 19.62 28.49 26.07 28.71 34.59 38.61 38.80 39.31 41.00 42.93 43.47 43.15 43.48 43.50 44.60 46.24 47.73 49.24 50.82 52.20 50.69 53.45 58.14 61.14 63.87 64.81 65.43 62.92 63.26 62.55 60.25 60.79 62.75 64.18 66.12 66.22 66.19 66.46 65.90 65.67 65.10 65.17 65.20 64.48
29.55 27.74 20.67 16.22 17.74 21.32 29.46 22.92 28.06 36.81 39.42 41.09 42.69 42.40 43.05 42.83 42.27 42.05 43.06 44.06 45.92 47.66 48.93 50.48 49.93 51.14 52.78 55.09 58.55 61.63 64.28 64.92 64.08 63.41 60.97 60.66 60.99 62.91 65.20 66.74 66.88 66.81 66.84 66.46 66.52 66.22 66.11 65.64 65.10
29.83 26.26 30.20 23.94 23.57 17.72 24.11 28.24 34.76 38.08 38.25 40.55 40.91 41.58 41.08 41.10 41.17 41.63 43.18 44.18 45.64 46.99 48.34 48.38 48.41 49.70 53.57 52.12 56.29 58.70 60.62 61.11 59.97 59.77 60.37 60.81 62.72 64.00 65.56 66.95 66.70 66.90 67.13 67.13 66.68 66.15 65.62 65.80 64.65
33.04 34.73 24.43 24.16 19.40 17.85 22.22 24.80 26.83 32.42 35.10 37.11 38.20 38.91 39.50 40.58 42.06 43.69 42.99 44.83 46.57 47.31 48.60 48.47 48.16 49.72 54.30 53.57 54.75 58.05 59.01 60.05 60.31 59.76 60.76 62.42 63.40 65.45 65.85 66.22 66.90 67.04 67.31 66.82 66.21 65.75 65.72 64.38 63.88
29.26 26.50 28.20 27.29 26.38 20.10 19.71 23.63 32.85 33.36 34.95 35.46 38.23 40.43 39.07 40.17 42.64 43.46 44.60 46.14 46.72 47.36 47.83 47.81 48.22 51.62 54.27 55.40 53.02 56.64 58.19 59.31 60.11 60.68 61.69 63.32 64.30 65.60 66.18 66.81 66.81 66.95 66.59 66.52 65.98 65.80 64.78 63.49 63.43
33.33 30.32 29.10 26.67 23.26 25.21 25.26 25.60 36.81 35.61 37.18 37.04 38.14 39.88 41.21 42.35 43.13 43.91 44.85 45.87 46.06 46.75 47.66 47.06 51.02 53.10 56.02 57.36 52.69 54.61 58.50 59.83 60.79 61.95 63.20 64.53 65.24 66.03 66.48 66.68 66.70 66.76 66.43 66.03 65.57 64.41 64.12 63.76 62.24

GFSSGP_sfc_wetblb_051.txt.gz
Wetbulb
65.49 62.45 58.89 57.68 49.58 48.55 44.34 45.62 48.72 49.08 49.80 52.76 53.24 52.41 52.97 54.58 56.22 53.33 69.51 71.69 70.26 71.71 75.05 76.59 76.87 76.97 76.78 76.50 76.60 76.54 76.49 76.57 76.76 76.81 76.69 76.69 76.71 76.62 76.24 75.96 75.37 74.47 73.47 72.30 70.66 69.35 68.52 68.06 67.30
63.91 60.25 58.11 53.57 46.06 42.42 43.84 47.10 47.26 49.67 51.74 53.55 53.71 53.07 52.33 52.80 56.52 59.11 65.12 71.03 71.03 73.22 76.30 75.81 76.95 76.75 76.68 76.32 75.95 75.92 76.04 76.24 76.17 76.29 76.26 76.36 76.04 75.89 75.51 75.04 74.25 73.28 72.37 70.58 69.79 69.13 68.39 68.12 67.70
62.75 61.74 55.79 51.92 45.84 40.55 43.61 46.44 48.88 50.73 52.53 51.66 52.40 54.66 54.45 54.54 61.55 63.43 69.90 70.10 70.95 72.79 75.45 76.31 76.77 76.62 76.55 76.22 75.65 75.54 75.64 75.62 75.67 75.82 75.72 75.54 75.37 74.94 74.64 74.22 73.87 72.58 71.02 70.56 69.82 69.36 69.12 68.85 68.66
60.49 60.62 54.58 47.41 43.47 44.06 45.27 49.38 50.20 50.37 52.00 53.05 53.66 53.24 56.85 68.34 68.53 70.48 71.20 69.47 70.94 72.56 73.42 76.00 76.42 76.50 76.30 76.35 75.77 75.54 75.54 75.37 75.39 75.39 75.27 75.17 74.89 74.36 74.02 73.80 73.22 72.59 71.72 70.59 70.23 70.59 70.18 69.38 69.02
60.65 57.45 48.08 45.62 44.03 45.96 47.96 50.29 51.10 50.16 51.26 53.45 55.15 54.32 56.83 66.37 67.57 69.91 69.94 69.14 70.27 71.97 73.26 75.88 76.26 76.32 76.12 76.30 76.02 75.62 75.54 75.14 75.26 75.26 75.21 74.84 74.54 73.96 73.60 73.33 72.80 72.69 72.45 71.70 71.18 70.91 71.02 70.87 69.72
56.16 55.58 46.97 44.05 44.59 47.46 50.40 52.51 52.26 52.04 53.06 55.49 55.91 56.08 59.04 64.05 68.31 68.32 69.21 69.21 70.82 71.48 72.86 74.95 76.45 76.26 75.97 75.72 75.72 75.31 75.11 75.03 75.21 75.11 75.01 74.93 74.29 73.72 73.38 73.05 72.88 72.89 72.57 71.89 71.50 71.30 71.27 71.17 70.88
53.96 51.60 46.65 47.18 46.19 48.24 51.22 55.31 53.92 53.85 54.78 55.07 57.60 54.69 58.91 61.75 68.01 67.69 67.98 69.37 71.12 71.72 72.32 74.60 75.44 76.41 76.14 75.61 75.31 75.28 75.02 74.85 74.82 74.67 74.57 74.45 74.23 73.52 73.20 72.81 72.90 72.83 72.45 71.87 71.50 71.59 71.47 71.23 70.71
55.12 53.93 47.77 48.36 46.15 47.23 53.63 54.41 55.75 54.42 53.92 57.90 57.87 54.07 55.14 61.34 67.74 68.15 68.21 69.06 70.01 70.85 71.49 73.39 74.18 75.30 75.37 75.54 75.40 75.31 75.11 74.88 74.55 74.75 74.58 74.41 74.15 73.64 73.07 72.05 72.23 72.68 72.41 72.04 71.72 71.64 71.49 71.37 70.95
54.72 48.25 45.46 47.33 48.07 49.62 54.33 52.05 55.03 56.44 54.53 55.66 56.89 56.99 57.63 63.34 67.60 67.68 66.93 67.30 68.11 69.41 71.44 72.77 73.74 74.70 74.86 74.22 74.95 75.22 75.40 75.03 74.78 74.88 74.72 73.95 73.80 73.68 72.96 71.52 71.71 72.61 72.53 72.11 72.09 71.96 71.76 71.64 70.61
49.15 45.50 46.25 50.94 52.03 51.79 53.59 52.91 52.48 52.42 52.43 52.37 54.77 56.79 57.49 57.56 65.69 66.25 66.21 65.61 66.16 67.09 69.93 71.80 73.36 73.73 74.25 73.82 74.85 74.97 74.47 74.83 75.02 74.88 75.01 74.78 74.64 74.37 72.96 72.35 71.76 72.36 72.45 72.21 72.16 72.05 72.12 71.10 69.37
46.56 44.37 48.25 49.92 51.56 51.97 51.91 50.86 52.34 49.86 49.04 52.87 51.24 53.84 55.38 56.02 59.63 60.75 66.89 67.04 66.51 67.12 68.24 70.27 72.61 73.69 73.43 72.90 74.06 74.28 74.34 74.45 74.38 74.33 74.31 74.43 73.57 73.29 73.43 72.40 72.01 71.37 71.56 69.59 70.27 70.06 69.37 69.38 69.62
42.78 44.91 45.49 48.37 47.53 47.18 48.22 47.72 47.45 49.08 50.10 52.08 52.79 53.27 54.60 56.00 57.85 59.85 59.97 66.95 66.73 66.73 67.24 69.57 71.10 72.54 73.29 72.68 72.85 73.07 72.63 73.84 72.85 72.57 73.09 73.07 71.57 72.04 72.62 71.93 71.56 71.75 70.55 70.16 69.73 68.79 69.51 69.76 69.45
42.93 43.65 45.48 46.49 46.38 46.63 47.28 46.27 47.07 46.71 49.58 51.06 52.52 54.10 54.98 56.10 57.93 59.97 63.32 66.62 68.55 66.43 67.29 68.30 70.31 71.00 71.59 71.56 71.29 72.14 72.14 72.62 72.43 72.41 73.26 72.94 71.50 71.72 71.99 71.86 71.44 70.93 70.56 69.68 69.07 68.50 68.74 68.50 68.63
44.27 44.23 44.90 45.61 46.04 46.26 45.14 46.23 46.31 48.27 50.56 50.04 51.12 52.14 53.69 54.66 55.71 57.77 62.15 65.47 67.39 68.79 68.22 68.85 68.99 70.69 70.93 70.64 71.27 71.18 71.84 71.84 71.74 71.73 72.17 72.57 71.89 71.76 71.06 70.87 70.61 70.13 70.04 69.37 68.71 68.36 67.77 67.62 67.59
44.08 41.37 43.17 43.70 44.31 44.00 45.85 43.16 43.79 47.97 49.52 49.29 51.09 51.98 52.75 53.81 55.11 56.12 58.39 62.06 65.82 68.74 70.30 70.01 70.04 70.55 70.84 69.17 70.33 70.37 69.82 70.13 70.27 70.42 71.54 70.87 71.15 70.84 70.93 69.67 69.22 69.32 69.50 69.43 68.56 68.60 68.28 67.15 67.08
40.92 39.94 38.30 42.75 42.98 43.85 44.25 39.00 44.91 46.42 46.99 47.11 48.18 49.63 50.73 52.14 53.52 55.44 56.36 58.70 63.63 67.64 69.80 70.79 68.95 69.26 69.19 69.76 69.46 68.57 68.15 68.83 69.26 69.22 69.39 70.04 69.41 68.96 69.09 67.97 67.88 68.32 68.36 67.53 66.83 67.13 66.51 66.35 66.28
39.62 36.65 36.67 39.33 43.56 43.64 42.62 40.18 45.21 46.70 46.08 46.38 47.52 48.73 49.75 51.35 53.51 56.77 56.47 57.85 59.62 64.83 69.27 71.26 71.70 69.54 68.97 68.80 69.39 68.84 67.68 66.99 68.47 68.55 68.54 68.69 68.31 68.69 68.29 67.63 68.23 68.47 67.00 66.59 66.72 66.70 66.67 66.27 66.38
34.42 35.49 36.93 37.04 41.63 42.75 41.29 41.11 44.22 45.66 45.49 45.62 46.35 47.52 48.71 50.19 52.07 54.62 55.87 57.18 58.66 61.14 65.51 69.60 72.59 72.30 70.56 69.99 68.93 68.20 68.61 67.47 67.66 67.90 68.39 68.46 68.17 67.86 67.26 67.76 67.66 67.70 65.95 66.81 66.84 67.16 67.55 67.21 66.94
38.75 37.24 36.10 39.24 42.40 41.05 40.51 40.76 42.64 45.20 45.67 45.76 46.50 47.52 48.43 49.36 52.13 53.86 55.19 56.44 57.34 59.39 60.69 63.76 67.97 71.89 71.97 70.60 69.24 68.66 66.50 69.01 70.05 69.81 70.08 69.65 67.68 67.68 67.77 68.29 67.51 67.41 67.32 67.67 68.16 67.84 67.63 67.30 67.57
38.60 36.64 36.50 39.64 42.07 40.77 39.79 39.05 42.53 43.91 44.97 46.33 47.21 47.49 48.12 48.72 49.93 51.83 53.62 55.93 57.42 57.75 59.31 60.24 62.80 66.69 69.58 70.21 70.97 71.11 70.12 70.92 70.98 70.95 70.89 70.45 68.90 69.49 70.11 70.70 69.78 69.21 68.17 68.36 68.51 68.28 67.53 67.54 67.87
38.38 36.64 36.41 35.85 39.59 41.36 39.18 37.49 39.21 43.01 45.40 46.28 47.49 48.46 48.70 48.63 49.48 50.50 52.46 55.42 56.77 57.14 58.48 58.92 60.34 61.87 65.63 68.99 71.16 71.41 71.40 71.07 70.71 71.25 71.54 71.75 70.82 71.38 71.84 71.55 71.08 69.98 69.45 69.00 68.99 68.92 68.62 67.74 67.15
35.20 40.24 38.86 37.61 36.07 32.14 38.86 30.75 37.93 40.82 41.88 44.13 45.88 47.56 48.33 49.31 50.49 50.73 53.27 54.58 55.11 56.08 57.18 58.64 59.81 60.47 61.56 65.67 67.94 70.37 69.55 69.06 70.86 71.82 72.54 72.44 71.77 72.01 72.11 72.43 71.34 70.80 70.33 70.75 69.86 69.04 69.18 68.80 67.13
37.07 40.71 39.34 38.31 36.30 34.80 35.43 32.47 36.78 40.30 39.25 41.84 44.58 46.01 47.70 49.10 49.72 51.36 52.58 53.20 54.13 55.57 56.24 57.89 59.18 60.20 62.24 62.70 65.44 66.91 68.94 69.41 71.17 71.38 73.62 74.22 73.02 72.86 72.63 72.82 71.95 71.49 70.97 70.58 70.27 68.99 69.07 68.89 68.07
41.40 39.17 38.71 36.33 35.08 29.49 33.28 32.96 34.91 37.58 39.48 41.75 44.94 46.48 47.57 49.12 51.21 52.21 52.87 53.31 53.59 54.77 55.80 56.91 58.31 60.17 61.15 61.27 63.22 64.65 67.63 69.47 68.82 69.87 69.07 70.07 71.30 72.22 73.14 72.87 72.34 72.23 71.07 70.63 70.46 70.06 69.89 69.30 68.82
39.58 36.55 30.09 28.59 28.92 28.35 34.96 32.45 35.86 40.34 42.58 43.66 44.60 46.62 48.50 49.69 50.83 51.20 51.43 51.77 53.05 54.06 55.39 56.04 56.96 58.44 59.98 60.26 61.40 63.39 65.54 67.47 68.50 69.07 68.26 69.58 68.92 69.51 71.17 71.96 71.93 71.50 72.06 72.08 71.44 70.05 69.83 69.54 68.95
37.68 36.45 30.18 21.86 25.40 29.27 35.32 29.67 37.02 42.10 44.22 45.69 47.16 48.75 49.70 50.54 50.48 50.65 51.37 51.61 52.23 53.47 54.72 55.99 56.45 57.16 58.06 58.68 60.42 63.23 65.05 65.52 67.02 68.38 67.88 68.31 68.54 69.54 71.86 70.83 71.62 71.84 71.50 71.16 70.71 69.86 69.88 70.46 69.55
35.94 33.24 37.67 32.25 33.34 28.44 32.59 36.26 40.20 42.88 43.31 44.77 45.34 46.85 48.23 49.89 49.86 50.40 51.12 51.58 52.07 53.34 54.56 55.51 56.06 56.97 57.95 57.74 60.38 62.25 64.14 66.27 67.95 70.65 71.21 69.43 70.81 69.22 70.10 70.75 71.18 71.27 71.30 71.40 71.26 70.31 70.51 70.51 70.35
39.43 40.79 32.11 33.80 23.96 22.91 30.58 32.28 33.53 38.71 40.81 43.13 44.07 45.87 47.68 48.80 49.53 50.81 51.09 51.43 52.52 53.37 54.45 55.67 56.21 56.18 57.19 57.94 59.91 61.90 63.64 65.43 67.13 69.03 68.88 69.77 69.16 69.10 69.66 70.43 71.21 71.36 71.51 71.92 71.63 71.09 71.27 70.73 70.12
35.99 35.10 35.24 34.24 32.40 25.93 25.10 31.27 40.80 40.61 41.80 42.42 44.16 46.01 47.26 48.13 48.96 49.42 50.06 51.38 52.46 53.47 53.87 55.13 55.51 56.23 56.31 57.85 60.14 62.04 62.95 64.87 65.50 66.15 67.03 68.07 68.96 69.00 69.19 70.04 70.78 71.07 71.74 71.74 71.52 71.16 70.73 69.92 68.64
39.74 36.94 36.65 29.97 28.67 31.60 30.70 30.41 42.95 43.04 43.74 44.04 44.52 45.85 47.27 48.43 48.88 49.37 50.08 51.16 52.38 52.28 53.53 54.59 55.33 55.55 56.36 58.57 60.13 62.29 63.55 64.54 64.42 65.03 66.20 67.66 68.24 69.06 69.26 70.06 70.41 71.36 71.54 71.74 70.86 70.34 69.61 68.20 67.54

GFSSGP_sfc_wetblb_054.txt.gz
Wetbulb
67.42 62.94 63.43 60.79 51.66 50.84 49.53 49.29 52.24 51.52 52.55 55.76 56.37 55.54 56.22 58.61 58.07 57.32 70.95 72.68 71.15 72.14 76.36 77.09 76.75 77.35 77.75 77.85 77.62 77.60 77.39 77.22 77.15 76.95 76.89 76.94 77.04 77.04 76.86 76.53 76.01 75.33 74.08 72.90 71.40 70.10 69.18 68.47 67.77
65.01 62.30 61.33 57.30 47.90 46.19 48.68 51.29 49.92 51.90 53.54 55.34 56.18 56.00 55.70 56.32 59.77 61.02 64.85 72.15 71.40 73.57 76.54 75.94 76.64 76.85 77.48 77.50 77.22 77.16 77.19 77.14 77.19 76.94 76.91 76.94 76.93 76.79 76.48 76.04 75.44 74.39 73.20 71.89 70.31 69.48 68.84 68.26 67.69
64.39 64.07 56.26 52.26 48.43 44.08 46.27 49.98 51.65 52.94 54.01 55.06 55.19 57.56 57.17 58.24 64.59 67.72 72.69 72.49 72.56 74.31 76.17 75.94 76.59 76.67 77.15 77.12 76.91 76.63 76.79 76.83 76.96 76.93 76.88 76.88 76.58 76.10 75.70 75.51 75.19 73.91 72.53 70.81 70.03 69.46 69.56 68.71 68.53
63.25 60.74 56.85 49.44 46.17 47.68 47.43 51.06 52.78 52.69 53.57 55.69 56.92 56.23 59.42 65.00 65.21 68.89 71.06 73.33 72.43 74.01 75.26 76.73 76.29 76.32 76.54 76.72 76.64 76.38 76.41 76.51 76.61 76.68 76.66 76.33 76.06 75.40 75.00 74.79 74.54 73.74 71.92 70.81 70.54 70.72 70.52 70.15 69.04
62.96 59.24 51.02 49.31 47.89 48.61 50.27 52.04 52.99 52.06 52.99 53.63 57.42 56.57 59.41 65.00 67.02 71.94 72.66 73.31 71.90 73.34 74.04 77.79 76.31 76.12 76.47 76.59 76.34 76.11 76.01 75.88 75.86 76.19 76.01 75.84 75.31 74.83 74.49 74.19 74.06 73.35 73.01 72.31 71.36 71.16 71.49 71.16 69.85
57.43 57.10 50.00 47.54 48.86 50.26 52.50 54.46 54.72 54.84 55.12 54.55 56.67 57.81 60.57 64.91 66.29 71.15 72.20 73.02 72.58 72.28 73.35 76.32 76.40 76.11 76.06 76.29 75.86 75.46 75.43 75.33 75.36 75.36 75.21 75.11 74.68 74.34 74.12 73.87 73.54 73.27 73.13 72.58 71.98 71.87 71.52 71.43 71.07
56.46 53.94 49.92 50.10 50.10 51.11 53.17 56.39 54.63 55.33 55.77 55.45 59.01 56.53 60.67 62.09 66.83 71.21 71.88 72.34 72.45 71.86 72.45 75.99 76.76 76.97 76.11 75.88 75.58 75.40 75.17 75.04 74.97 74.79 74.60 74.60 74.43 74.04 73.54 73.30 73.14 73.24 73.14 72.48 72.26 72.02 71.65 71.41 70.63
56.92 55.32 51.17 51.12 49.61 49.93 54.83 55.94 57.56 56.77 55.56 59.47 59.54 56.75 57.71 61.31 65.60 70.49 71.42 71.07 71.64 71.54 71.94 74.45 75.65 76.48 76.24 75.99 75.80 75.44 75.26 75.11 74.87 74.93 74.81 74.59 74.25 73.76 73.42 72.54 72.82 73.27 73.12 72.55 72.30 72.08 71.86 71.49 71.12
57.07 51.93 49.66 50.75 51.07 52.34 55.67 54.22 57.22 58.60 56.63 58.00 58.71 58.76 60.61 61.16 61.68 67.36 70.97 69.48 71.26 70.72 71.35 73.51 73.83 75.21 75.09 74.13 75.63 75.43 75.42 75.19 75.02 75.18 74.95 74.17 73.32 73.59 73.07 71.35 72.52 73.15 73.22 72.73 72.35 72.18 72.06 71.37 70.24
52.73 50.40 50.71 54.32 54.70 53.81 55.43 55.77 55.23 54.18 55.28 55.84 57.58 60.23 60.22 60.72 60.34 61.23 63.50 69.11 69.30 69.91 70.41 71.95 74.00 73.73 74.20 72.35 75.02 75.39 75.22 75.39 75.35 74.78 75.29 74.43 73.59 73.89 72.14 72.46 72.34 72.65 72.97 72.65 72.57 72.37 72.13 70.97 68.81
51.12 49.06 52.69 53.18 54.56 55.55 54.83 54.94 56.39 53.13 52.08 55.57 55.93 56.79 58.31 58.41 59.65 60.30 62.80 66.11 68.47 69.73 70.86 71.95 73.56 76.14 74.40 72.64 73.48 74.13 73.94 74.25 74.41 74.84 75.35 75.07 74.27 74.91 73.78 72.86 72.87 71.81 71.80 70.20 70.87 70.76 70.02 69.62 69.50
47.16 50.67 51.60 52.30 53.90 52.01 52.13 54.72 52.83 53.00 52.50 54.61 55.45 56.05 56.05 57.26 58.70 60.02 61.87 63.02 68.98 69.00 69.78 71.55 73.47 74.76 75.84 73.71 73.73 73.50 73.00 73.72 73.68 74.49 75.88 74.97 74.18 74.28 73.76 72.40 72.49 72.43 71.27 71.03 70.44 69.83 70.56 70.34 70.20
46.63 48.53 49.13 50.53 50.69 51.18 51.99 50.75 50.34 51.93 53.54 52.89 53.59 54.75 55.43 56.40 57.82 59.65 61.63 65.33 66.46 69.52 69.62 70.42 72.28 74.01 74.78 75.19 73.49 73.79 73.09 73.24 74.10 74.04 75.28 74.75 73.65 73.34 73.34 73.01 72.70 72.22 71.96 71.09 71.18 70.42 70.07 70.19 70.34
47.52 47.75 48.09 49.27 49.37 49.98 48.26 48.63 49.53 50.97 52.65 51.96 52.66 53.48 54.67 56.01 57.05 57.96 59.69 62.52 66.15 66.62 70.18 70.42 70.71 71.52 74.02 74.70 75.07 73.82 74.82 74.37 74.01 73.29 73.92 74.45 73.89 73.35 72.58 73.04 72.46 72.13 71.73 71.15 70.74 70.05 69.71 69.44 69.09
47.32 44.50 46.61 47.22 47.91 47.45 48.68 45.78 47.01 51.21 51.76 51.28 51.32 53.75 54.40 55.08 56.36 57.19 59.06 61.02 64.21 65.52 68.33 72.06 72.53 72.82 73.66 74.37 73.70 73.22 72.62 73.02 72.72 72.99 74.16 74.34 74.71 74.29 73.79 72.02 71.41 71.36 72.87 72.97 71.48 70.63 70.26 69.05 68.67
45.04 44.84 41.82 45.71 46.05 46.83 46.30 42.20 47.02 49.95 49.71 49.92 50.35 50.73 53.28 54.74 55.21 56.67 58.12 59.69 62.11 65.42 68.22 72.00 71.41 71.87 73.68 74.47 73.55 72.41 71.12 71.51 70.77 71.33 72.03 73.45 73.86 73.83 73.30 71.17 71.09 71.59 71.64 70.85 69.36 69.37 68.74 68.46 69.03
44.08 40.28 41.20 43.02 46.89 46.03 45.92 43.67 47.91 49.75 49.78 49.26 49.98 50.59 51.55 53.16 55.18 56.35 57.74 58.78 61.17 63.33 66.19 69.61 72.83 71.06 73.09 73.86 72.92 72.78 73.85 71.40 70.06 70.66 70.38 72.46 72.36 72.46 72.04 70.20 69.88 73.38 70.22 69.65 69.58 69.06 69.42 69.34 69.85
40.38 40.30 41.19 41.50 45.23 45.68 44.78 44.90 47.78 49.38 49.34 49.11 49.31 50.72 50.83 51.28 52.85 55.26 57.01 58.50 59.78 62.61 64.76 67.57 72.29 73.32 71.88 72.50 72.10 70.12 69.92 70.30 70.04 69.82 70.13 71.44 71.34 70.89 70.26 69.44 70.11 71.20 69.42 68.65 69.54 71.09 70.99 70.62 70.74
41.84 40.83 40.34 42.69 45.16 43.89 43.93 44.59 46.45 48.61 48.98 49.04 49.68 50.45 50.99 51.24 53.56 54.78 56.66 58.54 58.68 61.16 62.72 64.11 67.93 72.62 73.66 72.25 70.17 69.15 67.67 69.08 69.22 69.62 72.00 71.11 70.69 70.23 71.01 69.24 69.48 69.96 70.13 70.09 71.38 71.73 70.99 70.91 71.92
41.64 40.58 40.87 42.87 44.19 43.49 43.14 42.95 46.01 47.35 47.93 48.80 49.91 50.15 50.99 51.47 52.40 53.96 55.47 57.34 59.14 60.67 62.52 63.07 63.03 67.17 71.09 73.54 73.46 73.37 72.28 71.22 70.06 70.33 72.70 72.16 70.34 71.24 70.21 71.56 71.72 71.78 71.07 71.60 72.64 72.37 71.03 71.43 72.59
41.54 40.30 40.15 39.50 42.32 44.18 42.88 41.94 43.97 45.94 47.13 48.60 49.48 51.02 51.57 51.47 51.80 53.18 54.13 56.04 58.99 59.16 60.79 61.65 63.84 65.21 66.11 68.82 72.28 73.20 73.65 73.50 72.63 72.23 72.12 71.99 72.14 71.32 72.41 72.94 72.98 75.55 73.75 72.45 73.31 72.96 72.34 70.63 71.79
38.79 42.34 40.81 40.08 39.65 36.92 42.61 35.30 42.49 44.94 45.04 46.77 47.99 49.48 50.37 51.38 52.29 52.60 53.94 54.96 57.35 58.18 59.19 60.55 62.90 63.91 65.14 66.73 68.36 71.64 69.42 69.89 71.27 72.64 73.74 74.37 73.86 73.15 73.26 73.92 74.68 76.77 74.81 75.18 73.99 73.40 72.93 72.85 70.52
40.19 42.34 41.54 41.43 40.10 39.92 40.03 37.16 42.21 43.86 42.67 44.80 46.51 47.96 49.49 51.07 51.50 52.33 52.88 55.07 56.61 57.62 58.94 60.55 61.81 63.41 65.43 66.71 67.19 66.33 70.83 70.40 71.77 72.32 75.57 77.87 77.30 74.79 74.09 74.83 76.04 76.23 74.62 75.59 75.64 73.81 73.30 72.40 70.83
43.90 42.15 42.54 42.56 40.60 34.39 39.28 38.01 39.57 42.33 43.63 44.85 47.08 48.27 49.08 50.83 52.00 53.78 54.36 55.06 56.00 57.46 57.64 59.87 61.17 62.37 64.45 65.76 65.95 66.94 67.22 70.62 69.58 71.25 71.00 72.10 73.65 74.63 75.20 74.81 75.54 76.37 75.23 75.45 74.15 74.48 73.21 72.84 73.07
43.13 40.43 34.85 33.57 33.95 34.37 39.48 36.69 40.14 44.00 45.24 46.29 47.32 48.53 50.08 51.64 52.12 53.40 53.53 53.93 54.65 55.53 57.43 58.40 59.32 60.56 62.30 63.72 63.67 64.72 66.84 68.15 70.79 72.67 70.82 71.71 70.10 71.12 75.56 75.51 76.59 75.40 75.54 75.46 74.46 73.84 73.43 73.24 72.69
41.65 40.58 34.83 27.46 30.97 35.16 39.70 35.20 41.57 45.73 46.93 48.13 49.10 49.93 50.72 51.84 52.89 53.54 54.11 55.21 55.28 55.71 56.14 57.36 58.13 59.48 61.31 62.15 63.54 64.00 65.45 65.75 66.94 69.43 68.79 68.96 69.48 70.58 76.17 75.01 75.20 75.01 74.92 74.75 74.83 73.52 72.68 73.35 72.58
40.56 37.31 41.97 35.72 37.18 33.75 37.32 41.08 45.04 46.77 45.84 47.13 47.27 48.40 49.67 51.31 52.60 53.40 53.99 55.01 55.50 56.22 56.85 57.49 58.16 58.90 60.37 61.23 62.79 63.58 64.50 66.62 67.62 70.78 70.62 69.49 71.32 70.54 73.48 73.83 74.26 74.79 74.99 74.78 74.12 72.34 72.80 72.97 72.73
42.62 44.03 35.67 37.01 28.54 28.75 35.60 37.58 38.95 42.72 44.16 45.70 46.23 47.57 49.26 50.80 52.03 52.77 53.46 54.37 55.44 56.16 56.70 58.11 59.26 59.39 60.59 61.52 61.84 62.15 63.24 65.43 67.43 69.59 71.21 72.84 74.12 73.51 72.88 73.31 73.76 74.14 73.88 73.47 73.76 73.29 73.99 72.42 72.78
39.99 38.46 39.31 39.21 36.43 30.30 30.56 36.73 44.91 43.58 45.38 45.29 47.06 48.15 49.44 50.51 51.53 52.44 53.37 54.68 55.14 55.90 56.12 57.20 58.19 58.98 59.48 60.31 61.42 62.10 63.05 64.97 66.34 67.88 69.28 71.18 72.62 72.19 71.68 72.49 72.87 72.77 72.75 73.35 73.91 74.23 73.52 72.91 72.94
42.81 40.62 39.76 33.65 32.88 36.39 33.82 34.94 46.57 46.81 46.94 47.26 47.66 49.14 50.48 51.61 52.03 52.88 53.65 54.12 54.40 55.08 55.92 56.80 58.03 58.44 59.01 59.58 59.95 60.90 63.00 64.68 66.38 67.30 69.28 69.89 70.51 71.86 71.90 72.18 72.06 71.81 72.20 73.50 73.71 73.35 73.12 72.61 72.15

GFSSGP_sfc_wetblb_057.txt.gz
Wetbulb
67.36 65.29 61.61 60.07 52.50 52.00 50.98 52.94 55.03 52.47 53.39 57.66 59.49 58.52 58.95 60.52 59.36 56.92 70.73 71.65 70.89 75.44 75.52 76.95 77.43 78.08 78.49 78.32 77.97 77.61 77.36 76.91 76.96 77.11 76.83 76.95 77.02 77.25 77.05 76.62 76.33 75.56 74.33 73.26 71.82 70.78 69.74 68.63 68.00
65.63 63.59 61.00 56.89 49.23 48.06 49.48 55.28 52.31 54.43 55.82 57.01 57.55 58.15 57.90 57.97 63.38 63.62 69.95 72.66 71.06 76.04 76.16 75.86 77.18 77.81 78.24 78.06 77.76 77.35 77.35 77.00 76.93 76.93 76.90 77.10 77.12 77.12 76.67 76.32 75.72 74.84 73.78 72.39 70.95 69.69 69.08 68.17 67.22
65.04 63.14 57.83 52.73 49.83 47.00 49.10 53.00 53.85 54.67 54.94 55.27 55.73 58.12 59.03 59.72 65.08 66.15 70.37 73.23 72.00 76.19 76.16 76.12 76.98 77.50 77.96 78.01 77.62 77.22 77.30 77.30 77.05 77.15 77.03 77.10 77.04 76.79 76.39 76.10 75.62 74.35 73.21 71.60 70.22 69.47 69.19 68.50 67.82
63.19 61.66 58.10 50.35 48.20 51.21 50.61 53.02 54.04 53.97 54.84 55.91 56.95 56.02 59.13 65.23 65.10 67.87 72.20 72.95 72.96 74.84 75.95 76.12 76.45 76.92 77.53 77.81 77.47 77.22 77.19 77.32 77.20 77.05 77.02 77.02 76.82 76.34 75.86 75.67 75.22 74.49 72.47 71.16 70.73 70.70 70.24 69.29 68.83
62.53 59.28 53.36 51.28 50.66 52.13 52.33 53.61 54.31 53.12 54.29 54.37 55.83 56.06 58.14 65.65 66.75 69.49 73.08 72.76 72.94 73.77 75.78 77.12 75.90 76.50 77.10 77.56 77.15 77.14 76.99 76.89 76.99 77.02 76.94 76.84 76.36 75.81 75.59 75.22 74.95 74.15 73.24 72.33 71.65 71.24 71.50 71.02 69.63
58.10 58.57 51.22 49.63 51.47 53.83 53.81 54.03 54.08 54.59 55.78 55.85 54.69 57.12 59.61 66.51 65.01 69.39 73.46 73.06 73.02 73.02 74.79 77.54 75.82 76.13 76.37 76.80 76.64 76.51 76.25 76.33 76.48 76.66 76.48 76.34 75.76 75.41 74.99 74.72 74.47 73.80 73.48 72.92 72.27 71.89 71.71 71.60 70.81
55.39 55.09 51.74 51.83 52.36 53.35 54.54 56.07 54.44 55.31 56.18 55.81 58.14 55.86 61.07 63.56 63.74 69.52 73.45 73.22 73.45 73.29 73.60 77.31 75.47 76.29 76.42 76.04 75.91 75.80 75.65 75.55 75.52 75.55 75.50 75.43 75.24 74.79 74.39 74.02 73.78 73.84 73.57 72.98 72.54 72.30 72.03 71.66 71.05
56.31 55.57 52.07 53.25 51.81 52.22 56.73 56.95 57.24 55.99 55.96 60.37 59.85 56.23 58.84 62.14 63.72 65.77 72.71 72.52 73.21 72.75 72.62 75.82 74.60 75.40 75.62 75.88 75.96 75.78 75.70 75.40 75.12 75.07 75.15 75.07 74.81 74.42 74.02 73.27 73.30 73.75 73.68 73.20 72.85 72.43 72.26 71.69 71.47
57.55 51.42 49.48 51.67 52.55 54.25 57.30 55.99 58.18 59.35 58.03 58.30 59.54 59.07 61.23 62.41 63.08 63.08 65.66 70.91 71.85 71.96 72.14 74.93 73.78 74.77 74.69 74.07 75.80 75.45 75.49 75.28 75.17 75.05 75.08 74.36 73.08 73.36 73.15 71.79 72.81 73.45 73.60 73.11 72.78 72.56 72.12 71.62 70.63
53.10 50.31 50.37 54.13 55.38 55.33 57.04 56.73 57.43 56.28 56.63 57.26 58.08 60.30 61.87 61.96 61.63 61.09 62.71 67.35 70.26 71.30 70.96 73.02 75.33 74.45 74.07 72.33 75.25 74.59 74.43 74.79 74.76 74.41 74.61 74.11 73.85 73.62 71.54 72.18 73.20 73.10 73.38 73.13 72.81 72.59 72.12 70.67 67.76
53.17 49.93 53.02 53.92 55.57 56.49 55.62 56.38 57.83 56.70 54.58 56.55 57.08 58.83 60.53 60.74 60.35 60.89 61.55 64.49 68.55 71.68 71.45 71.65 75.75 77.22 75.05 72.73 74.03 73.50 73.19 73.74 74.14 74.37 75.67 75.13 73.34 74.05 72.46 72.13 71.22 71.53 72.01 69.83 70.69 70.37 69.38 68.78 68.59
49.97 52.97 53.69 54.11 54.91 55.03 54.38 56.63 55.86 56.91 57.26 58.09 58.23 58.54 58.65 58.41 59.49 60.24 61.28 63.18 66.91 69.92 71.45 71.78 74.13 75.76 76.95 73.60 72.63 73.68 71.91 73.77 73.21 73.64 76.49 76.08 73.78 75.98 75.70 72.44 72.99 74.42 71.07 71.24 70.68 70.15 72.02 70.71 70.13
50.06 51.78 53.12 53.88 54.02 54.15 55.19 53.70 53.83 54.80 57.18 57.60 56.02 56.19 56.59 58.16 58.97 60.21 61.52 63.14 66.41 67.85 70.64 71.86 73.23 75.15 76.50 77.75 73.77 74.10 73.23 73.14 73.45 73.82 75.71 74.86 73.74 76.10 75.16 75.48 72.90 73.76 72.46 71.94 72.39 71.36 72.04 71.10 70.67
50.93 50.64 51.09 52.37 52.09 53.13 51.34 51.69 52.57 53.85 56.34 55.53 55.54 54.67 56.59 57.99 58.48 59.43 60.25 61.08 65.98 67.31 69.71 71.11 72.09 76.33 76.08 76.15 78.46 76.09 75.83 74.64 74.06 74.29 75.26 76.74 75.23 76.66 73.79 74.25 72.74 72.48 72.16 71.77 72.03 72.28 71.41 70.57 70.37
49.53 46.73 48.92 49.53 50.64 50.58 51.78 48.68 49.29 53.51 54.67 53.85 54.21 55.30 55.69 57.14 58.66 58.48 60.07 60.64 63.10 66.55 68.29 72.71 73.21 75.27 77.14 77.45 76.83 76.08 74.40 74.28 73.88 74.50 77.43 76.95 77.03 76.64 75.90 72.72 72.72 73.14 74.05 77.24 74.49 73.34 71.97 70.04 69.97
46.73 47.02 43.30 47.93 48.99 49.27 48.84 44.06 49.81 53.05 52.86 52.16 53.08 54.19 54.83 57.02 58.44 58.90 58.97 60.96 63.17 63.81 67.09 71.09 71.41 73.53 75.13 75.70 75.66 74.87 74.18 74.38 73.41 74.17 74.72 75.94 76.48 76.04 75.88 72.79 73.31 74.10 73.70 72.41 72.63 71.40 69.45 69.36 69.81
46.32 41.99 43.79 45.38 48.28 47.64 47.12 44.95 49.81 52.08 51.57 51.63 52.75 53.47 54.06 55.58 58.31 59.51 59.63 60.20 62.00 63.36 64.84 70.54 73.60 72.39 74.69 74.41 74.40 74.65 75.33 73.26 73.15 73.62 73.63 75.27 75.10 75.15 74.88 73.88 73.70 75.01 72.04 71.67 72.47 71.34 71.28 70.58 70.50
42.93 43.43 44.14 43.90 47.67 47.58 46.34 46.46 49.23 51.44 51.28 51.36 52.11 52.79 53.56 54.02 55.73 58.44 59.23 59.25 60.14 62.28 65.05 67.03 70.34 72.71 74.14 73.99 73.99 72.75 72.84 72.80 71.87 71.07 71.66 73.13 74.37 74.31 74.58 73.14 73.49 72.75 71.45 70.41 71.10 71.47 72.06 71.20 71.13
44.94 44.14 43.74 45.77 47.97 45.31 45.82 46.62 48.39 50.72 51.20 50.71 51.46 52.33 52.87 54.19 56.04 56.99 58.15 58.45 59.57 62.29 64.19 64.37 65.43 72.03 72.06 72.49 70.64 71.47 70.23 71.00 71.38 71.97 73.67 73.90 74.20 74.00 73.56 72.15 72.01 71.84 71.32 72.20 73.63 72.18 72.15 71.25 72.93
43.99 42.65 42.95 45.55 47.04 46.10 45.51 45.24 48.11 49.55 50.03 51.03 51.63 51.90 52.65 53.86 54.58 56.14 56.81 57.86 59.97 60.37 63.21 63.34 65.35 66.12 71.26 70.82 71.02 71.66 70.76 70.23 69.81 71.33 70.41 72.65 73.15 73.29 72.92 71.44 70.56 71.93 70.82 74.01 73.78 73.60 71.21 71.95 73.33
43.28 42.34 42.94 42.97 45.36 45.98 44.56 43.07 45.71 48.65 50.12 50.99 51.62 52.50 53.04 53.73 53.58 55.23 56.11 57.28 58.95 60.21 60.38 61.33 64.18 66.22 67.65 70.83 72.99 73.60 75.02 75.38 72.63 71.44 71.02 71.56 71.85 72.72 72.15 72.56 69.56 70.52 72.87 72.46 73.81 74.28 74.30 70.75 72.71
40.70 45.35 43.92 42.31 41.15 38.46 45.44 37.49 44.88 46.58 46.96 48.50 49.75 51.03 52.04 53.15 54.05 54.46 55.57 56.44 57.79 59.35 59.37 60.94 62.40 65.09 66.52 69.61 68.33 70.00 70.83 69.54 71.20 72.94 72.84 71.66 73.80 73.38 73.22 71.46 72.47 73.41 74.09 74.15 75.63 75.38 74.76 74.41 71.38
42.39 45.57 43.39 43.12 41.58 41.49 41.76 39.64 43.11 47.36 45.78 47.27 49.22 49.87 50.98 52.60 53.42 53.57 54.07 55.46 57.11 58.67 59.78 61.04 62.92 63.21 66.59 67.62 68.28 68.05 68.68 69.69 68.97 66.89 70.53 74.25 74.54 71.95 72.11 72.35 74.20 76.07 75.38 76.35 76.04 77.79 76.47 74.05 72.15
46.05 44.04 43.67 43.48 41.93 35.97 41.20 40.49 41.37 44.57 45.93 47.34 49.17 49.76 50.71 51.65 52.86 54.03 55.96 56.40 56.99 58.15 58.53 59.86 61.08 64.15 64.43 65.36 67.86 69.28 69.15 69.12 68.98 69.86 69.85 70.00 71.77 72.52 74.80 73.69 75.98 76.68 77.09 77.04 77.48 77.96 77.41 75.19 74.78
44.83 41.88 35.66 35.00 35.60 35.24 43.10 40.29 42.63 46.28 47.33 47.37 47.90 49.32 50.97 52.76 53.53 54.24 55.36 55.04 55.19 56.31 56.80 58.19 59.54 60.03 63.40 64.98 64.56 66.76 68.23 70.00 70.43 68.84 70.36 70.74 69.87 71.87 76.22 74.99 76.82 76.35 78.58 77.57 77.35 77.78 76.96 75.86 73.75
41.91 42.16 36.38 29.77 32.89 35.87 42.46 37.34 42.77 48.06 49.84 49.45 49.85 51.17 51.86 52.69 54.37 54.52 55.16 55.71 55.87 56.19 57.03 57.70 58.31 59.41 60.72 61.52 63.74 66.04 67.36 64.23 65.48 68.75 68.54 69.81 71.60 73.54 77.11 77.80 76.37 77.54 77.70 77.43 77.80 75.82 75.07 75.54 74.21
41.50 38.15 43.72 37.56 39.48 35.77 38.98 42.55 46.14 48.54 48.34 48.68 49.65 49.69 50.41 52.33 53.71 54.08 55.12 55.80 55.92 56.47 57.35 57.68 58.13 59.60 60.49 61.13 64.22 65.81 66.30 67.02 66.38 69.80 72.23 68.82 71.35 71.62 74.86 78.05 76.90 77.40 77.08 77.23 77.45 74.88 75.70 75.33 75.20
43.86 45.12 36.03 38.42 29.37 28.26 35.90 38.32 39.83 44.70 46.82 48.43 47.84 49.09 50.67 51.81 52.76 53.85 54.67 55.35 56.06 56.75 57.10 59.24 60.61 60.06 59.80 62.01 63.28 62.64 64.47 66.15 67.29 69.02 70.26 70.87 72.55 72.75 72.37 74.67 75.93 75.62 76.35 76.59 76.59 75.71 76.07 74.72 73.68
41.58 39.14 40.67 40.08 37.50 31.52 32.02 36.23 46.13 45.49 47.35 47.27 48.57 49.71 50.74 51.82 52.42 53.54 54.60 55.69 56.35 57.11 57.28 59.38 58.12 59.07 59.68 60.13 62.22 63.18 63.11 63.38 66.01 67.44 69.56 70.24 72.67 73.71 73.88 72.51 73.59 74.90 75.11 75.72 76.35 75.25 74.32 73.91 74.44
44.18 41.84 41.00 34.90 33.75 37.66 37.42 37.58 47.32 48.08 48.92 49.15 48.82 50.49 51.89 53.02 53.22 54.02 54.58 54.79 55.20 55.90 56.68 57.16 58.35 57.66 58.65 59.57 60.94 61.56 63.37 64.15 65.68 66.88 68.28 70.39 71.54 72.68 72.62 72.88 73.03 73.24 74.83 75.62 75.04 73.25 72.50 73.25 72.37

GFSSGP_sfc_wetblb_060.txt.gz
Wetbulb
65.39 64.24 63.02 58.21 50.94 50.68 48.39 51.37 55.82 54.12 53.47 56.73 59.37 58.89 57.50 59.55 58.76 57.33 69.62 72.39 74.36 73.32 75.96 76.96 77.69 78.20 78.08 77.72 77.37 77.21 76.66 76.60 76.88 76.73 76.70 76.80 76.98 77.08 76.73 76.43 76.16 75.70 74.61 73.14 71.95 70.89 70.06 69.17 68.76
62.79 63.33 61.50 55.71 48.71 46.03 48.76 53.78 53.47 54.59 55.11 56.61 57.31 58.17 57.86 58.87 65.64 67.89 69.71 72.29 74.77 74.15 75.78 76.14 77.63 77.84 78.15 77.69 77.21 76.93 76.66 76.65 76.73 76.70 76.65 76.95 76.95 76.93 76.58 76.21 75.96 75.19 73.70 72.24 70.86 69.81 68.83 68.67 68.19
62.56 64.24 56.21 52.64 48.08 45.73 48.65 53.65 53.43 54.11 55.18 54.98 54.82 57.90 58.17 61.04 64.34 65.68 70.76 72.51 75.49 74.81 75.28 76.78 77.56 77.64 77.92 77.92 77.51 76.93 76.48 76.65 76.65 76.63 76.65 76.87 77.00 76.67 76.15 76.11 75.76 74.81 73.06 71.73 70.39 70.34 70.32 69.56 69.01
61.23 60.83 58.10 49.72 47.69 49.50 50.56 53.14 53.86 53.83 54.88 55.36 55.87 55.02 58.83 64.85 64.52 67.07 71.16 72.41 75.13 75.07 74.40 76.41 77.22 77.48 77.74 77.94 77.55 77.13 76.90 76.68 76.68 76.68 76.68 76.82 76.79 76.23 75.89 75.83 75.48 74.78 73.21 72.08 71.59 71.14 70.70 70.12 69.66
60.22 57.79 51.62 50.00 49.23 51.59 53.30 53.77 53.92 52.48 53.87 54.31 55.50 54.75 58.19 64.43 65.97 68.21 71.69 71.81 71.41 75.15 74.68 76.00 76.87 77.24 77.58 77.74 77.60 77.47 77.27 76.74 76.75 76.75 76.85 76.87 76.54 75.96 75.79 75.63 75.28 74.57 73.38 72.51 71.83 71.52 71.42 70.97 70.40
54.24 56.63 49.32 47.31 50.22 53.77 54.65 54.27 53.24 52.54 53.98 55.21 54.09 54.43 58.67 64.91 63.79 66.49 71.73 71.68 71.40 74.16 75.15 76.24 76.71 76.86 76.97 77.38 77.12 77.11 77.00 76.85 76.86 76.79 76.89 76.81 76.18 75.76 75.54 75.23 74.93 74.10 73.40 72.95 72.23 71.84 71.85 71.64 71.08
52.07 52.10 50.00 50.57 50.54 52.30 54.76 56.02 53.36 52.53 53.66 54.98 57.84 53.24 59.36 61.60 63.30 63.87 70.99 71.90 72.31 73.22 75.28 75.75 74.98 76.68 76.92 76.58 76.45 76.45 76.26 76.28 76.31 76.08 76.14 76.02 75.78 75.14 74.92 74.58 74.18 73.76 73.41 72.85 72.48 72.24 71.87 71.68 71.30
53.89 52.99 49.69 51.33 50.90 50.78 56.13 55.51 56.06 54.37 54.45 59.00 59.95 55.30 57.53 61.90 63.81 63.24 64.64 71.48 71.63 71.70 74.59 75.81 74.11 75.12 75.91 76.05 76.28 76.15 76.10 75.92 75.59 75.74 75.67 75.32 75.14 74.72 74.40 73.45 73.36 73.74 73.66 73.06 72.87 72.50 72.10 72.03 71.66
55.17 48.99 47.27 48.46 50.25 52.83 56.79 55.37 57.56 58.27 56.42 57.39 59.02 58.68 60.28 62.37 62.72 61.98 62.69 67.20 71.12 71.30 73.35 75.20 73.00 74.14 74.41 74.78 75.78 75.74 75.94 75.75 75.63 75.34 75.38 74.11 74.16 73.29 72.94 72.48 72.73 73.56 73.51 73.17 72.92 72.52 72.25 72.05 71.83
51.53 47.85 47.63 51.51 52.54 52.59 55.17 55.82 56.89 56.23 55.82 56.38 57.86 59.84 60.75 61.46 61.61 59.96 60.56 62.92 70.20 71.14 71.10 73.05 73.10 73.28 73.25 72.99 74.92 74.76 75.12 74.94 74.82 74.66 74.66 74.23 73.25 72.87 71.03 71.79 72.92 72.87 73.51 73.31 72.89 72.67 72.42 71.85 67.28
51.15 48.60 51.15 51.89 53.24 53.87 53.44 54.39 57.33 55.76 54.55 56.88 56.60 58.64 60.18 60.39 61.62 60.42 60.60 63.34 65.84 67.34 70.82 72.77 73.18 73.76 73.14 72.04 74.56 73.44 73.57 73.57 73.94 74.04 74.29 73.67 72.63 73.06 71.09 71.27 70.01 70.99 72.40 69.59 70.98 70.20 69.64 67.55 66.89
48.09 51.22 52.33 52.80 53.71 53.34 52.53 54.68 54.39 56.01 56.57 59.37 59.59 60.04 59.54 58.66 59.05 58.96 60.07 62.48 64.47 69.28 68.23 72.85 73.70 74.29 74.58 72.85 74.08 72.72 72.44 72.74 72.74 72.97 73.82 73.59 72.77 72.35 73.04 70.89 70.13 70.16 70.03 68.47 68.14 68.03 67.94 67.47 67.77
48.03 49.72 51.84 53.24 53.47 53.54 54.11 52.58 53.19 54.53 58.51 59.10 59.47 59.06 58.14 57.83 59.04 60.89 61.01 64.92 67.74 70.20 70.16 72.03 74.11 74.52 73.76 76.76 73.15 72.90 71.57 72.26 72.50 73.20 73.71 73.82 71.89 73.18 73.59 74.35 72.77 71.97 71.45 69.75 69.20 68.26 69.90 69.28 69.18
49.81 50.23 50.78 52.00 52.42 52.95 51.38 51.81 53.19 54.32 57.00 56.61 56.72 56.53 56.48 56.25 57.31 60.14 61.67 63.10 66.22 68.50 71.07 73.02 73.44 75.17 75.31 75.80 77.06 77.51 71.86 72.69 72.47 72.85 73.14 73.46 74.22 72.26 74.15 74.02 74.08 73.05 73.04 72.11 70.49 70.67 70.82 70.64 69.61
49.44 46.60 48.94 49.51 50.12 50.45 52.03 48.79 49.75 53.63 54.31 53.30 54.42 56.26 56.20 56.65 57.46 58.93 62.71 64.59 67.45 67.59 72.78 70.34 74.28 74.54 75.04 75.65 76.87 76.18 76.41 73.96 72.29 72.61 73.98 73.46 74.24 75.29 73.45 73.01 72.35 72.70 73.10 74.11 73.95 73.18 72.95 70.95 70.29
46.60 46.71 42.27 47.21 48.84 49.88 49.75 44.56 50.46 53.30 53.08 52.40 53.40 54.69 55.21 56.17 57.21 59.21 62.25 64.54 65.70 67.29 69.03 70.17 71.23 73.71 74.45 74.53 74.46 76.01 75.56 73.88 74.87 74.03 75.59 74.54 74.13 75.08 75.59 72.91 72.13 72.43 73.36 73.01 71.92 71.47 70.32 69.48 68.20
45.26 40.79 42.42 44.23 48.67 48.10 47.45 44.71 48.89 51.41 51.28 51.69 53.03 54.15 53.74 55.55 57.56 60.02 61.82 64.80 66.28 66.95 68.67 70.26 74.07 74.50 73.19 74.73 73.84 74.71 75.46 74.96 74.68 75.75 73.60 74.97 75.13 74.03 73.67 73.06 72.10 73.82 72.71 71.69 71.89 71.82 70.72 68.91 68.56
40.99 41.81 43.55 43.48 46.95 47.17 45.69 45.23 48.41 50.00 50.71 50.78 51.67 52.46 53.52 54.23 56.20 59.96 62.19 63.30 64.50 66.75 67.68 69.31 72.00 74.03 73.95 73.41 74.07 73.30 73.52 73.52 73.14 72.99 72.46 73.60 73.44 74.01 73.50 72.86 73.32 74.34 71.62 70.34 70.78 70.77 70.59 69.30 68.94
44.87 44.01 42.82 45.96 48.45 46.87 45.99 46.24 47.90 50.00 50.91 50.62 51.63 52.73 53.71 54.61 57.05 59.34 61.77 61.95 62.86 65.37 68.08 67.32 70.58 72.84 72.42 71.56 70.79 70.19 70.46 70.70 70.27 70.53 70.72 71.73 71.90 72.80 72.97 72.60 72.31 72.47 70.60 69.72 70.64 70.45 69.30 68.67 70.69
44.73 42.74 42.29 45.50 47.78 46.59 45.88 45.06 47.68 49.15 50.30 51.36 52.47 52.83 53.40 54.51 55.35 57.76 60.11 61.63 62.39 66.34 67.14 67.69 68.48 71.50 71.47 69.86 71.91 70.30 70.52 70.87 71.37 70.53 71.02 72.23 71.63 72.09 71.93 71.74 71.00 70.60 69.10 69.19 68.98 70.30 68.50 68.95 70.19
43.37 41.71 41.75 42.01 45.38 46.95 45.06 42.74 44.97 47.78 49.80 51.26 52.24 53.43 53.98 54.56 55.21 56.81 57.94 59.93 61.43 62.70 66.08 65.42 67.99 69.18 70.00 72.81 72.52 72.13 72.13 72.58 72.16 69.49 69.47 69.23 69.99 69.57 71.55 71.53 70.25 69.76 69.39 67.93 69.30 70.52 69.99 67.40 70.60
40.20 45.10 44.20 43.25 41.83 37.61 44.84 36.41 43.85 47.00 47.98 49.73 50.87 52.02 52.61 53.71 55.46 56.99 57.90 59.57 60.79 62.41 63.29 65.01 65.88 66.16 68.15 69.72 71.01 71.60 70.51 67.63 69.71 70.84 71.11 70.18 71.01 70.59 71.65 70.69 70.38 69.27 69.98 68.91 69.37 71.36 70.65 70.00 67.74
42.12 45.76 44.10 43.04 40.81 40.20 40.31 37.64 41.38 46.21 45.09 47.26 49.34 50.04 51.42 52.94 54.57 55.02 56.11 57.74 60.14 61.17 62.31 63.83 65.21 66.06 65.16 67.85 69.15 68.17 68.82 69.25 66.82 67.49 69.48 67.85 66.58 71.85 70.79 71.09 70.35 69.45 69.88 69.45 70.74 70.71 71.85 72.34 70.97
46.61 43.96 43.25 43.03 40.59 34.04 38.87 38.62 39.48 42.91 45.69 47.81 49.07 50.04 50.73 51.42 53.32 54.61 56.61 58.23 58.42 61.24 61.58 62.89 64.44 62.85 65.01 65.84 68.07 69.18 68.24 67.93 68.29 67.82 65.37 66.08 66.18 65.46 66.93 71.55 70.34 69.74 68.87 68.82 71.11 72.25 72.84 73.17 72.77
43.62 40.77 33.49 32.72 33.49 32.92 41.44 39.29 41.82 46.90 48.04 48.87 48.69 49.48 51.15 52.39 53.36 54.11 55.35 55.43 57.29 58.24 60.26 60.98 61.96 63.81 63.97 64.35 65.39 64.98 67.21 66.89 66.81 67.97 67.72 65.33 65.18 66.69 66.36 70.08 66.59 65.47 65.14 65.60 66.42 64.82 71.58 74.91 72.77
41.85 39.99 33.70 26.65 29.53 33.83 41.74 35.32 41.86 48.54 49.83 49.93 49.91 50.31 50.87 52.24 53.85 54.50 56.06 56.96 56.01 57.53 59.01 59.88 61.97 62.42 63.27 64.27 64.23 64.66 64.92 65.89 65.02 65.19 65.33 66.42 68.10 67.00 66.55 68.75 67.44 65.06 65.90 66.55 66.85 68.58 73.79 74.65 74.38
41.99 37.74 42.32 36.16 36.45 33.86 37.38 41.77 46.60 48.46 48.10 48.85 49.03 50.24 50.47 52.09 53.96 54.78 56.19 57.24 57.75 59.70 60.56 60.47 59.17 61.43 61.20 61.88 63.69 65.08 65.50 65.31 63.81 65.27 66.70 66.58 69.15 68.66 69.08 69.44 67.87 66.99 68.83 71.78 71.16 73.58 73.93 74.46 74.05
43.97 45.38 36.02 36.88 28.31 27.08 34.03 36.38 38.18 44.25 46.33 48.03 48.19 49.12 50.53 52.01 52.68 54.40 54.75 56.83 58.81 60.09 59.78 61.80 61.40 60.24 60.32 60.99 62.14 61.90 63.57 64.44 64.92 65.81 65.53 65.99 66.73 67.45 69.59 69.00 72.02 72.78 73.17 73.65 74.86 74.35 74.48 73.88 73.49
41.36 39.41 40.59 39.32 36.49 29.53 29.08 34.21 45.07 45.64 46.62 46.85 47.88 49.63 50.38 51.49 52.03 52.90 54.01 56.31 57.81 58.22 58.13 60.55 61.34 61.24 59.67 59.93 61.17 62.42 62.25 63.78 64.58 64.43 64.65 64.88 67.43 68.28 68.92 69.05 70.56 72.50 73.99 74.52 74.25 74.13 73.88 73.41 72.48
43.83 40.93 41.29 34.06 32.63 36.56 35.67 35.70 46.94 48.07 48.02 48.25 49.34 49.92 50.73 52.05 52.72 53.31 53.92 55.11 54.98 55.55 56.34 57.02 59.05 59.74 59.65 60.04 60.49 61.35 62.59 63.71 63.78 63.06 64.11 66.79 66.32 68.38 68.70 69.79 70.20 69.85 69.93 72.61 73.71 73.66 73.65 72.52 71.18

GFSSGP_sfc_wetblb_063.txt.gz
Wetbulb
62.84 61.01 60.14 55.73 44.85 43.40 40.50 45.77 51.49 51.34 50.66 51.45 53.62 58.36 60.22 59.97 59.72 55.27 67.11 71.63 73.55 74.02 76.15 77.62 77.75 77.73 77.72 77.54 77.06 76.73 76.50 76.68 76.46 76.50 76.57 76.74 76.85 76.50 76.33 76.06 75.79 75.51 74.19 72.98 71.87 71.03 69.99 69.20 68.89
60.73 61.17 58.86 52.21 41.98 36.88 40.80 48.70 48.75 47.98 50.33 52.24 53.14 54.60 60.05 58.71 65.79 65.89 68.43 72.10 73.13 74.16 75.09 76.44 77.69 77.57 77.57 77.21 76.83 76.30 76.40 76.65 76.30 76.30 76.70 76.77 76.54 76.35 76.05 75.91 75.69 74.88 73.21 72.06 70.98 70.05 68.99 68.31 67.56
60.53 61.04 52.46 47.07 42.13 38.90 42.18 48.56 48.00 50.76 51.67 51.62 51.63 55.07 59.15 59.40 63.51 65.25 71.03 72.45 73.83 73.55 74.31 76.43 77.74 77.29 77.52 77.24 76.75 76.23 76.45 76.50 76.33 76.40 76.70 76.82 76.39 76.12 75.80 75.71 75.39 74.64 72.66 71.47 70.35 69.75 69.78 69.05 67.62
56.44 55.59 53.93 44.12 41.92 46.43 47.50 49.43 49.34 50.34 51.89 52.52 52.62 54.24 60.65 64.14 63.99 65.58 72.09 72.83 73.06 72.64 74.27 76.95 77.42 77.14 77.12 77.01 76.75 76.40 76.40 76.48 76.43 76.43 76.69 76.66 76.41 75.88 75.64 75.43 75.14 74.50 72.73 71.11 70.65 71.07 70.49 69.71 68.91
52.53 51.66 44.64 42.48 44.10 48.22 51.18 52.60 50.65 49.38 50.09 51.02 52.84 53.41 57.77 63.03 65.42 67.05 69.65 73.42 71.99 71.55 74.96 76.40 77.26 77.33 76.99 77.09 76.96 76.67 76.37 76.32 76.42 76.45 76.72 76.64 76.17 75.55 75.39 75.22 74.91 74.43 73.33 72.44 71.63 71.34 70.73 70.39 70.19
47.32 49.28 41.64 41.33 45.17 50.75 52.96 52.32 51.43 50.24 50.71 51.65 51.97 52.39 56.95 60.10 59.84 63.04 69.52 69.16 72.74 71.48 74.36 75.56 77.24 77.11 76.87 76.93 76.80 76.52 76.33 76.26 76.39 76.23 76.53 76.48 75.95 75.52 75.34 75.02 74.71 74.14 73.20 72.84 72.30 71.64 71.30 70.71 70.61
44.37 43.68 41.67 44.58 47.28 49.67 52.36 52.61 49.65 50.07 50.73 51.20 54.89 53.64 56.07 57.83 59.09 59.63 65.22 68.63 72.53 73.49 73.69 74.39 75.85 76.82 77.00 76.53 76.22 76.27 76.01 76.09 75.91 75.80 75.87 75.93 75.61 75.30 74.86 74.60 74.23 73.47 73.14 72.52 72.25 71.83 71.44 71.19 71.07
48.02 44.36 43.26 45.57 45.59 47.71 53.93 52.73 51.84 50.90 51.47 56.66 59.14 53.73 53.23 57.38 59.53 59.71 59.50 66.78 71.68 73.08 73.28 73.16 74.95 75.62 75.57 75.80 76.32 76.19 76.04 76.00 75.67 75.82 75.67 75.30 75.29 74.88 74.44 73.39 73.31 73.24 73.02 72.65 72.25 71.88 71.69 71.51 71.19
50.07 43.34 40.93 43.52 46.48 48.32 52.64 51.34 52.59 54.60 53.19 55.70 57.55 57.31 59.31 59.90 58.92 58.30 57.94 59.84 68.93 73.02 72.11 72.47 73.74 74.35 74.69 74.58 76.00 75.83 76.45 75.83 75.55 75.60 75.30 74.27 72.23 72.39 72.81 72.41 72.79 72.94 73.04 72.87 72.45 72.15 72.03 71.68 71.78
44.55 42.03 43.04 47.62 48.80 48.48 50.53 50.61 52.22 53.33 52.78 53.85 55.74 58.71 60.07 59.63 57.16 56.76 56.81 57.37 64.51 69.13 70.78 71.52 72.35 72.79 72.95 75.03 74.55 74.10 74.92 74.38 73.99 73.80 73.42 72.10 70.95 70.35 71.51 71.55 72.80 72.57 72.87 72.99 72.69 72.39 72.17 71.83 67.78
45.08 42.07 46.98 48.61 50.21 50.66 49.81 50.45 52.54 52.38 50.72 53.36 53.98 56.79 58.61 57.98 55.85 56.18 57.03 59.77 63.60 66.07 68.04 69.96 71.36 71.61 70.89 73.11 73.49 73.19 73.25 73.05 72.85 72.78 72.26 71.07 70.39 69.75 69.36 67.56 68.70 68.77 71.81 69.42 70.73 70.00 69.44 68.10 66.65
41.87 46.76 48.15 49.31 51.25 51.14 49.70 51.46 50.93 51.72 55.12 57.68 58.42 58.31 58.10 55.39 54.91 55.15 56.33 59.09 61.27 65.88 67.03 69.60 70.78 70.87 70.05 72.48 71.98 71.43 71.63 71.79 71.85 71.79 71.90 70.69 68.45 66.95 67.79 66.97 66.57 67.30 67.29 66.91 65.13 66.44 66.72 66.65 65.43
42.89 45.20 47.88 49.76 50.39 50.45 51.15 50.37 50.19 49.85 57.40 58.53 57.37 58.16 56.41 54.68 56.00 54.72 56.96 58.75 61.16 63.75 66.91 69.76 70.83 70.14 70.03 71.61 70.85 70.41 70.44 70.18 70.55 70.45 71.24 70.52 68.74 68.01 68.02 66.90 66.65 66.77 66.98 66.90 65.62 65.18 65.69 65.84 65.88
44.85 45.33 45.88 47.41 46.84 47.75 48.35 49.22 48.75 50.58 54.35 55.69 56.07 55.05 55.24 54.56 54.05 53.45 55.36 56.67 59.79 63.32 66.06 70.25 70.86 70.65 70.06 71.03 70.71 68.94 69.07 70.18 69.84 70.33 70.60 70.63 68.99 67.95 68.96 68.61 69.23 68.64 68.34 67.90 66.85 65.75 65.37 66.47 66.52
46.09 42.31 44.08 45.13 45.12 45.69 47.58 45.39 46.98 50.34 52.22 51.34 51.72 52.03 54.05 54.00 54.28 53.58 55.46 56.41 60.71 62.68 65.43 68.84 71.03 72.37 70.97 71.89 72.73 72.30 69.35 69.97 70.05 70.23 70.33 70.80 70.64 67.60 67.91 69.72 68.66 69.02 69.11 68.79 67.34 66.68 67.45 67.05 67.22
41.73 41.78 35.77 41.73 44.93 46.42 44.69 40.43 47.23 50.10 49.84 49.86 51.10 51.24 51.95 53.12 53.62 53.82 54.86 57.37 61.85 62.84 63.63 64.98 70.95 71.83 70.87 71.83 72.07 72.16 72.14 71.44 69.87 69.97 70.84 71.19 70.47 71.17 69.59 70.06 69.34 68.78 68.82 68.53 68.14 67.02 66.04 65.92 65.11
38.18 34.30 36.65 40.13 45.16 44.88 43.83 42.00 47.09 49.59 48.72 47.43 48.18 49.77 51.52 50.96 52.89 53.86 57.23 58.08 61.86 62.56 63.45 65.06 68.67 70.79 71.63 71.54 72.60 72.02 71.68 71.78 71.47 70.89 71.94 71.43 70.95 71.80 71.42 70.60 69.36 69.67 68.84 68.65 67.59 67.31 66.59 65.43 65.20
34.74 35.38 38.87 39.62 43.79 44.08 42.54 42.48 46.06 47.43 47.33 46.27 47.17 48.44 49.76 50.59 51.44 53.73 58.66 58.55 60.72 60.22 60.61 62.48 68.06 69.35 70.99 71.36 71.43 71.96 71.01 71.24 70.83 69.82 70.16 72.05 72.35 71.91 71.06 70.59 69.68 69.30 69.05 67.17 66.12 66.30 67.52 65.54 65.04
41.27 39.91 39.20 42.23 45.38 43.70 40.95 41.61 43.81 45.91 45.60 44.91 45.84 47.21 48.01 49.26 51.40 53.29 57.65 57.64 59.98 59.65 59.61 60.20 65.21 67.80 69.87 69.76 69.05 68.57 69.17 69.21 69.28 69.59 69.34 69.45 71.16 72.27 71.35 69.99 70.02 70.18 68.38 66.47 66.40 65.67 65.82 64.47 65.91
41.99 40.07 38.25 42.10 44.68 42.97 41.44 41.93 44.12 45.06 45.17 45.58 46.19 47.11 47.65 48.77 50.26 52.78 54.38 55.60 56.67 56.72 60.21 60.12 60.77 65.49 68.07 68.57 68.68 67.98 68.23 68.95 68.87 68.54 68.60 68.65 68.57 69.77 71.27 71.21 70.16 69.39 67.10 66.13 66.42 65.72 64.66 65.62 66.40
39.79 38.35 38.66 38.64 42.25 42.99 40.77 38.50 41.36 44.73 45.60 47.10 47.86 47.62 49.10 48.69 49.30 51.21 53.51 53.45 55.19 58.06 59.17 60.18 61.45 62.74 65.45 68.59 67.76 67.30 68.66 69.27 68.26 67.43 67.72 68.45 69.00 68.99 69.96 70.25 69.49 68.77 67.02 66.19 65.26 65.79 66.49 65.58 66.24
36.51 42.74 42.36 41.15 38.12 31.33 40.43 29.27 37.89 41.78 43.49 45.64 46.88 47.51 47.20 48.75 50.24 50.79 52.19 52.48 53.41 54.83 57.48 57.82 59.05 59.72 61.10 63.18 67.97 66.35 64.45 66.39 67.92 67.41 66.73 67.18 67.84 68.06 68.72 70.15 70.21 68.08 67.11 66.37 65.79 67.95 68.02 67.54 66.78
39.47 44.27 41.53 41.04 36.38 33.52 35.90 30.33 35.32 40.87 40.93 43.40 45.41 46.97 47.55 47.90 48.22 49.82 51.78 53.44 55.20 56.34 54.86 55.05 55.98 58.04 59.16 59.99 62.15 66.22 66.80 67.03 67.03 67.05 68.26 67.66 66.85 69.52 69.25 69.23 68.97 68.08 66.92 67.13 67.69 66.83 67.33 69.07 68.63
45.46 42.84 40.61 38.05 33.79 26.99 33.61 33.11 34.52 37.81 40.98 43.71 45.75 46.24 47.19 47.17 49.00 49.93 51.01 51.79 51.87 54.26 55.36 54.69 55.36 56.48 57.36 59.50 60.83 61.52 61.78 63.23 64.83 65.20 63.89 65.10 66.66 65.61 66.45 70.32 69.35 68.79 68.10 67.62 68.52 68.65 68.64 67.04 65.34
41.73 34.56 27.55 25.65 26.26 26.42 36.36 35.56 36.15 40.97 44.57 45.54 45.22 45.43 46.09 47.26 47.31 49.38 49.71 49.80 50.61 50.90 52.68 54.82 55.98 54.62 55.76 56.70 57.75 58.33 59.38 61.65 61.25 62.69 63.89 65.36 64.37 64.40 64.94 65.31 68.93 68.63 68.62 68.68 66.51 67.39 64.56 62.33 61.64
39.44 37.03 28.95 21.45 23.84 28.88 37.45 32.89 36.35 46.71 48.19 47.67 46.46 45.65 47.06 46.38 47.20 48.82 49.90 49.82 50.13 51.34 50.93 51.67 52.03 53.44 54.72 56.51 57.11 58.97 58.64 60.73 60.52 61.82 61.88 61.13 64.91 64.73 64.81 65.20 66.65 67.16 66.24 63.39 64.01 64.37 63.22 63.14 62.17
39.68 33.73 39.99 33.12 33.09 27.27 31.21 37.24 42.83 45.62 46.90 46.50 46.34 46.25 45.52 45.98 47.67 48.58 50.22 50.14 49.64 50.75 50.64 51.56 51.29 52.11 52.09 52.32 54.57 55.93 57.27 58.50 59.21 59.27 60.99 62.32 63.80 66.41 66.98 66.33 67.21 66.67 66.08 64.75 64.19 64.14 63.73 62.46 64.39
41.25 42.85 34.06 33.79 25.16 22.71 29.66 33.34 34.68 41.97 43.93 46.35 45.53 45.44 45.13 46.47 47.51 48.67 49.61 49.99 50.26 51.09 52.00 51.34 51.14 51.76 52.14 52.29 52.38 55.30 56.74 57.33 58.52 59.44 60.46 60.52 59.90 61.44 63.27 66.28 66.53 66.42 67.13 67.23 65.82 65.15 65.62 65.31 64.86
37.29 35.99 37.65 35.94 33.50 24.39 23.87 29.54 41.30 42.49 43.60 43.45 45.16 46.85 43.32 45.28 45.59 47.31 47.93 49.43 50.76 50.79 50.55 51.59 53.56 53.78 52.74 52.86 52.71 53.86 54.55 56.30 57.73 59.17 60.09 61.65 62.22 62.60 64.24 65.36 65.42 67.11 67.29 67.36 66.69 65.53 65.77 67.29 67.91
39.95 36.90 35.99 31.71 30.19 31.35 28.21 29.73 44.15 43.62 44.97 46.22 45.34 46.99 48.30 47.39 47.22 46.83 47.55 48.40 49.14 48.96 49.32 50.30 51.03 52.00 52.95 54.11 54.34 54.47 56.10 56.79 57.49 57.69 58.69 60.65 61.13 62.34 63.93 65.50 65.98 66.97 67.97 69.01 66.98 67.27 69.56 70.48 70.80

GFSSGP_sfc_wetblb_066.txt.gz
Wetbulb
62.44 59.25 57.58 54.66 44.34 41.69 39.47 44.54 48.04 48.66 47.74 49.37 58.66 59.83 58.27 58.89 57.79 53.25 66.70 70.78 73.76 75.16 76.69 76.88 77.31 77.52 77.16 77.01 76.75 76.32 76.07 76.02 76.17 76.30 76.42 76.34 76.27 76.37 76.22 75.87 75.85 75.46 74.00 72.84 71.69 70.72 69.93 69.43 69.03
61.59 59.90 57.20 50.19 40.37 36.29 40.44 47.70 46.48 47.71 48.89 49.34 56.12 60.30 60.85 59.65 65.41 66.42 67.40 72.19 73.73 75.29 76.28 76.38 77.23 77.18 77.04 76.73 76.39 76.09 76.15 76.10 76.02 76.27 76.34 76.24 76.14 75.99 75.82 75.53 75.38 74.37 72.82 71.96 70.88 69.84 68.87 68.19 67.64
57.08 59.44 52.09 45.56 38.98 37.79 41.27 46.71 46.63 48.66 50.67 50.27 50.27 59.00 59.12 59.19 64.05 67.16 69.70 71.73 73.55 74.68 75.82 76.28 77.23 77.11 77.09 76.56 76.17 75.99 75.85 75.87 76.02 76.24 76.39 76.14 75.84 75.74 75.44 75.32 75.03 73.98 72.33 71.26 70.23 69.22 68.99 68.36 67.17
53.25 52.44 51.43 43.12 40.73 44.64 46.34 48.98 49.07 49.95 50.53 50.84 51.98 56.15 60.34 63.34 64.18 69.42 71.79 72.54 72.71 73.63 75.42 76.76 77.07 76.80 76.80 76.48 76.20 75.97 75.80 75.75 76.04 76.31 76.33 76.11 75.73 75.38 75.30 75.07 74.66 74.04 72.24 70.97 70.18 69.98 70.01 69.01 67.83
50.82 47.80 42.55 39.78 42.66 46.23 50.22 51.11 51.03 49.16 48.47 49.46 52.40 55.73 57.17 62.02 66.47 70.62 71.41 72.03 70.99 72.57 74.64 76.45 76.99 76.77 76.73 76.43 76.30 75.97 75.99 75.84 75.92 76.21 76.18 76.03 75.57 75.22 75.05 74.92 74.56 73.96 72.81 71.26 70.27 70.80 70.30 69.82 69.63
44.77 46.28 39.39 37.56 42.77 49.39 50.96 51.96 50.65 50.41 50.34 50.29 53.59 54.50 54.96 58.85 61.23 69.24 71.56 70.22 71.05 72.59 74.59 76.06 76.99 76.74 76.27 76.33 76.02 75.76 75.83 75.80 75.93 76.00 76.10 75.94 75.44 75.20 74.95 74.79 74.58 73.71 73.01 72.37 71.44 71.19 70.40 70.16 70.39
42.89 41.08 38.69 41.43 44.11 47.41 50.76 52.74 49.00 49.67 50.48 52.17 54.80 52.65 54.43 56.62 57.20 59.80 70.86 70.94 70.44 73.28 73.76 75.38 75.72 76.53 76.67 75.98 75.68 75.65 75.49 75.46 75.42 75.44 75.51 75.27 75.16 75.01 74.70 74.28 74.05 73.31 72.52 72.30 71.78 71.18 70.79 70.45 70.32
45.73 42.05 40.03 40.55 42.25 43.58 50.58 51.75 51.47 49.52 50.32 55.80 58.09 53.55 52.27 56.44 58.09 57.69 59.83 70.47 69.87 72.54 72.67 74.16 75.00 75.16 74.88 75.46 75.90 75.55 75.34 75.28 75.03 75.38 75.25 75.16 75.03 74.63 74.37 72.90 73.09 73.02 72.47 72.15 71.80 71.48 71.09 70.87 70.67
47.76 38.76 38.14 40.72 42.78 45.01 50.60 48.57 52.08 53.34 52.14 54.40 57.17 57.09 58.63 59.00 57.92 56.67 64.12 69.18 70.87 71.80 71.06 72.97 74.11 74.14 74.22 74.88 75.67 75.68 76.01 75.49 75.17 75.39 75.15 73.88 72.44 72.54 73.05 72.40 72.97 72.91 72.54 72.35 71.95 71.73 71.51 71.14 70.99
41.71 36.92 39.80 44.99 46.31 45.82 48.34 48.59 49.04 49.67 50.49 52.18 55.09 57.49 58.61 58.21 55.70 55.70 61.72 67.51 69.67 69.86 70.32 71.53 73.49 73.50 73.39 73.96 74.61 74.90 74.89 74.49 74.24 74.12 73.73 72.47 70.93 70.36 71.88 71.85 72.63 72.84 72.57 72.62 72.42 72.04 71.84 71.31 67.36
41.54 40.19 43.43 45.69 47.54 48.98 48.53 49.05 49.72 48.55 47.39 50.95 53.09 55.63 56.22 55.02 53.94 54.84 60.15 69.05 68.99 70.23 70.59 71.27 72.26 73.02 73.08 73.34 73.44 73.65 74.05 73.99 73.69 73.17 72.48 71.38 70.73 70.79 70.62 68.65 69.56 68.85 71.18 68.54 70.17 69.39 68.93 67.54 66.81
38.78 43.48 44.93 46.08 48.09 48.32 47.85 50.21 49.38 50.02 50.76 54.78 55.99 56.73 55.22 54.10 53.03 53.72 56.38 62.15 64.05 67.14 69.91 70.65 71.56 71.67 72.06 72.99 72.72 72.63 72.33 72.52 72.10 72.17 71.39 70.59 69.66 68.42 67.77 66.92 66.32 66.42 66.56 66.67 66.29 66.55 66.45 66.78 66.66
38.37 41.86 44.79 46.88 47.54 47.71 49.17 48.39 48.95 49.71 52.56 55.49 56.54 56.78 55.71 53.33 54.53 53.93 54.36 57.35 63.03 64.62 68.44 70.01 70.82 70.81 69.67 71.91 72.23 72.20 71.86 71.92 71.47 70.72 70.92 70.23 68.21 67.08 67.23 65.70 65.47 65.78 64.91 65.47 64.62 64.10 64.90 64.88 64.96
42.66 42.81 43.39 44.22 44.29 44.44 45.54 46.95 47.16 49.56 52.98 56.25 55.96 54.76 55.36 54.30 53.79 52.84 52.90 53.52 59.07 64.17 66.24 69.63 70.09 70.32 69.60 71.03 70.46 71.02 71.46 71.32 70.76 70.43 70.93 69.77 68.12 66.75 65.57 66.05 65.30 64.85 65.02 65.24 65.28 64.25 63.85 63.99 64.22
43.86 39.96 41.99 42.52 42.32 43.74 45.61 43.32 45.45 49.36 51.32 50.71 51.34 51.05 53.83 54.06 54.09 52.77 53.12 53.04 57.85 61.98 66.61 67.67 69.46 69.59 69.36 70.18 69.25 69.20 70.06 70.28 69.95 70.22 69.76 70.44 67.95 66.64 67.36 66.43 66.77 66.45 66.64 66.42 65.76 65.59 64.88 63.71 65.20
39.51 38.31 33.19 39.47 42.75 44.15 43.21 38.81 45.11 47.70 48.54 48.84 49.60 50.41 51.91 53.53 53.25 53.27 53.03 53.77 56.24 61.12 65.33 67.01 70.36 69.14 69.90 70.34 70.22 69.07 68.59 69.07 69.50 69.67 69.76 70.64 70.16 67.55 66.58 68.60 67.88 67.72 68.05 67.69 67.06 66.97 66.05 65.42 64.85
34.86 30.97 34.03 37.69 42.42 42.26 41.10 40.09 45.01 47.21 47.32 47.03 47.18 48.38 49.84 49.49 51.34 52.14 53.94 54.73 58.91 61.04 62.19 62.91 69.52 69.84 69.10 71.14 71.38 71.43 69.35 69.29 69.45 69.70 69.79 70.20 70.28 70.35 67.58 66.62 68.13 68.57 67.46 67.02 67.17 66.43 65.68 64.70 63.67
31.35 32.35 35.72 35.96 41.94 40.96 39.85 40.08 44.04 46.40 46.27 46.66 45.73 45.74 47.67 48.90 49.60 52.21 55.36 58.92 60.26 60.44 62.32 65.68 67.81 70.06 70.22 69.46 69.15 69.36 69.74 70.50 69.99 69.28 69.94 70.36 70.13 70.25 70.83 69.93 68.39 68.33 67.85 67.69 66.35 65.12 66.02 65.71 64.65
38.21 36.81 36.14 39.79 42.46 40.34 39.12 39.46 41.81 44.67 44.77 44.06 42.82 44.37 45.85 47.81 50.45 54.47 56.46 58.65 57.98 57.71 58.71 62.27 64.50 65.88 69.55 69.25 67.75 67.21 67.70 68.15 68.33 69.26 70.33 70.95 70.80 70.30 70.30 70.76 69.45 68.27 67.50 66.91 66.31 64.84 64.57 64.51 64.74
39.37 37.36 36.70 40.07 42.96 40.32 39.22 39.00 41.55 43.48 43.28 43.83 44.54 45.02 45.44 45.33 47.67 53.17 55.32 56.36 55.87 56.75 56.79 58.10 62.71 65.87 66.67 68.85 68.08 67.21 66.92 67.54 68.05 68.38 68.59 70.07 71.37 71.51 70.59 69.78 69.06 69.07 68.41 66.94 66.10 64.85 63.79 64.65 65.38
39.53 36.84 36.60 36.90 40.87 40.66 38.24 36.55 38.89 43.06 44.30 44.81 44.89 45.14 46.09 46.61 46.58 49.97 54.18 53.83 53.70 56.18 57.35 58.53 59.46 62.96 65.82 66.76 67.03 66.56 67.50 67.19 66.47 66.29 66.76 67.48 69.13 70.34 71.61 71.04 70.23 68.50 68.76 67.80 65.61 65.24 64.27 63.00 64.98
34.70 40.73 40.68 39.44 35.83 30.24 39.02 27.23 34.86 39.58 41.30 42.77 43.74 43.85 44.33 46.23 47.44 48.82 52.12 51.73 53.98 55.50 57.08 57.95 59.58 60.18 60.69 61.63 65.00 63.91 63.93 64.06 65.14 65.37 65.78 66.69 68.23 68.28 68.35 69.31 70.39 69.88 68.82 67.79 65.93 65.74 65.73 65.91 64.56
38.60 42.21 40.57 39.75 34.10 30.61 33.13 28.33 32.91 38.38 38.86 40.48 42.90 43.83 44.82 45.94 48.50 47.85 50.69 53.24 52.09 55.87 54.62 55.17 55.79 56.44 57.34 58.16 60.31 63.78 64.48 64.12 64.28 65.91 66.58 65.49 66.56 67.40 67.69 68.18 69.33 69.29 68.39 68.10 66.50 65.95 66.20 67.22 66.15
44.52 40.80 37.77 35.07 31.81 25.76 31.46 31.26 33.34 34.95 37.28 39.80 43.58 45.00 45.93 45.00 45.58 47.95 50.30 51.69 52.99 52.54 52.45 52.79 53.61 54.17 55.31 56.92 58.99 60.26 60.98 61.58 62.78 64.22 63.90 65.02 65.72 65.56 67.12 68.66 68.45 68.74 67.81 66.80 67.32 67.32 66.51 66.60 68.06
41.40 33.83 25.52 24.50 22.60 25.95 35.37 33.30 34.42 39.08 43.40 44.83 45.39 46.65 45.95 45.89 47.03 48.57 50.75 51.60 52.51 51.68 51.24 52.03 53.07 53.28 54.10 55.43 55.78 57.11 59.63 60.85 60.47 61.34 63.10 62.97 62.98 64.02 65.60 66.04 68.29 68.26 68.24 68.00 67.49 67.32 67.18 67.85 66.56
39.41 37.98 29.96 20.92 20.61 27.14 36.02 29.09 35.51 43.64 45.82 46.73 44.76 44.39 44.04 44.42 47.93 49.23 49.80 50.59 51.90 51.50 51.34 53.52 52.36 52.14 53.06 54.00 54.55 55.12 55.15 56.61 58.49 58.54 59.18 61.83 62.53 63.48 64.30 64.62 65.08 67.02 67.88 68.01 67.25 67.16 67.45 63.78 62.54
38.77 33.58 40.53 32.83 33.57 26.58 28.82 34.28 40.48 43.84 45.21 45.23 45.42 44.69 42.15 43.47 46.51 47.92 48.42 48.80 48.53 48.82 50.28 51.86 51.25 52.33 53.68 54.18 53.51 53.30 54.78 53.78 55.16 57.12 58.08 58.78 59.11 62.85 64.59 64.29 64.06 64.61 65.90 64.71 64.06 64.11 64.23 63.95 63.36
40.55 41.15 31.19 31.90 24.45 23.04 26.75 29.61 31.42 39.16 41.56 45.14 44.68 45.55 45.92 46.25 44.96 46.13 47.03 47.15 47.53 48.48 48.58 49.25 51.41 51.35 50.25 49.71 50.49 51.88 52.52 54.34 54.75 54.37 55.36 57.13 58.16 58.46 59.94 63.68 64.76 65.46 66.47 65.67 64.01 63.30 63.35 63.01 63.00
36.36 35.03 34.18 33.11 32.03 25.59 23.76 26.27 37.34 39.21 41.74 42.87 45.13 46.28 43.74 45.76 47.03 46.87 46.40 47.28 47.71 48.38 48.42 49.15 48.63 48.90 49.06 49.06 49.41 49.31 50.80 53.04 54.33 54.48 55.49 56.55 57.60 58.90 60.21 61.90 62.71 64.49 65.19 66.07 65.59 65.48 65.14 64.25 64.18
39.99 37.20 35.37 28.37 26.02 32.30 28.47 27.13 40.66 40.07 43.57 45.20 45.09 46.46 47.23 47.92 47.39 45.70 47.13 48.69 48.14 46.92 49.31 50.04 50.77 51.76 51.24 51.05 51.09 51.04 51.49 52.10 51.68 52.76 54.56 56.45 57.30 58.44 59.19 59.93 61.49 63.45 64.63 65.03 66.27 66.09 66.81 65.47 65.18

GFSSGP_sfc_wetblb_069.txt.gz
Wetbulb
61.91 58.95 57.06 52.86 43.89 41.89 40.18 42.69 46.58 46.50 46.74 48.36 59.04 57.69 57.43 58.96 56.62 52.19 66.14 70.86 74.02 74.53 75.75 76.43 77.21 77.22 76.95 76.60 76.40 76.04 76.07 76.19 76.19 76.24 76.22 76.32 76.29 76.41 76.38 76.13 75.96 75.25 74.02 72.89 71.91 71.08 70.45 70.18 70.37
59.44 58.06 55.75 48.15 39.97 36.94 40.39 45.14 44.00 46.18 48.69 48.63 53.12 58.61 58.19 58.55 65.26 66.20 66.73 72.76 74.11 74.70 75.69 75.66 77.19 77.09 77.05 76.44 76.01 75.81 75.79 75.97 75.82 75.84 76.07 76.04 76.04 76.04 75.96 75.56 75.15 74.06 73.18 71.96 71.08 70.23 69.27 68.80 68.56
53.49 57.82 50.86 44.73 37.79 37.53 40.41 45.62 46.44 48.53 49.63 48.72 52.42 58.06 58.03 58.76 65.12 66.92 69.88 73.37 74.66 74.45 75.17 75.75 76.99 76.81 76.92 76.44 75.93 75.63 75.53 75.69 75.89 75.94 75.89 75.79 75.71 75.36 75.28 75.09 74.65 73.24 72.27 71.35 70.53 69.58 69.37 68.80 68.20
51.38 51.04 49.53 42.18 40.43 43.70 45.24 47.50 50.23 51.46 49.44 49.78 53.48 55.18 59.12 62.64 63.13 68.90 71.73 73.62 74.10 74.32 75.32 76.63 76.88 76.73 76.54 76.39 76.16 75.58 75.58 75.79 75.88 75.99 75.76 75.71 75.28 75.10 74.97 74.81 74.45 73.58 72.03 71.08 70.15 69.90 69.72 69.23 68.37
49.26 47.18 41.02 39.05 42.21 45.56 49.13 51.73 52.00 51.00 49.55 50.82 53.51 54.01 55.91 60.88 68.89 70.40 71.30 72.58 72.49 73.87 74.81 75.92 76.65 76.73 76.36 76.27 75.99 75.69 75.63 75.42 75.75 75.73 75.78 75.33 74.97 74.94 74.87 74.61 73.80 73.31 71.98 70.82 69.93 70.05 70.09 69.47 68.67
44.77 44.48 37.27 37.38 42.16 48.40 49.96 52.07 52.09 51.82 52.07 54.17 53.79 53.22 53.93 58.10 67.99 68.94 70.70 70.51 72.30 73.21 74.81 75.65 76.58 76.52 76.10 76.01 75.76 75.40 75.25 75.47 75.64 75.66 75.47 75.39 74.91 74.81 74.70 74.56 73.92 73.38 72.52 71.67 70.78 70.67 69.96 69.52 69.25
42.80 39.82 36.69 40.33 41.84 45.51 49.31 51.60 50.35 50.26 50.81 50.75 54.61 51.50 53.18 55.35 63.73 69.48 69.12 68.92 71.30 73.14 74.31 74.77 75.35 75.94 76.23 75.69 75.42 75.41 75.14 75.15 75.26 75.23 75.16 75.14 74.88 74.88 74.68 74.34 74.11 73.33 72.61 72.21 71.57 70.87 70.48 70.11 70.14
43.72 40.86 36.05 39.02 40.78 42.39 48.94 50.24 49.81 50.17 50.66 54.56 56.81 51.83 50.89 55.09 56.90 69.33 69.66 67.87 69.84 72.34 73.85 74.03 74.54 74.99 74.49 74.61 75.58 75.33 75.14 74.90 74.95 75.07 75.15 74.63 74.75 74.67 74.13 73.17 73.28 73.10 72.39 72.24 71.57 71.10 70.59 70.34 70.22
46.66 37.80 34.21 39.14 40.69 44.30 48.44 46.34 50.49 51.98 50.41 51.97 53.44 55.65 57.39 57.32 57.27 64.47 67.55 67.15 70.34 71.05 72.19 73.31 73.48 74.02 73.89 74.10 74.79 75.13 75.60 75.11 74.90 74.81 74.93 73.61 72.53 72.56 72.80 72.33 73.05 72.90 72.39 72.09 71.94 71.57 70.98 70.61 70.42
42.12 35.98 38.50 43.67 45.04 44.88 46.44 46.10 47.73 48.34 48.87 48.98 51.18 56.17 56.57 55.33 55.69 64.49 66.50 67.07 68.71 69.34 71.14 72.60 72.98 72.61 73.25 74.10 73.80 73.51 73.63 73.69 73.32 73.11 73.21 72.40 71.13 70.71 71.62 71.75 72.91 73.00 72.66 72.34 72.06 71.77 71.47 70.81 66.41
40.89 39.43 42.17 43.97 45.80 46.70 46.77 47.33 48.53 46.74 45.38 47.80 48.77 53.37 54.84 53.64 57.09 63.22 66.72 68.02 68.51 69.82 71.10 72.13 72.26 72.63 72.10 72.75 73.50 73.20 73.37 73.08 73.25 72.65 72.47 70.71 70.97 71.04 70.86 68.65 69.73 68.56 71.15 67.86 69.81 68.70 68.22 66.76 66.00
37.81 42.28 43.00 44.55 46.23 45.82 45.57 48.22 47.49 47.91 48.22 50.70 52.73 54.41 54.08 52.75 54.58 59.62 63.88 67.21 68.54 69.32 70.02 71.92 72.00 71.82 71.99 72.20 72.86 72.93 73.05 72.65 72.29 72.45 71.54 70.23 69.33 68.88 68.31 67.77 66.56 66.11 66.06 65.84 65.17 65.77 65.72 65.72 66.21
37.38 40.77 43.12 44.46 44.54 44.58 46.49 45.49 46.10 47.54 50.80 51.86 52.96 54.07 54.00 52.88 52.08 57.61 63.41 63.39 66.59 68.30 69.38 71.22 71.96 71.60 72.13 71.90 72.03 71.98 71.84 71.91 72.05 72.20 71.29 70.64 69.01 67.61 67.12 66.17 65.12 64.74 64.33 64.72 64.41 63.96 64.12 64.23 64.66
40.94 40.99 42.02 42.67 42.36 42.63 43.08 44.95 44.88 47.75 50.75 51.02 51.89 53.96 53.96 53.37 53.39 51.82 55.00 62.18 62.84 65.98 68.44 70.05 71.23 71.94 72.03 71.82 71.68 71.69 72.08 72.03 71.54 71.46 71.40 70.23 68.94 66.78 65.97 65.52 64.58 64.40 64.54 64.25 64.19 63.88 63.27 63.31 63.71
41.80 38.32 40.04 40.41 40.76 40.96 43.11 41.32 43.18 46.46 49.57 49.79 51.45 53.55 52.44 53.98 53.93 53.68 53.23 55.77 61.95 63.93 67.46 68.74 69.65 70.73 70.75 71.42 71.25 71.29 71.69 71.68 71.10 71.17 71.38 70.91 68.70 66.85 65.27 65.62 64.91 64.74 64.54 64.80 64.80 64.48 64.26 63.42 63.51
37.77 36.54 32.24 37.29 40.90 43.06 41.44 37.86 43.44 46.79 46.85 47.78 48.97 49.48 50.28 51.45 53.87 53.37 53.10 52.67 56.45 61.52 64.83 67.53 70.00 69.31 69.11 70.80 70.37 70.43 70.89 70.64 70.75 70.94 70.67 70.89 69.72 67.66 66.51 65.55 65.66 66.56 65.98 65.82 65.64 65.51 64.87 64.59 64.54
33.05 29.68 31.41 35.88 39.80 40.70 40.10 37.67 43.20 45.16 44.65 45.12 46.96 48.06 49.15 49.35 50.83 52.03 52.77 52.31 53.49 60.83 65.10 66.41 68.31 68.14 68.00 69.08 69.43 68.70 68.78 69.15 68.58 69.01 69.54 70.35 70.28 68.57 66.64 66.71 67.07 66.77 66.16 66.88 66.83 66.38 65.36 64.45 63.95
29.30 30.22 33.45 33.34 38.12 38.84 38.52 39.09 41.70 43.65 43.65 44.03 44.04 46.60 47.42 48.10 49.21 50.90 51.77 52.15 54.71 59.85 63.75 66.69 67.93 67.71 68.24 68.88 68.80 68.41 67.39 68.09 68.63 68.12 68.10 68.78 69.89 69.86 67.49 66.14 65.56 67.66 67.14 66.34 66.16 65.58 64.98 65.18 64.72
36.15 34.15 33.64 37.60 41.27 38.09 38.32 38.57 39.91 42.41 42.23 42.40 43.17 43.23 44.36 45.64 48.35 49.26 51.32 55.26 57.70 59.51 62.10 66.20 66.97 67.88 68.10 68.13 67.79 66.99 67.46 67.12 67.28 68.75 68.90 68.97 69.20 69.38 69.27 68.58 67.97 67.03 66.50 66.78 66.62 65.16 64.70 64.19 64.87
36.88 34.88 34.69 38.24 41.04 38.34 37.88 37.79 39.59 41.18 42.18 41.88 42.44 42.46 43.75 44.33 45.42 50.89 53.88 55.71 57.49 58.56 60.85 62.86 64.56 67.53 68.59 68.32 67.19 67.06 66.76 66.74 66.60 67.23 68.49 69.87 69.75 69.25 68.89 69.26 69.31 69.03 67.92 67.01 66.38 65.03 63.76 64.05 64.43
36.81 34.71 35.65 35.38 39.32 39.32 36.37 35.06 36.72 40.99 42.46 43.68 43.62 42.80 43.92 44.51 45.16 47.31 52.61 54.52 54.47 54.81 57.02 60.02 63.13 65.00 66.51 67.50 66.71 66.17 66.42 65.83 66.02 65.63 66.49 67.84 70.24 69.75 69.59 69.05 69.09 69.02 69.10 68.02 66.93 65.78 64.12 63.55 64.23
32.92 39.84 38.83 37.99 34.38 29.34 36.96 28.60 33.76 37.66 39.91 40.87 41.94 41.73 42.46 43.78 45.19 45.88 51.85 52.32 52.06 54.91 55.52 57.22 58.98 62.47 64.08 66.02 64.89 63.56 63.17 64.45 65.25 65.10 65.23 66.47 67.37 67.10 69.65 69.93 69.08 68.89 68.92 67.84 66.93 66.78 65.10 64.26 63.13
37.05 41.66 39.07 38.10 33.55 29.23 31.37 27.04 31.49 35.62 36.56 38.75 41.41 42.58 43.44 43.08 43.74 45.05 49.47 54.27 52.92 53.77 56.02 57.26 58.12 57.74 58.23 59.41 62.26 63.38 62.68 62.91 63.31 64.17 65.00 64.50 65.55 66.79 67.61 67.71 68.45 69.41 69.24 68.63 68.39 66.60 65.29 65.07 64.56
44.17 39.38 36.01 32.68 29.81 25.02 31.02 29.38 32.14 34.70 36.41 38.14 40.57 42.53 44.27 45.51 44.93 44.69 47.84 52.71 50.60 52.77 53.99 54.95 55.07 54.64 55.12 57.50 58.64 59.58 60.17 60.99 61.82 62.87 63.42 63.46 64.68 65.25 65.73 67.14 66.85 67.77 67.74 67.62 67.80 67.47 66.01 66.45 65.96
41.62 33.52 24.77 23.10 23.49 25.87 32.77 29.56 34.34 38.24 40.38 41.72 42.33 44.14 45.28 46.51 47.77 44.11 46.04 49.02 51.57 51.85 52.85 52.18 51.85 51.95 53.36 55.04 56.56 57.80 58.34 58.15 58.33 59.53 62.10 62.42 62.39 63.04 65.08 65.55 65.53 66.17 66.60 67.09 66.78 66.50 66.61 65.76 65.33
37.00 37.88 31.25 24.33 20.93 25.81 33.45 27.37 34.36 41.01 44.11 44.87 44.67 43.84 42.78 42.44 44.36 44.66 47.80 50.87 53.68 52.17 49.93 51.19 51.02 51.54 51.87 53.93 53.90 54.20 54.99 56.84 57.66 58.08 58.06 58.77 60.45 62.09 63.53 63.61 64.14 64.79 67.05 66.94 66.38 66.28 66.26 66.36 66.38
36.73 33.85 39.24 34.01 33.74 29.36 28.89 32.44 39.35 41.71 42.28 42.65 44.14 44.52 43.47 43.27 43.01 44.63 46.85 51.40 53.09 50.99 50.05 50.58 50.38 50.90 51.42 52.81 52.48 52.63 53.30 53.94 55.12 55.80 55.95 56.91 57.20 59.08 60.23 62.45 62.55 63.07 63.63 65.82 66.22 66.19 66.36 65.95 65.67
38.05 39.39 29.60 32.79 25.31 24.23 26.19 27.53 29.69 36.11 38.19 42.15 42.18 41.92 43.14 44.46 45.51 45.35 46.00 45.89 46.32 48.62 50.52 50.32 50.74 51.32 52.01 51.98 52.22 52.60 52.93 53.23 52.78 52.94 53.23 53.83 55.31 57.29 58.47 58.94 61.06 62.04 63.18 63.80 63.36 63.62 64.65 63.51 64.26
34.65 34.69 35.62 34.26 32.20 25.61 22.82 25.56 34.49 37.30 38.79 39.64 42.19 44.21 43.98 43.00 44.43 44.70 45.68 46.51 46.70 46.55 45.05 48.74 50.57 50.63 50.10 49.86 49.65 49.60 49.64 50.90 51.87 51.92 52.29 53.23 54.12 55.52 56.59 57.64 58.90 61.24 62.19 62.72 63.26 62.83 63.58 63.25 63.26
36.38 34.76 34.93 25.67 28.50 31.60 29.96 26.58 40.71 39.97 40.50 41.72 42.13 45.52 46.64 46.05 45.41 45.20 45.43 45.67 46.69 46.17 46.74 46.53 47.77 49.50 51.04 50.01 47.91 47.72 48.05 48.80 49.45 49.99 51.18 52.22 53.00 54.70 57.07 58.42 59.67 60.95 61.71 62.34 63.58 64.08 65.25 64.47 64.20

GFSSGP_sfc_wetblb_072.txt.gz
Wetbulb
60.95 56.46 56.37 51.43 43.70 40.74 37.25 40.71 45.00 45.14 45.97 47.33 51.61 56.74 56.34 57.07 55.62 51.55 66.72 70.85 73.12 73.58 75.64 76.19 77.02 76.95 77.00 76.65 76.57 76.57 76.57 76.57 76.60 76.42 76.32 76.37 76.35 76.54 76.46 76.36 76.26 75.58 74.44 73.01 72.31 71.64 71.56 71.69 72.10
56.11 56.65 54.42 47.60 39.17 36.00 38.56 43.97 42.66 44.85 48.34 49.14 48.40 57.26 57.09 56.69 64.94 65.25 66.38 72.83 73.06 74.51 75.53 75.54 76.87 76.70 76.78 76.50 76.21 76.13 76.21 76.34 76.19 76.14 76.32 76.22 76.31 76.46 76.23 76.09 75.52 74.39 73.28 72.17 71.43 70.75 70.29 70.45 70.75
52.29 56.61 49.83 43.70 36.87 36.40 40.00 44.76 46.40 48.28 50.76 47.40 49.07 56.97 57.54 58.40 65.27 66.53 69.12 73.06 74.05 74.12 75.00 75.55 76.97 76.59 76.60 76.29 76.01 75.98 75.93 75.96 76.04 76.09 76.19 76.19 76.08 75.98 75.60 75.44 74.90 73.72 72.57 71.65 70.81 70.15 70.53 70.45 69.80
50.14 51.11 48.60 41.74 39.56 43.05 44.09 47.06 49.57 51.35 51.22 48.16 52.26 54.19 57.89 61.50 62.17 68.55 72.78 73.87 73.27 73.57 74.82 76.07 76.58 76.46 76.39 76.29 75.83 75.76 75.71 75.86 75.89 76.04 75.89 75.83 75.68 75.20 75.05 74.94 74.37 73.68 72.27 71.38 70.78 70.60 70.49 69.87 69.36
48.86 46.47 41.41 38.38 41.63 45.46 47.98 50.99 50.96 50.47 49.96 49.20 52.80 53.87 55.94 59.96 69.48 71.28 72.76 73.30 72.51 72.92 74.43 76.01 76.55 76.28 76.16 76.17 75.91 75.63 75.68 75.38 75.53 75.56 75.64 75.44 75.03 74.67 74.57 74.34 73.83 73.59 72.85 71.64 70.38 70.38 70.16 69.77 69.54
43.99 44.33 36.72 36.22 41.46 47.39 49.27 51.11 50.95 50.44 49.72 50.12 52.28 54.04 54.15 61.70 68.09 69.44 71.97 71.87 73.07 72.75 74.20 75.15 76.11 76.17 75.85 75.86 75.63 75.22 75.25 75.30 75.30 75.20 75.16 75.08 74.62 74.52 74.50 74.24 73.98 73.45 72.71 71.86 71.10 70.70 69.98 69.16 68.77
42.76 39.83 36.29 38.37 41.51 44.98 48.19 50.65 48.96 48.87 49.17 49.32 51.43 51.63 52.67 54.33 66.56 69.03 69.63 70.99 72.97 73.76 73.95 74.29 74.85 75.46 75.88 75.59 75.36 75.14 74.93 74.84 74.91 74.72 74.80 74.66 74.46 74.54 74.46 74.07 73.86 73.68 72.78 72.26 71.57 70.67 70.10 69.33 68.92
43.71 40.48 34.96 39.47 40.55 42.75 48.25 49.61 49.17 49.65 49.78 52.55 53.47 50.34 50.25 54.34 66.92 67.86 67.91 69.42 70.97 73.06 72.96 73.55 73.85 74.55 74.12 74.29 75.51 75.18 74.96 74.75 74.62 74.59 74.71 74.33 74.26 74.38 74.13 73.34 73.59 73.30 72.51 72.14 71.52 70.78 70.31 69.84 69.65
43.88 36.21 33.22 37.89 40.46 44.08 47.19 45.71 48.91 51.18 49.42 49.74 51.07 51.02 55.23 55.87 65.73 66.55 65.69 68.69 70.17 72.31 72.49 73.17 73.08 73.40 73.69 73.38 74.34 74.95 75.03 74.88 74.74 74.59 74.41 73.43 72.67 73.00 72.90 72.64 72.95 73.20 72.44 71.94 71.50 71.08 70.47 70.29 70.07
40.45 33.88 37.54 42.12 43.90 43.88 45.28 45.25 46.16 46.52 47.42 46.83 48.85 51.59 55.03 56.47 64.32 65.40 64.39 65.94 68.24 69.68 71.30 72.09 72.43 72.64 73.03 73.53 73.34 73.18 73.42 73.52 73.21 73.37 73.21 71.85 71.31 71.42 71.61 72.02 72.83 73.11 72.41 72.04 71.70 71.38 70.96 70.56 67.26
39.30 36.08 40.76 42.15 44.40 45.43 44.63 44.04 46.94 44.76 45.12 46.30 47.23 49.34 53.13 54.04 60.99 63.92 65.55 66.02 67.31 69.20 70.86 71.74 72.08 72.26 72.51 72.22 73.08 72.76 72.86 72.70 72.44 72.04 72.29 70.84 70.50 70.92 71.37 70.11 71.19 70.26 71.84 69.06 70.68 69.70 69.26 67.90 67.07
37.06 41.03 43.35 43.90 44.94 45.21 44.31 46.26 45.46 46.07 47.04 48.92 49.97 50.82 52.50 52.69 58.21 62.86 64.68 66.29 66.98 68.81 70.15 71.48 71.74 72.20 72.31 72.55 72.29 72.01 72.00 72.14 72.00 72.47 72.52 70.73 69.69 69.01 69.19 68.69 68.11 67.80 67.66 67.10 66.42 66.48 66.87 66.72 66.97
37.24 39.97 42.46 43.28 42.31 42.32 44.51 43.46 44.37 45.20 48.13 49.72 49.96 50.40 51.74 52.61 55.78 61.04 65.44 67.07 67.70 68.32 69.45 71.39 71.65 71.75 71.51 71.18 72.30 71.95 71.80 71.92 71.82 71.79 71.72 71.37 69.82 68.81 68.61 67.77 66.65 66.30 66.14 66.00 65.63 65.33 65.72 65.69 65.91
40.15 39.75 40.89 41.68 41.63 41.27 41.82 42.80 43.44 45.55 48.57 48.76 49.26 49.67 50.03 52.16 52.09 57.25 62.10 64.38 67.48 68.31 68.85 71.16 71.14 71.40 71.79 71.49 71.65 71.46 71.63 71.73 71.44 71.67 71.43 71.09 70.10 68.54 67.77 67.15 66.38 65.49 65.54 65.42 65.33 65.22 65.20 65.24 65.55
40.09 36.67 39.47 39.79 40.43 41.25 41.93 40.56 40.90 45.13 46.79 45.61 47.24 48.29 52.02 52.63 52.42 53.20 60.76 63.66 65.60 68.14 68.95 70.14 70.73 71.05 71.17 71.59 71.20 71.03 71.33 71.69 71.35 71.49 71.70 71.32 70.15 68.40 67.76 67.12 66.18 65.58 65.49 65.67 65.54 65.75 65.61 65.32 65.44
35.71 34.81 30.78 37.18 39.84 42.42 41.29 37.30 42.26 44.97 45.37 46.15 47.42 48.18 48.98 50.95 52.74 53.14 53.93 60.75 63.09 65.74 67.84 69.37 70.83 70.78 70.65 71.16 71.19 71.11 71.42 71.74 71.55 71.68 71.37 71.46 70.72 69.23 67.00 66.15 66.22 66.75 65.87 65.89 65.80 65.75 66.05 66.35 66.37
31.58 27.50 28.64 34.24 38.39 39.34 38.40 35.75 41.75 44.12 44.06 43.86 44.90 46.19 47.44 48.01 49.71 52.35 53.28 53.35 55.26 62.71 67.01 67.97 69.25 69.72 70.26 70.75 70.65 70.63 70.59 70.81 70.60 70.04 70.30 70.78 70.69 69.91 68.08 67.35 66.18 66.44 66.82 67.00 66.86 67.08 67.37 66.70 66.57
27.73 27.85 30.75 31.75 37.33 37.47 37.04 37.17 40.32 42.75 42.03 41.91 42.31 43.65 45.43 47.02 48.72 50.40 52.33 52.44 52.08 56.91 63.02 67.18 68.59 68.65 69.20 69.69 69.31 67.97 68.15 69.28 70.19 69.74 69.55 69.71 70.28 70.23 68.24 67.62 66.77 66.90 66.15 66.46 67.05 67.22 66.64 66.42 66.72
34.29 32.16 31.57 35.75 39.85 36.46 36.10 36.83 38.91 41.23 40.98 40.77 40.61 40.98 42.68 45.52 48.92 48.80 49.69 51.23 51.39 54.12 60.81 64.47 66.45 67.31 67.85 67.59 67.38 67.03 66.29 67.28 67.64 68.27 68.94 68.89 69.38 69.90 69.17 67.99 66.15 66.32 66.97 67.06 67.15 67.15 66.53 65.64 66.73
35.08 32.51 32.56 36.13 39.30 36.42 35.79 35.83 38.34 39.71 40.20 41.18 41.49 41.73 41.51 42.30 44.44 46.98 50.87 52.93 53.88 55.04 59.00 63.50 65.93 66.01 67.23 67.99 68.26 67.73 67.73 66.94 67.91 68.27 68.53 68.80 68.99 69.11 69.14 68.76 67.97 66.87 66.25 66.81 67.36 66.86 65.69 65.29 65.58
34.18 32.30 33.10 33.61 37.78 37.51 35.35 34.74 35.40 39.11 40.39 42.56 42.53 42.72 42.79 43.20 43.50 45.01 48.52 53.26 54.06 55.82 59.09 63.29 65.96 67.12 67.15 67.63 67.21 66.32 66.48 66.39 66.35 67.05 67.46 68.15 68.87 69.17 69.10 68.90 68.76 68.84 68.37 67.48 67.48 67.25 66.22 64.98 65.03
31.04 37.84 37.31 36.27 32.89 27.98 35.11 28.29 34.15 35.67 38.64 40.66 41.86 41.05 41.29 42.61 43.82 44.55 45.67 50.83 53.51 54.94 58.23 61.58 63.80 66.19 67.12 67.21 66.85 66.20 65.36 65.17 65.87 67.16 67.95 67.93 68.91 69.38 69.78 69.40 69.47 69.42 69.73 69.17 68.56 68.19 67.28 66.31 64.18
36.75 40.76 38.37 37.46 33.09 27.96 30.48 26.67 30.48 34.67 35.02 37.47 39.94 41.53 42.53 42.06 42.48 43.80 45.32 47.13 53.53 54.04 54.99 58.22 61.71 63.49 65.47 66.74 66.88 65.30 63.67 63.68 64.33 65.08 66.02 66.76 67.37 68.06 68.44 68.76 68.97 68.54 68.47 68.36 67.89 67.42 66.25 65.98 65.60
42.86 38.47 35.96 30.71 28.64 24.17 31.43 28.52 32.20 35.92 35.03 37.05 39.65 41.20 43.77 44.52 44.66 43.61 45.37 47.23 51.09 51.91 54.00 55.52 57.70 59.35 61.45 63.73 64.48 65.01 63.86 64.00 63.51 63.72 63.91 65.01 65.79 66.78 67.30 67.74 66.74 68.25 68.58 68.65 68.36 68.56 66.00 65.83 67.21
38.42 32.16 25.15 23.53 21.01 25.36 31.21 27.88 33.13 38.23 39.02 39.66 40.54 42.20 43.23 42.84 42.40 43.64 43.98 44.40 49.10 50.73 53.35 54.98 55.17 54.96 55.99 58.12 58.72 59.46 60.07 61.04 61.20 61.97 63.69 63.80 64.11 64.65 65.91 66.61 67.05 67.05 67.61 68.29 67.71 67.28 66.54 66.56 65.96
34.24 33.73 25.78 18.48 21.67 26.26 33.88 26.84 33.49 39.62 42.13 42.74 43.66 43.06 43.25 43.30 42.10 43.15 43.90 43.66 48.07 51.41 53.62 56.06 53.77 52.91 53.75 56.36 57.37 58.22 58.37 58.44 58.79 59.34 60.93 62.61 63.51 64.23 65.45 65.40 65.94 66.47 67.97 68.02 68.13 67.25 67.19 67.32 66.83
34.36 31.26 34.68 30.94 32.55 28.45 28.78 32.88 38.37 40.09 40.67 42.00 42.21 43.00 42.81 43.26 43.61 43.65 44.20 46.27 47.87 51.00 53.55 55.10 52.28 51.80 52.60 54.15 54.29 54.36 55.12 55.99 56.65 57.64 58.04 57.82 59.06 60.82 62.19 63.06 63.58 64.31 64.87 66.68 67.66 67.05 66.87 67.14 67.10
36.69 38.52 30.60 32.88 24.32 19.81 26.51 27.55 30.27 36.01 38.18 40.68 40.29 41.69 41.96 43.73 44.53 44.67 44.97 45.34 46.81 46.92 48.35 49.86 50.92 51.93 52.29 52.99 52.69 53.09 53.57 54.44 54.95 54.90 55.60 56.66 57.08 58.21 60.23 61.87 62.66 62.88 63.90 64.45 65.20 65.28 66.00 65.91 66.27
32.68 31.61 33.33 34.79 32.03 24.91 23.23 26.83 36.54 38.53 39.71 39.45 40.38 41.83 41.79 43.20 43.99 45.13 45.39 45.95 46.00 46.26 47.49 48.33 49.38 50.15 51.33 51.63 51.80 52.28 52.60 53.75 53.61 53.49 53.78 53.99 54.76 56.42 57.60 58.51 59.02 60.55 62.04 63.43 63.83 63.78 63.87 64.10 64.01
34.90 32.67 31.44 22.89 19.20 26.20 21.82 25.70 41.43 41.76 41.84 40.83 41.37 41.36 41.86 42.84 44.42 45.05 46.42 46.96 47.54 47.00 46.67 48.12 49.21 48.69 49.69 50.47 51.02 51.65 51.31 51.34 52.06 52.50 53.18 53.73 54.34 55.45 56.79 58.23 59.82 60.69 61.52 62.21 62.55 63.04 64.74 64.27 63.87

GFSSGP_sfc_wetblb_075.txt.gz
Wetbulb
63.24 58.30 61.92 57.92 49.82 49.59 45.92 47.22 51.27 50.35 51.57 54.40 54.80 59.44 60.81 61.98 59.84 56.81 71.00 73.08 73.44 75.33 77.05 76.86 77.07 77.36 77.46 77.38 77.33 77.23 77.05 76.95 76.78 76.70 76.55 76.43 76.67 76.75 76.64 76.61 76.52 76.13 75.12 73.66 72.87 72.53 72.39 72.82 72.99
58.62 59.80 60.02 55.08 47.10 43.07 45.14 49.42 49.49 52.47 55.30 55.56 52.72 58.97 61.74 61.59 66.91 68.10 70.12 73.19 74.48 76.18 76.67 76.60 77.02 77.15 77.36 77.15 76.97 76.84 76.92 76.90 76.83 76.73 76.68 76.42 76.52 76.49 76.61 76.52 76.15 75.29 73.84 72.75 72.11 71.81 71.84 72.23 73.02
55.55 59.51 55.84 53.14 48.06 43.53 44.89 49.26 51.78 54.56 56.56 54.21 54.66 60.84 61.01 62.11 67.37 69.49 72.03 74.00 74.90 76.14 76.87 76.87 76.85 76.70 77.00 76.87 76.74 76.59 76.66 76.64 76.60 76.70 76.47 76.32 76.47 76.31 76.18 76.14 75.67 74.40 72.93 72.14 71.43 71.08 71.87 71.86 71.64
54.83 56.89 55.60 49.24 46.71 47.93 47.16 50.18 53.91 54.47 55.95 55.54 55.28 57.90 61.88 64.12 64.75 71.15 73.73 74.18 74.36 75.62 76.24 76.62 76.52 76.49 76.59 76.85 76.57 76.33 76.23 76.37 76.40 76.50 76.42 76.32 76.23 75.97 75.73 75.51 74.97 74.35 73.17 71.98 71.56 71.17 71.17 71.04 70.48
55.23 54.25 49.07 47.57 47.60 49.53 50.70 52.81 54.51 53.71 53.97 54.83 56.28 55.75 61.14 65.74 72.71 73.41 73.85 74.11 73.53 75.08 75.90 76.34 76.41 76.34 76.39 76.45 76.37 76.21 76.04 75.74 75.86 76.02 76.09 76.04 75.77 75.47 75.16 74.84 74.62 74.08 73.40 72.42 71.17 70.82 70.51 69.93 69.78
51.10 52.57 46.12 44.31 46.62 49.59 51.93 53.56 53.87 53.60 54.47 55.27 53.95 54.31 59.87 69.39 71.61 73.43 74.08 73.81 74.26 74.66 75.76 76.22 76.38 76.19 75.93 75.89 75.83 75.60 75.38 75.43 75.61 75.63 75.71 75.61 75.20 74.81 74.79 74.47 74.33 73.85 73.21 72.51 71.48 71.11 70.37 69.74 69.86
49.78 48.17 45.43 46.00 45.55 47.45 50.23 53.55 52.42 52.47 53.21 53.95 55.36 52.85 57.65 59.41 71.20 73.46 74.10 74.05 74.11 74.99 75.41 75.95 75.77 76.11 75.96 75.55 75.30 75.32 75.17 75.12 75.17 74.92 75.02 74.82 74.68 74.43 74.29 74.14 73.95 73.80 73.10 72.48 71.73 71.05 70.51 69.99 69.78
50.10 49.12 45.13 45.60 44.30 45.34 50.60 51.62 52.27 52.77 52.26 55.89 55.00 53.39 53.33 58.18 70.70 72.62 73.62 73.60 73.48 74.32 75.01 75.27 75.33 75.10 74.75 75.20 75.44 75.11 75.16 74.96 74.72 74.73 74.76 74.37 74.33 74.25 74.18 73.28 73.68 73.60 72.88 72.39 71.62 70.87 70.53 70.08 69.68
49.39 45.34 43.10 44.41 44.42 46.71 49.83 48.99 52.12 53.89 52.37 53.62 54.31 54.91 56.38 59.99 70.46 70.44 70.98 71.88 72.25 72.99 74.46 74.79 74.82 74.89 74.44 74.11 74.62 75.01 75.10 74.98 74.62 74.84 74.56 73.56 72.38 72.82 73.29 72.35 73.58 73.54 72.73 72.26 71.70 71.10 70.48 70.23 69.62
47.54 43.75 44.22 46.71 48.23 47.34 48.92 48.88 49.81 50.15 50.83 51.35 53.01 56.04 56.67 61.64 68.27 68.46 68.33 68.78 70.13 71.24 73.26 74.50 74.47 74.40 74.16 73.60 74.21 74.06 73.64 73.82 73.82 73.98 74.33 73.35 73.18 72.96 71.80 72.43 73.18 73.37 72.71 72.31 71.87 71.35 70.91 69.92 69.51
45.77 43.39 45.32 46.58 48.61 49.04 47.86 47.91 50.34 48.79 47.64 50.71 51.00 53.55 55.61 56.30 60.93 67.16 68.50 68.61 69.43 71.23 72.62 73.57 74.32 74.85 73.80 73.32 74.09 73.77 73.67 73.85 74.01 74.00 74.22 74.09 72.99 73.13 72.28 71.71 71.58 72.08 71.80 70.03 70.37 70.43 69.89 69.63 69.69
43.21 44.94 46.92 47.82 48.60 48.24 47.15 49.39 48.01 49.02 49.60 52.47 53.01 54.09 54.85 55.14 56.02 60.91 67.92 68.88 69.41 70.59 71.76 73.19 74.12 74.34 74.31 73.89 73.49 73.46 73.33 73.52 72.94 73.27 73.99 73.12 72.34 72.34 72.33 71.22 71.41 71.86 70.97 70.53 70.23 69.45 70.00 70.08 70.20
43.65 44.12 46.00 47.13 46.78 46.28 47.18 45.82 46.42 47.48 50.07 51.79 52.54 53.27 53.50 54.52 56.22 58.83 65.24 70.05 70.55 70.12 71.54 72.75 73.75 73.96 73.40 73.84 73.39 73.43 73.23 73.42 73.38 73.13 73.87 72.62 71.57 71.67 72.09 71.95 71.26 70.93 70.68 70.29 69.64 69.11 69.04 69.46 70.39
45.33 44.30 44.99 45.78 46.21 46.47 44.91 46.39 47.05 48.53 51.48 51.34 52.20 52.63 53.68 54.64 55.89 57.79 62.30 67.50 70.43 71.16 71.49 72.53 72.89 74.20 73.18 73.87 74.12 73.53 73.71 73.72 73.69 73.42 73.38 72.81 72.32 72.07 71.48 71.74 71.21 70.61 70.37 69.80 69.45 69.25 69.48 69.90 70.33
44.89 42.67 44.36 45.59 46.04 45.74 46.88 44.37 43.64 48.82 50.69 50.26 51.71 52.73 53.61 54.39 56.17 57.64 60.64 67.25 70.74 71.75 72.43 72.40 73.22 73.78 73.85 74.70 74.51 73.96 73.63 73.61 73.35 73.32 73.89 72.97 72.86 72.73 72.07 71.15 70.63 70.48 70.76 70.78 70.13 70.38 70.45 70.17 70.97
42.66 41.95 39.89 44.04 44.38 45.96 44.99 41.13 46.59 48.68 48.19 48.59 50.55 51.84 52.99 54.84 56.91 59.85 60.30 66.58 70.64 72.27 72.37 72.99 72.99 73.22 74.30 74.70 74.53 74.09 73.80 73.61 73.51 73.49 73.28 72.81 72.85 73.15 72.40 71.16 70.83 71.13 70.70 70.05 69.96 70.13 69.96 70.61 71.67
40.31 37.70 37.50 40.32 44.95 44.08 43.77 41.96 46.00 49.22 48.87 48.11 49.23 50.59 51.32 52.62 54.61 57.43 59.64 60.75 67.11 70.88 72.47 72.67 73.36 72.99 73.85 74.17 74.04 74.30 74.97 73.70 73.20 72.42 71.84 72.85 73.26 72.96 72.33 71.32 71.57 72.14 70.72 69.75 69.58 69.90 70.33 71.35 71.73
36.16 36.92 37.99 38.49 43.47 43.94 42.79 42.74 46.01 48.15 48.38 48.15 49.00 49.89 50.92 51.26 53.20 56.38 57.82 60.94 62.27 65.77 70.29 72.28 72.65 73.70 73.63 73.09 73.59 73.16 73.31 73.50 72.75 71.01 71.52 72.31 73.64 73.34 72.41 71.89 71.56 71.43 69.76 69.45 69.35 70.61 71.56 70.94 70.52
39.93 38.38 37.93 41.51 44.54 41.68 42.48 43.03 44.97 47.67 48.07 48.07 49.51 49.64 50.29 51.46 54.21 55.28 56.17 57.89 60.18 61.38 65.21 70.26 71.15 72.48 72.40 71.33 70.83 70.41 70.14 71.89 72.36 72.64 73.16 73.08 72.51 73.39 73.93 72.46 72.10 71.52 70.82 70.37 69.84 69.81 70.33 69.89 69.76
40.17 38.67 39.14 41.93 44.15 42.43 43.23 42.86 45.88 46.82 47.62 48.84 49.51 50.14 50.41 51.72 53.19 54.60 55.43 56.17 58.20 60.99 62.24 65.70 70.69 72.04 71.95 71.57 71.84 71.02 70.83 70.98 71.70 72.44 72.93 73.33 72.88 72.51 72.39 73.02 72.09 71.31 69.91 70.64 70.48 70.36 69.57 70.79 70.39
40.73 38.73 39.49 39.48 42.79 44.53 42.59 41.14 43.56 46.07 47.20 48.50 49.71 50.93 51.30 51.63 52.74 54.07 55.18 56.16 59.41 59.84 61.92 63.57 68.40 71.57 72.19 72.54 72.16 71.50 71.50 71.02 69.95 70.40 70.84 71.47 71.94 72.32 72.90 72.13 72.15 71.63 70.64 69.25 70.25 70.51 70.74 68.69 68.78
37.95 42.35 41.62 41.00 40.42 36.10 42.83 33.69 41.90 44.69 45.19 47.05 48.49 50.17 51.18 51.38 52.26 52.81 53.92 55.43 57.07 60.75 62.44 62.63 66.14 70.40 70.90 71.86 71.04 71.00 69.39 68.53 69.59 70.16 70.68 71.05 71.59 71.58 71.77 71.84 71.61 72.34 71.25 71.15 70.46 70.89 71.33 70.11 69.45
40.65 44.33 43.38 42.71 40.49 39.60 39.52 36.13 40.20 43.71 42.30 44.73 47.56 49.24 50.71 52.05 51.60 52.75 54.46 55.57 56.90 58.40 61.80 63.74 65.81 68.68 70.82 71.27 71.99 70.51 70.91 70.81 71.27 71.19 71.70 72.04 71.84 72.02 71.54 72.08 72.02 72.28 72.46 73.10 71.89 71.18 70.47 69.49 67.70
45.63 43.47 43.01 40.14 39.19 33.12 38.64 37.50 38.33 41.16 43.52 45.52 47.62 48.73 49.75 50.80 52.71 53.54 54.36 54.87 54.89 56.91 59.66 62.98 65.49 68.41 70.56 70.91 71.65 71.91 71.14 70.91 70.19 70.90 70.75 71.25 71.61 71.71 72.25 72.49 72.93 72.60 72.38 72.11 70.60 68.13 65.03 65.68 64.76
43.69 40.00 33.21 31.63 32.17 31.15 38.93 36.01 38.52 43.58 45.37 46.21 46.78 48.32 50.28 51.84 51.89 52.59 53.33 54.17 55.24 55.38 57.34 60.78 63.90 67.30 70.32 71.01 71.28 71.38 72.14 71.12 71.02 71.18 70.99 71.25 70.65 71.02 72.17 72.39 71.73 71.86 72.73 71.54 68.87 68.31 65.60 65.24 64.33
40.28 39.10 32.55 25.00 26.95 30.35 37.15 31.54 37.35 45.32 47.31 48.13 48.79 48.87 50.47 51.22 52.16 52.96 53.65 54.20 54.91 54.46 55.44 59.16 62.08 65.14 68.00 70.17 71.13 71.40 71.74 70.64 70.59 70.71 70.25 70.50 70.32 70.75 72.13 71.72 71.47 71.65 71.74 71.71 70.90 68.49 67.39 64.95 64.04
39.25 36.16 40.77 34.05 35.08 30.61 33.91 38.19 42.87 45.54 45.75 46.45 47.39 48.49 49.36 50.88 51.53 52.31 53.76 54.56 55.43 55.91 54.54 57.55 60.36 63.23 64.96 66.98 67.75 67.14 66.57 66.91 66.38 68.03 69.05 68.95 70.17 69.79 70.30 70.60 70.74 70.93 71.24 71.78 71.91 71.41 69.49 68.58 65.98
41.68 43.31 33.71 34.92 25.13 24.21 31.27 33.32 35.10 40.63 42.28 44.92 45.21 46.36 47.86 49.57 51.12 52.34 53.02 53.98 54.88 56.01 57.12 57.81 60.05 61.72 62.51 64.38 64.35 64.34 64.80 65.29 65.80 66.02 66.07 66.55 66.46 66.14 66.39 66.69 67.70 67.95 68.56 69.20 70.22 69.75 70.20 68.90 69.82
38.47 37.57 37.93 36.21 32.53 26.95 25.42 31.36 42.45 42.09 42.71 43.52 44.96 46.57 47.00 47.17 48.37 50.02 52.16 53.80 54.69 54.84 56.06 57.61 58.29 59.84 60.71 62.03 62.58 62.29 62.25 62.77 63.29 63.59 63.93 63.93 64.24 63.77 63.81 64.87 65.74 65.36 66.03 67.34 68.12 68.02 67.58 67.34 67.76
40.41 37.49 38.26 31.98 28.83 31.07 30.03 29.97 43.11 43.77 44.98 44.59 44.65 45.62 45.94 47.74 48.05 49.09 50.02 51.40 53.45 54.95 55.33 56.94 57.52 58.33 58.95 59.29 59.94 60.60 61.60 61.67 61.85 61.88 62.25 62.49 62.17 62.55 62.73 62.99 63.14 63.55 64.43 66.40 66.03 65.08 65.13 65.24 65.00

GFSSGP_sfc_wetblb_078.txt.gz
Wetbulb
66.59 62.69 63.73 61.95 53.24 51.36 50.65 51.49 56.38 54.70 54.44 57.69 58.24 57.24 62.20 64.18 60.14 60.28 73.77 74.80 73.99 74.98 77.81 77.54 77.43 77.96 78.44 78.22 77.89 77.31 77.01 76.73 76.56 76.58 76.55 76.55 76.83 76.88 76.93 76.95 76.90 76.58 75.19 74.30 73.54 72.91 72.88 73.03 73.26
61.89 61.86 62.36 59.95 51.21 47.91 49.60 52.35 53.23 55.88 56.61 58.42 57.09 58.57 62.93 62.86 68.17 70.39 72.40 74.43 74.80 76.00 77.82 77.31 77.23 77.79 78.19 77.94 77.64 77.06 76.88 76.76 76.61 76.55 76.53 76.65 76.68 76.78 76.72 76.80 76.51 75.54 74.27 73.23 72.75 72.64 72.91 72.97 73.73
60.42 61.15 57.87 55.23 52.64 49.16 49.59 51.76 54.65 55.88 57.61 57.22 57.34 62.61 63.50 64.33 68.56 71.73 74.32 74.72 75.29 76.61 77.78 77.86 77.13 77.41 77.71 77.31 77.38 77.08 76.86 76.81 76.58 76.55 76.58 76.68 76.55 76.55 76.44 76.35 76.15 74.97 73.47 72.65 72.24 72.18 72.46 73.00 73.70
58.96 59.65 58.26 51.71 50.57 52.75 50.20 53.63 55.46 55.44 57.29 58.48 58.85 59.12 64.79 69.14 68.95 73.29 74.50 74.64 75.50 76.37 77.34 76.84 76.70 76.90 77.25 77.41 77.30 77.03 76.80 76.83 76.63 76.83 76.63 76.53 76.45 76.21 76.19 76.19 75.48 74.79 73.54 72.53 72.07 72.07 72.05 72.24 72.20
58.78 57.44 51.93 51.13 51.24 53.50 53.40 54.73 56.04 54.88 55.90 57.34 58.18 58.27 63.11 71.81 75.00 74.52 73.79 74.36 75.06 75.89 77.07 77.82 76.52 76.70 76.98 77.36 77.05 76.87 76.77 76.55 76.55 76.75 76.60 76.45 76.22 76.01 75.91 75.60 75.00 74.50 73.96 72.89 71.59 71.35 71.65 71.41 70.92
53.68 55.34 49.66 48.79 50.99 52.60 53.54 56.56 56.29 55.63 56.06 56.92 56.66 57.68 61.09 68.27 72.96 74.53 74.73 74.59 74.92 75.39 76.78 77.12 76.55 76.47 76.47 76.60 76.66 76.43 76.16 76.23 76.26 76.17 76.04 76.12 75.83 75.58 75.46 75.07 74.73 74.29 73.72 72.89 71.43 71.34 70.62 70.30 70.28
51.02 51.24 48.91 50.27 50.31 50.62 52.05 56.38 55.26 55.19 55.31 55.73 57.86 55.16 59.83 61.45 67.91 74.96 75.13 75.28 74.96 75.37 76.22 76.73 76.10 76.38 76.19 76.11 75.85 75.85 75.64 75.60 75.60 75.39 75.50 75.47 75.53 75.16 74.91 74.52 74.48 74.15 73.50 72.77 72.07 71.08 70.49 70.07 70.01
52.97 51.37 48.19 49.00 47.92 47.81 52.86 54.29 56.09 55.08 54.59 58.15 58.19 55.93 56.57 60.17 65.31 73.63 75.53 75.24 74.62 74.98 75.33 76.29 76.10 75.54 75.22 75.49 75.77 75.47 75.44 75.36 75.15 75.23 75.16 74.99 74.88 74.73 74.36 73.73 74.00 73.98 73.16 72.56 71.93 71.04 70.35 69.47 69.32
54.49 48.12 45.77 47.09 47.40 48.16 52.05 51.62 54.91 56.40 54.77 55.75 57.26 57.34 59.27 60.87 66.48 71.03 73.70 73.90 73.64 73.54 74.78 75.87 75.77 75.58 74.92 74.45 75.20 75.35 75.41 75.34 75.03 75.25 75.06 74.28 74.45 74.49 74.19 72.29 73.75 73.80 73.08 72.51 71.74 71.25 70.65 69.34 69.39
50.95 47.06 46.80 49.85 50.36 49.30 51.24 52.10 52.64 52.70 53.42 54.24 55.47 57.94 59.42 59.75 63.06 66.82 70.82 71.86 72.10 72.12 73.48 75.01 75.93 75.55 75.07 74.07 75.33 74.75 74.42 74.72 74.73 74.61 75.41 74.73 74.34 73.28 71.73 72.55 73.70 73.45 72.71 71.73 71.49 71.01 69.85 69.35 68.73
50.00 47.35 50.06 49.66 50.63 51.60 51.06 51.24 52.76 51.32 50.49 53.49 53.31 55.17 57.50 58.70 59.42 60.31 66.53 71.19 71.71 72.62 73.26 74.09 76.03 76.44 75.29 74.21 74.66 74.08 73.98 73.81 74.11 74.51 75.36 75.06 73.57 73.10 71.95 72.03 71.84 72.06 71.88 70.21 70.33 70.29 69.37 69.74 69.76
46.53 49.48 50.05 50.32 50.44 50.37 48.96 50.99 50.16 50.96 51.58 53.99 54.56 55.70 56.27 56.75 58.25 58.86 60.23 67.07 71.43 71.77 72.94 74.35 75.66 76.23 76.15 74.77 74.35 74.28 73.58 73.76 72.96 73.26 74.96 74.39 73.47 72.85 72.34 71.08 70.83 71.63 70.61 70.29 70.44 69.62 70.50 71.09 72.28
47.64 48.18 49.32 50.37 49.75 49.96 50.33 48.61 48.75 49.85 52.38 53.43 54.00 54.49 55.00 56.15 57.99 59.79 60.69 62.72 69.52 72.03 73.25 73.84 75.30 75.90 76.05 76.26 74.59 75.04 74.28 73.81 73.84 73.33 74.10 73.94 73.07 72.72 72.15 72.10 71.46 71.77 70.94 71.06 70.35 69.59 70.39 71.66 73.24
49.14 48.18 48.36 49.17 49.69 50.00 48.09 48.96 49.52 50.81 52.93 53.09 53.70 54.01 55.22 56.02 57.42 59.40 60.54 61.57 64.80 71.51 73.59 74.62 74.61 76.54 76.25 75.74 76.66 75.39 75.85 74.94 74.46 73.31 73.47 74.06 72.78 73.74 72.06 72.46 72.12 71.63 71.33 70.58 70.19 70.03 70.21 72.15 73.21
48.66 46.17 48.12 48.46 49.53 48.56 50.32 47.09 47.33 51.42 52.33 52.21 53.07 54.14 55.04 56.02 57.38 58.55 60.60 62.05 64.72 69.34 72.79 74.49 74.57 75.44 76.43 76.14 75.75 75.28 74.73 74.65 73.92 73.63 74.70 74.09 73.69 74.44 73.17 71.93 71.88 71.41 72.48 72.54 71.75 71.33 71.37 71.78 73.02
46.16 46.28 43.58 47.86 47.80 48.48 47.75 43.16 49.04 51.75 51.26 50.81 51.94 53.07 54.04 55.50 57.22 59.42 61.08 63.32 65.78 69.92 72.53 74.53 74.72 75.08 75.99 76.00 75.98 75.20 74.67 74.64 74.17 74.20 74.57 75.00 74.33 73.93 73.45 71.45 71.43 72.06 72.23 71.79 70.74 70.31 70.54 72.10 72.52
45.43 41.60 42.50 43.48 47.41 46.78 46.62 44.30 48.21 50.52 50.97 50.84 52.10 52.79 53.53 54.75 56.68 59.15 60.05 61.11 62.96 68.54 73.29 74.38 75.51 75.04 75.65 76.13 75.56 76.05 76.94 75.16 74.52 74.73 74.40 74.71 74.42 74.15 73.56 71.87 71.88 73.85 71.71 71.08 70.43 70.17 71.39 70.98 71.96
41.20 40.98 42.09 42.24 45.85 47.09 46.02 45.94 48.85 50.65 50.53 50.48 51.61 52.42 53.24 54.03 55.72 58.12 59.55 60.76 62.56 65.22 70.83 75.14 75.64 75.93 76.25 75.81 76.12 74.89 74.54 74.57 74.65 74.58 74.68 74.86 73.51 74.06 74.32 72.61 73.23 73.57 71.95 70.59 70.65 72.42 70.86 70.81 70.91
43.57 42.29 42.02 44.61 47.11 46.07 45.67 46.26 48.16 50.54 51.08 50.65 51.45 51.83 53.24 54.17 56.21 57.80 59.04 61.12 62.00 63.98 66.35 71.20 74.83 76.08 75.81 74.45 73.41 73.45 72.62 73.76 73.79 74.49 75.20 74.58 74.87 74.36 74.63 72.93 73.93 74.03 72.67 73.10 74.07 71.50 71.18 70.13 71.97
43.48 42.39 42.91 45.28 46.86 46.45 46.15 45.82 48.85 50.25 50.79 51.61 51.83 52.16 52.79 53.79 55.23 56.38 58.20 60.46 61.90 62.83 64.68 67.06 72.02 74.77 75.76 75.07 75.16 74.66 73.90 73.84 73.60 73.90 74.89 74.12 73.90 74.12 74.50 73.38 73.67 73.65 72.88 73.85 73.28 72.14 69.25 69.22 71.16
43.90 42.97 43.15 43.00 46.08 47.47 46.39 44.98 47.17 49.93 50.95 51.60 52.26 53.12 53.59 54.00 54.73 56.07 56.94 59.01 60.64 61.90 64.23 65.53 69.01 73.96 75.42 75.96 74.58 73.85 73.54 72.76 71.77 72.86 73.00 74.66 74.26 74.15 74.61 74.65 74.66 74.14 73.56 72.13 74.22 73.02 71.72 67.32 71.10
41.69 45.35 44.20 43.79 43.49 40.14 47.13 38.31 45.68 48.21 48.74 50.25 51.53 52.57 53.30 54.15 55.27 55.99 56.85 57.89 59.48 61.01 62.82 65.27 66.84 69.27 73.03 75.43 74.41 74.62 71.00 70.33 71.52 72.27 72.62 73.44 74.00 73.86 74.14 75.48 74.20 74.70 73.23 72.51 72.97 72.75 72.50 71.72 68.65
43.59 46.53 45.62 45.30 43.76 43.64 43.28 41.01 44.26 47.99 46.52 48.61 51.13 52.12 53.23 54.29 54.90 55.13 56.22 57.30 58.67 60.81 61.91 64.19 66.75 67.78 70.14 74.46 74.72 73.74 73.24 72.04 72.51 72.51 74.28 74.56 74.38 73.65 73.24 74.11 73.89 73.68 72.21 72.76 73.88 73.02 72.22 71.08 70.20
47.92 46.20 46.27 46.04 44.28 37.88 42.48 41.25 42.71 44.23 45.86 47.61 49.68 51.01 52.42 53.44 54.73 56.18 57.68 58.76 59.23 60.42 60.76 62.03 64.67 67.23 68.34 71.51 73.30 75.13 74.42 73.89 71.97 72.84 72.24 72.63 72.78 72.98 73.97 73.29 73.78 72.94 73.78 74.09 73.85 73.93 73.04 71.48 69.82
46.99 44.32 37.92 36.65 37.48 36.57 42.70 39.15 41.54 45.87 47.81 48.80 49.39 51.16 52.71 54.40 55.58 56.08 56.43 57.31 58.58 59.41 60.52 61.04 61.88 64.66 68.02 68.87 71.58 73.03 74.11 74.59 75.60 74.16 72.92 73.61 72.06 72.38 74.27 75.19 74.80 73.70 74.95 75.05 75.32 73.95 72.53 70.74 68.87
44.51 43.31 37.44 29.62 32.40 35.67 40.76 35.57 41.22 47.34 49.52 50.32 51.05 52.07 53.19 53.99 55.44 55.84 56.78 57.60 58.10 58.89 60.37 61.55 60.76 62.18 66.23 69.35 70.32 72.11 73.09 72.87 73.26 74.66 73.26 72.91 72.44 73.99 76.74 74.80 74.85 75.13 75.06 74.99 74.95 73.77 72.49 72.63 70.62
43.48 40.14 44.75 37.86 38.36 34.27 37.84 41.55 45.48 47.73 48.26 49.24 49.29 50.57 51.12 52.03 52.89 54.20 56.04 57.43 57.87 58.60 59.42 60.76 61.44 60.92 64.40 68.39 71.13 72.73 73.58 73.83 73.46 75.56 75.99 73.89 75.33 72.42 74.39 75.01 74.69 74.55 74.38 74.46 74.40 72.96 72.65 72.23 70.81
43.57 45.86 37.18 39.29 28.35 28.41 34.96 36.49 38.00 43.51 45.80 47.20 47.68 49.00 50.27 51.73 52.44 53.35 54.34 55.71 57.48 58.64 59.44 60.37 61.97 61.74 62.45 66.25 70.32 71.59 72.24 73.36 73.69 74.01 73.74 73.56 72.79 72.45 72.98 73.60 73.78 73.53 73.44 73.52 73.61 73.42 72.94 71.69 68.94
42.44 40.37 40.70 39.85 37.59 30.09 29.43 34.92 44.61 43.86 45.72 45.96 47.93 48.66 49.39 50.46 51.34 52.69 53.48 55.00 55.92 57.15 58.48 59.84 60.87 61.84 61.85 64.43 68.04 70.69 71.55 71.77 71.06 69.83 69.08 68.93 69.92 69.21 69.00 69.61 70.35 70.79 71.17 72.13 72.04 71.84 71.14 71.01 71.07
43.28 40.72 41.40 35.81 32.62 36.03 34.14 34.22 46.27 46.41 47.23 48.54 48.58 48.75 50.01 50.87 50.37 51.89 53.15 53.98 54.59 55.25 56.45 58.29 59.58 60.93 61.87 63.53 65.92 68.03 67.99 67.50 66.60 66.08 66.75 67.32 66.97 66.90 66.15 66.34 66.70 67.12 67.35 68.67 68.89 68.72 68.72 68.95 68.65

GFSSGP_sfc_wetblb_081.txt.gz
Wetbulb
66.47 65.30 64.51 62.25 54.26 53.39 52.66 55.70 60.17 58.44 57.55 59.51 60.19 59.16 60.15 63.44 62.24 62.02 74.36 75.41 74.56 77.32 77.88 78.29 78.09 78.30 78.12 77.69 77.46 77.11 76.63 76.83 76.63 76.61 76.86 76.63 76.83 77.18 77.40 77.26 77.11 76.65 75.48 74.79 74.19 73.63 73.34 73.44 73.86
63.20 63.03 62.77 59.19 52.67 49.82 51.90 57.41 56.43 59.02 59.53 60.17 59.85 59.58 59.85 61.50 68.59 70.83 72.75 74.27 74.65 77.64 77.99 77.74 77.81 78.27 78.32 77.87 77.39 76.83 76.83 76.81 76.60 76.58 76.66 76.71 76.73 77.01 77.11 77.01 76.78 75.73 74.72 73.82 73.02 73.13 73.32 73.48 74.03
61.70 62.53 57.94 55.60 53.11 50.51 51.94 56.82 56.32 58.40 59.30 59.30 58.58 62.48 62.98 64.86 69.21 71.98 75.85 75.02 75.12 77.32 77.54 78.18 77.79 78.01 78.37 78.12 77.21 76.78 76.65 76.73 76.76 76.71 76.73 76.73 76.75 76.75 76.70 76.73 76.51 75.21 73.71 72.97 72.81 73.01 73.32 73.77 73.81
60.02 59.49 58.36 52.73 51.80 54.70 55.28 54.96 57.27 56.88 58.50 59.55 59.26 58.78 65.03 72.91 72.32 73.82 75.82 75.18 75.36 76.44 76.79 77.19 77.58 77.81 77.91 78.17 77.71 77.03 76.86 76.81 76.78 76.68 76.71 76.70 76.63 76.64 76.62 76.55 75.98 74.96 73.80 72.91 72.58 72.69 73.24 73.79 73.86
59.69 57.00 52.33 51.64 52.54 55.36 57.09 55.99 56.60 56.39 57.16 58.19 58.69 59.25 64.40 71.47 74.82 74.63 73.88 74.56 75.09 75.72 76.67 78.03 77.27 77.43 77.61 77.84 77.61 77.31 76.83 76.73 76.58 76.73 76.78 76.73 76.54 76.34 76.44 76.18 75.38 74.71 73.89 72.92 72.05 71.90 72.34 72.68 72.11
54.69 56.11 49.76 49.77 52.31 54.54 57.20 57.76 57.11 56.62 57.35 57.71 57.76 58.28 62.59 66.08 73.65 74.01 74.22 74.70 74.80 74.93 76.95 78.28 77.06 77.22 77.20 77.16 77.11 77.10 76.64 76.59 76.62 76.55 76.45 76.57 76.39 76.26 76.09 75.50 75.13 74.61 73.93 73.12 71.71 71.21 71.20 71.06 70.38
52.61 52.96 50.09 51.21 51.88 53.00 56.15 58.29 56.86 56.57 56.86 56.60 59.32 56.89 62.00 62.06 66.92 75.10 74.62 74.74 74.93 75.10 76.17 77.39 76.74 77.39 77.12 76.74 76.69 76.46 76.40 76.33 76.31 76.10 76.00 76.03 76.11 75.88 75.54 75.07 74.85 74.45 73.94 73.11 72.20 71.28 70.40 69.82 69.02
53.23 52.97 50.58 50.78 49.80 51.51 57.22 57.18 58.36 57.06 56.19 60.41 59.02 56.01 58.63 61.48 66.03 73.17 75.18 74.74 74.15 74.92 75.28 76.30 76.27 76.17 76.87 77.52 76.53 76.30 76.25 76.12 76.02 75.92 75.89 75.80 75.65 75.43 75.09 74.36 74.45 74.28 73.73 72.97 72.04 71.21 70.39 69.69 69.65
55.44 48.45 46.69 48.93 49.26 52.57 56.78 54.46 56.94 58.69 57.16 57.56 58.41 58.69 60.76 61.65 64.05 69.85 73.38 73.70 73.43 73.55 74.57 75.61 75.29 75.30 75.30 75.22 76.87 76.12 76.18 75.97 75.69 75.90 75.70 74.75 74.65 74.89 74.65 72.95 73.90 73.86 73.11 72.30 71.68 71.07 70.66 70.44 70.32
51.96 48.23 48.49 51.33 51.67 51.86 54.04 53.26 53.71 53.56 56.45 56.05 57.13 59.78 60.54 61.13 61.76 64.47 69.91 71.47 71.95 72.50 73.32 74.94 75.67 75.23 74.77 73.70 76.00 75.97 76.44 76.66 76.54 76.14 76.12 75.19 74.80 75.28 73.15 72.73 74.05 73.03 72.32 71.56 71.34 71.06 70.43 69.54 67.87
51.57 48.39 51.19 51.97 52.58 52.94 52.34 52.69 54.00 52.01 51.90 55.42 56.07 58.29 59.35 59.76 60.93 60.78 61.98 69.29 71.38 72.46 73.32 74.31 76.69 77.72 75.88 74.26 74.86 73.81 74.15 74.54 75.39 75.63 76.41 76.03 74.64 74.96 71.55 72.11 71.67 71.61 71.67 69.47 69.72 69.39 68.50 68.42 68.71
48.83 51.43 51.72 52.59 52.93 52.21 50.79 52.11 51.12 52.02 52.79 54.43 55.56 56.91 57.12 57.69 58.39 59.14 60.45 61.99 69.13 72.50 73.25 74.24 75.50 77.11 77.90 74.71 74.38 74.70 73.77 74.21 73.44 73.33 76.23 75.75 74.43 75.42 73.40 71.07 71.36 72.45 69.68 70.20 69.93 68.19 71.24 71.39 70.49
49.66 50.82 51.41 52.36 52.46 52.05 51.89 50.05 49.93 51.02 53.95 54.74 54.84 55.15 55.07 56.34 57.81 59.72 61.42 62.27 64.24 70.57 73.46 73.74 75.53 77.11 77.56 78.57 75.28 75.29 74.81 74.36 74.00 73.37 75.31 74.65 73.72 75.00 73.44 73.41 71.64 70.85 70.34 69.79 71.14 70.47 71.48 70.41 72.23
51.74 50.97 50.78 51.35 51.23 51.89 50.22 49.91 50.14 51.35 54.31 53.78 54.10 54.56 55.40 56.07 57.24 58.77 60.94 61.71 63.82 66.33 71.96 74.13 74.68 77.79 77.53 77.08 77.82 76.36 76.29 75.60 74.79 74.01 74.07 75.78 74.79 75.59 72.68 73.45 71.64 71.16 71.22 70.98 71.12 70.96 70.31 70.36 72.79
50.77 48.44 49.76 50.39 50.88 50.26 52.01 48.88 48.67 52.22 53.59 52.95 53.43 54.16 55.60 56.44 57.36 57.71 60.65 62.36 63.67 65.17 68.08 75.82 76.57 77.48 78.34 78.05 77.46 76.36 75.51 75.30 74.46 74.25 74.09 74.29 75.87 76.03 73.85 72.77 72.58 72.27 73.15 76.16 73.98 73.76 71.67 70.38 71.65
48.15 48.51 45.18 50.12 50.64 50.42 49.33 44.94 50.70 52.81 51.96 51.26 52.43 53.56 54.24 55.62 56.88 58.59 60.09 62.14 65.03 66.74 69.93 74.49 74.96 76.52 78.26 77.94 77.17 76.17 75.73 75.38 75.52 74.55 74.50 74.76 74.60 75.57 74.59 72.22 72.91 73.12 73.42 72.45 70.79 70.32 69.71 69.07 70.53
47.40 43.47 45.30 46.96 50.51 49.38 48.18 46.16 50.16 52.46 52.29 51.21 52.17 52.73 53.68 54.73 57.16 59.34 60.13 61.68 63.59 65.24 69.03 72.73 75.48 74.99 78.10 77.19 77.11 76.97 77.49 76.23 75.63 75.86 74.78 74.60 74.92 74.10 74.43 72.72 72.78 75.35 71.92 72.03 70.98 70.80 70.59 70.00 71.39
43.69 43.84 44.81 44.35 47.84 48.62 47.12 46.97 49.51 51.48 51.63 51.92 52.52 52.77 52.72 53.95 55.37 58.11 59.70 61.35 62.53 64.84 69.08 73.67 76.38 76.88 78.99 77.40 76.38 75.57 75.44 75.72 75.66 75.13 74.53 75.61 75.00 74.02 74.37 73.15 73.54 74.15 72.27 71.58 71.51 72.26 71.38 70.47 69.97
46.24 45.31 44.40 46.67 48.40 47.41 47.23 47.69 49.41 51.45 51.90 51.90 52.67 53.39 53.85 54.26 56.18 58.00 59.23 60.42 61.47 65.49 69.04 71.24 74.98 79.01 77.25 75.77 75.37 74.45 74.40 75.29 75.56 76.00 76.80 77.12 75.98 75.11 73.70 73.12 73.88 74.18 72.67 72.62 73.77 73.02 72.46 70.45 71.58
46.19 44.38 44.45 47.13 48.73 48.09 47.56 47.34 50.42 51.81 52.18 53.03 53.38 53.69 54.04 55.04 55.91 57.11 59.56 61.86 63.81 66.33 68.48 69.86 72.21 77.04 78.19 76.48 76.15 75.58 75.31 75.36 75.52 75.65 76.75 75.14 76.29 75.37 72.83 72.49 73.53 73.68 72.71 74.37 74.44 73.03 70.47 70.70 71.03
45.73 44.51 45.01 45.09 47.80 48.84 47.36 45.86 48.28 51.59 52.96 53.71 53.79 54.55 54.71 54.90 55.36 56.67 57.53 59.42 60.35 62.72 65.52 67.01 70.07 72.32 77.46 77.32 76.93 76.30 75.98 76.43 74.65 75.68 75.64 76.46 76.16 75.62 76.26 75.62 75.25 75.24 74.11 71.97 72.51 73.41 71.28 67.54 70.57
43.14 47.51 46.41 45.04 44.36 41.28 48.80 40.16 47.38 49.96 50.80 52.13 52.92 54.06 54.52 55.08 56.05 56.76 57.47 58.78 59.96 60.94 63.58 66.50 69.01 70.93 70.80 77.74 75.17 75.41 73.46 72.94 74.47 74.47 75.02 75.92 75.52 75.05 75.85 75.89 75.68 76.49 74.52 73.52 72.48 74.65 73.43 72.01 68.19
45.02 48.49 46.96 46.86 45.25 45.06 45.20 43.03 46.40 49.82 48.31 50.46 52.27 53.26 54.10 54.87 55.57 55.89 57.01 58.20 59.96 60.89 61.52 64.59 68.18 69.91 71.85 71.30 75.86 74.70 74.56 73.62 74.06 73.88 74.43 75.14 75.81 75.62 75.18 75.59 76.54 76.18 74.92 74.89 75.12 74.97 74.42 72.54 70.56
48.87 47.32 47.23 47.51 45.87 39.89 44.62 44.20 44.56 46.79 47.73 49.20 51.46 52.80 53.54 54.19 55.21 56.81 58.55 59.57 59.74 60.66 61.10 62.99 67.14 68.38 69.71 70.84 70.82 74.37 74.04 73.50 72.37 73.38 72.91 73.57 73.47 73.31 75.32 75.12 75.48 76.21 75.45 75.35 74.28 75.15 74.34 72.59 72.00
48.09 45.64 40.14 38.98 39.23 38.73 46.10 42.85 44.56 48.03 49.09 50.11 50.53 51.73 53.73 55.56 56.19 56.84 57.08 58.12 59.40 60.01 60.77 61.42 62.35 65.39 67.33 68.25 70.21 71.45 74.27 75.35 73.61 74.21 73.71 73.40 73.70 73.98 74.01 75.06 74.96 75.18 75.58 75.23 74.84 75.32 74.48 73.09 72.04
46.52 45.26 39.16 32.02 34.87 38.75 44.81 39.14 42.90 48.48 51.01 51.58 51.94 52.24 53.13 54.02 54.96 55.47 56.36 56.76 58.07 59.43 60.43 61.04 61.41 62.31 64.59 66.16 68.22 71.31 73.25 73.10 73.83 74.88 73.76 73.68 73.16 74.77 76.34 75.37 74.82 75.62 75.48 75.29 76.45 76.25 75.40 73.88 72.36
44.52 42.46 46.54 40.94 41.89 37.04 39.95 43.33 47.17 48.98 50.11 51.30 50.19 50.94 51.65 52.30 53.18 54.80 56.04 56.47 57.28 57.53 59.34 60.34 61.20 61.55 63.15 64.17 66.50 70.47 72.26 73.60 72.85 74.05 74.89 74.28 74.51 74.85 75.95 75.65 75.73 74.79 75.70 76.40 76.63 74.60 73.60 74.65 74.14
46.34 47.46 40.10 41.59 32.20 31.59 37.83 39.01 39.83 44.63 45.78 47.63 48.89 49.45 51.00 52.04 52.49 53.50 53.73 54.90 56.52 58.05 58.63 59.82 60.74 61.14 62.62 64.25 64.78 66.62 72.12 73.35 74.02 74.75 74.12 74.20 75.12 75.89 74.38 75.98 76.01 75.70 75.59 75.01 75.13 74.37 74.29 73.49 72.61
44.13 42.95 43.20 42.50 40.07 32.80 32.04 36.72 46.69 45.78 47.16 47.28 48.34 49.89 51.16 52.12 52.76 53.32 53.82 54.91 55.30 57.06 57.48 58.44 58.95 60.24 61.06 63.10 64.36 65.61 69.96 71.81 72.79 72.58 73.21 74.43 74.42 75.55 72.86 73.77 74.85 73.77 74.05 74.32 74.01 74.04 72.81 72.18 72.75
46.24 43.68 42.99 37.82 36.45 39.08 37.20 37.07 48.57 48.22 48.40 48.81 49.14 50.15 51.76 52.70 53.35 54.02 54.02 54.64 54.81 54.08 55.34 56.53 57.87 58.83 60.72 61.65 63.44 64.65 68.38 71.44 71.98 72.16 71.30 71.24 69.78 69.88 72.27 72.30 72.33 71.37 71.42 73.40 71.98 71.05 70.96 70.08 70.35

GFSSGP_sfc_wetblb_084.txt.gz
Wetbulb
64.30 62.81 63.77 61.18 52.80 53.19 50.09 53.15 57.79 57.36 59.00 61.18 60.21 59.31 59.17 59.44 62.43 61.80 74.03 75.30 76.53 76.24 77.87 77.86 77.53 77.66 77.73 77.51 77.07 76.67 76.54 76.92 76.87 76.59 76.77 76.74 77.21 77.50 77.35 77.12 76.73 76.57 76.46 75.56 74.69 73.67 73.75 73.96 73.94
61.69 61.96 61.12 57.22 50.25 47.33 49.75 55.86 55.95 58.91 59.25 60.22 59.75 59.08 58.34 59.26 69.42 70.42 72.25 75.36 76.69 76.73 77.64 77.49 77.73 77.48 77.71 77.38 76.94 76.42 76.72 76.77 76.64 76.64 76.72 76.74 77.08 77.37 77.19 77.12 76.78 76.14 75.38 74.23 73.54 73.39 73.73 74.38 74.28
60.70 60.67 55.96 53.19 50.55 48.08 50.21 55.56 57.33 59.50 59.96 59.43 58.73 60.99 61.05 65.87 69.89 72.71 74.49 76.53 76.60 76.73 77.50 78.10 77.71 77.36 77.56 77.48 76.72 76.47 76.59 76.64 76.54 76.64 76.64 76.82 76.91 77.06 76.89 76.80 76.40 75.65 74.32 73.41 73.15 74.10 74.60 74.59 74.23
58.65 58.23 56.65 49.94 49.29 52.65 53.97 56.73 57.19 58.48 58.76 59.81 59.82 58.07 68.59 72.12 71.20 73.60 75.68 75.46 76.64 76.08 76.71 77.48 77.90 77.68 77.58 77.48 76.97 76.56 76.66 76.66 76.54 76.62 76.67 76.74 76.91 76.78 76.63 76.62 75.75 75.09 74.42 74.11 74.11 74.23 74.55 74.52 74.07
56.92 55.76 50.30 49.01 50.07 53.89 56.62 58.03 56.93 56.02 57.30 58.31 59.17 58.91 65.43 71.18 73.86 73.76 74.30 74.43 75.24 75.42 77.47 77.44 77.68 77.87 77.83 77.68 77.30 76.87 76.59 76.49 76.36 76.49 76.74 76.71 76.65 76.48 76.56 76.22 75.47 74.74 74.14 73.88 73.82 73.72 73.78 74.01 73.73
52.34 54.21 47.76 47.26 50.20 53.95 56.63 59.05 58.56 56.15 57.43 57.79 57.13 58.28 61.16 68.18 73.21 72.22 73.04 74.00 74.99 74.66 77.04 76.67 77.55 77.59 77.49 77.55 77.27 76.92 76.51 76.53 76.46 76.46 76.49 76.63 76.43 76.33 76.15 75.61 75.22 74.66 74.17 73.65 73.01 72.70 72.56 72.29 71.96
51.15 50.99 47.99 48.89 50.32 52.54 55.31 59.08 57.14 56.05 56.39 56.35 58.93 56.02 59.89 62.32 69.05 73.82 73.40 73.65 73.86 74.89 76.81 76.09 76.03 77.44 77.50 77.11 76.84 76.70 76.49 76.37 76.25 76.19 76.12 76.19 76.17 76.00 75.70 75.21 74.97 74.54 74.02 73.29 72.56 71.96 71.36 70.56 70.07
52.39 51.85 48.74 49.62 49.06 50.11 56.34 58.07 58.94 57.22 56.42 59.96 59.76 54.94 56.99 61.12 65.32 72.37 73.64 72.98 72.98 73.56 76.80 75.64 75.43 75.89 76.51 76.64 76.91 76.70 76.51 76.39 75.98 75.93 76.16 75.96 76.00 75.77 75.40 74.47 74.59 74.50 73.90 72.95 72.22 71.28 70.65 69.97 69.88
53.70 47.54 46.54 48.30 49.80 51.95 56.19 56.21 59.40 59.80 56.92 58.53 59.11 58.17 59.80 61.56 63.74 68.07 72.52 72.59 71.98 73.01 75.33 75.15 75.09 75.67 75.50 76.03 76.60 76.49 76.57 76.39 75.93 76.00 76.01 74.91 74.32 74.22 74.02 73.38 74.19 74.04 73.45 72.83 71.90 71.12 70.52 70.29 70.34
50.15 46.90 46.43 50.39 52.04 52.32 54.54 55.09 56.00 54.91 55.03 56.27 58.14 60.47 60.23 60.90 61.19 62.43 68.43 70.82 71.17 71.46 73.12 74.65 74.69 74.58 74.68 74.88 76.42 76.25 76.23 75.99 75.71 75.42 75.49 74.82 74.46 73.84 73.54 73.10 74.07 73.80 73.10 72.46 71.80 71.16 70.98 70.20 66.00
49.72 47.22 49.93 50.38 51.86 52.68 52.42 52.56 54.54 52.87 51.92 55.25 56.74 58.76 59.91 60.80 61.27 60.83 61.11 68.46 70.44 71.85 72.34 73.91 74.29 74.46 73.95 73.61 75.96 75.78 76.09 75.87 75.92 75.72 75.93 75.12 74.34 74.65 72.87 72.46 71.72 71.52 72.26 69.66 69.82 69.14 67.65 66.33 65.92
47.37 50.45 51.08 51.79 52.70 52.28 51.34 53.39 52.01 52.45 52.91 55.83 56.34 56.89 56.98 57.07 58.31 58.21 58.81 59.88 67.58 67.30 72.93 74.18 74.55 74.59 74.08 73.53 74.37 73.82 73.96 74.81 75.14 75.70 76.16 74.75 74.26 74.52 71.55 71.13 70.28 70.55 69.11 67.92 67.25 66.86 66.70 66.93 68.13
48.38 49.89 51.42 52.00 52.15 52.42 52.67 51.22 51.19 50.71 53.19 54.57 54.80 55.25 54.95 55.77 57.26 58.07 59.51 60.79 63.63 67.90 69.20 73.21 75.11 74.85 74.70 76.75 74.58 73.41 72.37 73.21 73.37 73.81 74.84 74.45 72.95 73.12 71.81 71.53 70.75 69.53 68.97 67.56 68.37 67.32 67.53 68.60 69.86
50.82 50.33 50.69 51.59 51.36 51.82 50.17 50.03 50.55 51.28 53.17 53.01 53.89 54.13 54.28 54.87 55.80 57.12 58.61 60.02 64.82 65.79 70.70 71.26 76.06 75.28 75.74 74.55 77.88 74.26 72.66 73.55 72.65 72.89 72.94 73.96 72.77 73.84 72.19 71.96 72.62 69.06 68.98 68.08 68.17 69.76 70.97 69.69 69.39
51.26 48.25 50.00 50.09 50.61 49.72 51.23 47.99 48.51 52.02 52.68 52.39 53.19 54.03 54.91 56.12 56.89 57.68 60.48 62.11 64.85 65.96 68.20 74.58 74.92 76.55 75.81 75.03 76.22 77.22 75.29 73.90 72.29 72.40 74.32 72.39 74.04 74.35 71.57 71.18 71.26 71.19 69.85 72.63 69.50 71.56 70.92 70.51 69.63
48.30 48.45 44.26 49.21 49.93 50.39 49.88 44.12 50.25 53.07 52.54 51.47 52.61 52.99 54.05 55.89 56.84 59.50 61.58 63.53 68.94 69.15 70.23 72.73 74.15 76.86 76.36 75.86 75.23 76.11 74.45 74.11 73.63 72.66 72.62 73.23 74.04 74.16 71.98 70.66 70.83 71.04 72.73 72.67 71.92 71.09 69.39 68.33 68.64
46.73 41.83 43.98 45.98 50.64 49.81 48.56 45.51 49.97 52.88 52.28 51.26 52.59 53.15 53.80 55.01 57.50 59.86 62.62 62.92 68.92 67.53 67.86 69.87 73.38 75.12 76.52 76.32 75.32 75.12 76.39 75.47 74.73 73.18 73.11 72.93 73.02 73.21 71.78 70.31 70.53 72.05 72.18 71.56 70.76 70.31 69.23 68.06 68.12
42.40 43.05 44.66 44.76 48.38 48.91 46.76 46.65 49.29 50.95 51.09 51.84 52.72 52.88 53.07 53.64 55.71 60.25 61.66 62.35 66.00 67.96 69.59 69.38 71.94 77.15 76.99 76.46 76.16 75.64 74.92 74.67 74.61 74.18 72.47 73.26 72.29 72.69 73.14 70.70 70.93 72.60 70.88 70.74 70.28 69.31 69.14 68.78 69.51
46.05 44.85 44.49 46.80 48.62 46.88 46.45 46.84 48.66 50.94 51.41 51.27 52.39 53.27 54.47 54.79 55.82 58.44 61.42 62.85 64.59 67.19 67.69 69.32 69.85 77.37 76.87 75.95 74.49 74.19 73.40 74.08 74.15 73.31 74.98 73.54 72.68 72.52 71.48 71.46 71.91 71.52 70.02 69.78 70.19 69.78 69.53 67.46 69.65
46.29 44.19 44.01 46.68 48.19 47.53 46.97 46.52 49.27 50.83 51.37 52.56 53.56 54.17 54.96 56.08 56.62 57.69 59.19 62.88 63.90 65.79 69.20 69.17 70.04 72.30 76.35 74.47 75.14 74.69 73.72 73.98 74.40 74.70 73.98 74.59 73.25 72.99 71.42 71.22 70.18 70.42 69.39 69.88 70.44 68.98 67.51 68.79 69.77
45.42 44.19 44.40 44.08 47.33 48.84 47.11 44.95 47.24 50.19 52.29 53.38 54.02 55.37 55.14 56.17 57.46 59.20 60.90 61.10 61.63 64.76 67.15 67.41 68.22 70.67 71.64 75.70 75.12 74.97 74.29 73.38 72.61 73.19 73.49 73.87 73.82 73.56 72.17 71.96 70.15 69.93 70.18 69.74 69.93 70.93 69.24 66.36 67.57
42.85 47.31 46.44 45.44 44.06 39.66 47.11 38.60 46.25 49.28 50.21 52.02 53.16 54.65 54.92 55.91 56.82 57.87 59.43 60.66 61.90 63.10 63.89 65.01 68.20 69.37 69.79 69.84 73.18 73.32 71.79 70.53 71.27 72.47 73.36 72.68 74.40 74.23 72.58 72.26 71.80 70.53 70.92 69.62 70.66 71.13 70.27 69.26 66.64
44.52 48.05 46.82 46.13 44.31 43.77 43.90 41.30 45.26 49.59 48.15 50.42 52.38 53.21 53.94 54.94 55.86 55.82 57.37 58.97 60.78 62.37 64.58 66.70 68.39 67.73 68.48 69.67 68.02 70.36 69.92 71.82 72.57 72.64 72.80 73.34 73.72 73.75 73.32 73.00 72.55 71.05 71.14 71.86 71.09 70.64 71.30 70.30 68.02
48.99 46.74 46.38 46.17 44.30 37.78 42.94 42.63 43.27 46.15 47.77 49.45 51.59 52.48 53.05 54.02 55.64 57.01 58.45 59.91 60.29 61.65 61.95 63.55 65.82 67.60 67.83 68.93 70.58 67.84 69.18 69.90 70.60 70.60 70.31 70.85 71.92 72.97 73.36 73.41 73.34 73.46 71.96 72.70 72.08 72.99 72.01 71.59 69.85
48.01 44.31 37.42 36.79 37.57 36.58 45.71 42.14 45.13 48.45 49.57 50.01 50.40 51.19 52.51 53.61 54.28 54.98 55.54 56.50 58.34 58.85 60.09 60.86 61.70 62.79 64.95 65.31 65.76 67.36 68.14 69.02 69.69 70.58 69.85 70.48 70.34 71.84 72.09 72.19 72.44 72.75 73.14 72.70 73.12 71.89 72.45 72.10 70.89
45.74 44.97 39.02 32.23 33.98 37.52 44.56 39.49 43.53 49.46 51.07 51.87 51.87 52.56 53.05 53.32 54.59 54.69 55.47 56.91 56.29 57.76 59.46 59.79 60.20 61.18 63.38 64.21 63.56 64.45 64.93 67.69 68.90 70.21 70.63 70.27 70.18 70.41 72.31 72.98 72.63 72.99 73.31 73.29 72.92 72.23 71.81 72.35 70.99
44.80 41.92 46.48 40.52 41.82 37.40 40.36 43.74 47.74 49.03 49.94 51.02 50.95 51.78 51.57 52.74 54.39 54.20 54.56 55.78 56.38 57.38 58.80 59.09 59.50 60.49 61.46 61.67 63.87 64.79 65.08 64.44 67.44 70.09 70.98 71.19 71.58 71.71 71.59 72.75 72.61 72.75 72.95 73.23 72.58 71.69 71.34 71.48 71.45
46.31 48.01 39.85 40.88 31.70 30.82 37.86 39.03 40.14 44.43 46.01 47.86 48.62 49.34 50.40 51.95 52.59 54.40 55.07 55.96 57.53 57.77 57.68 60.08 60.42 59.53 60.36 61.20 62.47 62.46 64.04 64.27 65.34 69.27 70.14 70.72 70.90 71.80 71.74 71.79 72.70 72.70 72.67 73.08 72.41 71.84 71.92 72.25 71.91
43.59 42.48 43.18 42.79 40.55 32.67 31.06 36.72 47.23 45.82 47.28 47.07 47.96 49.29 50.60 51.95 52.19 53.18 54.05 55.63 55.87 56.80 56.71 57.24 58.03 57.34 55.95 58.71 60.81 61.89 61.55 64.21 63.97 66.69 68.88 70.29 70.09 71.24 71.26 72.17 72.58 71.67 72.24 72.28 71.62 71.25 71.44 70.39 70.19
46.71 43.57 43.65 37.26 35.83 39.85 38.80 37.35 48.54 48.91 48.73 49.57 48.87 50.84 51.24 52.58 52.67 53.01 53.51 54.43 54.36 54.96 55.43 55.73 57.64 57.24 56.85 57.69 59.25 60.34 60.46 63.32 64.30 65.75 67.87 69.29 69.35 70.41 71.17 65.31 67.17 71.03 69.22 67.02 68.58 68.94 70.61 70.10 70.31

GFSSGP_sfc_wetblb_087.txt.gz
Wetbulb
62.16 58.67 59.98 56.27 46.69 44.78 43.13 47.45 53.37 53.24 54.85 56.20 56.86 56.24 57.49 63.84 62.78 58.37 72.15 74.75 75.53 75.95 76.73 76.83 77.38 77.61 77.49 77.13 76.65 76.62 76.82 76.62 76.55 76.47 76.87 77.14 77.12 76.85 76.80 76.97 77.00 77.11 76.76 75.75 74.19 73.89 73.99 74.16 73.99
57.71 59.64 56.93 51.95 42.70 38.11 43.28 51.23 51.38 54.32 57.00 56.69 56.56 56.71 59.38 64.37 69.41 69.55 71.01 75.32 75.70 76.15 76.03 76.15 77.34 77.33 77.54 76.95 76.49 76.49 76.72 76.65 76.42 76.47 76.82 77.19 77.04 76.94 76.72 76.58 76.41 76.26 75.43 74.63 73.59 73.68 73.98 74.06 73.90
59.75 58.21 49.55 45.70 42.59 40.83 44.11 51.21 52.96 56.45 58.06 57.36 56.49 59.66 65.42 65.72 70.95 70.57 73.88 75.58 76.09 75.48 76.16 76.43 77.26 77.28 77.33 77.13 76.44 76.34 76.56 76.47 76.40 76.57 76.72 77.03 77.01 76.66 76.51 76.40 76.05 75.67 74.42 73.62 73.39 73.64 74.89 74.94 74.16
54.48 51.65 49.84 42.22 41.44 47.03 49.40 52.74 54.93 55.93 56.69 57.68 58.35 63.15 68.45 70.54 70.97 72.85 75.05 75.67 74.75 75.43 76.48 77.28 77.23 76.93 77.21 77.03 76.59 76.54 76.49 76.34 76.40 76.44 76.56 76.73 76.90 76.40 76.35 76.14 75.55 75.19 74.72 74.32 74.07 74.87 74.98 74.98 74.68
50.71 48.00 41.81 40.42 43.20 48.14 51.96 54.75 55.81 53.77 56.37 55.39 57.57 62.01 64.89 69.95 72.05 73.71 74.60 75.35 73.78 75.29 76.14 76.75 77.12 77.00 77.05 77.01 76.65 76.59 76.36 76.16 76.21 76.42 76.56 76.68 76.32 76.27 76.23 75.89 75.43 74.69 74.43 74.40 74.11 74.55 74.45 74.40 74.28
44.62 46.34 37.97 40.03 43.98 49.06 52.39 55.20 56.15 55.91 54.32 54.98 55.59 57.53 57.67 68.83 69.59 70.38 74.54 73.80 74.31 75.20 75.93 76.43 77.48 77.02 76.75 76.63 76.40 76.16 76.02 76.05 76.16 76.21 76.18 76.32 75.99 75.99 75.90 75.36 75.03 74.53 74.27 74.20 73.93 73.61 73.46 73.33 72.84
41.89 41.83 40.46 41.44 44.17 47.41 51.24 55.98 55.29 55.38 54.24 54.20 56.99 54.64 55.60 59.54 67.06 70.77 70.76 73.81 75.02 75.60 75.20 75.78 76.47 77.09 77.05 76.42 76.06 75.91 75.84 75.87 75.69 75.66 75.63 75.86 75.79 75.81 75.49 75.11 74.55 74.28 73.68 73.31 72.71 72.36 72.09 71.34 70.85
45.51 42.83 41.01 44.37 44.13 45.07 51.89 55.49 57.30 57.17 56.30 59.19 58.29 53.26 51.70 57.22 61.95 71.93 69.96 70.76 74.30 74.82 74.51 74.73 75.58 76.28 76.02 76.00 76.35 76.00 75.87 75.76 75.53 75.60 75.63 75.48 75.58 75.61 75.16 73.92 74.11 74.05 73.48 72.71 71.92 71.22 70.40 69.55 68.91
48.12 40.70 38.84 41.86 44.83 47.50 51.76 52.47 57.37 59.39 57.82 57.68 58.59 56.66 57.90 59.24 59.80 65.13 69.44 69.02 73.49 74.69 73.70 73.68 74.35 74.89 75.09 75.40 76.28 76.18 76.55 75.99 75.55 75.71 75.47 74.54 74.01 73.85 74.07 73.49 74.13 73.77 73.16 72.42 71.52 70.45 69.61 69.02 69.18
42.15 38.97 40.87 45.80 47.59 47.63 49.74 52.21 55.08 55.93 56.31 55.39 56.93 59.05 60.92 59.62 56.83 57.57 67.02 67.35 67.97 72.35 72.75 72.95 73.29 73.56 73.88 75.54 75.10 75.08 75.27 75.23 74.54 74.58 74.35 73.45 72.25 72.21 72.98 72.77 73.96 73.67 73.10 72.47 71.60 70.70 70.13 69.93 64.00
43.65 40.61 45.35 47.54 48.83 49.50 48.88 50.41 55.77 54.94 52.46 55.34 55.25 56.61 57.68 58.19 56.13 55.30 55.03 60.93 64.96 69.32 69.38 71.18 72.98 73.39 72.95 74.20 74.25 73.88 74.18 74.56 73.88 73.92 73.52 72.13 72.06 72.22 72.22 70.60 71.54 70.09 71.97 68.95 69.46 67.97 66.65 64.35 63.01
40.60 45.89 46.86 47.82 49.77 49.25 47.90 51.25 49.56 51.48 52.84 54.60 54.53 55.59 54.12 53.86 55.14 56.05 53.66 54.82 58.11 67.02 69.94 69.03 71.62 72.33 72.67 73.30 74.02 74.12 73.99 73.80 73.34 73.21 73.44 72.60 71.35 71.29 69.17 69.40 68.89 68.00 67.90 65.80 65.16 64.26 63.52 62.78 62.98
42.55 45.34 47.68 49.03 49.04 47.91 50.68 47.69 47.17 48.80 52.46 52.66 52.97 53.41 52.78 52.79 53.25 54.60 54.59 54.70 55.55 63.83 68.79 65.40 70.49 71.79 71.28 72.49 73.47 73.47 73.78 73.88 73.81 73.56 73.94 72.85 71.46 69.46 69.02 68.24 68.23 67.86 66.23 65.36 63.62 63.00 63.31 62.54 62.87
45.78 46.33 46.84 47.40 47.69 48.07 46.41 47.34 46.64 49.07 52.58 51.78 51.81 51.38 51.97 52.61 53.21 53.49 54.27 53.65 55.07 59.70 68.73 69.84 71.17 71.03 70.06 68.49 71.32 72.07 72.31 73.33 73.43 73.70 73.92 73.33 71.88 70.54 69.27 68.15 67.53 67.57 66.38 64.94 63.73 63.50 63.25 63.16 64.64
48.73 44.67 46.55 46.59 46.13 45.76 47.45 44.56 45.13 48.77 50.36 50.10 50.41 51.21 52.01 52.44 53.70 53.33 53.94 53.97 55.64 57.62 66.88 67.30 68.13 68.14 65.24 65.77 70.57 72.07 70.90 72.01 71.77 71.92 72.72 73.24 71.42 70.22 70.24 67.27 68.53 67.68 66.31 64.77 63.16 64.63 64.66 64.39 65.01
44.67 43.28 36.97 43.63 46.62 47.58 45.86 39.31 47.07 49.55 48.22 48.17 49.66 51.30 52.33 52.46 53.17 54.93 56.20 56.80 59.04 59.45 67.24 70.10 68.66 65.49 63.66 68.40 72.49 73.55 71.77 71.74 71.53 71.25 71.47 72.41 72.10 70.79 70.43 68.49 68.35 67.77 65.96 66.52 65.09 63.93 64.93 65.30 64.47
41.13 35.36 38.10 41.63 46.99 46.26 44.03 40.77 47.25 49.31 48.90 47.40 48.05 49.63 50.84 51.21 53.05 54.24 55.29 56.88 57.50 58.18 59.72 66.77 68.25 65.07 65.21 72.36 72.72 73.13 72.47 71.97 71.20 70.94 70.61 71.26 71.36 70.99 70.68 69.67 68.30 68.44 67.17 65.88 67.35 65.68 65.30 63.70 62.89
36.13 37.30 39.87 40.85 45.22 46.08 42.65 42.54 46.06 48.24 48.46 47.98 47.95 48.75 49.58 50.49 51.46 53.30 56.02 56.66 58.28 60.83 62.07 61.25 63.17 71.26 72.84 73.85 72.43 72.07 72.89 72.22 71.95 71.47 70.72 70.76 70.80 71.57 70.63 69.53 68.28 68.77 68.52 67.24 68.21 67.25 66.04 64.99 64.61
44.02 41.83 40.32 44.12 47.56 44.93 42.21 42.07 44.67 46.55 46.55 45.92 46.94 48.14 48.63 49.47 52.10 52.93 54.77 55.75 55.63 58.28 59.19 59.10 59.78 63.57 72.04 70.77 72.22 71.27 71.26 71.92 72.15 71.72 71.06 70.64 70.74 70.86 70.78 69.54 68.11 68.73 67.97 66.91 66.91 66.46 65.30 64.49 64.82
44.24 40.93 39.94 43.81 46.49 43.18 42.36 42.16 44.80 46.35 46.64 47.25 47.71 48.37 48.81 49.88 50.96 52.57 52.84 54.67 55.00 54.55 58.36 59.24 58.51 60.06 66.69 71.27 71.40 72.63 71.91 71.70 72.51 72.38 71.63 71.44 71.37 71.09 70.87 70.77 69.37 69.20 69.07 67.23 66.99 66.92 65.52 65.40 65.86
41.67 40.02 40.65 40.97 44.54 44.38 42.73 39.96 42.86 46.82 47.88 49.10 49.34 49.79 50.30 49.94 50.32 51.75 54.52 55.19 56.56 56.26 57.66 60.03 60.60 60.71 60.84 67.42 71.16 70.16 70.86 70.32 70.00 71.03 72.06 72.05 71.88 71.24 70.75 70.17 70.00 68.98 69.02 67.99 67.68 67.06 65.79 64.54 65.47
38.48 44.72 44.87 43.65 40.23 33.65 42.71 30.91 40.26 44.55 45.90 47.97 48.78 47.84 49.22 50.17 50.99 51.88 52.43 53.83 54.83 55.93 58.12 58.01 62.11 63.96 63.75 63.00 64.90 68.10 67.75 68.20 69.79 70.27 71.28 71.87 71.90 71.37 70.59 69.98 69.73 68.89 68.38 67.88 67.46 67.84 66.71 65.37 64.19
42.44 46.49 44.61 43.50 38.87 37.32 39.19 33.78 38.64 43.82 44.24 46.46 47.44 48.73 48.83 50.13 51.20 51.60 52.62 54.19 54.47 55.48 55.58 58.05 58.21 59.46 60.25 61.08 63.27 62.56 63.84 67.21 68.09 69.24 68.78 70.26 71.42 71.50 71.35 70.59 69.90 69.13 68.26 67.59 67.75 67.70 68.38 67.27 65.33
48.75 44.36 42.42 40.46 36.99 30.31 37.99 36.93 37.51 42.42 44.08 46.22 47.52 48.68 49.57 50.09 50.82 51.04 51.92 52.47 52.47 53.23 54.00 54.58 56.04 56.72 58.23 58.66 59.29 60.26 62.15 63.20 65.30 66.50 67.46 68.40 69.57 70.95 71.21 71.77 70.57 69.75 68.44 68.41 68.39 68.48 68.76 68.41 67.16
46.03 38.36 29.55 27.83 28.78 31.02 42.33 38.68 40.48 46.26 47.45 48.54 46.61 47.52 48.50 49.25 48.77 49.59 49.16 50.25 50.79 51.35 51.74 54.23 53.71 54.19 55.95 57.91 58.61 58.12 57.86 60.09 61.82 63.19 65.78 66.63 67.31 68.84 69.57 70.54 70.41 68.61 68.92 69.17 69.65 68.44 68.19 68.78 68.18
43.86 41.61 33.75 29.51 27.49 32.35 42.07 36.89 41.24 47.78 48.55 48.54 49.09 48.19 48.82 47.97 49.20 49.00 49.50 49.95 50.55 50.74 52.40 52.74 53.03 53.39 54.46 55.66 56.01 57.79 58.85 59.25 59.28 60.02 61.60 65.74 67.02 67.94 69.69 69.04 69.50 68.70 68.22 68.70 69.05 69.24 69.78 68.93 68.87
43.21 39.00 43.63 35.56 37.07 30.62 36.03 41.19 45.20 47.59 47.04 47.70 47.39 47.88 45.31 46.52 47.83 49.15 47.93 49.98 49.33 49.26 50.55 51.79 51.90 52.61 53.76 53.99 53.69 55.08 57.61 59.22 59.98 60.13 61.22 62.19 66.56 68.77 68.54 69.21 68.91 68.66 66.74 67.46 70.65 69.52 69.49 70.08 70.17
44.55 45.79 35.00 35.57 27.72 25.06 34.07 36.50 36.19 40.35 42.12 44.11 43.05 42.44 43.97 45.33 46.18 48.43 49.40 49.78 50.46 49.57 50.35 50.55 51.84 53.24 52.08 52.52 52.94 55.10 55.15 57.08 57.85 58.17 60.05 61.22 63.04 67.54 68.52 68.98 69.28 68.76 69.00 69.87 70.83 70.49 70.09 69.51 70.33
41.33 39.03 40.38 37.82 35.09 27.25 26.08 31.46 42.58 41.52 41.23 40.66 42.59 43.53 44.72 45.75 46.69 47.82 48.04 48.71 49.07 49.24 49.70 49.99 51.17 51.61 51.46 51.19 51.40 52.35 54.23 56.34 56.29 58.38 60.42 61.19 62.07 64.93 67.71 68.79 68.75 68.39 67.93 69.08 69.17 69.66 69.28 69.23 68.90
45.61 42.07 40.81 34.63 33.18 35.03 30.59 32.74 44.54 43.35 43.04 43.74 43.66 45.33 45.58 45.30 45.73 46.44 47.02 47.70 47.98 47.52 48.31 48.91 48.81 49.38 50.50 51.34 51.38 51.25 53.40 54.46 54.29 57.59 58.57 59.20 60.31 62.89 65.40 67.95 68.01 67.18 66.81 61.07 60.66 65.17 68.45 63.57 67.38

GFSSGP_sfc_wetblb_090.txt.gz
Wetbulb
61.12 56.47 56.64 54.40 45.36 42.40 40.69 45.58 51.08 51.12 51.77 55.23 56.14 62.20 62.52 63.23 61.03 55.33 69.84 73.77 75.33 75.21 76.21 76.91 77.17 77.23 76.85 76.62 76.62 76.61 76.14 76.22 76.34 76.51 76.49 76.49 76.74 76.94 76.89 76.82 76.80 76.78 75.77 74.67 73.57 73.88 74.08 73.79 73.55
57.69 57.94 54.39 49.53 41.12 35.78 39.95 48.58 49.52 52.03 54.51 56.71 55.86 64.81 64.52 63.32 69.58 69.98 71.20 74.94 75.45 75.38 75.91 76.05 77.40 77.18 76.75 76.57 76.34 76.33 76.11 76.17 76.26 76.58 76.51 76.54 76.51 76.69 76.79 76.76 77.00 76.56 75.38 74.22 73.65 73.77 74.02 73.72 73.44
58.44 56.68 48.39 44.11 39.33 38.18 41.18 49.42 51.68 53.48 55.01 55.25 55.54 66.99 65.80 66.26 70.04 70.76 73.60 74.99 75.40 74.96 75.42 75.90 77.35 77.00 76.88 76.54 76.16 76.10 75.84 75.94 76.16 76.61 76.58 76.46 76.26 76.21 76.13 76.27 76.32 75.80 74.58 73.76 73.55 74.02 74.53 74.02 73.54
53.21 50.23 47.70 40.60 38.93 43.38 47.54 50.93 53.18 54.11 55.42 56.26 63.74 63.53 67.44 70.39 70.85 72.94 75.00 75.34 74.55 74.86 75.24 76.67 77.09 76.82 76.52 76.57 76.36 76.28 75.92 75.87 76.04 76.48 76.65 76.35 76.43 76.12 75.80 75.81 75.50 75.22 74.27 73.74 73.98 74.64 74.88 74.35 73.65
48.85 45.39 39.83 36.76 40.22 44.27 49.33 51.93 53.49 52.85 54.96 54.68 60.62 63.37 64.42 70.07 73.68 74.53 74.52 74.54 74.13 74.44 75.16 76.10 76.83 76.79 76.62 76.49 76.34 76.36 75.89 75.66 75.79 76.26 76.45 76.50 76.14 75.89 75.80 75.54 75.40 74.92 74.54 74.00 73.70 74.38 74.52 74.35 74.05
43.19 43.35 35.28 35.96 40.85 45.59 48.48 51.02 53.45 53.68 55.13 53.96 57.29 57.22 58.77 70.38 72.36 73.43 74.05 73.46 75.34 74.82 75.36 75.84 76.81 76.73 76.36 76.34 76.26 76.08 75.78 75.68 75.78 75.83 76.05 76.37 75.83 75.73 75.59 75.29 74.90 74.58 74.43 74.25 74.05 74.37 74.15 73.74 73.30
40.41 37.40 34.06 37.30 39.80 42.64 47.54 51.06 51.37 53.10 54.81 54.60 56.66 53.83 56.78 62.09 71.98 73.79 73.43 73.58 75.17 75.27 75.22 75.44 75.63 76.35 76.39 75.92 75.69 75.74 75.51 75.39 75.39 75.13 75.35 75.60 75.65 75.45 75.28 74.67 74.37 74.10 73.87 73.60 73.30 73.23 73.13 72.54 71.80
42.33 38.63 34.10 36.95 39.07 40.74 48.19 49.65 51.13 52.44 55.59 58.95 58.98 53.04 51.16 56.56 70.02 72.45 72.92 73.12 74.08 74.40 74.52 74.82 75.25 75.42 74.59 74.55 75.97 75.61 75.36 75.33 75.16 75.27 75.34 75.09 75.37 75.27 74.93 73.72 73.73 73.80 73.35 72.66 72.19 72.14 71.87 71.05 70.08
43.86 35.06 32.67 35.07 38.96 41.37 48.56 46.70 51.88 55.98 57.36 58.00 57.67 56.01 57.03 59.23 64.65 67.66 69.92 72.09 72.86 73.33 73.12 73.76 74.93 75.31 74.76 74.42 75.21 75.50 75.90 75.61 75.27 75.24 75.24 74.09 73.37 73.55 73.91 73.20 73.88 73.59 72.98 72.49 71.60 71.20 70.43 69.80 69.36
39.11 32.93 36.37 41.84 42.85 41.84 46.14 46.58 49.25 48.92 53.87 56.67 56.96 59.28 59.04 58.46 54.59 58.08 66.59 68.60 71.59 71.70 72.20 72.75 74.09 73.26 74.29 75.24 74.66 74.26 74.76 74.64 74.11 74.18 73.99 72.93 72.38 72.02 73.13 72.92 73.95 73.47 72.95 72.44 71.70 70.88 70.07 69.66 62.43
39.02 37.90 41.45 43.62 45.34 46.40 46.02 47.17 49.77 47.91 51.27 56.83 56.40 56.06 55.77 55.16 53.59 54.06 61.36 67.09 69.31 70.69 72.06 72.36 72.23 72.55 72.48 73.60 74.29 74.35 74.43 74.29 73.60 73.82 73.10 71.80 72.01 72.14 72.04 70.08 71.76 69.83 71.96 68.62 69.26 67.47 65.72 63.64 62.42
36.73 42.50 44.18 45.32 46.73 46.48 45.00 49.30 48.33 50.01 51.12 58.76 59.65 55.44 53.19 52.27 52.28 51.44 53.14 65.43 68.39 69.93 70.85 70.73 70.86 71.79 72.13 73.87 73.30 72.60 73.03 73.17 73.52 73.57 72.58 71.36 70.88 70.68 70.59 69.50 69.94 68.43 67.78 66.05 65.49 63.90 63.45 62.57 61.63
39.48 42.28 44.80 46.20 46.23 46.18 46.99 46.80 48.29 47.25 52.55 57.56 57.40 57.01 56.06 51.29 51.74 51.91 52.43 54.60 66.93 68.70 69.46 67.20 66.89 67.18 70.95 72.72 68.75 70.06 72.42 72.81 73.43 72.82 72.92 71.74 70.42 70.49 69.64 69.29 68.85 68.17 66.64 65.59 63.62 62.72 62.24 61.20 60.89
43.28 44.00 44.72 45.58 45.08 45.08 46.11 46.93 46.53 48.94 50.78 52.98 51.25 51.63 51.52 51.69 51.85 50.06 51.14 52.75 64.96 68.46 67.39 65.11 67.71 70.31 70.76 68.83 66.30 66.46 67.13 73.38 73.25 73.04 72.89 72.21 71.29 70.55 69.47 68.80 67.92 67.09 65.94 65.55 63.47 62.43 61.51 60.66 60.36
45.42 41.28 43.92 44.81 44.09 43.77 47.54 44.05 44.36 47.91 48.69 48.90 49.97 50.35 50.99 51.00 51.63 50.87 51.71 53.30 54.03 66.03 66.76 64.77 68.30 71.40 71.01 69.26 66.67 65.05 66.35 72.88 73.26 72.91 72.86 72.78 71.87 71.11 70.29 68.94 67.71 67.07 66.41 65.23 61.87 61.66 60.70 60.66 61.22
41.93 40.64 35.90 41.48 44.30 45.71 44.83 40.41 45.43 47.72 46.41 46.48 48.31 49.49 50.61 50.89 51.73 51.49 53.43 55.87 58.79 62.10 65.68 63.63 68.28 70.62 69.77 68.60 66.74 66.93 67.34 70.78 73.02 73.15 73.19 73.43 72.78 71.47 70.49 68.90 67.88 67.57 66.33 65.17 63.26 61.63 61.90 61.93 61.80
37.72 33.84 35.50 39.84 43.60 43.44 42.55 39.84 45.85 47.47 46.57 45.84 46.06 47.86 49.51 49.70 50.77 52.29 53.16 53.70 56.77 64.20 67.35 67.23 67.49 66.03 65.95 66.03 66.11 65.02 68.49 70.58 71.50 71.69 72.25 72.66 73.18 72.14 70.43 70.10 68.55 68.03 66.38 64.94 64.44 62.40 61.54 62.42 63.22
34.56 34.93 37.74 38.61 44.87 44.54 42.29 41.83 44.75 45.64 46.61 46.49 45.34 46.68 48.01 48.96 49.74 51.42 52.34 53.67 58.59 58.88 67.71 68.35 66.19 64.95 62.59 62.36 66.26 69.68 71.43 70.53 70.98 70.60 70.23 71.01 72.28 72.23 70.02 69.95 69.50 66.39 66.91 65.12 64.37 62.55 62.92 62.63 64.11
40.57 39.40 38.46 41.69 44.79 42.94 41.05 42.87 43.74 44.20 44.67 44.55 44.48 45.50 46.54 47.97 50.44 50.55 51.55 52.94 55.19 57.88 61.66 64.71 66.28 66.08 63.87 63.70 68.66 70.07 69.96 69.29 70.12 69.90 69.93 69.68 70.29 71.21 70.77 69.92 69.09 66.88 66.67 66.45 63.82 64.91 63.89 62.97 63.47
41.53 39.68 39.00 41.65 45.08 42.14 42.05 41.51 43.77 44.16 44.60 45.21 45.89 45.69 45.95 46.57 47.97 49.84 51.93 54.06 53.56 55.05 56.30 56.89 56.15 61.83 68.93 70.09 70.65 71.12 70.38 70.31 71.15 71.60 70.63 69.52 69.94 70.23 70.76 70.48 69.84 68.41 67.99 66.47 66.29 64.98 63.91 64.35 63.94
40.71 38.45 38.53 39.15 43.04 42.46 40.42 38.27 40.57 44.70 46.02 46.89 46.17 46.61 47.61 47.22 48.37 51.30 52.88 52.63 54.65 55.70 57.29 58.83 60.58 59.66 60.63 64.07 68.95 69.58 69.87 68.52 68.59 68.73 70.08 71.32 70.76 70.49 70.06 69.66 70.22 69.48 68.85 68.01 67.05 66.87 65.90 64.30 63.46
37.77 43.53 43.01 42.51 38.32 32.95 40.90 30.01 37.48 42.10 43.57 45.37 46.00 45.79 47.29 48.98 49.57 51.33 51.41 51.53 52.67 53.49 55.99 56.73 56.96 57.59 58.44 60.42 60.65 61.31 64.96 65.17 66.79 68.07 68.63 69.15 70.01 70.66 70.56 69.40 68.67 69.60 68.96 68.32 67.82 67.62 66.73 65.90 63.45
41.30 44.67 43.27 41.76 36.56 33.95 36.50 32.06 35.91 40.84 41.30 43.22 44.93 47.10 46.96 48.21 49.38 50.01 50.52 51.81 51.78 53.01 53.59 54.97 54.65 55.82 56.86 57.24 57.69 58.96 58.76 61.56 64.60 65.82 66.35 67.13 68.66 69.09 70.72 70.20 69.10 68.49 68.43 68.03 68.26 67.39 66.80 66.85 65.45
48.31 44.23 40.73 37.79 34.72 28.92 34.61 34.23 33.53 38.36 41.32 42.95 44.76 46.66 47.92 47.96 48.36 48.95 49.67 50.32 50.43 50.45 51.18 52.71 52.42 53.05 54.36 56.08 57.30 57.29 56.40 56.11 57.41 58.95 61.54 64.07 65.79 66.60 68.48 69.59 69.73 69.50 68.57 67.33 67.38 67.20 66.39 66.43 65.98
44.58 37.15 28.38 28.02 27.89 28.12 40.02 37.10 37.48 43.58 45.78 45.32 45.11 45.91 47.92 48.22 48.06 48.49 49.11 48.55 48.44 48.54 49.37 51.44 50.89 51.09 52.67 53.91 54.73 54.92 54.96 55.07 56.25 57.41 58.93 61.41 63.35 63.42 64.72 67.87 68.22 68.59 69.38 68.70 67.89 67.49 66.83 66.92 66.59
41.83 38.48 32.33 27.05 27.69 32.24 40.79 35.97 39.14 46.59 47.72 47.01 47.28 46.48 47.12 46.71 46.93 47.71 48.20 47.61 47.74 48.75 49.75 50.62 50.67 50.61 51.10 52.26 53.09 53.18 53.54 54.87 56.07 57.26 57.58 57.34 59.05 61.86 63.24 64.97 67.97 68.53 68.09 68.12 66.22 62.26 61.58 61.50 62.57
41.97 37.09 42.19 35.81 36.66 31.57 36.27 40.27 43.29 45.94 45.74 46.11 45.57 46.37 44.76 44.78 45.20 46.31 46.98 47.20 47.66 47.11 47.48 47.24 47.95 49.04 50.05 51.57 50.51 50.79 52.19 53.64 54.67 56.15 57.43 57.77 58.26 60.55 60.80 62.15 65.47 67.54 67.95 66.71 65.61 63.85 61.77 61.41 61.37
43.85 45.60 35.48 33.75 26.68 25.63 33.76 36.31 36.06 39.23 41.01 43.58 42.42 41.59 42.52 43.64 44.18 44.57 45.11 45.55 45.78 45.82 45.77 46.85 47.11 47.47 48.78 49.33 49.53 51.10 50.43 52.39 53.42 55.23 55.45 55.91 58.05 59.17 59.75 59.81 60.89 64.28 67.41 66.15 64.51 62.95 62.30 61.81 62.96
39.62 38.31 39.32 37.13 34.83 26.16 26.74 32.33 42.13 41.55 40.25 38.81 40.15 41.37 40.67 41.32 41.77 42.72 43.65 44.50 44.59 44.77 45.05 45.74 46.11 46.15 47.14 48.47 48.26 48.31 49.08 50.23 52.54 53.70 54.66 57.65 58.07 57.43 57.78 58.07 59.50 61.57 64.47 65.50 63.08 61.34 61.89 63.05 65.78
42.59 41.59 40.52 33.54 30.86 31.72 29.02 31.40 43.58 41.70 41.48 40.15 39.57 40.73 40.78 40.84 42.17 42.81 43.46 43.95 44.02 44.22 45.80 45.99 46.73 46.94 47.96 48.61 47.73 47.58 47.71 48.18 48.81 51.43 53.45 56.48 55.71 56.63 56.96 59.13 58.61 60.71 63.02 64.77 65.01 65.12 66.28 65.37 65.03

GFSSGP_sfc_wetblb_093.txt.gz
Wetbulb
61.65 55.62 54.39 53.26 44.25 41.99 39.86 43.85 48.64 49.80 51.26 52.75 53.81 53.61 60.30 61.78 59.83 53.96 69.63 72.90 74.48 74.73 75.23 75.95 77.32 76.99 76.84 76.76 76.65 76.40 76.29 76.35 76.27 76.35 76.38 76.38 76.55 76.78 76.67 76.50 76.55 76.41 75.00 73.66 73.79 74.11 73.77 73.38 73.27
58.68 55.82 52.91 47.73 40.31 35.06 39.47 46.90 48.51 50.26 52.49 53.95 54.41 58.93 63.17 62.00 69.50 69.39 69.96 74.28 74.44 75.12 75.45 75.33 77.22 76.81 76.66 76.68 76.32 76.07 76.17 76.17 76.07 76.07 76.32 76.47 76.59 76.57 76.54 76.50 76.63 75.93 74.62 73.38 73.86 74.14 73.79 73.63 73.37
56.34 54.12 47.49 43.34 37.55 37.26 40.26 48.53 50.29 52.07 54.01 52.76 53.45 65.93 64.91 64.78 69.95 69.84 73.14 74.48 74.67 74.80 75.33 75.64 77.10 76.85 76.71 76.60 76.24 76.01 75.89 75.94 76.07 76.10 76.32 76.49 76.41 76.48 76.28 76.56 76.52 75.60 74.40 73.44 73.89 74.14 74.45 74.05 73.45
52.12 49.03 46.15 39.54 37.85 40.45 44.88 48.87 51.07 51.23 53.47 54.48 60.84 62.71 66.77 69.61 69.91 72.47 74.47 74.75 74.14 74.31 75.10 76.57 76.77 76.67 76.54 76.57 76.34 76.01 75.92 75.94 75.99 76.12 76.04 76.19 76.16 76.07 75.92 76.10 76.12 75.63 74.23 73.93 74.08 74.40 74.51 74.28 73.40
47.51 44.78 38.32 35.81 37.27 41.39 47.20 49.93 50.64 50.02 52.55 53.26 57.58 62.08 63.36 71.22 73.83 74.03 74.23 74.20 73.44 73.65 74.85 76.19 76.69 76.39 76.47 76.40 76.14 75.91 75.72 75.78 75.91 76.04 76.04 75.94 75.88 75.70 75.53 75.54 75.35 75.21 74.67 74.02 74.06 74.56 74.80 74.38 73.88
41.64 41.77 33.83 33.99 39.48 43.64 46.01 48.82 49.83 49.75 52.22 53.56 56.56 56.69 57.99 71.72 72.59 73.18 73.83 73.31 74.28 73.92 75.17 75.48 76.52 76.36 76.03 76.16 76.21 75.73 75.45 75.51 75.96 75.83 75.96 75.88 75.67 75.59 75.60 75.39 75.10 74.73 74.46 74.13 74.06 74.43 74.10 73.60 73.43
39.25 36.28 32.25 33.64 37.41 40.85 45.96 48.82 47.90 49.09 50.46 51.35 56.16 53.62 56.28 64.77 71.62 73.33 72.75 73.93 74.17 74.64 74.66 75.18 75.40 75.47 76.13 75.89 75.79 75.44 75.19 75.06 75.19 75.40 75.49 75.62 75.58 75.35 75.28 74.80 74.54 74.27 74.10 73.95 74.05 74.00 73.85 73.45 73.03
40.91 36.95 32.34 35.24 36.59 37.38 46.21 47.98 49.19 49.06 50.67 56.19 57.98 51.99 51.63 56.79 72.08 71.70 72.15 73.54 73.48 74.27 74.35 74.38 74.67 74.62 74.18 74.59 75.83 75.48 75.33 75.18 74.99 75.19 75.21 75.23 75.29 75.29 74.95 73.80 73.73 73.92 73.65 73.62 73.16 73.16 73.30 73.00 72.34
41.83 34.11 29.49 33.49 36.97 37.98 44.77 44.30 48.68 51.96 50.19 51.04 57.89 55.46 56.20 67.07 69.17 70.05 71.65 72.24 72.52 73.00 73.37 73.83 74.14 73.68 73.43 73.74 74.80 75.52 75.61 75.33 75.10 74.94 75.01 73.83 72.51 73.18 73.27 73.15 73.50 73.55 73.18 72.91 72.34 72.24 72.00 71.60 71.23
37.28 30.75 33.88 39.01 40.65 39.51 42.92 43.98 45.21 47.27 48.16 48.37 55.79 58.69 59.61 60.26 66.70 68.29 69.98 70.27 70.81 71.38 72.45 73.32 73.26 73.48 73.28 74.18 73.52 73.30 73.98 73.64 73.37 73.48 73.30 72.19 71.40 71.29 72.66 72.64 73.77 73.64 73.08 72.71 72.20 71.53 71.21 70.54 62.64
37.02 34.42 38.63 40.95 42.85 43.35 43.63 44.33 45.83 45.76 44.87 48.00 51.95 56.66 57.77 54.62 56.94 66.51 69.43 70.52 70.77 71.63 72.49 72.63 72.84 73.01 73.04 73.77 73.78 73.34 73.58 73.51 72.85 72.74 72.51 71.22 71.48 71.06 71.90 70.27 71.24 70.20 71.79 68.42 69.64 67.70 65.96 63.14 61.57
34.32 40.12 40.78 42.92 43.52 43.73 42.51 45.23 44.94 45.95 47.33 50.83 54.21 58.47 55.83 55.23 51.71 53.51 64.59 69.41 69.96 71.01 72.30 72.69 72.95 73.17 72.93 73.78 73.07 73.11 73.33 73.22 73.01 73.22 73.13 70.73 70.00 69.82 70.30 69.80 69.75 69.44 68.40 67.00 65.79 64.74 63.35 62.12 61.26
36.52 39.74 41.70 43.09 42.87 42.41 44.47 43.19 44.45 45.08 49.20 51.15 55.49 58.05 56.73 56.95 57.70 51.84 59.17 67.82 69.76 69.63 70.53 71.60 72.56 72.65 72.78 73.14 73.19 72.62 72.53 72.51 72.90 72.81 72.73 72.06 70.45 69.88 70.20 69.60 68.53 68.51 66.93 66.67 64.67 64.01 62.58 61.16 60.69
42.39 42.53 43.82 43.94 42.34 42.05 42.54 43.93 44.39 46.54 50.26 51.58 54.74 55.45 58.44 58.75 58.76 55.85 52.34 61.72 68.45 69.71 70.03 70.32 70.94 68.81 72.13 72.54 72.43 72.49 72.65 72.74 72.74 72.73 72.78 72.36 70.85 69.99 69.75 69.31 68.47 68.01 67.05 66.17 64.05 62.41 61.79 60.50 59.34
44.45 39.41 41.44 42.04 42.28 41.22 43.94 41.01 43.05 48.17 49.06 48.59 50.80 49.38 55.44 55.26 55.39 51.05 51.59 56.77 67.30 68.42 69.74 68.73 67.53 67.47 71.21 70.64 70.85 70.67 71.81 72.59 72.28 72.51 72.76 72.45 71.44 69.91 69.83 69.09 68.40 68.06 66.78 64.71 63.09 60.94 60.30 59.42 59.32
39.88 38.49 34.48 40.81 42.00 43.15 43.30 36.97 44.00 47.09 47.34 46.50 47.08 47.84 48.51 50.19 51.88 51.53 51.96 54.14 55.11 64.21 66.83 67.23 67.89 68.45 70.03 69.89 69.21 68.09 64.35 66.92 70.85 72.21 72.43 72.41 71.73 70.76 69.63 69.25 68.67 68.25 66.19 64.56 63.26 61.82 60.40 59.95 58.83
35.44 32.37 33.90 38.63 41.99 42.12 40.56 38.49 44.31 46.66 45.17 45.57 45.86 46.30 47.27 47.96 50.67 51.63 53.24 53.32 59.11 58.89 64.29 63.14 64.86 67.97 69.57 70.33 66.91 65.97 63.47 65.67 68.45 70.25 71.31 72.04 72.20 71.42 70.25 69.78 69.43 68.08 66.71 64.86 64.41 63.14 59.94 58.04 58.83
32.63 33.12 35.93 36.59 41.37 41.30 39.45 39.45 43.99 45.30 44.53 44.57 44.81 45.15 45.67 47.10 49.17 51.16 52.51 52.88 55.79 62.88 64.68 62.75 64.95 67.59 67.29 65.03 64.03 65.13 68.72 68.76 69.23 69.48 70.10 71.71 72.47 72.45 71.14 70.55 70.18 68.61 67.37 65.98 64.98 63.53 61.11 59.32 61.17
39.01 37.30 36.35 40.47 43.92 39.99 39.50 39.40 41.20 42.80 43.88 43.82 44.15 44.62 44.09 45.25 47.90 50.08 51.91 53.31 54.69 57.72 62.60 64.31 64.09 63.42 63.08 62.03 62.53 63.67 65.37 69.27 68.96 69.57 70.60 69.37 70.38 72.39 71.71 70.68 70.28 68.34 66.77 66.65 64.93 63.62 63.08 62.12 62.06
39.41 37.15 37.08 39.93 42.94 40.21 40.01 40.25 41.25 41.77 42.68 43.22 44.43 44.56 44.74 43.85 46.50 51.83 52.90 53.95 54.26 54.01 56.57 58.51 59.32 64.43 63.69 63.01 62.53 64.76 66.67 69.25 70.04 69.05 69.32 69.63 69.40 70.16 70.35 70.48 69.90 68.51 67.36 66.56 65.96 64.04 63.78 63.97 63.21
39.47 36.77 37.65 37.33 41.16 40.92 38.80 37.12 39.10 43.24 45.03 46.31 45.90 45.29 45.69 45.95 46.98 50.86 52.57 52.94 54.34 55.57 57.44 57.72 57.41 59.33 62.16 67.36 67.88 68.40 67.81 67.54 67.20 67.43 68.78 69.59 69.15 69.47 69.91 70.14 69.49 68.78 67.54 67.45 66.29 66.16 64.90 63.82 63.37
36.98 43.13 41.97 40.88 37.23 32.04 38.95 29.18 36.17 40.56 42.35 44.01 44.23 43.86 45.48 47.15 48.58 50.09 49.84 49.89 52.31 53.96 54.75 55.61 56.43 56.46 57.68 58.34 58.81 60.49 62.53 62.72 65.07 65.29 67.23 67.32 69.21 69.42 69.73 69.13 68.96 69.05 69.23 67.97 67.83 67.65 66.24 65.93 64.48
39.48 43.83 41.74 40.77 34.90 33.36 34.38 30.88 34.81 38.54 39.48 41.92 43.83 45.80 46.38 47.71 48.37 48.42 49.13 50.42 50.83 52.58 52.38 52.30 52.81 53.68 54.70 55.91 57.25 57.42 56.12 58.78 60.59 60.90 61.08 61.85 64.13 67.16 69.27 69.25 68.78 68.64 68.89 69.07 68.55 68.10 67.00 66.53 65.50
46.78 41.89 38.89 36.12 33.78 27.76 32.86 32.26 32.34 37.56 39.68 41.64 43.65 45.05 46.78 46.90 47.89 48.38 48.81 48.91 49.09 49.17 50.77 50.25 50.51 51.39 52.75 53.77 54.74 54.00 53.75 53.99 54.83 56.16 58.47 59.23 60.88 63.16 65.44 67.16 67.34 68.37 68.33 68.04 68.19 67.79 67.86 66.46 66.20
42.59 35.91 29.29 26.90 27.67 26.76 37.71 34.77 35.48 42.07 43.25 43.63 43.35 44.42 45.35 46.12 45.98 46.20 45.55 45.94 46.55 46.52 47.56 50.19 48.56 48.75 50.22 50.94 52.25 52.97 53.35 52.50 52.78 53.14 54.23 56.27 58.39 60.40 61.39 63.11 64.60 66.03 67.72 68.08 68.08 67.59 67.23 66.91 65.72
40.04 37.39 30.27 25.36 26.60 29.63 38.32 32.52 37.57 43.99 45.05 46.18 45.33 42.81 43.46 43.64 43.72 43.91 44.10 44.41 45.42 45.73 45.93 46.23 46.52 46.61 47.62 48.82 50.05 50.33 50.07 50.93 51.59 52.90 54.28 54.93 55.98 58.07 59.63 61.21 62.52 64.17 65.57 66.71 67.54 67.65 67.18 66.89 64.94
41.36 34.57 38.46 33.30 34.44 27.76 33.63 37.11 40.62 44.03 45.25 43.19 42.65 42.76 41.56 41.44 42.17 43.16 43.92 43.98 44.34 44.17 44.42 44.46 44.93 45.15 45.95 46.62 47.35 47.74 48.52 48.79 49.73 51.33 53.77 55.55 56.02 57.99 57.65 59.27 59.89 61.05 63.49 65.43 66.22 66.46 66.44 66.08 65.54
42.39 43.99 34.49 32.50 26.82 24.18 31.32 33.64 33.75 37.56 37.17 39.57 39.20 38.95 39.99 40.77 41.30 41.91 42.45 42.87 43.18 42.55 43.03 43.88 44.07 44.37 45.18 45.52 45.63 47.33 47.18 47.98 48.52 49.08 50.65 52.82 55.37 56.01 57.70 58.55 58.21 57.64 59.06 60.96 63.63 65.25 65.88 64.01 64.16
39.40 36.04 35.68 35.85 32.98 26.59 25.64 31.11 38.29 36.04 37.67 37.40 38.17 39.40 39.26 39.86 40.45 40.88 41.57 42.46 42.47 42.67 43.01 44.00 44.63 44.54 44.76 45.08 45.66 45.99 46.07 46.61 47.24 48.40 50.56 51.66 52.99 55.78 57.69 57.19 56.77 57.17 58.11 59.54 60.87 62.49 63.82 64.36 63.45
40.26 39.85 36.98 29.82 31.85 29.93 27.05 31.25 39.41 38.04 38.85 38.59 38.55 40.16 40.14 40.11 40.11 40.46 40.88 41.32 42.51 43.07 43.75 43.96 44.45 44.35 44.92 45.29 45.11 44.93 45.43 46.10 46.51 47.00 48.25 49.94 51.33 52.80 54.61 56.50 57.29 58.28 58.15 58.66 59.82 60.58 62.65 62.49 62.12

GFSSGP_sfc_wetblb_096.txt.gz
Wetbulb
60.41 55.96 53.45 52.52 43.60 42.41 39.48 43.37 47.33 48.19 49.26 51.97 52.73 51.11 51.45 59.86 58.77 53.67 69.45 72.82 74.27 74.23 75.84 76.46 76.89 77.07 77.10 77.07 76.97 76.69 76.56 76.66 76.64 76.61 76.49 76.44 76.49 76.56 76.51 76.48 76.44 76.27 74.94 74.12 73.72 73.74 73.85 73.89 74.08
57.41 53.97 51.94 46.95 39.25 35.25 39.32 46.22 45.25 47.53 50.07 52.14 52.79 60.63 61.11 60.94 68.87 69.06 68.98 73.74 74.43 74.40 75.06 75.78 76.92 76.92 77.02 76.76 76.51 76.40 76.36 76.33 76.23 76.23 76.44 76.53 76.43 76.43 76.46 76.38 76.32 75.57 74.24 73.64 73.79 73.86 73.62 73.83 73.94
54.83 52.10 47.16 43.19 37.31 37.54 39.54 46.94 47.63 49.50 52.19 52.12 52.73 61.37 63.91 62.93 69.58 69.73 72.94 74.09 74.38 74.01 74.36 75.59 76.79 76.69 76.67 76.46 76.33 76.02 75.97 76.12 76.20 76.21 76.23 76.38 76.30 76.28 76.15 76.23 76.11 75.28 73.69 73.89 74.15 74.27 74.69 74.55 74.35
50.13 47.72 45.04 39.03 38.40 41.51 43.96 47.48 47.59 49.43 51.61 52.19 52.06 56.92 65.53 71.07 70.02 71.86 73.97 74.52 74.12 74.03 74.67 76.34 76.52 76.28 76.46 76.41 76.25 75.92 75.87 75.95 76.10 76.18 76.08 76.25 76.17 76.06 75.96 76.17 76.21 75.44 74.23 74.14 74.72 75.08 74.69 74.46 74.26
47.13 43.39 35.87 33.62 37.64 42.35 46.60 48.95 48.63 47.83 49.27 50.72 52.61 60.28 60.41 71.09 73.68 73.94 73.74 73.92 72.99 73.34 74.99 75.52 76.40 76.25 76.33 76.21 75.78 75.85 75.82 75.59 75.74 75.90 76.00 76.17 75.96 75.80 76.00 76.14 75.81 75.39 74.75 74.74 74.83 74.69 74.57 74.29 74.12
41.17 41.33 33.54 31.47 36.54 42.72 45.93 47.77 47.91 47.32 49.36 51.13 51.42 55.20 58.41 71.56 72.37 73.02 73.62 72.88 73.62 73.25 74.48 74.72 75.39 76.19 76.09 76.08 75.92 75.69 75.68 75.61 75.64 75.47 75.74 75.76 75.53 75.50 75.38 75.52 75.26 74.99 74.54 74.41 74.69 74.79 74.43 73.89 73.59
38.44 35.56 31.90 33.32 37.05 39.90 44.77 47.80 45.85 46.91 47.66 49.12 50.87 52.80 56.05 67.44 72.21 72.50 73.18 73.26 73.84 74.19 73.93 73.97 74.37 75.08 76.15 75.80 75.60 75.35 75.27 75.29 75.24 75.06 75.37 75.26 75.37 75.34 75.10 74.96 74.72 74.46 74.29 74.19 74.24 74.45 74.01 73.49 73.22
39.42 36.48 31.52 34.83 34.56 36.55 44.12 46.13 47.53 47.22 48.45 52.64 54.86 49.87 49.76 59.84 71.37 73.06 73.36 73.10 72.81 73.32 73.31 73.47 73.79 74.14 74.20 74.58 75.50 75.19 75.12 75.06 74.94 75.00 75.00 75.10 75.21 75.10 74.89 73.76 73.84 73.85 73.88 73.70 73.80 73.82 73.46 73.31 72.99
40.51 32.56 29.62 33.06 35.30 37.44 42.60 40.81 46.04 50.30 48.36 49.63 50.81 53.99 56.21 69.82 71.22 71.64 71.49 71.82 71.76 72.16 72.88 73.34 73.96 73.81 73.67 73.87 74.53 75.11 75.17 75.18 75.03 75.10 74.94 74.08 73.34 73.91 74.11 73.53 73.40 73.67 73.31 73.19 72.99 72.79 73.01 72.94 72.84
36.08 30.97 33.24 37.30 38.69 37.96 40.16 41.92 42.41 44.80 45.53 45.85 49.08 55.20 62.57 68.42 69.07 69.57 69.55 69.44 70.22 70.71 71.40 72.40 72.92 72.60 72.78 73.94 73.38 73.29 73.79 73.76 73.44 73.46 73.63 72.59 71.87 72.15 72.80 73.21 73.60 73.71 73.33 72.81 72.57 72.28 72.16 72.04 68.03
34.42 33.51 36.48 38.75 41.00 41.66 41.55 41.13 43.62 43.32 42.33 45.31 46.35 51.63 55.95 61.69 65.10 67.82 69.33 69.58 70.28 71.40 72.09 72.43 72.33 72.56 72.70 72.97 73.08 72.98 73.48 73.33 72.64 72.64 72.57 71.61 71.50 71.75 72.31 71.42 72.27 71.84 72.79 70.06 71.08 69.90 69.05 67.06 65.34
33.28 38.29 39.26 38.81 42.12 42.11 40.05 42.31 42.67 43.66 44.97 48.60 48.88 50.46 53.92 52.74 58.63 65.31 67.44 69.17 69.36 70.74 71.77 72.30 72.46 72.69 73.04 72.70 72.43 71.90 72.40 72.48 72.29 72.78 72.59 71.36 70.92 70.56 71.08 70.40 69.95 69.89 69.72 69.09 67.99 67.35 66.40 65.35 63.80
34.95 38.75 40.47 41.73 41.08 40.88 41.95 41.62 41.89 42.22 46.62 48.56 48.69 50.94 54.33 54.31 54.04 54.86 62.46 67.96 69.58 70.11 71.14 71.85 72.53 72.30 72.80 72.01 71.88 71.72 71.87 72.10 71.97 72.45 72.66 72.02 70.90 70.16 70.54 70.54 69.74 69.60 68.91 68.08 66.60 65.69 64.98 63.85 63.29
40.76 41.01 41.59 41.48 40.90 40.15 40.64 40.90 42.29 44.43 47.04 46.89 48.19 51.43 55.61 56.37 56.66 54.65 55.47 63.40 68.83 70.34 70.69 71.90 72.09 72.38 72.77 72.48 72.07 71.72 72.04 72.35 72.37 72.07 72.04 72.29 71.08 70.15 70.01 69.91 69.73 69.13 68.88 67.82 66.45 64.76 63.94 63.17 61.93
42.03 38.95 40.91 41.24 39.83 40.08 41.63 39.27 40.44 45.85 46.27 46.64 47.88 50.98 52.94 56.38 57.46 58.56 57.12 56.33 66.26 69.33 70.37 70.75 71.72 72.37 72.15 72.47 72.34 72.18 72.16 72.53 72.39 72.52 72.32 72.46 71.66 70.40 69.85 69.47 69.18 68.95 68.45 67.54 65.82 64.38 62.80 61.73 61.41
38.21 37.33 33.41 39.55 40.42 41.23 41.56 35.88 42.65 45.04 44.31 45.48 46.88 47.18 48.55 50.52 55.09 52.00 52.77 53.81 56.29 67.74 68.82 70.25 71.23 69.83 70.47 71.87 71.59 71.69 70.94 69.15 71.45 72.10 72.70 72.86 72.49 71.27 70.03 69.31 68.78 69.09 67.72 67.07 65.91 64.47 62.96 61.78 60.91
34.95 30.36 32.37 37.34 39.93 39.86 38.30 37.71 43.27 45.23 43.69 44.08 44.43 45.65 46.95 47.64 49.54 52.25 53.35 58.31 56.60 59.15 65.49 67.65 68.65 67.76 68.21 70.62 69.34 67.64 65.98 65.45 68.57 70.66 71.87 72.27 72.42 71.99 70.18 69.71 69.79 69.32 68.21 66.77 66.36 64.43 64.11 63.15 60.91
30.43 31.01 33.90 34.86 40.04 39.87 38.10 38.24 42.15 42.76 43.60 44.02 44.41 44.43 45.30 46.08 46.97 51.26 54.98 58.11 55.50 61.01 62.68 63.92 64.38 65.88 68.08 66.89 65.74 66.26 66.69 67.21 67.67 68.62 70.45 71.89 72.07 72.12 70.90 70.29 70.14 69.23 68.41 66.69 66.03 65.88 63.44 63.88 63.48
36.92 35.05 34.82 38.74 42.17 38.92 38.09 37.88 40.85 42.22 41.13 41.92 42.84 43.77 45.21 45.28 48.77 49.66 51.01 54.42 57.31 61.08 64.56 63.63 63.39 65.77 66.42 65.00 64.09 64.04 65.26 67.16 69.01 69.64 70.27 70.85 72.06 72.33 71.67 70.93 70.39 69.39 68.02 67.86 66.67 66.36 65.09 63.60 62.83
37.56 35.05 35.37 38.86 41.35 39.24 38.55 38.76 40.16 40.76 41.11 41.37 42.52 43.10 44.37 44.61 49.81 51.55 51.00 51.95 55.28 58.18 62.93 63.71 63.82 63.40 64.45 63.78 63.58 65.05 65.71 66.36 68.89 70.31 70.19 70.36 70.33 71.09 71.15 71.13 70.05 68.44 67.54 67.32 67.03 65.64 65.28 65.35 64.23
36.99 35.14 36.11 36.70 39.91 39.47 37.53 36.13 37.66 41.65 43.22 45.44 45.22 44.13 45.27 45.22 47.37 50.54 52.18 52.60 54.96 55.97 56.47 57.68 58.89 63.04 65.02 64.26 65.19 66.63 67.72 67.88 67.54 68.40 69.01 69.57 69.72 69.61 69.97 70.25 68.60 67.36 67.95 66.69 67.34 66.62 65.17 64.21 65.07
34.49 41.05 41.01 39.30 35.53 30.53 37.29 28.31 35.10 38.23 40.17 43.21 43.53 44.26 45.61 46.52 47.85 49.76 50.44 51.60 52.99 53.71 55.74 55.85 56.33 57.11 58.81 62.18 63.54 64.98 65.78 65.20 65.25 64.96 67.25 66.74 68.71 69.14 69.94 69.70 69.74 69.11 67.41 66.71 66.34 68.19 66.82 65.56 64.27
38.98 42.91 40.43 38.44 33.94 31.63 32.88 29.88 33.80 38.22 39.22 41.25 43.50 45.40 45.54 46.40 47.46 47.83 48.58 49.87 49.94 50.70 50.54 51.05 52.72 53.60 54.60 57.01 57.56 57.43 57.78 58.93 59.61 59.98 60.19 60.58 63.15 67.90 69.23 69.63 69.57 69.03 68.69 67.81 67.99 67.90 67.72 66.93 65.90
45.55 40.87 37.32 35.07 32.10 26.61 30.81 30.71 31.14 36.41 38.98 41.42 43.23 44.78 44.86 44.84 44.92 45.00 45.49 46.47 46.16 46.99 48.01 48.02 48.79 48.35 49.69 50.53 51.70 52.12 52.93 53.76 54.71 55.22 55.67 57.12 58.75 61.04 63.50 67.43 68.83 68.81 68.63 68.31 68.35 68.44 68.26 67.70 67.05
41.74 35.35 28.16 25.72 25.63 26.38 35.37 32.64 33.97 40.82 42.68 43.38 42.73 41.41 41.95 42.82 42.83 43.24 43.29 43.82 44.42 44.27 44.73 47.21 45.82 46.23 47.09 47.99 48.72 49.28 49.39 50.71 51.06 51.45 52.26 53.59 55.09 57.53 59.54 62.67 63.92 65.37 67.28 67.93 68.26 67.93 67.34 67.54 67.05
38.94 36.36 29.31 23.71 24.28 27.93 36.65 30.98 36.33 42.14 42.01 42.44 42.07 41.41 41.83 41.43 41.51 42.10 42.43 42.56 42.95 43.90 44.39 44.67 44.96 45.26 46.08 46.81 47.32 47.92 48.07 48.18 48.82 50.20 50.99 52.00 53.66 55.58 57.97 59.91 61.66 63.01 65.16 66.81 67.70 67.68 67.59 67.59 67.14
39.65 36.17 39.31 33.90 32.16 27.66 31.42 35.95 39.86 40.40 40.66 41.02 40.67 40.88 39.84 40.45 40.98 41.50 42.26 42.28 42.70 43.03 43.60 43.78 44.18 44.88 45.54 45.76 45.93 46.45 47.02 47.59 47.96 48.80 49.81 50.73 52.80 54.87 56.54 58.52 59.63 61.11 62.93 64.31 65.13 65.69 66.31 67.16 66.69
40.46 42.23 33.57 32.72 26.27 23.95 28.98 31.53 31.92 35.80 36.96 38.49 38.47 38.73 39.99 40.32 40.67 41.24 41.98 42.33 43.10 43.06 43.12 43.66 43.95 43.90 44.53 44.67 44.87 46.16 45.85 47.14 47.77 48.07 48.03 49.30 51.13 53.38 54.44 55.95 57.53 59.31 59.91 60.46 61.94 62.94 64.68 65.23 65.49
37.52 35.33 35.61 34.47 29.75 26.33 23.89 28.15 36.59 36.76 37.08 36.93 37.71 39.15 38.76 39.72 40.20 40.47 40.87 41.77 42.22 42.17 42.20 42.81 43.26 43.36 43.54 44.13 44.42 44.42 45.00 45.59 46.29 46.41 47.41 48.36 49.28 50.62 51.53 53.92 55.75 57.48 58.30 58.48 58.54 59.45 61.55 62.86 63.43
38.72 36.64 35.87 30.37 29.86 26.97 24.55 27.55 38.16 36.72 37.09 37.95 37.91 39.12 39.22 39.94 40.28 40.36 40.40 40.80 41.29 41.83 42.46 42.79 43.98 43.87 44.51 44.65 44.82 44.36 44.74 44.94 44.42 44.84 45.90 46.97 47.52 49.26 50.29 51.57 53.03 54.83 57.06 58.51 58.70 58.42 59.82 60.89 61.32

GFSSGP_sfc_wetblb_099.txt.gz
Wetbulb
63.59 59.59 59.55 59.37 50.93 51.21 47.37 48.94 53.12 52.05 52.70 55.98 56.82 55.44 58.21 60.59 60.30 60.10 73.75 75.20 75.20 76.13 77.46 76.96 77.24 77.50 77.68 77.48 77.53 77.15 77.15 76.85 76.87 76.82 76.47 76.37 76.49 76.72 76.74 76.58 76.89 76.95 76.03 74.97 74.18 74.47 74.73 74.53 74.47
61.06 57.65 58.97 55.43 47.86 44.81 46.75 50.88 50.76 51.84 54.45 56.25 56.67 56.87 60.09 63.59 70.03 71.55 72.44 74.88 75.69 76.62 77.33 76.79 77.21 77.32 77.42 77.22 77.11 76.96 77.04 77.04 76.89 76.81 76.49 76.57 76.64 76.74 76.58 76.69 76.62 76.24 74.90 73.99 73.92 74.01 74.24 74.30 74.49
58.10 56.34 54.47 51.76 48.29 43.70 45.43 50.27 51.16 52.69 55.36 55.07 54.90 57.72 65.70 66.33 70.55 71.65 75.11 75.65 76.12 76.52 77.10 76.92 77.04 77.06 77.17 76.91 76.60 76.63 76.63 76.60 76.76 76.66 76.69 76.64 76.46 76.48 76.28 76.36 76.09 75.50 74.09 73.95 73.89 74.41 74.81 75.20 74.97
56.09 56.09 53.18 47.33 44.94 47.93 47.61 50.59 51.75 52.83 54.36 55.36 55.14 57.37 65.22 73.22 72.92 74.41 75.88 75.69 75.35 76.07 76.57 76.60 76.71 76.71 76.81 76.67 76.63 76.40 76.35 76.33 76.43 76.58 76.51 76.33 76.30 76.19 75.94 76.13 75.94 75.28 74.58 74.76 74.97 75.03 75.01 75.09 74.84
54.61 52.44 46.31 43.95 44.26 47.02 49.49 51.47 53.01 51.93 52.86 53.67 54.42 54.22 56.04 72.11 75.04 75.35 75.40 75.42 74.71 75.70 76.45 76.21 76.40 76.40 76.66 76.49 76.14 76.30 76.15 76.09 76.23 76.25 76.31 76.25 76.24 75.98 76.01 76.25 75.96 75.29 74.84 75.21 75.12 74.94 74.87 74.69 74.52
49.78 50.69 42.41 40.00 42.85 46.44 49.12 51.50 52.00 51.64 52.50 52.91 52.72 53.99 57.97 73.73 73.90 74.65 75.32 75.18 75.37 75.33 76.22 76.04 76.17 76.32 76.22 76.31 76.07 75.87 75.76 75.84 75.89 75.95 76.10 76.17 76.03 76.06 76.06 75.99 75.76 75.42 74.76 75.04 75.06 74.59 74.66 74.29 74.14
47.21 46.04 41.50 41.31 41.78 43.53 46.67 51.44 50.02 49.64 50.38 50.40 54.25 52.23 59.18 68.51 73.97 75.01 75.07 74.97 74.91 75.59 75.98 75.88 75.58 76.01 76.14 75.88 75.60 75.63 75.42 75.40 75.42 75.27 75.50 75.50 75.53 75.55 75.45 75.26 75.27 74.88 74.56 74.47 74.94 74.80 74.33 73.84 73.67
47.90 46.87 41.34 42.19 40.79 41.12 47.12 48.77 50.59 49.18 47.77 54.45 55.35 53.25 55.63 65.46 74.11 75.10 74.88 74.54 74.55 75.24 75.40 75.40 75.43 74.99 74.98 75.45 75.66 75.42 75.42 75.14 74.85 75.06 75.19 75.04 75.23 75.23 74.93 74.05 74.44 74.38 74.11 73.96 74.11 74.20 73.98 73.71 73.27
47.35 42.48 39.90 40.42 41.02 42.67 47.36 46.72 50.01 51.81 49.77 50.98 52.97 53.58 58.23 71.50 74.38 73.29 72.92 73.15 73.56 73.60 74.13 74.71 74.52 74.76 74.41 74.21 74.80 75.33 75.32 75.35 75.01 75.18 75.02 74.38 74.07 74.71 74.87 73.79 74.15 74.13 73.73 73.73 73.53 73.53 73.46 73.19 73.24
45.47 41.18 41.37 43.83 44.97 44.27 45.67 45.73 46.62 46.51 47.43 48.48 50.56 54.17 65.25 71.75 72.98 72.32 71.27 70.76 71.66 72.18 72.68 73.62 73.76 74.41 74.15 73.43 74.70 74.50 74.26 74.55 74.54 74.42 74.70 74.15 74.78 75.01 74.24 74.33 73.86 74.00 73.68 73.39 73.16 72.87 72.67 72.53 71.45
43.65 41.33 42.78 44.19 45.61 46.74 45.63 45.50 47.40 45.97 45.43 48.22 49.87 52.74 54.35 65.64 70.76 71.73 72.17 72.09 71.72 72.44 72.62 73.66 73.84 74.36 73.86 72.99 74.30 74.13 74.08 74.39 74.63 74.80 74.93 74.69 74.19 74.49 74.06 73.55 73.70 73.65 73.19 71.52 71.29 70.82 69.97 69.65 69.85
40.87 43.75 43.65 43.94 45.39 46.26 45.05 47.02 46.16 47.38 48.66 51.92 52.44 53.39 53.37 54.33 61.00 70.14 71.90 72.39 72.78 73.07 73.41 73.76 73.80 74.28 74.29 73.21 73.33 73.26 73.80 73.87 73.37 73.87 74.43 73.91 73.17 73.24 73.25 72.71 72.77 73.39 72.62 72.39 71.75 69.97 70.05 70.04 69.24
41.64 44.31 45.13 45.99 45.82 46.82 47.29 45.95 46.52 46.97 50.45 52.29 52.24 52.60 52.92 54.17 59.01 67.33 71.42 73.31 73.91 73.41 73.73 74.22 74.54 74.63 74.47 74.32 72.82 72.73 73.46 73.58 73.60 73.73 74.35 73.92 73.05 72.84 73.09 72.90 72.65 72.52 72.61 72.03 71.56 70.73 70.02 68.92 68.66
46.61 46.06 46.98 47.60 47.24 46.14 45.35 46.52 46.03 49.44 51.65 51.56 51.62 52.32 54.13 54.84 58.36 60.03 65.15 67.86 72.10 73.34 74.11 74.82 74.56 74.98 74.77 74.31 73.75 72.86 73.64 73.96 73.58 73.58 74.05 74.32 73.53 73.33 72.71 73.01 72.98 72.82 72.91 72.45 71.76 71.16 70.24 69.30 68.46
46.63 44.48 46.69 47.44 47.75 46.83 47.06 44.36 45.02 51.04 51.58 50.43 51.40 52.71 55.56 58.31 58.81 59.85 61.33 62.79 66.59 70.65 73.11 74.77 75.13 75.18 74.94 74.63 74.13 73.19 72.96 72.79 72.75 72.97 74.18 74.44 74.49 73.91 73.28 72.35 72.15 72.75 73.41 73.27 72.45 71.98 70.90 69.55 69.02
44.72 44.44 41.98 46.75 46.18 45.39 46.11 43.08 48.78 51.36 49.47 49.93 51.52 52.50 53.42 55.91 59.32 61.22 63.14 63.45 64.09 66.36 69.68 72.92 74.66 74.99 74.92 74.70 74.90 74.02 73.31 73.21 73.14 73.59 73.89 73.67 73.92 73.79 73.52 72.17 71.98 72.21 72.45 72.29 71.99 71.61 70.68 70.33 69.75
42.58 40.14 40.97 43.45 46.79 45.62 45.05 44.32 49.62 51.53 49.57 50.40 51.90 52.52 53.09 54.69 54.91 60.06 62.25 64.70 63.59 66.74 66.45 69.20 72.79 74.10 74.69 74.76 74.31 73.77 72.17 72.16 73.13 73.79 73.93 73.97 74.17 74.42 73.79 72.59 72.34 72.90 72.37 72.07 71.50 71.08 70.75 70.40 70.63
39.19 39.58 40.78 41.29 45.46 46.37 45.65 45.36 48.93 50.16 48.81 50.38 51.92 52.55 52.81 53.13 54.73 56.53 59.10 62.62 64.37 65.84 65.52 66.87 69.39 72.74 73.20 73.19 73.37 73.49 72.69 69.80 70.05 71.71 73.34 73.91 73.97 73.67 74.04 73.56 73.00 72.75 72.26 72.03 71.27 71.00 71.33 69.63 69.05
42.43 41.10 40.57 43.79 46.55 44.62 45.77 45.52 48.29 49.76 49.21 49.23 49.86 51.57 52.27 52.64 54.40 55.68 57.70 60.44 62.40 63.90 65.56 65.34 66.92 69.21 70.65 70.92 70.75 71.17 71.22 70.85 70.73 71.98 71.36 72.26 73.99 74.21 74.51 73.38 73.63 73.56 72.30 71.95 70.41 70.40 66.67 67.99 68.64
42.29 40.58 41.02 44.08 46.01 45.14 45.36 45.12 47.56 48.46 48.88 50.24 49.71 50.55 51.44 52.09 53.36 56.33 56.93 59.53 61.66 62.96 65.60 67.03 66.07 67.90 69.89 70.19 70.26 70.58 70.73 70.88 71.82 72.45 72.65 72.89 73.31 74.41 74.56 74.62 73.84 73.12 71.28 69.53 69.99 66.14 64.97 66.49 68.19
42.20 40.99 41.28 41.32 44.41 46.04 44.40 43.58 45.12 47.71 49.38 51.87 51.96 51.96 52.42 52.00 53.86 56.95 58.61 60.26 61.47 62.48 63.58 63.21 65.43 67.48 68.56 70.26 69.28 69.73 70.70 70.87 70.72 71.20 71.80 73.08 73.51 73.71 74.34 74.64 73.46 73.27 69.14 67.61 65.60 66.53 66.09 64.24 65.11
39.57 45.29 43.88 43.22 41.67 39.08 43.94 37.24 43.88 45.85 47.34 50.07 51.35 52.40 52.69 53.98 57.23 57.97 57.66 56.61 57.15 57.17 58.94 59.84 59.38 59.62 60.34 65.00 69.46 69.71 69.02 69.08 70.62 70.54 70.30 69.65 71.69 72.45 72.85 72.95 72.96 72.63 71.48 70.33 69.04 68.48 68.44 67.27 64.56
42.58 46.13 44.28 44.13 42.41 41.23 40.93 39.42 43.25 45.88 45.98 48.32 49.84 50.57 51.46 52.57 53.02 52.11 52.52 53.29 53.74 54.69 55.28 56.28 56.46 56.05 56.88 57.08 59.06 59.38 59.98 60.09 61.80 63.09 63.79 65.82 66.57 67.92 70.02 72.02 72.92 72.89 72.13 71.29 70.34 70.16 68.46 67.84 65.43
47.30 44.20 42.61 42.27 41.40 36.21 40.96 40.08 40.58 44.45 46.26 48.04 48.83 48.88 49.42 50.00 50.55 51.09 51.86 52.84 52.77 53.65 54.04 54.53 55.44 55.10 55.47 55.75 55.95 55.95 55.72 56.22 56.51 57.76 57.84 59.08 59.87 61.49 64.17 66.14 69.42 71.04 71.35 71.58 71.27 71.21 70.54 69.59 69.30
46.16 43.18 36.48 34.67 34.69 34.48 41.68 39.33 42.29 46.82 47.88 50.03 47.99 47.73 48.45 49.57 50.09 50.29 50.39 50.70 51.22 51.56 52.12 52.84 53.37 53.60 54.25 54.19 54.35 54.27 54.59 55.10 54.99 55.40 55.48 56.19 56.67 57.82 59.97 61.59 62.77 64.33 68.57 70.16 70.68 70.61 70.46 70.81 70.54
44.52 43.57 37.35 29.74 31.89 35.56 41.55 37.74 43.00 46.24 47.77 48.95 48.16 47.96 48.29 48.40 49.25 49.14 49.26 49.82 50.27 51.01 51.63 52.06 52.16 52.50 53.03 53.21 53.31 53.65 53.80 53.06 53.38 54.36 53.80 54.04 54.63 55.92 58.43 59.26 60.84 62.14 63.57 65.88 69.57 68.56 68.60 70.20 69.00
43.43 41.08 43.97 39.00 38.80 37.07 40.24 42.06 43.64 45.58 45.19 45.87 45.78 46.68 46.66 47.29 47.90 48.19 48.93 49.76 49.94 50.48 50.91 50.76 51.11 51.68 52.15 52.00 52.21 52.44 52.87 52.43 52.26 52.99 53.43 53.18 54.34 54.35 55.52 56.71 57.72 59.17 60.70 62.68 65.89 65.90 68.01 68.74 68.48
45.86 46.37 39.21 40.32 30.58 29.66 36.66 38.69 40.87 42.28 43.31 44.67 45.18 45.81 46.01 47.04 47.22 47.97 48.65 49.27 49.94 50.22 50.72 51.02 51.14 50.66 50.96 51.38 51.63 51.53 51.49 51.69 51.65 51.84 51.74 52.19 52.83 53.46 53.76 54.29 54.95 55.90 58.08 60.03 62.51 64.48 66.49 66.90 66.30
42.92 41.76 41.60 41.84 39.08 33.62 32.29 36.98 44.01 46.05 45.95 44.76 45.03 44.93 45.27 45.80 45.99 47.23 48.34 48.98 49.59 50.15 49.96 49.95 50.14 49.84 50.14 50.48 50.59 50.41 50.16 50.26 50.52 50.21 50.39 50.43 51.05 51.32 51.37 52.14 52.99 54.01 55.04 56.95 58.79 61.23 62.74 63.11 64.81
45.17 43.89 44.09 38.03 36.40 38.39 37.02 37.38 43.66 44.30 45.61 45.56 44.69 44.45 45.19 45.79 46.58 47.24 47.35 48.15 48.75 48.92 48.70 48.75 49.01 48.94 49.49 49.27 49.07 49.04 49.33 49.36 49.12 48.98 49.31 49.62 49.17 50.01 50.43 51.69 51.67 51.92 52.99 54.67 55.74 56.93 59.42 61.19 61.80

GFSSGP_sfc_wetblb_102.txt.gz
Wetbulb
66.61 61.08 61.73 60.87 53.50 54.05 52.85 54.33 56.77 56.11 55.94 58.65 59.48 58.75 58.55 62.10 63.17 62.26 76.50 77.37 77.09 77.75 79.26 77.82 77.77 78.12 78.28 78.20 77.87 77.39 76.97 76.59 76.44 76.71 76.66 76.64 76.49 76.66 76.96 77.28 77.62 77.24 76.00 75.40 75.38 74.91 74.51 74.33 73.86
60.95 59.23 60.42 58.49 49.73 49.43 51.93 56.24 54.64 56.14 56.87 58.63 59.11 59.62 61.34 64.12 71.28 72.56 75.22 76.81 77.60 78.35 79.37 78.33 77.59 77.92 78.05 77.97 77.57 77.26 77.04 76.84 76.81 76.66 76.59 76.69 76.64 76.84 76.99 77.16 77.47 76.58 75.46 74.67 74.55 74.71 74.68 74.53 74.11
60.59 59.37 54.86 51.86 50.21 47.74 50.96 54.73 56.46 56.63 57.35 57.07 57.49 61.19 65.82 67.42 72.78 74.08 77.29 77.26 77.93 78.50 79.07 78.90 77.57 77.52 77.74 77.62 77.46 77.13 76.98 77.01 76.96 76.81 76.66 76.84 76.71 76.83 76.63 76.94 76.84 75.66 74.75 74.00 74.16 74.33 74.80 74.71 74.59
56.69 56.26 55.33 49.41 47.63 50.69 51.19 54.21 56.14 55.81 56.97 57.51 57.47 58.21 63.12 69.29 73.46 76.73 76.76 77.13 77.71 77.74 78.42 77.32 77.21 77.16 77.26 77.41 77.23 77.15 77.15 77.08 76.90 76.86 76.83 76.80 76.75 76.57 76.42 76.43 76.16 75.53 74.39 74.30 74.30 74.84 74.89 75.14 74.81
57.09 54.42 47.86 47.08 47.37 49.92 52.88 54.75 56.14 54.87 55.52 56.39 56.53 55.85 58.55 72.78 76.60 76.89 76.36 76.98 76.70 77.18 78.19 77.82 76.97 76.95 77.16 77.21 76.96 76.92 76.97 76.84 76.75 76.90 76.75 76.68 76.41 76.36 76.37 76.21 75.78 74.98 74.80 74.66 74.55 74.50 74.75 75.26 74.65
51.19 52.50 45.41 44.48 46.90 49.52 51.80 54.17 54.48 53.66 54.27 54.52 54.10 55.18 59.22 72.29 75.64 76.73 76.93 76.66 76.76 76.61 77.71 77.69 76.79 76.77 76.60 76.78 76.57 76.44 76.49 76.44 76.57 76.39 76.52 76.57 76.26 76.16 76.19 76.25 75.89 75.20 75.19 75.26 74.86 74.45 74.30 74.61 74.33
50.04 48.49 45.44 46.02 46.10 47.30 49.05 52.65 51.39 50.66 50.70 51.41 54.08 52.75 59.58 65.73 75.54 76.92 77.18 77.17 76.80 77.06 77.20 76.99 76.20 77.01 76.52 76.24 76.03 75.88 75.77 75.93 75.90 75.75 75.90 76.12 76.11 76.11 76.01 76.01 75.83 75.31 74.88 75.08 74.96 74.48 73.91 73.94 73.91
51.19 49.60 45.77 46.04 45.34 45.83 49.44 50.90 50.89 50.22 49.35 53.40 55.21 52.65 58.48 65.54 74.02 76.96 77.07 76.94 76.42 76.57 76.55 76.73 76.36 75.61 75.81 76.26 75.96 75.81 75.65 75.62 75.38 75.61 75.64 75.59 75.70 75.55 75.51 74.82 75.14 74.91 74.63 74.34 74.44 74.34 73.91 74.06 74.04
52.00 45.94 44.10 45.26 45.14 46.58 49.53 48.06 51.09 52.52 50.60 51.88 54.28 56.08 58.25 66.20 72.64 75.47 75.35 75.37 75.03 75.13 76.19 76.75 76.55 75.42 74.63 74.59 75.89 75.56 75.50 75.54 75.29 75.55 75.37 74.89 74.60 75.57 75.62 74.12 74.63 74.56 74.28 74.21 74.16 74.11 74.20 73.86 73.69
48.09 44.96 45.37 48.10 48.29 47.41 48.27 48.21 48.67 48.09 48.99 49.69 51.14 54.17 57.23 64.84 69.34 71.58 73.51 73.45 73.56 73.90 75.53 76.51 77.18 75.99 74.79 73.80 75.52 74.73 74.78 74.75 74.78 74.59 75.46 74.53 74.57 75.06 73.82 74.45 74.53 74.30 74.06 73.89 73.71 73.48 73.36 72.96 71.79
48.22 45.47 48.09 47.66 48.35 48.68 47.84 47.84 49.92 48.50 47.57 50.17 50.37 52.87 56.66 57.50 64.61 68.72 72.70 73.99 73.81 74.82 75.35 75.92 76.46 77.18 75.61 74.18 74.72 74.08 74.41 74.42 74.77 75.01 75.38 74.69 73.98 74.71 74.01 74.15 74.68 74.47 73.42 72.61 72.03 71.30 70.30 69.68 70.56
45.21 48.15 47.99 47.78 47.68 48.57 48.10 49.98 49.10 49.59 50.12 52.15 52.92 53.99 56.29 56.77 57.44 64.71 69.83 72.58 74.38 74.44 75.02 76.18 76.28 76.60 76.42 74.81 74.23 74.30 74.22 74.60 74.50 74.97 75.82 74.54 73.88 74.07 74.05 72.95 73.28 73.74 73.06 72.80 72.21 70.52 70.42 70.32 70.66
45.42 47.04 48.42 48.99 50.00 50.32 50.87 49.58 49.46 50.18 52.42 53.67 53.62 54.87 55.80 56.78 58.00 59.98 68.82 70.83 72.59 73.61 75.10 74.80 76.32 76.11 76.41 75.11 74.42 74.57 74.12 74.13 75.02 74.85 75.70 75.39 74.70 74.15 74.02 73.09 72.81 72.57 72.59 72.26 72.32 71.74 71.23 71.01 70.59
48.96 47.92 49.60 50.75 50.87 50.95 49.41 50.02 49.99 52.05 54.07 52.87 54.33 54.98 56.26 57.17 58.49 63.84 69.57 70.02 70.48 71.43 74.05 76.05 76.79 76.89 77.26 76.72 75.64 74.86 74.93 75.13 74.97 74.71 75.16 74.95 75.00 74.90 74.76 74.68 74.66 74.27 73.84 72.85 72.39 71.94 71.72 71.28 70.57
50.16 47.34 49.35 50.05 50.88 50.16 51.65 48.59 48.79 53.04 53.12 53.34 54.09 55.10 56.58 58.67 60.05 63.74 67.87 66.68 67.70 67.16 70.54 75.20 76.29 77.34 77.39 77.11 76.69 75.96 74.79 74.75 73.93 74.86 75.85 75.69 75.70 75.78 75.23 74.66 74.66 74.98 75.56 76.01 75.34 74.84 73.91 72.83 71.82
47.64 48.61 45.19 49.65 50.26 50.32 50.16 45.74 50.57 53.21 53.01 52.87 53.99 55.00 56.35 58.58 60.55 62.49 63.31 64.70 67.99 66.87 67.41 71.10 70.98 74.23 76.95 77.24 77.27 76.49 75.87 74.86 74.54 74.37 74.53 75.43 75.58 75.64 74.86 74.23 74.06 75.04 75.22 74.89 74.46 74.34 73.69 73.56 73.20
46.59 43.45 44.61 46.71 50.42 49.42 49.24 46.80 50.71 53.62 53.10 52.87 53.99 55.05 55.48 57.43 60.23 63.43 63.45 64.52 66.78 67.99 68.60 71.02 72.01 72.31 73.98 76.16 76.39 76.81 77.14 76.07 75.37 75.13 74.37 75.15 74.83 74.15 74.43 73.84 74.06 75.23 74.51 73.78 73.53 73.27 73.46 72.68 72.92
41.39 42.60 44.83 44.88 48.27 49.04 48.20 48.34 51.16 52.58 52.35 52.73 53.72 54.43 55.25 56.32 57.96 60.66 63.22 64.15 65.98 68.48 70.36 70.56 71.98 74.20 73.31 74.04 75.20 75.21 74.96 75.52 76.08 75.60 74.62 74.98 74.80 73.18 74.00 74.43 74.74 74.08 73.64 73.32 73.46 73.59 73.51 73.05 72.49
45.64 44.65 43.71 46.27 48.80 47.62 47.95 48.19 50.20 52.00 52.61 52.65 53.68 54.23 55.28 56.35 58.02 59.15 60.14 63.84 64.80 66.71 68.29 68.50 68.78 71.73 72.06 69.97 71.05 72.28 72.07 73.60 74.12 75.21 75.99 75.95 76.00 75.39 73.43 73.49 74.25 72.29 74.06 73.69 72.28 72.57 72.81 72.17 72.48
45.79 44.22 43.91 46.33 48.25 48.39 48.23 47.82 50.30 51.22 52.51 54.19 53.56 54.47 55.39 56.37 57.18 59.10 59.81 62.05 63.58 65.56 68.53 69.32 70.39 70.57 70.46 70.40 71.03 71.81 72.33 73.03 74.64 75.04 75.33 75.20 74.46 74.81 74.48 74.31 74.63 75.40 72.83 73.36 72.96 72.31 70.69 69.99 70.94
44.81 44.03 44.13 43.19 47.08 48.75 47.73 46.73 48.68 51.37 53.02 54.66 55.34 55.58 56.56 56.46 58.47 60.07 61.09 63.31 65.41 66.34 67.79 69.36 71.38 71.55 71.09 71.38 71.34 71.62 72.52 72.30 71.06 72.03 74.44 74.79 74.98 75.25 71.95 73.93 74.97 75.31 75.33 72.94 73.23 72.69 71.73 68.14 68.12
42.21 46.09 45.14 44.36 44.39 41.65 48.63 40.62 47.55 49.85 50.90 53.21 55.12 56.27 57.01 58.63 60.32 60.91 60.98 61.27 62.13 62.91 63.67 63.86 64.07 64.88 65.15 67.42 69.61 70.58 70.15 70.26 70.06 71.76 71.62 71.77 72.97 74.00 74.52 74.69 74.60 74.67 74.68 73.26 72.32 71.53 70.70 69.70 66.77
44.30 47.21 46.59 46.04 45.27 45.23 45.03 42.28 46.12 49.69 48.59 52.02 54.38 55.68 57.95 59.08 58.63 58.26 58.28 58.80 59.68 60.54 61.03 61.75 62.03 61.68 62.04 62.38 62.14 62.28 63.65 63.26 64.50 65.53 65.71 67.02 68.38 69.10 70.04 71.75 72.35 73.74 73.89 73.54 73.20 73.14 71.41 70.04 68.67
48.81 47.27 46.84 46.46 44.67 39.09 43.89 43.05 43.48 46.77 49.18 52.18 53.61 54.40 55.26 56.20 56.59 56.97 57.94 58.49 58.22 59.14 59.51 60.07 60.65 60.28 60.88 60.78 60.22 59.62 59.76 60.01 60.47 61.77 61.32 62.30 62.97 63.85 65.34 66.00 67.57 69.80 71.15 71.21 71.93 73.30 72.94 72.71 71.48
48.06 45.72 39.46 37.27 37.72 37.12 45.12 42.75 44.82 50.18 51.91 53.24 53.47 53.78 54.82 55.97 56.16 56.23 56.30 56.47 56.97 57.39 58.06 58.39 59.27 59.17 59.92 59.72 59.85 59.58 59.84 60.10 59.86 59.57 59.64 60.24 60.19 60.84 63.50 63.92 64.16 64.08 65.88 67.02 69.63 71.91 72.24 71.99 70.75
46.15 45.89 39.42 33.05 34.75 37.36 45.09 39.73 45.62 51.77 52.79 54.89 54.79 54.51 54.42 54.82 55.25 54.77 54.86 55.51 55.89 56.52 57.25 57.73 58.14 58.51 58.91 59.00 59.07 59.30 59.74 58.52 58.52 59.62 58.52 58.37 58.47 59.48 61.68 61.11 61.40 62.02 63.39 63.97 65.59 66.08 67.74 70.17 69.80
45.24 43.41 47.44 42.11 42.84 39.84 41.54 45.17 48.97 50.58 51.30 52.23 52.15 52.82 52.96 53.35 53.48 53.37 54.26 55.17 55.68 56.21 56.53 56.72 57.05 57.59 58.05 57.98 58.45 58.80 58.68 58.34 57.77 58.21 58.21 57.52 58.87 58.55 59.16 59.37 59.22 59.54 60.19 60.95 63.26 62.51 66.26 69.11 69.71
47.86 48.72 41.49 42.87 33.81 32.32 38.74 41.41 42.22 47.24 48.85 50.79 50.90 51.66 52.29 52.75 52.76 53.16 53.59 54.05 54.90 55.61 56.13 56.86 56.99 56.42 56.66 57.21 57.52 57.07 57.24 57.50 57.16 56.93 56.84 57.14 57.27 57.46 57.18 57.34 57.82 58.08 58.40 59.00 60.11 61.10 63.42 65.92 66.73
45.45 44.17 45.16 45.06 42.03 35.90 34.70 39.70 48.43 49.62 51.31 50.82 51.55 52.11 52.15 52.01 51.74 52.27 53.17 53.35 53.81 54.85 55.36 55.80 55.65 55.73 55.71 56.16 55.92 55.60 55.74 55.97 55.84 55.39 55.66 55.66 55.73 55.46 54.93 55.23 55.41 55.61 56.50 57.66 58.29 58.73 59.06 60.94 64.68
48.94 45.78 45.95 40.17 38.53 41.80 40.82 40.28 49.27 50.91 52.68 52.54 51.78 51.49 51.65 51.59 51.40 52.28 52.48 52.56 53.11 53.63 54.17 54.41 54.78 54.56 54.78 54.86 54.39 54.58 54.85 54.83 54.43 54.25 54.40 54.72 53.91 54.48 53.74 53.71 53.49 53.32 53.97 54.97 54.68 54.30 56.40 57.71 59.57

GFSSGP_sfc_wetblb_105.txt.gz
Wetbulb
66.77 63.71 61.38 59.25 53.71 55.31 53.46 55.80 60.14 58.08 58.28 60.44 60.87 59.95 59.65 61.38 62.88 64.35 77.06 78.50 77.53 78.98 78.65 77.52 78.28 78.69 78.69 78.13 77.86 77.45 76.84 76.47 76.62 76.74 76.84 76.74 76.94 77.12 77.49 77.60 77.55 76.97 76.28 76.56 76.07 75.01 74.19 73.87 73.90
63.64 59.38 59.01 56.29 51.16 50.45 52.73 57.61 57.49 58.82 59.95 60.12 60.12 60.15 60.98 65.85 71.77 72.71 76.16 77.61 78.26 79.33 79.07 78.09 78.10 78.31 78.56 78.18 77.58 77.12 76.89 76.52 76.74 76.71 76.87 76.89 76.79 77.17 77.14 77.62 77.43 76.57 75.71 75.36 75.05 74.44 74.36 73.97 73.84
60.96 59.57 54.68 52.57 51.16 50.52 52.46 57.24 58.88 60.02 59.46 58.89 58.55 61.00 64.44 66.68 72.15 74.82 77.98 77.53 78.58 79.39 79.15 79.14 78.10 78.20 78.23 78.00 77.52 76.94 76.64 76.67 76.92 76.69 76.72 76.84 76.84 76.99 77.14 77.37 77.27 75.91 75.08 74.45 74.42 74.49 74.55 74.39 73.99
57.63 55.99 55.32 50.00 50.09 53.44 54.87 57.36 57.50 58.30 59.07 59.39 58.76 58.09 64.75 70.52 72.96 76.60 76.72 77.34 78.65 79.02 78.95 77.47 77.61 77.72 77.80 77.87 77.47 77.04 77.02 76.94 76.77 76.77 76.92 76.84 76.94 76.73 76.78 76.87 76.62 75.47 74.36 73.93 74.20 74.38 74.56 74.51 74.32
57.71 54.47 49.04 47.97 49.04 52.71 55.55 55.77 56.80 57.11 57.74 57.92 58.58 56.80 59.26 71.64 76.14 77.29 77.02 77.39 77.62 77.99 79.21 78.52 77.39 77.54 77.57 77.67 77.65 77.24 77.06 76.73 76.64 76.81 76.86 76.81 76.73 76.53 76.56 76.29 75.86 74.91 74.45 74.22 74.14 74.18 74.15 74.43 74.48
52.02 52.88 47.17 45.89 48.41 51.33 53.79 55.57 55.81 55.92 56.20 56.52 55.76 56.10 58.46 70.32 74.66 76.83 77.36 77.53 77.29 76.90 78.63 78.16 77.10 77.13 77.16 77.19 77.19 76.98 76.80 76.78 76.76 76.71 76.86 76.73 76.42 76.45 76.38 76.19 75.44 74.91 75.00 74.85 74.49 74.16 73.88 74.15 74.02
51.38 49.99 46.86 47.84 48.23 50.03 52.35 55.00 53.46 54.04 53.78 53.72 56.08 52.70 58.59 66.08 75.36 77.17 77.69 77.76 77.27 77.08 77.34 77.30 76.56 77.03 77.01 76.79 76.51 76.51 76.33 76.31 76.34 76.11 76.11 76.24 76.25 76.22 76.20 76.06 75.57 75.08 75.03 75.23 74.80 74.30 73.82 73.55 73.22
52.80 51.14 47.79 48.44 47.36 48.29 52.77 52.08 53.57 52.81 52.10 55.84 55.19 52.42 54.87 67.39 73.74 76.74 77.57 77.55 76.89 76.95 76.79 76.54 75.89 75.59 76.02 76.62 76.27 76.28 76.31 76.20 75.95 75.85 75.88 75.96 76.07 75.99 75.98 75.36 75.48 75.04 74.56 74.81 74.81 74.54 74.03 73.53 73.28
53.92 47.76 45.85 47.71 48.33 49.51 52.75 49.81 53.60 54.08 52.31 52.93 55.12 55.53 60.44 64.35 71.64 74.64 75.38 76.12 75.31 75.83 76.42 76.31 75.76 74.99 74.45 74.62 76.11 75.91 75.93 76.12 75.83 75.93 75.80 75.17 74.25 75.27 75.54 73.96 75.06 75.31 74.54 74.07 74.47 74.72 74.54 73.82 73.62
50.32 46.62 47.17 50.91 51.33 49.96 51.76 50.42 51.38 50.51 51.04 51.18 52.51 55.14 57.63 59.80 68.50 72.21 73.26 73.18 74.06 73.88 75.16 75.98 76.45 75.42 74.99 74.25 75.93 74.61 74.51 74.79 74.85 74.51 75.38 74.32 74.29 75.14 73.85 74.46 74.86 74.89 74.46 74.29 74.12 74.11 73.77 73.04 71.03
49.91 46.76 50.06 50.74 50.54 51.04 50.31 50.16 51.46 49.99 48.98 51.86 51.81 53.84 55.42 57.60 65.25 68.64 71.48 72.64 72.23 74.15 75.34 75.38 76.94 76.90 75.46 74.25 75.74 73.65 74.11 73.74 74.10 74.58 75.11 75.39 74.22 74.85 73.51 73.84 73.53 74.00 73.65 72.31 72.09 71.35 69.95 69.20 69.90
47.31 49.84 50.06 50.98 50.80 49.53 48.80 51.09 50.17 51.09 51.61 53.79 54.07 55.00 55.48 57.13 60.10 65.85 69.40 72.35 72.01 73.47 75.54 76.32 77.24 77.11 77.19 75.07 74.51 74.59 73.89 74.21 74.12 74.63 75.55 75.48 73.40 74.94 74.78 72.32 73.72 74.27 72.69 72.69 71.92 70.56 71.58 69.99 69.58
48.23 49.10 50.60 51.02 50.67 50.42 51.58 50.29 50.59 50.90 53.21 54.37 54.55 54.46 54.55 57.30 59.66 61.70 68.51 72.50 71.47 73.88 74.90 75.96 76.82 77.07 77.36 77.10 75.53 75.61 74.46 74.35 75.18 75.14 75.61 75.57 74.05 75.77 74.25 74.80 72.75 73.54 72.59 72.50 72.60 71.40 72.38 70.75 70.65
49.85 49.18 49.34 50.60 50.79 51.37 50.26 50.59 51.26 52.32 54.65 53.98 54.14 54.03 55.03 56.52 58.86 61.25 63.32 70.61 71.90 73.67 74.32 75.52 76.44 76.59 76.79 77.07 76.83 76.12 76.31 75.76 75.04 75.17 75.74 76.16 75.90 77.32 75.01 74.92 73.18 73.29 71.91 72.07 72.23 72.56 71.94 71.31 71.14
50.15 47.87 49.49 49.22 51.40 51.14 52.56 49.05 49.66 53.48 54.79 53.39 53.41 54.69 55.73 56.64 59.16 61.01 64.70 70.24 69.19 72.25 73.44 74.81 76.44 76.96 77.12 77.99 77.15 76.38 75.65 75.16 75.41 75.34 77.26 76.23 77.33 77.85 77.20 75.09 74.99 75.61 76.08 77.65 75.97 75.16 73.89 72.41 71.56
48.36 48.56 45.60 50.07 50.88 51.38 51.08 46.29 51.80 54.29 54.22 53.20 54.52 54.98 55.37 56.99 58.54 62.03 66.87 69.87 69.43 68.06 71.23 74.32 73.46 76.39 77.30 77.12 76.40 76.03 76.04 75.98 75.33 75.30 75.56 76.06 76.59 76.51 77.51 76.46 74.86 75.37 76.21 75.22 74.43 74.25 73.45 73.28 72.71
47.31 43.22 45.30 47.19 51.94 50.69 49.84 47.48 52.80 54.54 53.91 53.78 54.97 55.50 55.62 57.61 60.33 63.50 65.69 67.34 67.27 70.76 71.17 71.70 73.01 73.51 76.91 77.70 76.16 75.48 76.11 76.63 75.96 75.10 75.61 75.42 74.45 75.74 75.93 74.83 74.00 76.05 77.03 75.36 74.63 74.32 74.36 73.12 72.84
42.93 43.55 45.88 46.10 49.94 50.16 48.93 48.57 52.00 53.71 54.04 53.77 54.52 55.20 55.95 56.63 58.97 62.01 63.56 64.27 65.25 69.13 69.12 70.42 71.79 73.14 76.92 75.46 76.08 73.43 74.73 76.43 78.26 75.20 74.32 75.06 73.49 74.25 75.45 74.40 74.78 75.61 74.51 75.09 74.52 73.78 73.30 73.90 72.80
47.17 46.11 44.74 47.84 50.52 49.20 48.71 49.20 51.10 53.51 53.67 53.33 53.92 54.80 55.64 56.79 58.86 61.19 62.09 63.29 64.16 67.81 70.86 71.27 70.89 74.76 73.63 70.48 68.52 69.38 69.85 71.17 72.63 74.47 75.83 76.15 75.60 74.97 75.84 71.94 70.66 73.05 72.89 74.31 75.51 73.62 71.90 70.01 71.68
46.97 45.53 45.80 47.88 48.83 49.17 48.63 48.34 51.36 53.07 53.13 54.35 54.66 55.12 55.62 56.74 58.51 60.08 61.47 62.53 64.54 67.71 69.64 71.35 71.05 72.41 71.99 69.68 71.60 69.56 68.63 68.09 70.88 74.88 75.18 76.00 75.20 74.53 75.41 74.53 71.66 73.72 71.90 74.32 72.08 73.30 70.09 71.67 71.46
46.58 44.80 45.56 45.01 47.99 49.30 47.64 45.52 48.49 51.84 53.57 54.70 55.99 56.53 57.02 56.69 58.11 61.11 62.09 64.14 66.49 68.35 69.43 70.98 72.29 72.71 72.80 72.70 71.98 72.53 72.39 72.06 70.64 72.45 73.11 75.54 75.62 75.54 75.07 74.58 74.69 72.84 59.36 61.86 63.63 67.64 68.95 67.68 69.33
44.23 47.91 46.13 45.72 44.96 41.78 48.10 39.87 46.89 50.50 50.97 53.45 55.52 56.48 57.16 57.77 60.69 62.30 63.42 64.68 66.18 66.23 67.02 67.72 67.78 69.05 69.54 71.40 72.20 72.44 70.30 71.50 71.83 74.41 74.23 72.46 73.13 73.21 73.77 72.45 73.38 71.36 63.23 64.93 61.49 69.87 71.04 70.83 68.28
45.74 48.62 47.05 45.55 43.04 44.27 44.97 42.88 46.04 50.35 49.57 52.36 55.16 56.67 58.42 60.24 61.26 61.01 61.43 62.41 63.32 64.28 64.42 64.72 64.98 65.08 65.47 65.94 66.78 68.71 67.55 66.05 67.29 68.79 68.89 70.15 69.67 69.25 67.94 69.90 71.88 73.08 73.20 72.20 71.20 71.19 71.80 71.13 69.67
49.45 47.24 46.85 47.01 45.31 38.34 43.39 44.22 44.69 47.30 50.11 52.83 55.39 57.15 58.74 59.25 59.54 59.94 60.68 61.24 61.23 62.50 62.92 63.33 63.22 63.32 63.89 63.79 63.93 63.79 62.93 63.04 62.37 63.40 62.04 62.96 64.08 64.68 66.72 66.15 67.36 68.16 69.24 70.76 71.27 71.61 71.93 71.57 71.19
48.11 45.47 39.24 37.81 38.41 37.48 44.94 42.45 45.44 49.99 51.75 54.52 54.74 55.92 57.43 58.26 58.65 58.76 59.01 59.19 59.89 60.38 61.04 61.58 62.14 61.61 62.50 62.52 62.61 62.49 62.62 62.82 62.65 61.96 61.20 61.80 61.36 61.82 65.58 66.84 65.71 64.53 66.44 66.13 67.84 68.62 70.44 71.22 70.01
46.29 46.27 40.92 33.77 36.16 39.63 45.72 40.58 43.60 51.13 54.28 55.73 56.57 56.94 57.54 57.81 58.24 58.03 58.44 58.90 58.74 59.43 59.90 60.46 60.82 61.10 61.52 61.57 61.46 61.98 62.27 61.12 61.05 62.10 60.74 60.14 60.14 60.15 64.63 62.98 62.45 62.47 62.69 63.31 65.47 64.14 64.82 67.50 68.05
46.48 43.80 48.39 41.97 44.40 39.63 43.00 45.97 50.81 52.78 52.18 54.31 54.71 55.84 56.15 57.02 57.02 56.96 57.93 58.10 58.37 58.76 59.29 59.57 59.61 59.87 60.22 60.29 61.02 61.15 61.09 60.73 60.38 60.90 60.67 59.84 60.69 60.05 60.80 60.43 60.17 60.63 60.78 61.48 62.98 60.91 62.87 64.83 65.86
48.26 50.42 41.99 43.22 35.80 35.25 41.30 42.02 43.61 48.72 50.49 52.89 53.37 54.33 55.64 56.15 56.13 56.71 57.28 57.26 58.01 58.28 58.95 59.06 59.23 58.91 59.30 59.67 59.93 59.34 59.50 59.73 59.77 59.67 59.26 59.24 59.30 59.14 58.54 58.18 58.22 58.43 58.50 58.91 60.96 59.86 61.18 62.18 62.63
46.18 45.75 46.72 47.04 44.17 37.55 36.18 40.20 49.59 48.26 51.51 52.25 53.61 55.14 55.34 55.26 55.59 55.87 56.14 56.33 56.81 57.51 57.78 58.20 58.17 58.18 58.33 58.53 58.43 58.43 58.50 58.75 58.59 58.04 58.08 58.05 57.99 57.62 56.98 56.77 56.50 56.23 56.32 57.21 58.22 58.12 58.14 57.51 59.13
49.52 47.06 48.06 41.13 39.49 43.28 39.93 40.56 50.93 51.92 53.06 52.13 54.40 55.00 55.48 55.39 55.00 55.28 55.30 55.53 55.87 55.91 56.28 56.74 57.43 57.14 57.45 57.69 57.54 57.69 57.75 57.88 57.36 57.03 57.03 57.05 56.03 56.01 55.43 54.94 54.18 53.73 53.33 54.21 54.27 53.86 54.06 53.88 54.62

GFSSGP_sfc_wetblb_108.txt.gz
Wetbulb
63.87 60.58 60.26 57.13 50.90 53.16 51.22 53.87 58.40 57.85 58.99 61.35 61.21 59.64 58.97 60.70 65.50 63.78 76.25 77.09 77.38 76.20 76.85 77.73 78.49 78.54 77.68 77.73 77.93 77.29 76.56 76.39 76.69 76.61 76.84 76.79 77.04 77.40 77.44 77.12 77.23 77.38 77.34 76.48 75.97 74.94 74.75 74.31 74.74
60.18 61.64 59.03 53.95 48.59 47.85 50.73 56.00 55.55 58.23 59.87 60.90 60.26 59.94 59.76 66.50 71.21 74.19 75.15 76.96 78.07 76.86 76.49 76.93 78.41 78.52 77.98 77.88 77.45 77.02 76.46 76.62 76.66 76.79 76.71 76.79 76.99 77.32 77.55 77.27 77.10 76.99 76.55 76.21 75.36 74.43 74.22 74.03 74.27
60.91 60.30 52.97 50.09 48.12 47.19 49.97 56.07 57.54 59.57 60.18 59.48 58.50 61.16 60.89 66.89 72.05 74.69 76.64 77.83 78.70 77.70 76.98 77.66 78.36 78.28 78.24 77.70 77.20 76.74 76.41 76.61 76.76 76.74 76.89 76.87 77.04 77.14 77.26 77.30 77.00 76.56 75.51 75.21 74.81 74.77 75.00 74.47 74.06
56.26 55.69 53.71 47.53 47.53 51.69 52.81 56.07 58.53 58.80 59.74 59.80 59.37 57.18 65.20 70.81 72.32 75.80 76.50 77.48 78.25 77.65 77.31 77.45 78.02 78.07 78.13 77.63 77.17 76.64 76.61 76.71 76.64 76.74 76.76 76.79 76.91 76.98 77.08 77.17 76.85 76.23 75.23 74.85 75.07 75.37 75.37 75.22 74.77
56.98 53.12 46.62 45.91 47.64 51.50 54.91 57.14 58.01 56.77 58.38 58.66 58.99 56.76 61.06 71.30 75.18 76.51 76.45 77.29 77.54 77.05 78.05 77.07 77.86 77.91 78.05 77.80 77.25 76.87 76.74 76.56 76.36 76.64 76.79 76.84 76.83 76.65 76.75 76.59 76.35 75.73 75.28 75.22 75.27 75.23 75.24 75.08 75.05
50.92 51.61 45.04 43.60 46.73 50.74 53.33 55.49 55.85 55.66 57.50 58.56 57.20 56.63 57.85 71.45 73.81 76.09 76.41 76.90 77.58 77.69 78.31 76.81 77.58 77.58 77.66 77.57 77.21 76.81 76.68 76.41 76.51 76.63 76.73 76.78 76.43 76.35 76.43 76.24 75.69 75.33 75.42 75.27 75.25 75.04 75.06 75.27 75.12
49.76 48.21 44.86 45.74 46.71 48.80 51.46 54.91 53.76 54.45 55.18 55.79 57.34 53.58 56.85 63.00 74.29 75.80 76.46 76.92 76.62 77.69 77.42 76.23 76.10 77.06 77.41 77.12 76.94 76.62 76.34 76.22 76.29 76.16 76.14 76.24 76.20 76.18 76.16 75.91 75.57 75.27 75.34 75.42 75.37 74.87 74.57 74.64 74.72
51.35 49.79 46.26 47.01 45.85 47.03 52.69 53.68 54.38 53.42 53.23 57.45 57.18 51.30 53.43 68.93 73.27 75.17 76.34 76.15 75.91 76.01 76.49 75.30 75.83 75.96 76.40 76.48 76.86 76.59 76.49 76.33 76.05 75.98 75.98 75.98 76.10 76.02 75.83 75.19 75.31 75.19 75.32 75.39 75.37 75.14 74.69 74.34 74.12
53.68 45.95 44.55 46.07 47.11 48.80 53.18 51.12 53.51 55.09 52.06 53.62 54.71 54.27 60.14 67.19 70.58 72.68 73.72 74.76 74.80 75.29 75.77 75.31 74.95 75.30 75.14 75.45 76.29 76.50 76.55 76.36 76.03 76.19 75.98 74.75 74.12 74.63 74.66 73.96 74.89 75.36 74.89 75.04 75.13 75.11 74.69 74.47 74.17
49.43 45.98 45.86 49.72 50.49 50.09 51.72 51.42 51.20 51.00 51.02 51.34 52.94 55.66 57.36 60.70 65.32 68.45 70.84 71.61 71.91 73.58 74.53 74.76 74.42 73.78 73.39 74.18 75.37 75.46 75.60 75.47 75.55 75.39 75.39 74.44 73.72 73.84 73.29 73.64 75.14 75.31 74.98 74.61 74.39 74.68 74.65 74.02 70.16
49.33 46.55 49.55 49.76 51.22 51.90 50.32 50.42 51.86 50.47 49.07 51.38 51.38 52.90 54.74 55.58 59.46 65.91 68.94 70.14 73.22 74.66 74.44 73.99 74.17 74.18 73.23 73.70 74.38 73.72 74.07 73.97 74.20 74.54 75.01 74.13 73.00 74.10 72.66 73.27 72.73 73.62 74.01 71.83 72.45 71.98 71.18 69.22 68.85
46.55 49.46 49.82 49.98 51.13 50.45 48.92 50.80 49.58 50.62 50.76 53.48 54.25 54.79 54.95 55.17 55.33 58.72 65.48 68.51 73.23 71.87 72.01 72.38 71.81 73.74 75.92 74.19 73.35 72.57 73.16 73.22 72.88 73.33 74.56 73.73 73.03 73.93 72.95 72.34 72.40 72.36 71.79 70.83 70.48 69.07 68.21 67.22 67.94
47.40 48.32 49.91 50.83 50.64 50.60 50.55 48.69 48.86 50.03 52.98 54.28 54.38 54.61 53.97 54.80 56.76 61.62 65.26 67.66 73.13 69.48 72.54 72.41 70.72 74.31 74.91 75.29 74.13 72.45 73.64 73.10 73.35 73.55 74.55 74.37 73.06 73.70 73.91 73.20 73.08 72.59 71.67 71.30 70.62 69.99 69.36 68.71 68.05
49.63 49.15 49.02 50.08 50.26 50.42 48.69 48.68 50.36 51.35 53.77 53.22 53.64 53.60 54.14 54.46 55.69 60.68 62.14 67.78 70.19 72.46 67.16 66.34 71.41 74.43 75.94 75.50 75.52 75.47 77.13 76.52 76.31 75.29 74.17 75.12 75.13 75.15 74.67 74.87 74.41 73.51 73.83 72.21 71.58 70.69 71.38 69.77 69.41
49.69 47.06 48.54 48.66 49.12 48.84 50.84 47.71 48.63 52.49 53.60 53.24 53.90 54.29 54.35 55.33 56.19 59.43 61.99 65.86 70.04 68.90 66.01 66.53 71.74 73.43 73.94 74.74 75.69 75.47 76.49 75.95 76.87 76.17 77.73 75.65 75.79 76.43 74.84 74.56 73.79 74.00 73.95 75.93 75.29 74.51 74.03 71.85 71.39
47.18 47.33 43.23 48.25 50.01 48.86 50.14 44.89 50.92 53.48 52.90 52.59 53.41 53.39 54.27 55.65 56.73 58.40 61.76 68.84 71.92 73.48 71.57 72.87 71.17 73.19 74.42 76.07 76.19 76.18 76.21 77.15 75.78 74.68 75.51 76.09 76.79 76.49 76.57 75.51 73.64 74.46 75.98 74.17 73.34 72.70 72.11 72.07 71.28
46.41 42.19 43.53 45.06 50.01 49.46 48.45 46.06 50.95 53.97 53.24 53.36 53.84 54.63 55.06 56.24 58.59 61.35 64.28 70.65 70.13 69.22 71.83 73.26 74.77 75.24 74.50 75.98 76.31 76.65 77.27 74.81 73.70 70.39 72.58 73.74 72.55 73.61 71.69 71.84 72.39 73.46 73.58 74.19 74.34 73.14 71.36 70.91 71.29
42.69 43.23 44.68 44.25 47.75 49.11 47.85 47.58 50.67 53.68 53.41 53.16 53.98 54.87 55.55 56.21 58.89 63.23 66.03 69.30 68.82 69.56 71.84 74.26 74.34 76.15 76.59 75.99 76.76 76.35 75.70 77.15 77.04 75.31 75.37 73.31 74.15 71.42 67.10 63.58 68.34 70.97 72.40 72.70 72.84 72.57 72.34 71.85 70.89
46.35 45.72 44.60 46.35 49.21 48.56 47.88 48.30 49.90 52.44 53.28 52.99 53.78 54.95 56.06 57.07 60.14 62.89 64.96 67.07 68.55 72.10 72.39 72.39 73.80 75.59 75.25 74.91 71.85 71.88 71.80 73.21 74.35 75.02 75.82 75.10 72.17 70.72 65.81 63.16 67.64 70.79 70.37 70.70 69.30 64.85 61.38 65.85 67.79
45.62 44.15 44.83 47.57 48.73 49.20 48.60 47.79 50.25 51.89 52.72 53.57 54.30 54.63 55.89 57.52 58.78 61.65 64.59 66.54 68.83 70.84 71.85 72.37 73.22 74.98 76.05 74.43 74.16 73.67 72.66 71.71 72.56 73.96 76.30 76.05 75.37 73.40 70.37 71.16 71.91 70.50 69.61 65.12 63.81 61.90 60.07 64.29 64.11
44.88 43.85 44.68 45.25 47.73 48.68 47.49 45.85 48.00 51.16 53.03 54.26 54.91 55.98 56.34 57.79 59.65 60.90 62.13 65.40 68.55 69.78 71.63 72.19 73.08 73.24 73.22 75.70 73.66 73.98 73.36 73.14 70.72 71.75 72.34 73.90 74.82 75.44 75.02 74.21 73.35 72.20 66.05 63.91 63.02 61.01 59.25 59.70 62.35
42.51 47.11 46.76 45.98 44.61 40.45 47.55 39.05 46.31 48.78 50.51 52.40 53.99 56.00 55.87 57.34 60.78 61.52 62.96 66.09 68.00 67.46 68.09 68.13 68.91 70.11 69.59 72.38 72.16 73.20 71.34 70.09 68.71 68.92 69.47 69.65 70.56 71.63 70.70 72.60 71.87 70.87 64.30 60.59 61.87 63.14 59.99 63.30 61.32
45.07 48.82 47.16 46.44 44.39 42.99 42.83 41.36 44.40 48.43 47.40 50.70 54.21 55.56 56.67 60.32 61.41 61.91 63.22 64.60 64.55 65.37 65.27 65.84 66.39 66.18 66.97 66.93 67.23 68.37 67.85 66.90 67.87 67.84 66.35 67.54 68.58 70.96 69.09 68.26 67.94 69.85 66.45 65.38 65.60 62.64 60.51 65.44 65.14
49.41 47.45 47.06 46.46 43.82 37.87 41.79 40.84 42.10 45.95 48.56 50.50 54.51 55.69 57.56 59.79 60.52 60.89 61.91 62.95 62.56 63.61 63.39 64.25 64.45 64.67 65.46 65.08 65.05 64.90 64.53 64.48 63.30 63.72 63.49 64.36 63.70 64.68 67.70 64.62 65.77 65.86 66.61 66.87 66.81 68.70 67.78 67.50 67.26
47.90 44.71 37.63 36.11 36.98 35.99 43.96 41.29 43.72 49.35 52.14 52.81 53.89 56.82 58.61 59.20 58.87 58.85 58.77 59.24 61.02 61.41 62.44 62.74 63.03 62.91 64.34 64.17 64.17 64.01 64.35 65.37 65.41 63.82 63.14 62.27 61.40 61.69 62.33 63.42 63.51 62.65 63.04 63.12 63.87 63.85 64.33 65.07 65.28
45.70 44.86 38.68 31.97 34.36 37.75 44.78 40.30 44.08 51.82 54.35 54.63 56.03 56.79 57.70 58.20 58.32 58.34 59.25 59.34 58.96 60.19 61.20 61.50 62.14 62.10 62.95 62.87 63.19 63.82 63.96 61.85 62.30 62.11 60.94 60.35 60.04 60.67 62.95 61.83 60.68 60.18 59.94 60.44 61.34 60.91 60.75 61.61 62.00
45.07 42.29 46.95 41.71 42.89 39.58 42.79 45.39 49.76 51.71 52.83 54.31 54.28 55.85 56.36 57.31 58.07 57.62 58.32 58.98 58.93 59.34 60.43 60.67 60.96 61.36 61.58 61.72 62.76 63.10 62.04 62.01 61.49 62.24 62.63 60.64 60.72 59.24 59.88 59.47 59.28 59.08 58.74 58.55 59.09 57.85 58.81 59.95 60.05
47.39 48.69 41.40 42.66 32.77 32.79 40.05 41.06 43.06 47.97 50.84 52.72 53.60 53.90 56.20 56.90 56.56 57.02 57.46 58.22 59.09 59.64 59.46 60.74 61.34 60.58 60.84 61.30 61.16 60.02 61.20 61.22 61.35 60.90 60.02 59.90 59.55 58.90 58.12 57.72 57.55 57.56 57.21 57.22 56.93 55.73 56.63 56.89 57.23
45.20 43.99 45.52 45.13 43.41 37.20 35.78 36.25 48.93 48.35 49.89 52.48 53.32 55.05 55.71 55.65 55.55 56.14 56.47 57.40 57.89 58.78 58.44 59.70 59.10 58.94 59.68 59.81 60.20 60.51 59.96 59.66 59.81 59.05 58.88 58.52 58.43 57.44 55.99 55.78 55.22 54.13 53.65 53.95 53.33 53.17 53.49 53.44 53.60
47.73 46.00 45.81 40.52 38.88 42.42 41.47 40.03 50.31 51.03 50.86 53.43 51.16 55.26 55.38 55.68 55.65 55.54 55.61 55.97 56.12 56.22 56.47 57.35 57.88 57.32 58.07 58.41 58.75 59.19 59.38 59.07 58.67 58.02 57.79 57.96 56.35 55.78 54.43 53.84 53.12 52.43 52.28 52.19 51.39 50.47 50.86 50.48 50.55

GFSSGP_sfc_wetblb_111.txt.gz
Wetbulb
58.65 55.00 56.12 52.48 43.37 43.63 42.39 47.37 53.43 53.66 54.71 56.65 58.08 56.48 57.63 67.56 65.03 61.13 73.12 74.91 75.12 75.66 77.24 77.29 77.45 77.63 77.67 77.62 77.31 76.68 76.55 76.55 76.55 76.58 76.60 76.65 76.90 76.86 76.53 76.79 77.24 77.25 77.17 75.94 75.40 75.13 74.31 74.62 74.53
56.40 57.55 55.47 49.20 40.53 36.91 42.13 50.86 51.08 54.53 55.93 56.82 57.77 56.90 62.81 67.40 72.50 72.82 72.34 74.76 75.31 75.79 76.36 77.04 77.55 77.53 77.73 77.64 76.91 76.30 76.50 76.46 76.50 76.38 76.55 76.68 76.84 76.95 76.68 76.79 77.24 77.33 76.59 75.87 74.70 74.24 74.17 74.53 74.34
59.26 57.05 48.60 42.45 38.89 38.90 42.26 50.63 53.35 55.07 57.36 56.68 56.00 58.80 62.32 67.16 72.77 72.93 74.62 75.27 74.87 74.22 75.76 77.29 77.70 77.38 77.55 77.47 76.78 76.20 76.20 76.38 76.41 76.46 76.48 76.70 76.94 76.79 76.62 76.51 76.67 76.90 76.35 75.53 74.40 74.13 74.82 74.42 74.37
52.76 48.70 48.20 39.21 38.53 43.45 46.68 50.64 53.39 54.27 56.32 56.65 56.65 56.17 66.09 70.77 72.87 73.54 75.99 75.67 74.11 74.12 76.02 77.59 77.81 77.37 77.32 77.34 76.79 76.18 76.36 76.28 76.33 76.38 76.50 76.47 76.87 76.57 76.69 76.66 76.47 76.27 75.64 75.14 74.94 75.31 75.12 74.86 74.54
50.32 46.26 39.11 36.51 39.99 44.98 48.79 51.96 53.67 53.54 54.70 55.38 56.04 55.70 64.59 71.60 74.29 74.49 76.47 76.24 73.89 74.68 75.72 76.95 77.65 77.48 77.62 77.29 76.89 76.43 76.38 76.15 76.15 76.41 76.48 76.50 76.59 76.50 76.59 76.50 76.39 75.89 75.61 75.76 75.49 75.49 75.21 75.11 75.09
44.45 44.34 35.29 34.88 40.40 44.99 47.89 51.88 52.83 52.05 51.82 55.48 54.77 54.70 62.99 72.33 73.39 73.50 75.99 76.07 75.80 75.11 75.42 76.29 77.61 77.42 77.10 76.96 76.58 76.32 75.94 75.95 75.85 75.97 76.20 76.17 76.08 76.23 76.28 76.30 75.94 75.44 75.24 75.41 75.52 75.21 74.93 74.68 74.81
43.61 39.04 35.99 38.62 41.23 43.36 46.56 50.66 50.73 51.36 51.53 53.40 52.23 50.63 57.01 68.12 73.49 74.41 73.81 75.86 76.21 76.22 74.86 75.38 76.45 77.22 77.27 76.66 76.23 76.18 75.90 75.68 75.63 75.54 75.62 75.72 75.76 75.85 75.93 75.54 75.38 75.04 75.04 74.91 75.01 74.76 74.90 74.82 74.93
46.47 41.23 38.22 40.92 40.83 40.79 46.85 47.47 47.09 49.28 50.97 54.16 55.00 48.43 51.27 68.52 72.65 73.50 73.55 74.90 75.84 75.86 74.70 74.17 75.23 75.80 75.28 75.87 76.60 76.18 75.71 75.60 75.46 75.56 75.59 75.49 75.58 75.55 75.45 74.68 74.52 74.83 75.05 75.03 74.82 74.60 74.33 74.43 74.25
47.50 39.29 37.95 40.06 41.79 43.77 47.61 44.27 48.40 50.55 48.95 50.29 51.50 53.14 64.79 68.00 68.50 69.56 70.94 71.51 74.40 74.93 73.71 73.61 74.08 74.46 74.67 75.21 75.92 75.94 76.40 75.95 75.59 75.61 75.63 74.55 73.46 73.90 74.55 74.36 74.51 74.70 74.75 74.89 74.79 74.69 74.12 73.90 73.91
44.15 38.26 40.98 44.16 45.56 44.09 46.41 44.81 46.38 47.73 47.90 48.22 50.22 53.02 58.61 62.19 63.84 63.63 66.75 67.99 71.81 72.16 72.63 73.09 73.57 73.72 73.69 75.41 74.53 74.45 75.24 74.75 74.14 74.04 73.98 72.69 71.47 72.03 73.24 73.48 74.39 74.75 74.50 74.40 74.68 74.53 74.36 74.10 70.36
43.50 41.45 44.12 45.92 47.88 48.09 46.70 45.59 47.49 45.87 44.19 48.22 48.30 50.15 52.22 52.31 55.09 56.82 62.76 64.38 71.10 71.46 71.75 71.06 71.22 71.50 72.03 73.68 73.63 73.42 73.95 73.72 73.71 73.60 73.29 72.14 71.49 71.13 71.86 70.36 71.34 71.65 73.75 71.69 72.38 72.12 71.67 70.77 69.37
41.97 45.50 46.21 46.99 48.51 47.74 45.07 46.86 45.80 45.90 45.76 49.67 50.69 51.26 50.93 50.02 49.68 52.71 53.64 67.34 70.77 68.42 65.36 68.07 70.30 70.40 71.79 72.85 72.16 72.22 72.50 72.34 72.37 72.67 72.86 71.15 70.15 69.04 69.66 69.88 69.62 70.75 70.40 69.51 67.59 68.18 68.24 67.42 66.80
43.93 44.48 46.61 47.95 47.72 46.12 46.63 45.62 45.25 45.34 48.94 50.64 51.48 51.93 50.56 50.10 49.58 50.59 52.18 70.04 69.21 64.28 64.67 66.41 66.27 65.57 69.53 72.41 71.59 70.17 71.21 71.30 71.36 70.93 71.98 71.34 69.74 68.78 70.58 68.67 69.53 70.16 69.48 68.95 67.13 66.74 66.47 65.69 64.82
45.76 45.39 45.97 45.69 45.80 45.66 44.87 45.22 45.31 46.93 50.22 51.03 51.15 50.54 50.46 50.20 50.42 48.95 56.00 67.56 66.60 65.65 63.86 65.83 66.22 65.71 67.88 71.67 72.16 70.88 71.78 70.83 70.35 70.90 71.64 72.33 71.34 69.33 70.75 69.33 70.35 70.09 69.97 68.74 68.50 67.92 66.80 66.00 65.24
46.89 43.51 45.01 45.84 44.63 45.17 46.26 43.10 44.07 47.44 50.46 49.63 50.18 50.42 51.35 51.25 51.70 50.56 56.27 67.75 66.16 65.54 63.36 64.06 65.63 66.32 69.04 72.16 72.31 72.31 72.46 72.59 72.43 72.30 72.06 72.79 72.55 71.43 71.92 71.73 69.67 69.19 69.81 69.48 70.90 68.63 69.76 68.31 67.93
42.65 42.76 38.59 42.54 44.97 46.16 44.42 39.73 46.49 48.95 48.96 48.83 50.38 51.41 51.87 51.33 51.84 52.52 58.41 68.70 64.79 63.52 65.24 65.89 69.67 70.12 70.91 69.72 71.61 73.15 72.37 72.65 72.25 71.02 71.58 72.99 73.24 71.10 70.14 69.78 69.24 70.72 70.50 70.30 70.38 69.24 68.47 66.39 63.34
39.33 35.75 37.32 40.76 44.85 44.86 43.83 41.13 46.72 50.14 49.11 48.55 49.19 50.41 50.99 50.80 52.54 53.42 58.76 69.21 66.64 64.77 64.63 67.96 68.47 69.94 69.89 68.46 69.24 72.92 72.95 71.47 71.48 69.39 68.31 70.71 71.68 70.98 70.29 69.29 68.36 69.53 68.14 66.67 66.38 68.09 66.65 67.42 65.56
35.23 36.82 39.43 40.35 43.74 45.52 43.64 42.27 45.25 48.81 49.50 49.40 49.60 50.40 51.48 52.04 52.53 54.59 63.50 69.24 69.91 66.27 67.22 68.55 68.30 68.27 68.77 69.91 72.51 73.05 73.66 72.30 70.59 66.52 67.51 71.38 70.53 70.40 69.26 67.73 65.93 66.83 65.65 64.68 65.93 61.83 61.28 63.39 66.00
41.20 40.13 39.91 43.30 46.69 44.26 43.48 44.01 46.06 47.77 48.45 48.25 48.83 49.76 50.64 51.28 53.93 59.47 65.88 66.61 68.88 70.50 70.21 68.16 69.58 70.51 71.75 71.60 69.03 68.31 68.23 69.59 70.89 71.64 71.48 70.40 70.47 69.67 65.42 62.61 62.57 61.95 64.07 63.19 62.08 61.45 60.11 60.31 60.72
41.44 39.51 39.31 43.62 46.21 44.19 43.35 44.16 46.53 48.76 48.17 48.51 49.47 49.38 50.28 51.44 53.92 57.44 62.17 66.92 66.96 67.01 67.97 70.22 69.77 70.41 70.22 70.47 67.93 67.79 67.31 69.01 69.03 69.56 70.42 70.64 69.96 69.20 64.94 62.46 62.14 66.27 64.79 62.63 61.78 60.99 59.11 58.64 60.46
40.67 39.02 39.70 40.57 45.16 45.16 44.07 42.02 44.61 49.69 50.68 49.90 50.82 50.64 51.32 51.34 53.99 61.44 64.31 65.51 66.80 66.68 67.06 67.36 66.66 66.70 66.92 68.61 67.52 66.69 66.28 65.29 65.87 67.01 66.34 66.66 70.40 70.60 66.54 66.16 66.69 68.52 65.09 62.30 61.22 60.09 58.07 56.01 58.37
38.43 43.60 43.31 43.06 41.79 35.99 44.42 31.92 40.35 45.61 46.90 48.82 50.80 50.17 50.52 52.99 57.05 63.17 62.93 62.19 62.51 62.45 62.98 62.63 63.01 63.07 63.51 65.23 67.64 66.86 65.01 63.48 63.35 62.80 62.55 63.44 65.53 66.84 65.84 65.36 67.67 66.03 60.27 58.82 59.38 61.09 58.81 56.97 56.17
42.08 45.68 43.66 43.03 39.75 38.04 39.99 34.11 37.95 45.39 44.76 45.94 48.63 50.25 52.52 55.16 58.85 59.81 59.73 60.59 60.80 61.05 60.83 61.05 60.57 60.61 60.67 61.10 62.12 60.17 58.51 59.32 60.94 59.13 58.13 59.09 59.05 61.17 61.27 62.40 63.75 64.55 61.73 59.78 59.30 62.27 59.54 58.70 57.71
47.51 44.28 42.88 42.03 38.23 31.12 37.41 35.54 35.21 41.25 44.49 46.37 49.50 51.54 56.85 57.06 57.53 58.38 59.32 59.49 59.12 59.41 59.05 59.02 58.67 58.88 59.51 59.42 59.29 58.49 57.62 57.36 57.15 56.13 57.29 56.89 56.99 58.41 59.72 60.46 59.18 58.88 59.16 59.01 60.73 64.19 62.20 60.38 61.95
44.74 38.32 31.64 31.14 30.47 28.98 38.87 36.40 37.93 44.82 49.42 48.50 49.26 54.76 54.98 55.91 56.01 55.98 56.01 56.23 56.85 57.09 57.67 58.11 57.21 56.98 57.54 57.94 57.64 57.37 56.71 56.54 56.34 55.67 55.30 54.80 54.64 55.06 56.90 57.10 56.02 56.10 56.04 56.75 57.32 57.52 58.64 59.73 61.31
42.26 39.62 30.90 24.84 26.74 31.77 40.43 34.88 38.57 46.12 50.98 52.19 55.04 54.31 54.53 54.22 54.50 54.75 54.98 55.23 54.89 55.84 56.02 56.76 56.19 55.70 56.12 56.44 56.07 56.41 55.70 55.17 55.43 55.57 55.10 54.92 55.18 54.72 55.68 55.41 55.70 56.05 55.78 55.54 55.43 55.71 56.01 57.38 57.08
41.50 38.40 41.84 35.59 38.07 32.80 37.03 40.71 44.81 49.79 50.28 52.39 52.31 53.16 53.31 53.91 53.38 53.44 53.82 53.91 54.04 54.06 53.84 54.83 54.75 54.11 54.91 55.27 55.26 54.39 54.49 54.80 54.52 54.76 54.90 54.37 54.51 55.64 54.55 54.51 54.10 54.69 55.06 54.88 54.25 53.66 53.71 54.56 55.24
43.10 44.71 36.48 37.20 29.62 26.55 35.30 37.77 39.77 44.04 46.41 50.21 50.83 51.35 53.14 53.26 53.22 53.10 53.26 53.31 53.36 53.38 53.63 54.04 53.84 53.41 53.78 53.68 53.29 53.71 53.80 54.44 54.14 53.76 53.22 53.04 53.22 53.16 53.02 52.61 52.02 51.26 51.12 50.97 50.18 49.38 50.32 50.24 50.86
40.62 41.03 39.96 38.58 36.01 28.39 28.51 34.82 47.40 45.27 46.89 46.79 48.64 51.30 51.46 51.55 51.46 51.79 52.22 52.82 53.14 53.49 53.18 52.22 51.97 52.22 52.14 52.16 52.42 52.87 53.00 53.54 53.33 52.85 52.79 52.70 52.10 51.60 50.80 50.71 50.31 49.91 49.39 49.02 48.09 47.81 48.51 48.22 48.11
43.93 41.46 42.01 34.16 32.91 37.00 35.40 36.00 49.90 49.07 49.49 49.69 50.33 51.11 50.71 51.77 51.58 51.33 51.26 51.41 50.45 50.41 51.29 50.67 50.61 50.51 50.93 51.80 52.13 52.37 52.69 52.39 52.08 52.04 51.74 51.89 50.17 50.10 49.93 49.73 49.57 49.95 50.02 48.74 48.36 48.02 48.59 48.24 48.09

GFSSGP_sfc_wetblb_114.txt.gz
Wetbulb
57.46 52.95 54.50 51.32 43.11 41.55 39.73 44.49 49.82 50.84 52.02 54.86 56.08 62.66 65.67 66.36 62.96 57.33 71.65 74.14 75.19 75.77 76.25 77.15 77.46 77.85 77.70 77.01 76.73 76.40 76.42 76.10 76.18 76.15 76.42 76.57 76.23 76.19 76.29 76.51 77.01 77.17 75.98 75.33 75.00 74.05 74.54 74.35 73.98
55.60 56.03 52.78 47.13 39.16 35.09 39.07 46.27 48.29 50.91 54.34 56.38 56.21 64.07 66.95 66.33 71.39 70.48 71.32 74.57 74.99 76.01 75.91 76.05 77.51 77.57 77.52 76.96 76.50 76.25 76.23 76.23 76.01 76.10 76.33 76.65 76.25 76.31 76.53 77.00 77.04 76.87 75.62 75.18 74.77 73.81 74.23 74.02 73.72
56.59 55.46 48.12 43.49 36.28 36.22 39.56 47.22 49.44 53.46 54.76 54.93 54.83 60.53 67.74 68.43 72.29 71.71 73.37 74.52 75.52 75.52 75.86 76.03 77.31 77.37 77.49 76.76 76.30 76.25 76.00 75.98 75.96 76.08 76.33 76.39 76.37 76.14 76.27 76.70 76.91 76.59 75.74 74.79 74.10 73.87 74.22 73.94 73.90
51.79 47.53 45.44 38.51 36.54 41.26 44.38 47.98 49.91 51.44 53.32 55.05 55.82 61.31 67.18 73.22 72.54 72.77 74.35 74.76 74.29 75.11 76.01 76.89 77.13 77.13 77.26 76.81 76.41 76.22 75.95 75.96 76.01 76.10 76.20 76.36 76.46 76.33 76.21 76.30 76.68 76.65 75.80 74.69 74.13 74.43 74.59 74.41 73.99
48.32 43.18 37.80 34.30 37.89 41.37 45.50 48.52 49.85 49.01 50.40 52.73 54.87 58.21 65.24 71.74 74.14 74.10 73.96 73.55 73.38 74.37 76.17 76.47 76.83 77.00 77.18 76.96 76.31 76.28 75.90 75.72 75.95 76.05 76.17 76.36 76.38 76.30 76.23 76.25 76.26 75.99 75.86 74.97 74.48 74.77 74.69 74.29 74.04
42.93 41.62 33.08 33.01 37.60 42.40 44.04 47.12 48.14 47.88 50.34 51.30 52.96 63.09 64.87 72.28 73.03 73.64 73.96 72.51 74.69 74.31 75.70 76.48 77.23 77.10 76.77 76.63 76.22 76.01 75.82 75.74 75.95 76.04 76.07 76.23 76.07 76.25 76.31 76.12 75.93 75.51 75.39 75.24 75.09 75.03 74.78 74.43 74.23
40.79 36.57 33.41 34.00 37.77 39.99 44.65 46.34 46.13 47.76 48.36 49.51 53.71 55.70 62.48 70.02 74.06 74.94 74.38 73.40 74.77 74.73 74.90 75.82 76.40 76.76 76.77 76.31 76.02 75.87 75.52 75.35 75.34 75.51 75.54 75.61 75.88 75.83 75.76 75.66 75.40 74.96 74.73 74.90 74.95 74.72 74.40 74.27 74.18
44.03 39.43 34.32 36.27 37.65 37.93 45.00 44.91 45.96 46.76 50.59 53.75 53.66 47.99 60.30 68.76 73.98 75.34 74.54 73.80 74.24 73.84 74.09 74.97 76.03 76.16 75.34 75.15 76.24 75.86 75.57 75.32 75.01 75.28 75.40 75.31 75.44 75.43 75.51 74.46 74.41 74.71 74.65 74.60 74.52 74.22 74.22 74.07 74.07
44.60 35.64 32.28 36.09 38.85 41.19 44.21 42.65 46.71 49.42 47.37 50.78 50.79 61.91 67.46 71.09 71.97 71.69 72.98 73.35 73.37 73.35 73.45 74.41 74.76 74.47 74.27 75.06 75.58 75.71 75.84 75.47 75.21 75.33 75.20 74.16 72.92 73.36 74.14 74.11 74.15 74.37 74.49 74.46 74.34 74.14 73.72 73.65 73.77
41.13 36.05 37.28 41.08 42.45 41.96 42.27 42.91 45.75 46.11 46.64 46.97 48.87 53.36 64.70 66.23 65.00 68.14 71.73 71.83 72.21 71.72 72.40 72.75 73.86 73.61 74.13 75.01 74.75 74.12 74.47 74.05 73.71 73.64 73.52 72.67 71.77 72.06 73.27 73.95 74.16 74.26 74.20 74.34 74.35 74.22 73.98 73.79 70.56
40.27 39.27 41.61 42.41 44.94 45.21 45.02 43.07 45.39 44.76 43.05 45.74 46.53 48.69 51.65 57.11 56.61 58.66 61.46 71.98 70.75 71.57 71.56 71.50 72.52 72.56 72.83 73.39 73.97 74.07 73.77 73.38 73.31 73.34 72.92 71.61 71.62 70.97 72.13 70.87 71.47 71.58 73.41 71.19 72.31 71.57 71.63 70.48 69.73
38.41 42.77 43.83 43.86 45.83 44.73 42.38 44.82 44.86 44.66 45.19 48.04 48.65 50.02 49.88 48.31 49.72 53.11 65.06 68.52 68.73 69.32 69.76 70.48 70.65 70.96 71.63 73.10 73.42 73.60 73.53 73.22 72.97 73.12 72.86 71.47 70.14 69.06 70.09 69.53 69.53 70.16 70.54 69.69 69.03 68.61 68.34 68.52 68.87
40.02 43.31 45.06 44.97 45.23 45.61 44.94 44.51 44.12 44.65 47.65 48.12 49.88 50.48 49.03 47.94 47.99 55.38 68.62 66.91 67.61 68.60 69.34 69.12 69.82 71.14 71.93 71.86 71.86 72.39 72.51 72.59 72.75 72.83 72.79 72.10 70.04 68.83 68.90 68.56 69.04 69.56 69.35 69.23 67.93 66.79 66.45 66.12 65.92
43.89 45.46 45.60 45.03 42.92 44.94 43.94 44.76 43.35 45.11 47.89 48.36 49.27 49.64 49.26 48.62 48.65 62.09 66.54 66.14 67.52 68.96 69.33 68.31 68.40 69.65 70.56 71.01 70.84 70.18 70.92 70.71 70.57 71.04 71.66 72.01 70.01 67.98 68.41 68.47 69.08 68.47 68.93 68.58 68.04 66.54 65.79 65.32 65.04
45.82 42.10 44.05 43.55 42.75 42.04 43.63 41.81 43.17 45.90 47.31 47.37 48.20 48.86 49.91 49.98 49.86 54.91 66.81 65.65 65.49 66.96 67.50 66.89 68.25 70.30 69.83 69.91 70.97 71.50 69.84 70.13 70.20 70.25 70.45 71.59 70.47 70.24 71.22 70.13 68.95 69.03 69.43 70.04 70.00 68.88 68.49 67.28 66.61
40.74 41.33 37.88 43.19 42.96 43.90 42.95 39.42 43.75 46.51 45.14 46.07 47.71 48.31 49.36 49.87 50.20 52.08 66.57 66.36 66.00 65.74 65.96 67.14 69.52 69.60 65.65 70.20 70.84 71.94 71.47 70.10 70.37 71.18 70.46 71.24 71.26 70.92 69.70 69.35 69.41 70.30 69.53 67.93 67.16 66.40 65.60 66.42 65.30
36.28 34.52 34.03 37.72 41.74 42.68 41.39 40.65 44.33 46.61 46.59 45.73 46.40 47.97 49.05 48.98 50.16 54.46 66.52 66.35 65.46 65.03 64.68 64.75 65.43 64.69 65.76 69.44 70.11 69.74 72.11 71.20 70.13 69.39 70.07 71.33 71.84 71.19 70.29 69.77 68.98 68.81 66.58 65.17 66.37 63.25 63.81 63.23 62.71
35.04 33.21 35.34 36.44 41.05 41.53 40.97 40.08 43.12 45.33 46.02 46.12 46.60 47.82 48.48 48.77 49.67 56.40 66.74 66.36 65.45 64.52 63.71 64.20 65.61 65.45 68.35 68.13 67.73 70.98 71.61 70.40 69.10 65.77 66.76 70.29 70.68 70.08 69.02 67.15 65.52 65.72 63.57 63.72 62.14 60.34 60.88 61.56 61.48
39.53 37.18 35.97 38.98 42.75 41.69 39.93 41.15 43.37 45.64 43.99 45.17 46.15 47.80 47.69 48.54 51.04 56.05 67.31 65.96 64.64 63.45 64.30 65.78 66.72 67.30 67.95 68.45 67.53 67.93 69.75 69.48 69.50 70.26 70.85 69.76 69.50 69.24 66.54 64.57 63.40 63.11 62.83 61.32 60.84 59.07 58.81 59.83 61.49
39.56 37.26 36.35 39.69 42.87 41.66 42.18 41.32 43.89 45.19 45.36 46.46 47.16 47.57 47.95 48.65 49.86 61.01 66.18 67.09 65.07 65.07 66.47 66.61 66.69 67.91 67.84 69.17 67.28 67.90 68.16 67.75 68.61 69.08 69.61 69.93 69.55 68.11 65.49 63.41 61.94 62.25 62.23 60.63 60.30 59.58 57.78 58.05 58.50
39.07 37.08 37.31 37.10 41.93 42.19 40.72 38.08 41.60 45.39 47.41 48.38 48.90 48.80 48.55 48.68 59.60 62.96 64.36 65.87 67.11 67.28 67.08 66.27 66.27 66.63 66.67 68.70 66.85 65.64 65.18 66.07 65.69 63.99 64.05 64.85 68.64 69.34 66.29 64.04 62.77 64.56 63.17 61.31 59.89 59.68 57.59 55.71 55.37
36.31 41.69 41.26 40.37 38.12 32.53 40.76 32.16 37.93 43.08 44.44 46.93 47.95 47.95 54.41 60.61 62.07 62.21 61.83 61.98 62.24 61.91 63.23 62.73 62.21 62.58 64.38 66.56 65.38 63.62 62.06 61.70 60.93 60.20 59.67 60.64 61.00 62.24 64.39 65.70 66.28 66.44 63.14 61.92 60.97 59.64 56.58 54.61 53.25
39.26 43.77 42.24 41.31 36.96 34.60 37.03 32.53 36.36 40.43 41.49 43.83 47.26 50.37 58.68 60.30 59.88 59.01 59.07 59.40 59.66 59.96 59.56 59.78 59.94 60.23 60.75 60.48 59.56 60.30 59.69 58.77 57.33 56.77 56.82 57.13 58.83 59.49 60.62 59.51 61.23 61.76 59.71 59.00 58.10 58.08 58.47 56.93 55.14
45.77 43.62 41.95 39.79 36.00 30.02 35.88 34.43 33.58 37.60 41.26 44.33 49.10 54.98 58.34 57.51 57.79 57.80 58.13 58.32 57.74 58.25 58.13 58.48 58.14 57.68 58.38 58.48 57.36 56.76 56.19 55.03 55.22 54.50 54.31 54.23 55.11 56.73 57.47 57.33 56.23 55.62 55.26 55.50 56.34 57.85 59.00 58.77 57.73
43.99 39.41 30.27 27.13 28.00 29.15 36.83 33.72 35.64 41.06 43.82 47.61 52.45 54.94 55.54 56.14 56.18 56.52 56.46 56.75 56.35 55.96 56.08 56.80 56.57 55.58 56.07 56.28 55.75 55.63 54.92 54.44 53.94 53.49 52.99 53.14 53.14 53.27 53.49 54.17 54.07 54.03 54.13 54.14 54.25 53.95 54.62 55.25 55.79
41.60 40.22 29.44 24.45 25.09 29.30 37.29 31.56 35.97 44.07 49.44 48.38 54.20 53.90 54.76 54.33 55.43 55.77 55.75 55.85 55.43 54.98 55.02 55.33 55.24 54.67 54.82 55.53 54.22 53.83 53.76 53.90 53.50 53.08 52.84 52.55 52.28 52.62 52.91 52.92 53.27 53.82 54.54 54.23 53.20 52.75 52.72 53.17 52.91
42.42 38.90 40.76 34.02 35.88 30.88 33.25 39.03 43.00 46.44 48.08 50.59 50.91 52.03 51.57 52.16 53.08 53.10 54.17 54.53 54.68 54.69 53.93 53.51 53.40 53.75 54.10 53.67 52.80 52.87 53.13 52.95 52.55 52.41 52.64 52.52 52.57 53.81 52.40 52.17 51.22 51.21 50.74 50.39 49.28 48.98 48.79 49.03 48.59
44.64 43.76 35.49 33.46 27.24 25.17 32.09 35.99 37.71 42.57 44.93 48.85 49.22 49.80 50.67 52.19 52.28 52.76 53.20 53.14 53.43 53.20 52.23 52.33 52.22 52.24 51.91 51.74 52.16 52.31 52.45 52.66 52.07 51.91 51.39 51.50 51.30 50.85 49.94 49.47 49.01 48.97 49.18 48.93 47.73 46.97 47.51 47.46 47.20
41.80 40.66 38.69 36.20 33.47 26.46 26.70 30.85 44.17 44.29 46.27 44.98 47.91 50.19 50.34 50.77 51.74 52.51 53.00 52.85 51.39 51.45 50.78 50.04 50.44 50.27 50.06 50.83 51.14 51.40 51.62 51.93 51.69 51.10 50.85 50.85 49.82 49.08 49.06 49.22 48.71 48.60 48.41 48.25 47.20 46.63 47.36 47.67 47.08
45.64 41.55 39.45 33.62 31.77 32.94 31.83 31.43 47.87 47.84 49.18 49.21 48.78 48.72 49.17 51.30 51.83 53.02 52.48 51.14 50.29 49.53 49.57 48.89 48.81 49.44 49.36 50.22 50.93 50.90 50.70 50.64 50.39 49.92 49.97 50.22 48.65 48.54 48.68 49.02 48.87 49.06 49.31 48.63 47.38 47.31 48.22 47.75 47.50

GFSSGP_sfc_wetblb_117.txt.gz
Wetbulb
58.25 53.07 52.32 50.17 42.64 41.18 39.09 43.53 47.59 48.17 50.27 52.94 54.82 57.94 61.00 65.28 62.55 55.39 70.19 72.79 74.51 74.65 76.12 76.81 77.45 77.30 76.90 76.54 76.46 76.23 76.05 75.76 75.98 75.96 75.76 75.84 75.76 76.16 76.48 76.58 76.93 76.42 75.73 75.43 73.98 74.13 74.13 73.94 73.62
54.87 53.65 51.53 44.89 38.41 34.43 38.77 44.34 46.85 49.40 52.19 53.26 54.52 66.20 65.84 65.55 70.71 69.88 70.52 73.83 74.58 75.07 75.66 76.09 77.56 77.49 76.95 76.19 76.42 76.03 75.91 75.81 75.74 75.73 75.69 75.66 75.63 75.98 76.13 76.81 76.69 75.74 75.17 74.81 74.09 74.08 74.04 73.75 73.53
55.35 53.28 47.60 42.58 35.75 36.84 38.88 44.75 47.44 51.30 51.86 51.10 51.60 62.70 67.83 67.20 71.26 70.86 72.78 74.21 74.64 74.58 75.35 76.02 77.46 77.26 76.72 75.99 76.12 75.99 75.78 75.56 75.66 75.91 75.83 75.63 75.73 76.07 76.46 76.55 76.59 75.51 74.89 74.34 73.70 73.73 73.99 73.77 73.60
50.23 47.51 45.04 38.04 36.05 40.32 43.75 47.60 46.58 47.91 49.74 50.80 53.33 59.85 66.78 72.96 72.16 72.87 74.02 74.71 74.14 74.41 74.84 76.73 77.13 76.81 76.69 75.86 75.78 76.07 75.72 75.70 75.63 75.80 75.90 75.68 75.58 75.96 76.14 76.56 76.55 75.87 74.95 73.83 73.30 73.59 73.84 73.99 73.54
47.93 42.99 36.78 36.05 38.66 41.47 44.23 47.23 48.21 45.98 47.02 49.27 50.75 53.99 64.62 71.25 73.06 73.24 73.36 74.21 73.82 74.27 75.01 76.28 77.00 76.87 76.58 75.76 75.76 75.95 75.82 75.50 75.58 75.93 75.73 75.56 75.76 75.75 75.80 76.11 76.23 75.87 75.01 74.01 73.52 73.39 74.04 73.89 73.47
41.65 39.81 32.54 32.72 36.27 42.18 44.18 46.03 46.15 45.01 46.28 47.54 47.94 55.93 65.23 71.78 71.67 72.34 73.06 72.63 74.49 74.59 75.19 75.59 76.80 76.57 76.37 76.10 75.99 75.88 75.53 75.59 75.69 75.66 75.87 75.74 75.79 75.90 75.73 75.89 75.83 75.66 75.07 74.27 73.84 73.79 73.74 73.69 73.84
39.01 35.30 31.91 31.50 36.26 38.82 43.81 45.78 45.00 44.96 44.98 45.80 49.80 59.70 63.01 70.07 71.89 72.64 71.79 73.15 73.94 75.04 74.91 75.07 75.55 76.09 76.52 75.93 75.77 75.72 75.29 75.45 75.49 75.32 75.56 75.68 75.68 75.73 75.66 75.48 75.30 74.93 74.80 74.92 74.64 74.35 74.05 73.82 73.96
41.57 38.76 32.95 34.46 35.92 37.29 43.45 44.78 44.71 43.29 46.41 50.40 55.30 57.37 62.40 68.03 72.82 72.21 71.60 72.60 72.92 74.16 74.61 74.26 75.30 75.29 74.78 74.72 75.79 75.66 75.29 75.16 74.92 75.08 75.15 75.22 75.48 75.62 75.40 74.42 74.38 74.33 74.13 74.34 74.24 73.82 73.70 73.55 73.45
42.89 34.78 31.06 34.74 37.35 39.72 41.72 40.94 45.21 46.94 45.73 47.84 49.42 56.99 67.55 72.11 73.56 71.58 71.71 72.08 71.67 72.61 73.57 74.08 74.29 74.15 74.18 74.17 75.02 75.58 75.47 75.28 75.03 75.15 75.13 73.96 72.40 73.11 73.89 74.21 74.27 74.27 73.95 73.94 74.06 73.71 73.57 73.50 73.57
40.20 32.85 35.00 39.87 40.83 39.62 39.28 40.67 43.18 44.32 43.99 45.97 48.86 58.20 69.43 72.45 72.16 70.73 70.69 70.63 70.53 70.90 72.17 73.37 73.00 73.07 73.64 74.62 74.06 73.24 73.74 73.54 73.00 73.11 73.22 72.22 71.40 71.54 73.10 73.58 74.15 74.16 73.87 74.09 74.08 73.95 73.68 73.19 69.95
39.45 36.86 40.06 41.18 43.04 43.13 40.50 42.62 44.07 42.86 41.97 44.52 45.22 51.22 57.03 64.25 69.75 70.83 71.34 71.37 71.14 71.68 72.27 72.45 72.78 73.05 72.91 73.06 73.72 73.72 73.49 72.78 72.68 72.65 72.55 71.29 71.08 71.27 71.54 70.95 71.87 71.20 73.29 70.96 72.60 72.06 71.40 70.09 69.53
36.01 40.71 42.90 42.27 44.13 42.48 40.56 43.81 43.01 43.39 44.51 46.72 46.82 48.33 49.22 56.44 60.95 66.33 70.95 71.05 71.01 70.99 71.45 72.05 71.67 72.06 72.41 72.99 72.73 72.89 72.79 72.45 72.16 72.64 72.30 71.13 69.69 68.69 69.30 69.48 69.30 69.84 70.45 69.64 69.14 68.74 68.38 68.35 68.47
37.06 40.52 42.72 43.74 43.29 42.83 43.85 42.30 42.97 43.87 46.18 47.32 46.87 48.59 47.56 46.30 55.86 60.49 68.70 70.23 70.84 69.82 70.09 70.74 71.45 71.47 71.55 72.52 73.13 73.15 72.78 72.60 72.17 72.27 72.48 71.78 70.39 69.18 69.25 69.61 69.20 69.23 69.28 69.12 68.11 67.16 66.76 65.96 65.80
41.89 43.07 43.54 42.95 42.77 41.54 41.69 43.56 42.08 44.00 46.52 46.13 46.23 47.25 47.54 47.33 59.59 66.20 67.03 68.61 69.13 69.59 69.45 69.52 70.79 70.20 68.54 69.21 71.35 72.04 72.03 72.23 72.00 72.22 72.50 71.99 70.13 69.11 68.55 68.50 68.81 68.78 69.05 68.15 68.15 67.03 65.85 65.34 64.62
44.06 40.10 42.55 42.09 42.74 41.80 42.73 40.62 40.98 44.91 46.07 45.32 45.51 46.33 47.81 47.99 62.39 63.74 66.27 67.45 68.89 69.19 69.42 68.62 70.04 70.16 69.60 70.06 70.25 69.70 70.08 71.38 71.24 71.08 71.54 71.97 70.43 68.67 68.10 68.55 68.15 68.76 68.92 68.04 68.06 67.86 66.96 65.38 66.18
38.28 39.68 36.65 39.77 41.79 42.25 41.95 37.49 42.61 45.01 44.17 44.34 45.65 46.05 47.08 47.39 51.51 63.33 65.80 67.45 68.74 68.85 68.10 68.61 70.18 68.54 67.88 69.80 70.36 70.80 69.46 69.16 69.59 69.88 69.79 71.02 70.91 70.17 69.40 69.23 68.40 69.26 68.15 67.61 67.18 66.03 65.98 65.51 64.40
35.49 30.01 32.47 37.30 41.27 41.60 40.07 37.11 43.54 45.00 43.54 43.47 44.08 45.16 46.58 46.86 47.70 60.52 65.78 66.60 67.23 67.98 67.75 67.24 67.43 66.96 66.06 68.85 69.19 69.56 70.31 69.54 69.95 70.09 69.39 69.69 70.56 70.60 69.25 68.44 68.19 68.33 66.88 66.05 65.60 62.34 63.38 62.19 61.06
32.23 31.08 35.37 35.19 39.46 40.02 39.66 36.75 41.75 43.72 43.11 43.12 44.03 44.43 45.71 46.77 48.14 56.61 65.09 66.20 66.46 66.88 67.35 66.25 64.21 63.03 65.04 67.93 67.79 69.12 70.77 69.14 68.51 68.31 69.44 70.31 70.82 70.30 69.07 66.12 66.32 65.74 64.08 63.45 62.37 60.65 61.64 61.81 60.62
38.07 36.89 34.53 36.74 41.19 39.59 37.75 38.00 40.62 43.22 42.50 42.07 42.92 43.94 45.28 46.38 48.41 61.13 64.67 65.84 65.88 65.09 63.22 62.61 63.06 63.50 65.92 65.74 66.61 67.18 65.87 67.04 67.50 66.53 67.40 69.44 69.56 69.42 67.14 64.76 63.91 63.44 62.36 61.67 60.96 59.96 59.43 59.45 59.87
38.86 35.18 33.88 37.60 41.00 38.69 38.68 38.97 41.85 43.63 43.24 42.62 43.63 43.66 45.04 45.92 49.78 63.19 63.84 64.83 64.25 63.45 62.96 63.38 64.54 65.98 66.31 66.71 66.96 67.68 66.93 66.07 67.49 67.61 68.11 68.76 69.13 67.88 65.62 63.62 62.34 61.63 60.46 59.99 59.18 58.41 57.43 57.09 58.43
37.98 36.42 34.55 35.10 40.12 39.58 38.23 36.17 39.02 43.41 44.38 44.46 44.45 45.62 45.78 46.02 54.95 62.95 63.08 62.66 62.02 62.11 63.27 64.39 64.90 65.72 66.13 67.52 65.69 64.86 65.51 64.68 62.27 61.69 62.15 63.97 66.16 68.29 65.90 64.23 62.32 62.39 60.90 59.70 59.19 58.87 57.63 56.18 54.69
35.37 40.29 39.02 38.15 35.64 29.62 38.62 27.87 35.75 39.89 42.57 43.73 45.56 44.86 48.93 58.80 60.18 63.34 63.68 62.26 62.30 62.73 63.01 62.96 65.88 65.36 67.00 66.42 63.81 63.28 62.26 60.08 58.36 58.00 58.50 59.21 60.55 61.13 63.55 66.03 64.85 65.56 63.35 63.56 62.89 62.01 57.10 54.18 52.45
38.34 42.10 39.45 38.48 34.27 32.37 34.53 30.66 35.07 38.34 39.07 41.07 43.75 54.79 57.82 59.62 61.18 62.58 63.47 59.77 60.31 60.76 59.76 59.64 60.08 60.48 61.42 61.50 62.01 61.44 58.28 57.68 56.49 56.21 56.39 56.42 57.09 57.86 58.12 57.76 58.83 58.29 58.80 58.25 57.99 57.79 56.82 57.00 57.27
43.45 40.24 37.99 35.95 32.53 27.08 32.51 32.43 32.32 36.02 40.12 41.24 49.38 56.92 57.50 57.40 57.53 57.53 58.37 58.79 57.91 58.32 57.95 57.91 58.38 57.65 58.03 58.54 58.45 57.32 56.26 55.83 54.63 53.57 54.33 54.16 54.39 54.61 55.32 55.67 54.45 53.57 53.28 53.38 53.70 54.07 53.90 54.38 55.51
41.41 36.02 26.17 24.38 24.05 26.51 34.13 31.83 34.44 40.42 43.28 45.82 53.19 54.86 55.98 56.29 56.19 56.36 56.13 56.25 56.41 56.23 56.37 56.94 56.42 55.20 55.86 56.39 56.23 56.69 55.04 54.08 52.72 52.53 52.70 52.61 52.38 51.97 52.42 52.78 52.65 52.77 53.09 53.17 52.46 51.46 51.58 51.61 51.24
37.69 35.67 27.13 21.97 23.21 26.95 35.35 29.99 34.79 42.35 46.68 48.62 55.57 54.81 55.44 55.00 54.96 54.88 55.47 55.75 55.52 55.59 56.13 55.49 55.42 54.39 54.77 54.55 54.49 55.04 54.39 53.29 52.44 52.27 52.04 51.29 51.09 51.16 51.52 51.92 51.90 51.53 51.10 50.41 48.90 48.66 48.56 49.47 48.16
38.33 35.80 38.60 31.88 33.96 27.48 31.40 36.34 43.44 47.01 47.87 51.95 52.55 53.89 53.00 53.22 53.56 53.85 54.59 54.98 54.66 54.35 54.57 54.15 54.20 53.11 52.88 52.47 52.55 52.22 52.40 52.30 51.35 51.20 51.08 51.08 50.74 52.08 50.77 50.08 49.17 49.07 49.10 48.69 47.48 46.22 46.27 46.37 46.05
43.03 42.15 33.78 32.76 25.70 23.56 30.87 34.40 35.31 41.90 43.93 48.43 50.20 50.09 50.12 51.70 52.48 52.87 53.38 53.77 53.75 53.24 52.12 51.97 52.27 51.61 51.13 51.62 51.82 51.97 51.77 51.55 50.90 50.63 50.27 50.14 50.00 49.29 48.78 48.17 47.69 47.57 47.78 47.70 46.86 45.98 46.26 46.23 46.39
41.06 39.47 38.89 36.25 33.08 26.99 27.67 32.08 43.01 42.64 44.22 45.98 47.28 48.58 49.81 50.70 51.57 52.49 52.93 52.92 51.62 51.14 51.05 50.74 50.11 49.60 49.58 50.47 50.37 51.02 51.02 51.12 50.86 50.49 50.20 49.81 48.87 48.26 48.01 48.20 47.91 47.71 47.69 47.55 46.72 46.33 46.69 46.60 46.63
44.05 40.11 39.67 30.46 29.11 31.92 31.95 31.57 45.82 45.32 44.98 47.11 47.81 48.86 49.86 50.94 51.38 51.45 51.58 50.34 49.66 49.53 49.67 49.22 48.79 48.27 48.45 49.88 50.22 49.92 50.17 50.31 49.51 48.89 49.04 49.37 47.99 47.45 47.78 48.19 48.11 48.17 48.16 47.83 46.97 46.58 47.12 46.88 46.46